<?xml version="1.0" encoding="UTF-8" standalone="no" ?>
<gpx xmlns="http://www.topografix.com/GPX/1/1" xmlns:xsi="http://www.w3.org/2001/XMLSchema-instance" xsi:schemaLocation="http://www.topografix.com/GPX/1/1 http://www.topografix.com/GPX/1/1/gpx.xsd" version="1.1" creator="VisuGPX - https://www.visugpx.com">
  <metadata>
    <name>Pornichet 31/03/2022</name>
    <desc><![CDATA[Sortie jeudi 31 mars 2022]]></desc>
  </metadata>
  <trk>
    <name><![CDATA[Pornichet Cyclisme]]></name>
    <trkseg>
      <trkpt lat="47.26314" lon="-2.31626">
        <ele>60.400001525879</ele>
        <time>2022-03-31T07:17:42.000Z</time>
      </trkpt>
      <trkpt lat="47.26313" lon="-2.3165">
        <ele>60.400001525879</ele>
        <time>2022-03-31T07:17:45.000Z</time>
      </trkpt>
      <trkpt lat="47.26313" lon="-2.31658">
        <ele>60.400001525879</ele>
        <time>2022-03-31T07:17:46.000Z</time>
      </trkpt>
      <trkpt lat="47.26311" lon="-2.31668">
        <ele>60.400001525879</ele>
        <time>2022-03-31T07:17:48.000Z</time>
      </trkpt>
      <trkpt lat="47.26302" lon="-2.31675">
        <ele>60.400001525879</ele>
        <time>2022-03-31T07:17:52.000Z</time>
      </trkpt>
      <trkpt lat="47.26288" lon="-2.31683">
        <ele>60.400001525879</ele>
        <time>2022-03-31T07:17:56.000Z</time>
      </trkpt>
      <trkpt lat="47.26281" lon="-2.31688">
        <ele>60.400001525879</ele>
        <time>2022-03-31T07:17:58.000Z</time>
      </trkpt>
      <trkpt lat="47.26261" lon="-2.31698">
        <ele>60.400001525879</ele>
        <time>2022-03-31T07:18:03.000Z</time>
      </trkpt>
      <trkpt lat="47.26247" lon="-2.31708">
        <ele>59.799999237061</ele>
        <time>2022-03-31T07:18:07.000Z</time>
      </trkpt>
      <trkpt lat="47.26244" lon="-2.3171">
        <ele>59.400001525879</ele>
        <time>2022-03-31T07:18:08.000Z</time>
      </trkpt>
      <trkpt lat="47.26242" lon="-2.31713">
        <ele>59</ele>
        <time>2022-03-31T07:18:09.000Z</time>
      </trkpt>
      <trkpt lat="47.26241" lon="-2.31716">
        <ele>58.599998474121</ele>
        <time>2022-03-31T07:18:10.000Z</time>
      </trkpt>
      <trkpt lat="47.2624" lon="-2.3172">
        <ele>58.200000762939</ele>
        <time>2022-03-31T07:18:11.000Z</time>
      </trkpt>
      <trkpt lat="47.26238" lon="-2.31723">
        <ele>58.200000762939</ele>
        <time>2022-03-31T07:18:12.000Z</time>
      </trkpt>
      <trkpt lat="47.26231" lon="-2.31727">
        <ele>58.200000762939</ele>
        <time>2022-03-31T07:18:14.000Z</time>
      </trkpt>
      <trkpt lat="47.26224" lon="-2.31732">
        <ele>58.200000762939</ele>
        <time>2022-03-31T07:18:16.000Z</time>
      </trkpt>
      <trkpt lat="47.26216" lon="-2.31739">
        <ele>58.200000762939</ele>
        <time>2022-03-31T07:18:18.000Z</time>
      </trkpt>
      <trkpt lat="47.26213" lon="-2.31743">
        <ele>57.599998474121</ele>
        <time>2022-03-31T07:18:19.000Z</time>
      </trkpt>
      <trkpt lat="47.26212" lon="-2.31749">
        <ele>57.200000762939</ele>
        <time>2022-03-31T07:18:20.000Z</time>
      </trkpt>
      <trkpt lat="47.26212" lon="-2.31755">
        <ele>56.799999237061</ele>
        <time>2022-03-31T07:18:21.000Z</time>
      </trkpt>
      <trkpt lat="47.26212" lon="-2.31762">
        <ele>56.400001525879</ele>
        <time>2022-03-31T07:18:22.000Z</time>
      </trkpt>
      <trkpt lat="47.26213" lon="-2.31768">
        <ele>55.799999237061</ele>
        <time>2022-03-31T07:18:23.000Z</time>
      </trkpt>
      <trkpt lat="47.26214" lon="-2.31775">
        <ele>55.799999237061</ele>
        <time>2022-03-31T07:18:24.000Z</time>
      </trkpt>
      <trkpt lat="47.26217" lon="-2.31813">
        <ele>55.799999237061</ele>
        <time>2022-03-31T07:18:30.000Z</time>
      </trkpt>
      <trkpt lat="47.26215" lon="-2.31853">
        <ele>55.799999237061</ele>
        <time>2022-03-31T07:18:36.000Z</time>
      </trkpt>
      <trkpt lat="47.26212" lon="-2.31891">
        <ele>55.799999237061</ele>
        <time>2022-03-31T07:18:42.000Z</time>
      </trkpt>
      <trkpt lat="47.26208" lon="-2.31911">
        <ele>55.799999237061</ele>
        <time>2022-03-31T07:18:46.000Z</time>
      </trkpt>
      <trkpt lat="47.26205" lon="-2.31914">
        <ele>55.799999237061</ele>
        <time>2022-03-31T07:18:47.000Z</time>
      </trkpt>
      <trkpt lat="47.26186" lon="-2.31933">
        <ele>55.799999237061</ele>
        <time>2022-03-31T07:18:53.000Z</time>
      </trkpt>
      <trkpt lat="47.26172" lon="-2.31961">
        <ele>55.799999237061</ele>
        <time>2022-03-31T07:18:59.000Z</time>
      </trkpt>
      <trkpt lat="47.2616" lon="-2.31987">
        <ele>55.799999237061</ele>
        <time>2022-03-31T07:19:05.000Z</time>
      </trkpt>
      <trkpt lat="47.26158" lon="-2.31989">
        <ele>55.799999237061</ele>
        <time>2022-03-31T07:19:06.000Z</time>
      </trkpt>
      <trkpt lat="47.26153" lon="-2.31991">
        <ele>55.799999237061</ele>
        <time>2022-03-31T07:19:08.000Z</time>
      </trkpt>
      <trkpt lat="47.26143" lon="-2.31999">
        <ele>55.799999237061</ele>
        <time>2022-03-31T07:19:12.000Z</time>
      </trkpt>
      <trkpt lat="47.26126" lon="-2.32019">
        <ele>55.799999237061</ele>
        <time>2022-03-31T07:19:19.000Z</time>
      </trkpt>
      <trkpt lat="47.26125" lon="-2.32023">
        <ele>55.400001525879</ele>
        <time>2022-03-31T07:19:20.000Z</time>
      </trkpt>
      <trkpt lat="47.26124" lon="-2.32027">
        <ele>55</ele>
        <time>2022-03-31T07:19:21.000Z</time>
      </trkpt>
      <trkpt lat="47.26124" lon="-2.32031">
        <ele>54.599998474121</ele>
        <time>2022-03-31T07:19:22.000Z</time>
      </trkpt>
      <trkpt lat="47.26124" lon="-2.32035">
        <ele>54.200000762939</ele>
        <time>2022-03-31T07:19:23.000Z</time>
      </trkpt>
      <trkpt lat="47.26123" lon="-2.32038">
        <ele>53.799999237061</ele>
        <time>2022-03-31T07:19:24.000Z</time>
      </trkpt>
      <trkpt lat="47.26122" lon="-2.3204">
        <ele>53.799999237061</ele>
        <time>2022-03-31T07:19:25.000Z</time>
      </trkpt>
      <trkpt lat="47.26121" lon="-2.3204">
        <ele>53.799999237061</ele>
        <time>2022-03-31T07:19:26.000Z</time>
      </trkpt>
      <trkpt lat="47.26115" lon="-2.3204">
        <ele>53.799999237061</ele>
        <time>2022-03-31T07:19:29.000Z</time>
      </trkpt>
      <trkpt lat="47.26109" lon="-2.32041">
        <ele>53.799999237061</ele>
        <time>2022-03-31T07:19:31.000Z</time>
      </trkpt>
      <trkpt lat="47.26092" lon="-2.32052">
        <ele>53.799999237061</ele>
        <time>2022-03-31T07:19:36.000Z</time>
      </trkpt>
      <trkpt lat="47.26089" lon="-2.32056">
        <ele>53.799999237061</ele>
        <time>2022-03-31T07:19:37.000Z</time>
      </trkpt>
      <trkpt lat="47.26083" lon="-2.32065">
        <ele>53.799999237061</ele>
        <time>2022-03-31T07:19:39.000Z</time>
      </trkpt>
      <trkpt lat="47.26079" lon="-2.32076">
        <ele>53.799999237061</ele>
        <time>2022-03-31T07:19:41.000Z</time>
      </trkpt>
      <trkpt lat="47.26064" lon="-2.32129">
        <ele>53.799999237061</ele>
        <time>2022-03-31T07:19:50.000Z</time>
      </trkpt>
      <trkpt lat="47.26051" lon="-2.32168">
        <ele>53.799999237061</ele>
        <time>2022-03-31T07:19:57.000Z</time>
      </trkpt>
      <trkpt lat="47.26043" lon="-2.32191">
        <ele>53.799999237061</ele>
        <time>2022-03-31T07:20:01.000Z</time>
      </trkpt>
      <trkpt lat="47.26039" lon="-2.32202">
        <ele>53.799999237061</ele>
        <time>2022-03-31T07:20:03.000Z</time>
      </trkpt>
      <trkpt lat="47.26035" lon="-2.32212">
        <ele>53.799999237061</ele>
        <time>2022-03-31T07:20:05.000Z</time>
      </trkpt>
      <trkpt lat="47.26025" lon="-2.32234">
        <ele>53.799999237061</ele>
        <time>2022-03-31T07:20:09.000Z</time>
      </trkpt>
      <trkpt lat="47.26022" lon="-2.32239">
        <ele>53.799999237061</ele>
        <time>2022-03-31T07:20:10.000Z</time>
      </trkpt>
      <trkpt lat="47.26018" lon="-2.32257">
        <ele>53.799999237061</ele>
        <time>2022-03-31T07:20:17.000Z</time>
      </trkpt>
      <trkpt lat="47.26008" lon="-2.32279">
        <ele>53.799999237061</ele>
        <time>2022-03-31T07:20:25.000Z</time>
      </trkpt>
      <trkpt lat="47.25988" lon="-2.32309">
        <ele>53.799999237061</ele>
        <time>2022-03-31T07:20:34.000Z</time>
      </trkpt>
      <trkpt lat="47.25979" lon="-2.32326">
        <ele>53.799999237061</ele>
        <time>2022-03-31T07:20:40.000Z</time>
      </trkpt>
      <trkpt lat="47.25973" lon="-2.32338">
        <ele>53.799999237061</ele>
        <time>2022-03-31T07:20:45.000Z</time>
      </trkpt>
      <trkpt lat="47.25955" lon="-2.32364">
        <ele>53.799999237061</ele>
        <time>2022-03-31T07:20:52.000Z</time>
      </trkpt>
      <trkpt lat="47.25931" lon="-2.32402">
        <ele>53.799999237061</ele>
        <time>2022-03-31T07:21:01.000Z</time>
      </trkpt>
      <trkpt lat="47.25911" lon="-2.32435">
        <ele>53.799999237061</ele>
        <time>2022-03-31T07:21:09.000Z</time>
      </trkpt>
      <trkpt lat="47.25907" lon="-2.32447">
        <ele>54.400001525879</ele>
        <time>2022-03-31T07:21:12.000Z</time>
      </trkpt>
      <trkpt lat="47.25908" lon="-2.32451">
        <ele>54.799999237061</ele>
        <time>2022-03-31T07:21:13.000Z</time>
      </trkpt>
      <trkpt lat="47.2591" lon="-2.32455">
        <ele>55.200000762939</ele>
        <time>2022-03-31T07:21:14.000Z</time>
      </trkpt>
      <trkpt lat="47.25914" lon="-2.32457">
        <ele>55.599998474121</ele>
        <time>2022-03-31T07:21:15.000Z</time>
      </trkpt>
      <trkpt lat="47.25917" lon="-2.3246">
        <ele>56</ele>
        <time>2022-03-31T07:21:16.000Z</time>
      </trkpt>
      <trkpt lat="47.25921" lon="-2.32463">
        <ele>56</ele>
        <time>2022-03-31T07:21:17.000Z</time>
      </trkpt>
      <trkpt lat="47.2593" lon="-2.32477">
        <ele>56</ele>
        <time>2022-03-31T07:21:20.000Z</time>
      </trkpt>
      <trkpt lat="47.25932" lon="-2.32482">
        <ele>56</ele>
        <time>2022-03-31T07:21:21.000Z</time>
      </trkpt>
      <trkpt lat="47.25934" lon="-2.32488">
        <ele>56</ele>
        <time>2022-03-31T07:21:22.000Z</time>
      </trkpt>
      <trkpt lat="47.25947" lon="-2.32526">
        <ele>56</ele>
        <time>2022-03-31T07:21:29.000Z</time>
      </trkpt>
      <trkpt lat="47.2596" lon="-2.32573">
        <ele>56</ele>
        <time>2022-03-31T07:21:37.000Z</time>
      </trkpt>
      <trkpt lat="47.25966" lon="-2.32616">
        <ele>56</ele>
        <time>2022-03-31T07:21:44.000Z</time>
      </trkpt>
      <trkpt lat="47.2597" lon="-2.3264">
        <ele>56</ele>
        <time>2022-03-31T07:21:49.000Z</time>
      </trkpt>
      <trkpt lat="47.25985" lon="-2.32639">
        <ele>56</ele>
        <time>2022-03-31T07:21:53.000Z</time>
      </trkpt>
      <trkpt lat="47.25989" lon="-2.3264">
        <ele>56.400001525879</ele>
        <time>2022-03-31T07:21:54.000Z</time>
      </trkpt>
      <trkpt lat="47.25993" lon="-2.3264">
        <ele>56.799999237061</ele>
        <time>2022-03-31T07:21:55.000Z</time>
      </trkpt>
      <trkpt lat="47.25997" lon="-2.32639">
        <ele>57.200000762939</ele>
        <time>2022-03-31T07:21:56.000Z</time>
      </trkpt>
      <trkpt lat="47.26" lon="-2.32639">
        <ele>57.599998474121</ele>
        <time>2022-03-31T07:21:57.000Z</time>
      </trkpt>
      <trkpt lat="47.26004" lon="-2.32638">
        <ele>58</ele>
        <time>2022-03-31T07:21:58.000Z</time>
      </trkpt>
      <trkpt lat="47.26008" lon="-2.32638">
        <ele>58</ele>
        <time>2022-03-31T07:21:59.000Z</time>
      </trkpt>
      <trkpt lat="47.26032" lon="-2.32634">
        <ele>58</ele>
        <time>2022-03-31T07:22:05.000Z</time>
      </trkpt>
      <trkpt lat="47.26055" lon="-2.32632">
        <ele>58.400001525879</ele>
        <time>2022-03-31T07:22:11.000Z</time>
      </trkpt>
      <trkpt lat="47.26059" lon="-2.32631">
        <ele>58.799999237061</ele>
        <time>2022-03-31T07:22:12.000Z</time>
      </trkpt>
      <trkpt lat="47.26063" lon="-2.3263">
        <ele>59.200000762939</ele>
        <time>2022-03-31T07:22:13.000Z</time>
      </trkpt>
      <trkpt lat="47.26067" lon="-2.3263">
        <ele>59.799999237061</ele>
        <time>2022-03-31T07:22:14.000Z</time>
      </trkpt>
      <trkpt lat="47.26072" lon="-2.32629">
        <ele>60.200000762939</ele>
        <time>2022-03-31T07:22:15.000Z</time>
      </trkpt>
      <trkpt lat="47.26096" lon="-2.32627">
        <ele>60.200000762939</ele>
        <time>2022-03-31T07:22:21.000Z</time>
      </trkpt>
      <trkpt lat="47.26133" lon="-2.32628">
        <ele>60.200000762939</ele>
        <time>2022-03-31T07:22:30.000Z</time>
      </trkpt>
      <trkpt lat="47.26137" lon="-2.32629">
        <ele>60.200000762939</ele>
        <time>2022-03-31T07:22:31.000Z</time>
      </trkpt>
      <trkpt lat="47.26141" lon="-2.3263">
        <ele>60.599998474121</ele>
        <time>2022-03-31T07:22:32.000Z</time>
      </trkpt>
      <trkpt lat="47.26145" lon="-2.32632">
        <ele>61</ele>
        <time>2022-03-31T07:22:33.000Z</time>
      </trkpt>
      <trkpt lat="47.26149" lon="-2.32633">
        <ele>61.799999237061</ele>
        <time>2022-03-31T07:22:34.000Z</time>
      </trkpt>
      <trkpt lat="47.26153" lon="-2.32635">
        <ele>62.200000762939</ele>
        <time>2022-03-31T07:22:35.000Z</time>
      </trkpt>
      <trkpt lat="47.26158" lon="-2.32637">
        <ele>62.200000762939</ele>
        <time>2022-03-31T07:22:36.000Z</time>
      </trkpt>
      <trkpt lat="47.26182" lon="-2.32652">
        <ele>62.200000762939</ele>
        <time>2022-03-31T07:22:42.000Z</time>
      </trkpt>
      <trkpt lat="47.26212" lon="-2.32684">
        <ele>62.200000762939</ele>
        <time>2022-03-31T07:22:50.000Z</time>
      </trkpt>
      <trkpt lat="47.26235" lon="-2.32715">
        <ele>62.200000762939</ele>
        <time>2022-03-31T07:22:56.000Z</time>
      </trkpt>
      <trkpt lat="47.26265" lon="-2.32762">
        <ele>62.200000762939</ele>
        <time>2022-03-31T07:23:04.000Z</time>
      </trkpt>
      <trkpt lat="47.26284" lon="-2.3281">
        <ele>62.200000762939</ele>
        <time>2022-03-31T07:23:11.000Z</time>
      </trkpt>
      <trkpt lat="47.26288" lon="-2.32832">
        <ele>62.200000762939</ele>
        <time>2022-03-31T07:23:14.000Z</time>
      </trkpt>
      <trkpt lat="47.26291" lon="-2.32847">
        <ele>62.200000762939</ele>
        <time>2022-03-31T07:23:16.000Z</time>
      </trkpt>
      <trkpt lat="47.26294" lon="-2.32853">
        <ele>62.200000762939</ele>
        <time>2022-03-31T07:23:17.000Z</time>
      </trkpt>
      <trkpt lat="47.26307" lon="-2.32863">
        <ele>62.200000762939</ele>
        <time>2022-03-31T07:23:20.000Z</time>
      </trkpt>
      <trkpt lat="47.26312" lon="-2.32865">
        <ele>62.200000762939</ele>
        <time>2022-03-31T07:23:21.000Z</time>
      </trkpt>
      <trkpt lat="47.26316" lon="-2.32869">
        <ele>62.200000762939</ele>
        <time>2022-03-31T07:23:22.000Z</time>
      </trkpt>
      <trkpt lat="47.26323" lon="-2.32881">
        <ele>62.200000762939</ele>
        <time>2022-03-31T07:23:24.000Z</time>
      </trkpt>
      <trkpt lat="47.26327" lon="-2.32894">
        <ele>62.200000762939</ele>
        <time>2022-03-31T07:23:26.000Z</time>
      </trkpt>
      <trkpt lat="47.26338" lon="-2.32929">
        <ele>62.200000762939</ele>
        <time>2022-03-31T07:23:31.000Z</time>
      </trkpt>
      <trkpt lat="47.26354" lon="-2.32974">
        <ele>62.200000762939</ele>
        <time>2022-03-31T07:23:38.000Z</time>
      </trkpt>
      <trkpt lat="47.26364" lon="-2.32988">
        <ele>62.200000762939</ele>
        <time>2022-03-31T07:23:41.000Z</time>
      </trkpt>
      <trkpt lat="47.26366" lon="-2.32995">
        <ele>62.200000762939</ele>
        <time>2022-03-31T07:23:42.000Z</time>
      </trkpt>
      <trkpt lat="47.26368" lon="-2.33016">
        <ele>62.200000762939</ele>
        <time>2022-03-31T07:23:45.000Z</time>
      </trkpt>
      <trkpt lat="47.26368" lon="-2.33023">
        <ele>62.200000762939</ele>
        <time>2022-03-31T07:23:46.000Z</time>
      </trkpt>
      <trkpt lat="47.26368" lon="-2.33038">
        <ele>62.200000762939</ele>
        <time>2022-03-31T07:23:48.000Z</time>
      </trkpt>
      <trkpt lat="47.26369" lon="-2.33075">
        <ele>62.200000762939</ele>
        <time>2022-03-31T07:23:53.000Z</time>
      </trkpt>
      <trkpt lat="47.26369" lon="-2.3309">
        <ele>62.599998474121</ele>
        <time>2022-03-31T07:23:55.000Z</time>
      </trkpt>
      <trkpt lat="47.2637" lon="-2.33097">
        <ele>63</ele>
        <time>2022-03-31T07:23:56.000Z</time>
      </trkpt>
      <trkpt lat="47.2637" lon="-2.33105">
        <ele>63.400001525879</ele>
        <time>2022-03-31T07:23:57.000Z</time>
      </trkpt>
      <trkpt lat="47.26371" lon="-2.33112">
        <ele>63.799999237061</ele>
        <time>2022-03-31T07:23:58.000Z</time>
      </trkpt>
      <trkpt lat="47.26372" lon="-2.33119">
        <ele>64.199996948242</ele>
        <time>2022-03-31T07:23:59.000Z</time>
      </trkpt>
      <trkpt lat="47.26373" lon="-2.33125">
        <ele>64.199996948242</ele>
        <time>2022-03-31T07:24:00.000Z</time>
      </trkpt>
      <trkpt lat="47.26375" lon="-2.33176">
        <ele>64.199996948242</ele>
        <time>2022-03-31T07:24:07.000Z</time>
      </trkpt>
      <trkpt lat="47.2638" lon="-2.33241">
        <ele>64.199996948242</ele>
        <time>2022-03-31T07:24:16.000Z</time>
      </trkpt>
      <trkpt lat="47.26382" lon="-2.33248">
        <ele>64.199996948242</ele>
        <time>2022-03-31T07:24:17.000Z</time>
      </trkpt>
      <trkpt lat="47.2639" lon="-2.33263">
        <ele>64.199996948242</ele>
        <time>2022-03-31T07:24:20.000Z</time>
      </trkpt>
      <trkpt lat="47.26403" lon="-2.33273">
        <ele>64.199996948242</ele>
        <time>2022-03-31T07:24:23.000Z</time>
      </trkpt>
      <trkpt lat="47.26408" lon="-2.33275">
        <ele>64.199996948242</ele>
        <time>2022-03-31T07:24:24.000Z</time>
      </trkpt>
      <trkpt lat="47.26428" lon="-2.33276">
        <ele>64.599998474121</ele>
        <time>2022-03-31T07:24:28.000Z</time>
      </trkpt>
      <trkpt lat="47.26433" lon="-2.33277">
        <ele>65</ele>
        <time>2022-03-31T07:24:29.000Z</time>
      </trkpt>
      <trkpt lat="47.26438" lon="-2.33277">
        <ele>65.400001525879</ele>
        <time>2022-03-31T07:24:30.000Z</time>
      </trkpt>
      <trkpt lat="47.26443" lon="-2.33278">
        <ele>65.800003051758</ele>
        <time>2022-03-31T07:24:31.000Z</time>
      </trkpt>
      <trkpt lat="47.26448" lon="-2.33278">
        <ele>66.199996948242</ele>
        <time>2022-03-31T07:24:32.000Z</time>
      </trkpt>
      <trkpt lat="47.26463" lon="-2.3328">
        <ele>66.199996948242</ele>
        <time>2022-03-31T07:24:35.000Z</time>
      </trkpt>
      <trkpt lat="47.26473" lon="-2.33279">
        <ele>66.199996948242</ele>
        <time>2022-03-31T07:24:37.000Z</time>
      </trkpt>
      <trkpt lat="47.26502" lon="-2.33283">
        <ele>66.199996948242</ele>
        <time>2022-03-31T07:24:44.000Z</time>
      </trkpt>
      <trkpt lat="47.26504" lon="-2.33286">
        <ele>66.199996948242</ele>
        <time>2022-03-31T07:24:47.000Z</time>
      </trkpt>
      <trkpt lat="47.26506" lon="-2.33287">
        <ele>66.199996948242</ele>
        <time>2022-03-31T07:24:48.000Z</time>
      </trkpt>
      <trkpt lat="47.26513" lon="-2.33291">
        <ele>66.199996948242</ele>
        <time>2022-03-31T07:24:52.000Z</time>
      </trkpt>
      <trkpt lat="47.26521" lon="-2.33303">
        <ele>66.199996948242</ele>
        <time>2022-03-31T07:24:55.000Z</time>
      </trkpt>
      <trkpt lat="47.26523" lon="-2.33309">
        <ele>66.199996948242</ele>
        <time>2022-03-31T07:24:56.000Z</time>
      </trkpt>
      <trkpt lat="47.26525" lon="-2.33335">
        <ele>66.199996948242</ele>
        <time>2022-03-31T07:25:00.000Z</time>
      </trkpt>
      <trkpt lat="47.26526" lon="-2.33342">
        <ele>66.599998474121</ele>
        <time>2022-03-31T07:25:01.000Z</time>
      </trkpt>
      <trkpt lat="47.26526" lon="-2.33349">
        <ele>67</ele>
        <time>2022-03-31T07:25:02.000Z</time>
      </trkpt>
      <trkpt lat="47.26528" lon="-2.33357">
        <ele>68</ele>
        <time>2022-03-31T07:25:03.000Z</time>
      </trkpt>
      <trkpt lat="47.26529" lon="-2.33364">
        <ele>68.400001525879</ele>
        <time>2022-03-31T07:25:04.000Z</time>
      </trkpt>
      <trkpt lat="47.26531" lon="-2.33371">
        <ele>68.400001525879</ele>
        <time>2022-03-31T07:25:05.000Z</time>
      </trkpt>
      <trkpt lat="47.26542" lon="-2.33419">
        <ele>68.400001525879</ele>
        <time>2022-03-31T07:25:12.000Z</time>
      </trkpt>
      <trkpt lat="47.26556" lon="-2.33475">
        <ele>68.400001525879</ele>
        <time>2022-03-31T07:25:20.000Z</time>
      </trkpt>
      <trkpt lat="47.26558" lon="-2.33489">
        <ele>68.400001525879</ele>
        <time>2022-03-31T07:25:22.000Z</time>
      </trkpt>
      <trkpt lat="47.26561" lon="-2.3351">
        <ele>68.400001525879</ele>
        <time>2022-03-31T07:25:25.000Z</time>
      </trkpt>
      <trkpt lat="47.26566" lon="-2.33542">
        <ele>68.800003051758</ele>
        <time>2022-03-31T07:25:30.000Z</time>
      </trkpt>
      <trkpt lat="47.26567" lon="-2.33549">
        <ele>69.199996948242</ele>
        <time>2022-03-31T07:25:31.000Z</time>
      </trkpt>
      <trkpt lat="47.26568" lon="-2.33556">
        <ele>69.599998474121</ele>
        <time>2022-03-31T07:25:32.000Z</time>
      </trkpt>
      <trkpt lat="47.26569" lon="-2.33563">
        <ele>70</ele>
        <time>2022-03-31T07:25:33.000Z</time>
      </trkpt>
      <trkpt lat="47.2657" lon="-2.3357">
        <ele>70.400001525879</ele>
        <time>2022-03-31T07:25:34.000Z</time>
      </trkpt>
      <trkpt lat="47.26574" lon="-2.33595">
        <ele>70.400001525879</ele>
        <time>2022-03-31T07:25:38.000Z</time>
      </trkpt>
      <trkpt lat="47.26576" lon="-2.33608">
        <ele>70.400001525879</ele>
        <time>2022-03-31T07:25:40.000Z</time>
      </trkpt>
      <trkpt lat="47.26578" lon="-2.3362">
        <ele>70.400001525879</ele>
        <time>2022-03-31T07:25:42.000Z</time>
      </trkpt>
      <trkpt lat="47.26578" lon="-2.33631">
        <ele>70.400001525879</ele>
        <time>2022-03-31T07:25:44.000Z</time>
      </trkpt>
      <trkpt lat="47.26578" lon="-2.33637">
        <ele>70.400001525879</ele>
        <time>2022-03-31T07:25:45.000Z</time>
      </trkpt>
      <trkpt lat="47.26578" lon="-2.33642">
        <ele>70.800003051758</ele>
        <time>2022-03-31T07:25:46.000Z</time>
      </trkpt>
      <trkpt lat="47.26578" lon="-2.33647">
        <ele>71.199996948242</ele>
        <time>2022-03-31T07:25:47.000Z</time>
      </trkpt>
      <trkpt lat="47.26578" lon="-2.33652">
        <ele>71.599998474121</ele>
        <time>2022-03-31T07:25:48.000Z</time>
      </trkpt>
      <trkpt lat="47.26579" lon="-2.33657">
        <ele>72</ele>
        <time>2022-03-31T07:25:49.000Z</time>
      </trkpt>
      <trkpt lat="47.26581" lon="-2.33663">
        <ele>72.599998474121</ele>
        <time>2022-03-31T07:25:50.000Z</time>
      </trkpt>
      <trkpt lat="47.26589" lon="-2.33677">
        <ele>72.599998474121</ele>
        <time>2022-03-31T07:25:53.000Z</time>
      </trkpt>
      <trkpt lat="47.26594" lon="-2.33687">
        <ele>73</ele>
        <time>2022-03-31T07:25:55.000Z</time>
      </trkpt>
      <trkpt lat="47.26597" lon="-2.33691">
        <ele>73.400001525879</ele>
        <time>2022-03-31T07:25:56.000Z</time>
      </trkpt>
      <trkpt lat="47.26601" lon="-2.33695">
        <ele>73.800003051758</ele>
        <time>2022-03-31T07:25:57.000Z</time>
      </trkpt>
      <trkpt lat="47.26605" lon="-2.33699">
        <ele>74.199996948242</ele>
        <time>2022-03-31T07:25:58.000Z</time>
      </trkpt>
      <trkpt lat="47.26609" lon="-2.33704">
        <ele>74.599998474121</ele>
        <time>2022-03-31T07:25:59.000Z</time>
      </trkpt>
      <trkpt lat="47.26612" lon="-2.33709">
        <ele>74.599998474121</ele>
        <time>2022-03-31T07:26:00.000Z</time>
      </trkpt>
      <trkpt lat="47.2662" lon="-2.33725">
        <ele>74.599998474121</ele>
        <time>2022-03-31T07:26:03.000Z</time>
      </trkpt>
      <trkpt lat="47.26644" lon="-2.33759">
        <ele>74.599998474121</ele>
        <time>2022-03-31T07:26:10.000Z</time>
      </trkpt>
      <trkpt lat="47.26651" lon="-2.33769">
        <ele>75</ele>
        <time>2022-03-31T07:26:12.000Z</time>
      </trkpt>
      <trkpt lat="47.26654" lon="-2.33774">
        <ele>75.400001525879</ele>
        <time>2022-03-31T07:26:13.000Z</time>
      </trkpt>
      <trkpt lat="47.26657" lon="-2.3378">
        <ele>75.800003051758</ele>
        <time>2022-03-31T07:26:14.000Z</time>
      </trkpt>
      <trkpt lat="47.2666" lon="-2.33785">
        <ele>76.199996948242</ele>
        <time>2022-03-31T07:26:15.000Z</time>
      </trkpt>
      <trkpt lat="47.26663" lon="-2.3379">
        <ele>76.599998474121</ele>
        <time>2022-03-31T07:26:16.000Z</time>
      </trkpt>
      <trkpt lat="47.2667" lon="-2.33801">
        <ele>76.599998474121</ele>
        <time>2022-03-31T07:26:18.000Z</time>
      </trkpt>
      <trkpt lat="47.267" lon="-2.33848">
        <ele>76.599998474121</ele>
        <time>2022-03-31T07:26:27.000Z</time>
      </trkpt>
      <trkpt lat="47.26718" lon="-2.33878">
        <ele>77</ele>
        <time>2022-03-31T07:26:33.000Z</time>
      </trkpt>
      <trkpt lat="47.26721" lon="-2.33883">
        <ele>77.400001525879</ele>
        <time>2022-03-31T07:26:34.000Z</time>
      </trkpt>
      <trkpt lat="47.26725" lon="-2.33888">
        <ele>77.800003051758</ele>
        <time>2022-03-31T07:26:35.000Z</time>
      </trkpt>
      <trkpt lat="47.26728" lon="-2.33893">
        <ele>78.199996948242</ele>
        <time>2022-03-31T07:26:36.000Z</time>
      </trkpt>
      <trkpt lat="47.26731" lon="-2.33898">
        <ele>78.599998474121</ele>
        <time>2022-03-31T07:26:37.000Z</time>
      </trkpt>
      <trkpt lat="47.26749" lon="-2.33924">
        <ele>78.599998474121</ele>
        <time>2022-03-31T07:26:42.000Z</time>
      </trkpt>
      <trkpt lat="47.26757" lon="-2.3394">
        <ele>78.599998474121</ele>
        <time>2022-03-31T07:26:45.000Z</time>
      </trkpt>
      <trkpt lat="47.26763" lon="-2.3395">
        <ele>78.599998474121</ele>
        <time>2022-03-31T07:26:47.000Z</time>
      </trkpt>
      <trkpt lat="47.26773" lon="-2.33965">
        <ele>78.599998474121</ele>
        <time>2022-03-31T07:26:50.000Z</time>
      </trkpt>
      <trkpt lat="47.26784" lon="-2.33981">
        <ele>78.599998474121</ele>
        <time>2022-03-31T07:26:53.000Z</time>
      </trkpt>
      <trkpt lat="47.26805" lon="-2.34013">
        <ele>79</ele>
        <time>2022-03-31T07:26:59.000Z</time>
      </trkpt>
      <trkpt lat="47.26808" lon="-2.34018">
        <ele>79.599998474121</ele>
        <time>2022-03-31T07:27:00.000Z</time>
      </trkpt>
      <trkpt lat="47.26811" lon="-2.34023">
        <ele>80</ele>
        <time>2022-03-31T07:27:01.000Z</time>
      </trkpt>
      <trkpt lat="47.26814" lon="-2.34029">
        <ele>80.400001525879</ele>
        <time>2022-03-31T07:27:02.000Z</time>
      </trkpt>
      <trkpt lat="47.26818" lon="-2.34034">
        <ele>80.800003051758</ele>
        <time>2022-03-31T07:27:03.000Z</time>
      </trkpt>
      <trkpt lat="47.26844" lon="-2.34075">
        <ele>80.800003051758</ele>
        <time>2022-03-31T07:27:11.000Z</time>
      </trkpt>
      <trkpt lat="47.2687" lon="-2.34118">
        <ele>80.800003051758</ele>
        <time>2022-03-31T07:27:19.000Z</time>
      </trkpt>
      <trkpt lat="47.26883" lon="-2.34139">
        <ele>80.800003051758</ele>
        <time>2022-03-31T07:27:23.000Z</time>
      </trkpt>
      <trkpt lat="47.26894" lon="-2.34154">
        <ele>81.199996948242</ele>
        <time>2022-03-31T07:27:26.000Z</time>
      </trkpt>
      <trkpt lat="47.26897" lon="-2.34159">
        <ele>81.599998474121</ele>
        <time>2022-03-31T07:27:27.000Z</time>
      </trkpt>
      <trkpt lat="47.26901" lon="-2.34164">
        <ele>82</ele>
        <time>2022-03-31T07:27:28.000Z</time>
      </trkpt>
      <trkpt lat="47.26904" lon="-2.34169">
        <ele>82.400001525879</ele>
        <time>2022-03-31T07:27:29.000Z</time>
      </trkpt>
      <trkpt lat="47.26907" lon="-2.34174">
        <ele>82.800003051758</ele>
        <time>2022-03-31T07:27:30.000Z</time>
      </trkpt>
      <trkpt lat="47.26925" lon="-2.34199">
        <ele>82.800003051758</ele>
        <time>2022-03-31T07:27:35.000Z</time>
      </trkpt>
      <trkpt lat="47.26948" lon="-2.34236">
        <ele>82.800003051758</ele>
        <time>2022-03-31T07:27:42.000Z</time>
      </trkpt>
      <trkpt lat="47.26971" lon="-2.34272">
        <ele>82.800003051758</ele>
        <time>2022-03-31T07:27:49.000Z</time>
      </trkpt>
      <trkpt lat="47.26996" lon="-2.34312">
        <ele>82.800003051758</ele>
        <time>2022-03-31T07:27:57.000Z</time>
      </trkpt>
      <trkpt lat="47.2701" lon="-2.34316">
        <ele>82.800003051758</ele>
        <time>2022-03-31T07:28:01.000Z</time>
      </trkpt>
      <trkpt lat="47.27014" lon="-2.34317">
        <ele>82.800003051758</ele>
        <time>2022-03-31T07:28:02.000Z</time>
      </trkpt>
      <trkpt lat="47.27018" lon="-2.34319">
        <ele>83.199996948242</ele>
        <time>2022-03-31T07:28:03.000Z</time>
      </trkpt>
      <trkpt lat="47.27022" lon="-2.3432">
        <ele>83.599998474121</ele>
        <time>2022-03-31T07:28:04.000Z</time>
      </trkpt>
      <trkpt lat="47.27026" lon="-2.34322">
        <ele>84</ele>
        <time>2022-03-31T07:28:05.000Z</time>
      </trkpt>
      <trkpt lat="47.2703" lon="-2.34323">
        <ele>84.400001525879</ele>
        <time>2022-03-31T07:28:06.000Z</time>
      </trkpt>
      <trkpt lat="47.27034" lon="-2.34325">
        <ele>84.800003051758</ele>
        <time>2022-03-31T07:28:07.000Z</time>
      </trkpt>
      <trkpt lat="47.27038" lon="-2.34328">
        <ele>84.800003051758</ele>
        <time>2022-03-31T07:28:08.000Z</time>
      </trkpt>
      <trkpt lat="47.27043" lon="-2.34339">
        <ele>84.800003051758</ele>
        <time>2022-03-31T07:28:10.000Z</time>
      </trkpt>
      <trkpt lat="47.27046" lon="-2.34353">
        <ele>84.800003051758</ele>
        <time>2022-03-31T07:28:12.000Z</time>
      </trkpt>
      <trkpt lat="47.27048" lon="-2.34367">
        <ele>84.800003051758</ele>
        <time>2022-03-31T07:28:14.000Z</time>
      </trkpt>
      <trkpt lat="47.2705" lon="-2.34374">
        <ele>84.800003051758</ele>
        <time>2022-03-31T07:28:15.000Z</time>
      </trkpt>
      <trkpt lat="47.27063" lon="-2.34428">
        <ele>84.800003051758</ele>
        <time>2022-03-31T07:28:23.000Z</time>
      </trkpt>
      <trkpt lat="47.27074" lon="-2.34475">
        <ele>84.800003051758</ele>
        <time>2022-03-31T07:28:30.000Z</time>
      </trkpt>
      <trkpt lat="47.27077" lon="-2.34487">
        <ele>85.199996948242</ele>
        <time>2022-03-31T07:28:32.000Z</time>
      </trkpt>
      <trkpt lat="47.27079" lon="-2.34494">
        <ele>85.599998474121</ele>
        <time>2022-03-31T07:28:33.000Z</time>
      </trkpt>
      <trkpt lat="47.2708" lon="-2.34501">
        <ele>86</ele>
        <time>2022-03-31T07:28:34.000Z</time>
      </trkpt>
      <trkpt lat="47.27081" lon="-2.34508">
        <ele>86.400001525879</ele>
        <time>2022-03-31T07:28:35.000Z</time>
      </trkpt>
      <trkpt lat="47.27083" lon="-2.34514">
        <ele>86.800003051758</ele>
        <time>2022-03-31T07:28:36.000Z</time>
      </trkpt>
      <trkpt lat="47.27086" lon="-2.34528">
        <ele>86.800003051758</ele>
        <time>2022-03-31T07:28:38.000Z</time>
      </trkpt>
      <trkpt lat="47.27093" lon="-2.34554">
        <ele>86.800003051758</ele>
        <time>2022-03-31T07:28:42.000Z</time>
      </trkpt>
      <trkpt lat="47.27107" lon="-2.34617">
        <ele>86.800003051758</ele>
        <time>2022-03-31T07:28:51.000Z</time>
      </trkpt>
      <trkpt lat="47.27114" lon="-2.34648">
        <ele>86.800003051758</ele>
        <time>2022-03-31T07:28:55.000Z</time>
      </trkpt>
      <trkpt lat="47.2712" lon="-2.34671">
        <ele>86.800003051758</ele>
        <time>2022-03-31T07:28:58.000Z</time>
      </trkpt>
      <trkpt lat="47.27132" lon="-2.34726">
        <ele>86.800003051758</ele>
        <time>2022-03-31T07:29:05.000Z</time>
      </trkpt>
      <trkpt lat="47.27141" lon="-2.34769">
        <ele>87.199996948242</ele>
        <time>2022-03-31T07:29:11.000Z</time>
      </trkpt>
      <trkpt lat="47.27142" lon="-2.34776">
        <ele>87.800003051758</ele>
        <time>2022-03-31T07:29:12.000Z</time>
      </trkpt>
      <trkpt lat="47.27144" lon="-2.34784">
        <ele>88.199996948242</ele>
        <time>2022-03-31T07:29:13.000Z</time>
      </trkpt>
      <trkpt lat="47.27145" lon="-2.34791">
        <ele>88.599998474121</ele>
        <time>2022-03-31T07:29:14.000Z</time>
      </trkpt>
      <trkpt lat="47.27146" lon="-2.34798">
        <ele>89</ele>
        <time>2022-03-31T07:29:15.000Z</time>
      </trkpt>
      <trkpt lat="47.27153" lon="-2.34828">
        <ele>89</ele>
        <time>2022-03-31T07:29:19.000Z</time>
      </trkpt>
      <trkpt lat="47.27158" lon="-2.34849">
        <ele>89</ele>
        <time>2022-03-31T07:29:22.000Z</time>
      </trkpt>
      <trkpt lat="47.27162" lon="-2.34871">
        <ele>89</ele>
        <time>2022-03-31T07:29:25.000Z</time>
      </trkpt>
      <trkpt lat="47.27175" lon="-2.34917">
        <ele>89</ele>
        <time>2022-03-31T07:29:32.000Z</time>
      </trkpt>
      <trkpt lat="47.27182" lon="-2.34937">
        <ele>89.400001525879</ele>
        <time>2022-03-31T07:29:35.000Z</time>
      </trkpt>
      <trkpt lat="47.27184" lon="-2.34944">
        <ele>89.800003051758</ele>
        <time>2022-03-31T07:29:36.000Z</time>
      </trkpt>
      <trkpt lat="47.27186" lon="-2.34951">
        <ele>90.199996948242</ele>
        <time>2022-03-31T07:29:37.000Z</time>
      </trkpt>
      <trkpt lat="47.27188" lon="-2.34957">
        <ele>90.599998474121</ele>
        <time>2022-03-31T07:29:38.000Z</time>
      </trkpt>
      <trkpt lat="47.27191" lon="-2.34964">
        <ele>91</ele>
        <time>2022-03-31T07:29:39.000Z</time>
      </trkpt>
      <trkpt lat="47.27196" lon="-2.34978">
        <ele>91</ele>
        <time>2022-03-31T07:29:41.000Z</time>
      </trkpt>
      <trkpt lat="47.27215" lon="-2.35035">
        <ele>91</ele>
        <time>2022-03-31T07:29:50.000Z</time>
      </trkpt>
      <trkpt lat="47.27224" lon="-2.35061">
        <ele>91</ele>
        <time>2022-03-31T07:29:54.000Z</time>
      </trkpt>
      <trkpt lat="47.2723" lon="-2.35075">
        <ele>91</ele>
        <time>2022-03-31T07:29:56.000Z</time>
      </trkpt>
      <trkpt lat="47.2725" lon="-2.35116">
        <ele>91</ele>
        <time>2022-03-31T07:30:03.000Z</time>
      </trkpt>
      <trkpt lat="47.27253" lon="-2.3512">
        <ele>91</ele>
        <time>2022-03-31T07:30:04.000Z</time>
      </trkpt>
      <trkpt lat="47.27264" lon="-2.35121">
        <ele>91</ele>
        <time>2022-03-31T07:30:07.000Z</time>
      </trkpt>
      <trkpt lat="47.27272" lon="-2.35116">
        <ele>91.400001525879</ele>
        <time>2022-03-31T07:30:09.000Z</time>
      </trkpt>
      <trkpt lat="47.27275" lon="-2.35114">
        <ele>91.800003051758</ele>
        <time>2022-03-31T07:30:10.000Z</time>
      </trkpt>
      <trkpt lat="47.27279" lon="-2.35112">
        <ele>92.199996948242</ele>
        <time>2022-03-31T07:30:11.000Z</time>
      </trkpt>
      <trkpt lat="47.27283" lon="-2.35111">
        <ele>92.800003051758</ele>
        <time>2022-03-31T07:30:12.000Z</time>
      </trkpt>
      <trkpt lat="47.27286" lon="-2.35109">
        <ele>93.199996948242</ele>
        <time>2022-03-31T07:30:13.000Z</time>
      </trkpt>
      <trkpt lat="47.27297" lon="-2.35106">
        <ele>93.199996948242</ele>
        <time>2022-03-31T07:30:18.000Z</time>
      </trkpt>
      <trkpt lat="47.27306" lon="-2.35105">
        <ele>93.599998474121</ele>
        <time>2022-03-31T07:30:23.000Z</time>
      </trkpt>
      <trkpt lat="47.27308" lon="-2.35103">
        <ele>94.400001525879</ele>
        <time>2022-03-31T07:30:24.000Z</time>
      </trkpt>
      <trkpt lat="47.2731" lon="-2.35101">
        <ele>94.800003051758</ele>
        <time>2022-03-31T07:30:25.000Z</time>
      </trkpt>
      <trkpt lat="47.27313" lon="-2.35098">
        <ele>95.199996948242</ele>
        <time>2022-03-31T07:30:26.000Z</time>
      </trkpt>
      <trkpt lat="47.27318" lon="-2.35095">
        <ele>95.199996948242</ele>
        <time>2022-03-31T07:30:28.000Z</time>
      </trkpt>
      <trkpt lat="47.27329" lon="-2.3509">
        <ele>95.599998474121</ele>
        <time>2022-03-31T07:30:31.000Z</time>
      </trkpt>
      <trkpt lat="47.27332" lon="-2.35089">
        <ele>96.199996948242</ele>
        <time>2022-03-31T07:30:32.000Z</time>
      </trkpt>
      <trkpt lat="47.27335" lon="-2.35087">
        <ele>96.599998474121</ele>
        <time>2022-03-31T07:30:33.000Z</time>
      </trkpt>
      <trkpt lat="47.27338" lon="-2.35086">
        <ele>97</ele>
        <time>2022-03-31T07:30:34.000Z</time>
      </trkpt>
      <trkpt lat="47.27341" lon="-2.35086">
        <ele>97.400001525879</ele>
        <time>2022-03-31T07:30:35.000Z</time>
      </trkpt>
      <trkpt lat="47.27352" lon="-2.35082">
        <ele>97.800003051758</ele>
        <time>2022-03-31T07:30:38.000Z</time>
      </trkpt>
      <trkpt lat="47.27355" lon="-2.3508">
        <ele>98.199996948242</ele>
        <time>2022-03-31T07:30:39.000Z</time>
      </trkpt>
      <trkpt lat="47.27358" lon="-2.35078">
        <ele>98.599998474121</ele>
        <time>2022-03-31T07:30:40.000Z</time>
      </trkpt>
      <trkpt lat="47.27362" lon="-2.35076">
        <ele>99.199996948242</ele>
        <time>2022-03-31T07:30:41.000Z</time>
      </trkpt>
      <trkpt lat="47.27365" lon="-2.35074">
        <ele>99.599998474121</ele>
        <time>2022-03-31T07:30:42.000Z</time>
      </trkpt>
      <trkpt lat="47.27385" lon="-2.35063">
        <ele>100</ele>
        <time>2022-03-31T07:30:48.000Z</time>
      </trkpt>
      <trkpt lat="47.27388" lon="-2.35062">
        <ele>100.80000305176</ele>
        <time>2022-03-31T07:30:49.000Z</time>
      </trkpt>
      <trkpt lat="47.27391" lon="-2.35062">
        <ele>101.40000152588</ele>
        <time>2022-03-31T07:30:50.000Z</time>
      </trkpt>
      <trkpt lat="47.27394" lon="-2.35063">
        <ele>101.80000305176</ele>
        <time>2022-03-31T07:30:51.000Z</time>
      </trkpt>
      <trkpt lat="47.27397" lon="-2.35067">
        <ele>101.80000305176</ele>
        <time>2022-03-31T07:30:52.000Z</time>
      </trkpt>
      <trkpt lat="47.27405" lon="-2.35084">
        <ele>101.80000305176</ele>
        <time>2022-03-31T07:30:56.000Z</time>
      </trkpt>
      <trkpt lat="47.27407" lon="-2.35089">
        <ele>101.80000305176</ele>
        <time>2022-03-31T07:30:57.000Z</time>
      </trkpt>
      <trkpt lat="47.27416" lon="-2.3512">
        <ele>102.19999694824</ele>
        <time>2022-03-31T07:31:03.000Z</time>
      </trkpt>
      <trkpt lat="47.27417" lon="-2.35126">
        <ele>102.59999847412</ele>
        <time>2022-03-31T07:31:04.000Z</time>
      </trkpt>
      <trkpt lat="47.27418" lon="-2.35131">
        <ele>103</ele>
        <time>2022-03-31T07:31:05.000Z</time>
      </trkpt>
      <trkpt lat="47.27419" lon="-2.35137">
        <ele>103.40000152588</ele>
        <time>2022-03-31T07:31:06.000Z</time>
      </trkpt>
      <trkpt lat="47.2742" lon="-2.35142">
        <ele>103.80000305176</ele>
        <time>2022-03-31T07:31:07.000Z</time>
      </trkpt>
      <trkpt lat="47.27425" lon="-2.35165">
        <ele>103.80000305176</ele>
        <time>2022-03-31T07:31:11.000Z</time>
      </trkpt>
      <trkpt lat="47.27428" lon="-2.3517">
        <ele>103.80000305176</ele>
        <time>2022-03-31T07:31:12.000Z</time>
      </trkpt>
      <trkpt lat="47.27433" lon="-2.35175">
        <ele>103.80000305176</ele>
        <time>2022-03-31T07:31:14.000Z</time>
      </trkpt>
      <trkpt lat="47.27444" lon="-2.3517">
        <ele>103.80000305176</ele>
        <time>2022-03-31T07:31:17.000Z</time>
      </trkpt>
      <trkpt lat="47.27469" lon="-2.35156">
        <ele>104.19999694824</ele>
        <time>2022-03-31T07:31:24.000Z</time>
      </trkpt>
      <trkpt lat="47.27472" lon="-2.35154">
        <ele>104.59999847412</ele>
        <time>2022-03-31T07:31:25.000Z</time>
      </trkpt>
      <trkpt lat="47.27475" lon="-2.35151">
        <ele>105</ele>
        <time>2022-03-31T07:31:26.000Z</time>
      </trkpt>
      <trkpt lat="47.27479" lon="-2.3515">
        <ele>105.59999847412</ele>
        <time>2022-03-31T07:31:27.000Z</time>
      </trkpt>
      <trkpt lat="47.27483" lon="-2.35149">
        <ele>106</ele>
        <time>2022-03-31T07:31:28.000Z</time>
      </trkpt>
      <trkpt lat="47.2749" lon="-2.35145">
        <ele>106</ele>
        <time>2022-03-31T07:31:30.000Z</time>
      </trkpt>
      <trkpt lat="47.27496" lon="-2.35141">
        <ele>106</ele>
        <time>2022-03-31T07:31:32.000Z</time>
      </trkpt>
      <trkpt lat="47.27501" lon="-2.35133">
        <ele>106</ele>
        <time>2022-03-31T07:31:34.000Z</time>
      </trkpt>
      <trkpt lat="47.2751" lon="-2.35131">
        <ele>106.40000152588</ele>
        <time>2022-03-31T07:31:37.000Z</time>
      </trkpt>
      <trkpt lat="47.27514" lon="-2.35133">
        <ele>107.19999694824</ele>
        <time>2022-03-31T07:31:38.000Z</time>
      </trkpt>
      <trkpt lat="47.27518" lon="-2.35135">
        <ele>107.59999847412</ele>
        <time>2022-03-31T07:31:39.000Z</time>
      </trkpt>
      <trkpt lat="47.27521" lon="-2.35137">
        <ele>108</ele>
        <time>2022-03-31T07:31:40.000Z</time>
      </trkpt>
      <trkpt lat="47.27529" lon="-2.3514">
        <ele>108</ele>
        <time>2022-03-31T07:31:42.000Z</time>
      </trkpt>
      <trkpt lat="47.27543" lon="-2.35141">
        <ele>108</ele>
        <time>2022-03-31T07:31:45.000Z</time>
      </trkpt>
      <trkpt lat="47.27552" lon="-2.3514">
        <ele>108</ele>
        <time>2022-03-31T07:31:47.000Z</time>
      </trkpt>
      <trkpt lat="47.27591" lon="-2.35135">
        <ele>108</ele>
        <time>2022-03-31T07:31:56.000Z</time>
      </trkpt>
      <trkpt lat="47.27596" lon="-2.35136">
        <ele>108</ele>
        <time>2022-03-31T07:31:57.000Z</time>
      </trkpt>
      <trkpt lat="47.27608" lon="-2.35148">
        <ele>108</ele>
        <time>2022-03-31T07:32:00.000Z</time>
      </trkpt>
      <trkpt lat="47.2761" lon="-2.35168">
        <ele>108</ele>
        <time>2022-03-31T07:32:03.000Z</time>
      </trkpt>
      <trkpt lat="47.2762" lon="-2.35178">
        <ele>108</ele>
        <time>2022-03-31T07:32:06.000Z</time>
      </trkpt>
      <trkpt lat="47.27634" lon="-2.35177">
        <ele>108</ele>
        <time>2022-03-31T07:32:09.000Z</time>
      </trkpt>
      <trkpt lat="47.27644" lon="-2.35175">
        <ele>108</ele>
        <time>2022-03-31T07:32:11.000Z</time>
      </trkpt>
      <trkpt lat="47.27662" lon="-2.35173">
        <ele>108</ele>
        <time>2022-03-31T07:32:15.000Z</time>
      </trkpt>
      <trkpt lat="47.2767" lon="-2.35181">
        <ele>108</ele>
        <time>2022-03-31T07:32:17.000Z</time>
      </trkpt>
      <trkpt lat="47.27672" lon="-2.35187">
        <ele>108</ele>
        <time>2022-03-31T07:32:18.000Z</time>
      </trkpt>
      <trkpt lat="47.27673" lon="-2.3521">
        <ele>108</ele>
        <time>2022-03-31T07:32:21.000Z</time>
      </trkpt>
      <trkpt lat="47.27673" lon="-2.35216">
        <ele>108</ele>
        <time>2022-03-31T07:32:22.000Z</time>
      </trkpt>
      <trkpt lat="47.27678" lon="-2.35222">
        <ele>108</ele>
        <time>2022-03-31T07:32:24.000Z</time>
      </trkpt>
      <trkpt lat="47.27686" lon="-2.35221">
        <ele>107.59999847412</ele>
        <time>2022-03-31T07:32:26.000Z</time>
      </trkpt>
      <trkpt lat="47.2769" lon="-2.3522">
        <ele>107.19999694824</ele>
        <time>2022-03-31T07:32:27.000Z</time>
      </trkpt>
      <trkpt lat="47.27695" lon="-2.35218">
        <ele>106.40000152588</ele>
        <time>2022-03-31T07:32:28.000Z</time>
      </trkpt>
      <trkpt lat="47.277" lon="-2.35217">
        <ele>106</ele>
        <time>2022-03-31T07:32:29.000Z</time>
      </trkpt>
      <trkpt lat="47.27725" lon="-2.35209">
        <ele>106</ele>
        <time>2022-03-31T07:32:34.000Z</time>
      </trkpt>
      <trkpt lat="47.27764" lon="-2.35202">
        <ele>106</ele>
        <time>2022-03-31T07:32:41.000Z</time>
      </trkpt>
      <trkpt lat="47.2777" lon="-2.35205">
        <ele>106</ele>
        <time>2022-03-31T07:32:43.000Z</time>
      </trkpt>
      <trkpt lat="47.27772" lon="-2.3521">
        <ele>106</ele>
        <time>2022-03-31T07:32:44.000Z</time>
      </trkpt>
      <trkpt lat="47.27776" lon="-2.35226">
        <ele>106</ele>
        <time>2022-03-31T07:32:47.000Z</time>
      </trkpt>
      <trkpt lat="47.27777" lon="-2.35233">
        <ele>106</ele>
        <time>2022-03-31T07:32:48.000Z</time>
      </trkpt>
      <trkpt lat="47.27786" lon="-2.35274">
        <ele>106</ele>
        <time>2022-03-31T07:32:54.000Z</time>
      </trkpt>
      <trkpt lat="47.27787" lon="-2.35281">
        <ele>106</ele>
        <time>2022-03-31T07:32:55.000Z</time>
      </trkpt>
      <trkpt lat="47.27798" lon="-2.35328">
        <ele>106</ele>
        <time>2022-03-31T07:33:02.000Z</time>
      </trkpt>
      <trkpt lat="47.27804" lon="-2.35349">
        <ele>106</ele>
        <time>2022-03-31T07:33:05.000Z</time>
      </trkpt>
      <trkpt lat="47.27814" lon="-2.35363">
        <ele>106</ele>
        <time>2022-03-31T07:33:08.000Z</time>
      </trkpt>
      <trkpt lat="47.27827" lon="-2.35364">
        <ele>106</ele>
        <time>2022-03-31T07:33:11.000Z</time>
      </trkpt>
      <trkpt lat="47.27832" lon="-2.35363">
        <ele>106</ele>
        <time>2022-03-31T07:33:12.000Z</time>
      </trkpt>
      <trkpt lat="47.27859" lon="-2.35362">
        <ele>106</ele>
        <time>2022-03-31T07:33:18.000Z</time>
      </trkpt>
      <trkpt lat="47.27875" lon="-2.35365">
        <ele>106</ele>
        <time>2022-03-31T07:33:22.000Z</time>
      </trkpt>
      <trkpt lat="47.27882" lon="-2.35371">
        <ele>106</ele>
        <time>2022-03-31T07:33:24.000Z</time>
      </trkpt>
      <trkpt lat="47.27888" lon="-2.35379">
        <ele>106.40000152588</ele>
        <time>2022-03-31T07:33:26.000Z</time>
      </trkpt>
      <trkpt lat="47.27891" lon="-2.35383">
        <ele>106.80000305176</ele>
        <time>2022-03-31T07:33:27.000Z</time>
      </trkpt>
      <trkpt lat="47.27894" lon="-2.35387">
        <ele>107.19999694824</ele>
        <time>2022-03-31T07:33:28.000Z</time>
      </trkpt>
      <trkpt lat="47.27898" lon="-2.35392">
        <ele>107.59999847412</ele>
        <time>2022-03-31T07:33:29.000Z</time>
      </trkpt>
      <trkpt lat="47.27901" lon="-2.35396">
        <ele>108</ele>
        <time>2022-03-31T07:33:30.000Z</time>
      </trkpt>
      <trkpt lat="47.27904" lon="-2.35401">
        <ele>108</ele>
        <time>2022-03-31T07:33:31.000Z</time>
      </trkpt>
      <trkpt lat="47.27937" lon="-2.35444">
        <ele>108</ele>
        <time>2022-03-31T07:33:40.000Z</time>
      </trkpt>
      <trkpt lat="47.27958" lon="-2.35463">
        <ele>108</ele>
        <time>2022-03-31T07:33:45.000Z</time>
      </trkpt>
      <trkpt lat="47.27963" lon="-2.35465">
        <ele>108</ele>
        <time>2022-03-31T07:33:46.000Z</time>
      </trkpt>
      <trkpt lat="47.27972" lon="-2.35471">
        <ele>108</ele>
        <time>2022-03-31T07:33:48.000Z</time>
      </trkpt>
      <trkpt lat="47.27983" lon="-2.35486">
        <ele>108</ele>
        <time>2022-03-31T07:33:51.000Z</time>
      </trkpt>
      <trkpt lat="47.27992" lon="-2.35504">
        <ele>108</ele>
        <time>2022-03-31T07:33:54.000Z</time>
      </trkpt>
      <trkpt lat="47.27999" lon="-2.35519">
        <ele>108</ele>
        <time>2022-03-31T07:33:57.000Z</time>
      </trkpt>
      <trkpt lat="47.28006" lon="-2.35545">
        <ele>108.59999847412</ele>
        <time>2022-03-31T07:34:02.000Z</time>
      </trkpt>
      <trkpt lat="47.28007" lon="-2.3555">
        <ele>109</ele>
        <time>2022-03-31T07:34:03.000Z</time>
      </trkpt>
      <trkpt lat="47.28009" lon="-2.35552">
        <ele>109.40000152588</ele>
        <time>2022-03-31T07:34:04.000Z</time>
      </trkpt>
      <trkpt lat="47.2801" lon="-2.35553">
        <ele>109.80000305176</ele>
        <time>2022-03-31T07:34:05.000Z</time>
      </trkpt>
      <trkpt lat="47.28012" lon="-2.35553">
        <ele>110.19999694824</ele>
        <time>2022-03-31T07:34:06.000Z</time>
      </trkpt>
      <trkpt lat="47.28019" lon="-2.35551">
        <ele>110.19999694824</ele>
        <time>2022-03-31T07:34:08.000Z</time>
      </trkpt>
      <trkpt lat="47.28026" lon="-2.3555">
        <ele>110.19999694824</ele>
        <time>2022-03-31T07:34:10.000Z</time>
      </trkpt>
      <trkpt lat="47.28044" lon="-2.35551">
        <ele>110.59999847412</ele>
        <time>2022-03-31T07:34:15.000Z</time>
      </trkpt>
      <trkpt lat="47.28048" lon="-2.3555">
        <ele>111</ele>
        <time>2022-03-31T07:34:16.000Z</time>
      </trkpt>
      <trkpt lat="47.2805" lon="-2.3555">
        <ele>111.40000152588</ele>
        <time>2022-03-31T07:34:17.000Z</time>
      </trkpt>
      <trkpt lat="47.28052" lon="-2.35551">
        <ele>111.80000305176</ele>
        <time>2022-03-31T07:34:18.000Z</time>
      </trkpt>
      <trkpt lat="47.28054" lon="-2.35555">
        <ele>112.19999694824</ele>
        <time>2022-03-31T07:34:19.000Z</time>
      </trkpt>
      <trkpt lat="47.28055" lon="-2.35558">
        <ele>112.19999694824</ele>
        <time>2022-03-31T07:34:20.000Z</time>
      </trkpt>
      <trkpt lat="47.28049" lon="-2.35567">
        <ele>112.19999694824</ele>
        <time>2022-03-31T07:34:24.000Z</time>
      </trkpt>
      <trkpt lat="47.28049" lon="-2.35577">
        <ele>112.19999694824</ele>
        <time>2022-03-31T07:34:27.000Z</time>
      </trkpt>
      <trkpt lat="47.28059" lon="-2.35581">
        <ele>112.19999694824</ele>
        <time>2022-03-31T07:34:31.000Z</time>
      </trkpt>
      <trkpt lat="47.28062" lon="-2.35583">
        <ele>112.59999847412</ele>
        <time>2022-03-31T07:34:32.000Z</time>
      </trkpt>
      <trkpt lat="47.28065" lon="-2.35583">
        <ele>113.19999694824</ele>
        <time>2022-03-31T07:34:33.000Z</time>
      </trkpt>
      <trkpt lat="47.28067" lon="-2.35585">
        <ele>113.59999847412</ele>
        <time>2022-03-31T07:34:34.000Z</time>
      </trkpt>
      <trkpt lat="47.28069" lon="-2.35587">
        <ele>114</ele>
        <time>2022-03-31T07:34:35.000Z</time>
      </trkpt>
      <trkpt lat="47.28071" lon="-2.35589">
        <ele>114.40000152588</ele>
        <time>2022-03-31T07:34:36.000Z</time>
      </trkpt>
      <trkpt lat="47.28075" lon="-2.35596">
        <ele>114.40000152588</ele>
        <time>2022-03-31T07:34:38.000Z</time>
      </trkpt>
      <trkpt lat="47.28082" lon="-2.35607">
        <ele>114.40000152588</ele>
        <time>2022-03-31T07:34:42.000Z</time>
      </trkpt>
      <trkpt lat="47.28088" lon="-2.35611">
        <ele>114.40000152588</ele>
        <time>2022-03-31T07:34:47.000Z</time>
      </trkpt>
      <trkpt lat="47.28088" lon="-2.35611">
        <ele>114.40000152588</ele>
        <time>2022-03-31T07:34:49.000Z</time>
      </trkpt>
      <trkpt lat="47.28085" lon="-2.35617">
        <ele>130.60000610352</ele>
        <time>2022-03-31T07:42:32.000Z</time>
      </trkpt>
      <trkpt lat="47.28083" lon="-2.35613">
        <ele>130.60000610352</ele>
        <time>2022-03-31T07:42:34.000Z</time>
      </trkpt>
      <trkpt lat="47.28078" lon="-2.35608">
        <ele>130.60000610352</ele>
        <time>2022-03-31T07:42:37.000Z</time>
      </trkpt>
      <trkpt lat="47.28074" lon="-2.35611">
        <ele>130.60000610352</ele>
        <time>2022-03-31T07:42:39.000Z</time>
      </trkpt>
      <trkpt lat="47.28076" lon="-2.35622">
        <ele>131</ele>
        <time>2022-03-31T07:42:43.000Z</time>
      </trkpt>
      <trkpt lat="47.28077" lon="-2.35626">
        <ele>131.80000305176</ele>
        <time>2022-03-31T07:42:44.000Z</time>
      </trkpt>
      <trkpt lat="47.28077" lon="-2.35629">
        <ele>132.19999694824</ele>
        <time>2022-03-31T07:42:45.000Z</time>
      </trkpt>
      <trkpt lat="47.28077" lon="-2.35632">
        <ele>132.80000305176</ele>
        <time>2022-03-31T07:42:46.000Z</time>
      </trkpt>
      <trkpt lat="47.28077" lon="-2.35639">
        <ele>133.19999694824</ele>
        <time>2022-03-31T07:42:49.000Z</time>
      </trkpt>
      <trkpt lat="47.28078" lon="-2.35642">
        <ele>133.60000610352</ele>
        <time>2022-03-31T07:42:50.000Z</time>
      </trkpt>
      <trkpt lat="47.28079" lon="-2.35645">
        <ele>134</ele>
        <time>2022-03-31T07:42:51.000Z</time>
      </trkpt>
      <trkpt lat="47.2808" lon="-2.35647">
        <ele>134.39999389648</ele>
        <time>2022-03-31T07:42:52.000Z</time>
      </trkpt>
      <trkpt lat="47.2808" lon="-2.35649">
        <ele>134.80000305176</ele>
        <time>2022-03-31T07:42:53.000Z</time>
      </trkpt>
      <trkpt lat="47.28081" lon="-2.35654">
        <ele>134.80000305176</ele>
        <time>2022-03-31T07:42:55.000Z</time>
      </trkpt>
      <trkpt lat="47.28081" lon="-2.35658">
        <ele>135.19999694824</ele>
        <time>2022-03-31T07:42:57.000Z</time>
      </trkpt>
      <trkpt lat="47.28081" lon="-2.3566">
        <ele>135.60000610352</ele>
        <time>2022-03-31T07:42:58.000Z</time>
      </trkpt>
      <trkpt lat="47.28082" lon="-2.35663">
        <ele>136</ele>
        <time>2022-03-31T07:42:59.000Z</time>
      </trkpt>
      <trkpt lat="47.28083" lon="-2.35665">
        <ele>136.39999389648</ele>
        <time>2022-03-31T07:43:00.000Z</time>
      </trkpt>
      <trkpt lat="47.28084" lon="-2.35667">
        <ele>136.80000305176</ele>
        <time>2022-03-31T07:43:01.000Z</time>
      </trkpt>
      <trkpt lat="47.28085" lon="-2.3567">
        <ele>136.80000305176</ele>
        <time>2022-03-31T07:43:03.000Z</time>
      </trkpt>
      <trkpt lat="47.28087" lon="-2.35677">
        <ele>136.80000305176</ele>
        <time>2022-03-31T07:43:08.000Z</time>
      </trkpt>
      <trkpt lat="47.2809" lon="-2.35686">
        <ele>137.19999694824</ele>
        <time>2022-03-31T07:43:14.000Z</time>
      </trkpt>
      <trkpt lat="47.28091" lon="-2.35687">
        <ele>137.60000610352</ele>
        <time>2022-03-31T07:43:15.000Z</time>
      </trkpt>
      <trkpt lat="47.28092" lon="-2.35689">
        <ele>138.19999694824</ele>
        <time>2022-03-31T07:43:16.000Z</time>
      </trkpt>
      <trkpt lat="47.28093" lon="-2.3569">
        <ele>138.60000610352</ele>
        <time>2022-03-31T07:43:17.000Z</time>
      </trkpt>
      <trkpt lat="47.28093" lon="-2.3569">
        <ele>139</ele>
        <time>2022-03-31T07:43:18.000Z</time>
      </trkpt>
      <trkpt lat="47.28094" lon="-2.35691">
        <ele>139</ele>
        <time>2022-03-31T07:43:19.000Z</time>
      </trkpt>
      <trkpt lat="47.28097" lon="-2.3569">
        <ele>139</ele>
        <time>2022-03-31T07:43:21.000Z</time>
      </trkpt>
      <trkpt lat="47.281" lon="-2.35687">
        <ele>139.39999389648</ele>
        <time>2022-03-31T07:43:23.000Z</time>
      </trkpt>
      <trkpt lat="47.28102" lon="-2.35687">
        <ele>139.80000305176</ele>
        <time>2022-03-31T07:43:24.000Z</time>
      </trkpt>
      <trkpt lat="47.28103" lon="-2.35686">
        <ele>140.19999694824</ele>
        <time>2022-03-31T07:43:25.000Z</time>
      </trkpt>
      <trkpt lat="47.28106" lon="-2.35685">
        <ele>140.60000610352</ele>
        <time>2022-03-31T07:43:26.000Z</time>
      </trkpt>
      <trkpt lat="47.28108" lon="-2.35684">
        <ele>141</ele>
        <time>2022-03-31T07:43:27.000Z</time>
      </trkpt>
      <trkpt lat="47.28112" lon="-2.35682">
        <ele>141.39999389648</ele>
        <time>2022-03-31T07:43:29.000Z</time>
      </trkpt>
      <trkpt lat="47.28114" lon="-2.35682">
        <ele>141.80000305176</ele>
        <time>2022-03-31T07:43:30.000Z</time>
      </trkpt>
      <trkpt lat="47.28116" lon="-2.35682">
        <ele>142.19999694824</ele>
        <time>2022-03-31T07:43:31.000Z</time>
      </trkpt>
      <trkpt lat="47.28118" lon="-2.35682">
        <ele>142.60000610352</ele>
        <time>2022-03-31T07:43:32.000Z</time>
      </trkpt>
      <trkpt lat="47.28119" lon="-2.35682">
        <ele>143.19999694824</ele>
        <time>2022-03-31T07:43:33.000Z</time>
      </trkpt>
      <trkpt lat="47.2812" lon="-2.35681">
        <ele>144.19999694824</ele>
        <time>2022-03-31T07:43:34.000Z</time>
      </trkpt>
      <trkpt lat="47.28121" lon="-2.35681">
        <ele>144.60000610352</ele>
        <time>2022-03-31T07:43:35.000Z</time>
      </trkpt>
      <trkpt lat="47.28123" lon="-2.35679">
        <ele>145.19999694824</ele>
        <time>2022-03-31T07:43:36.000Z</time>
      </trkpt>
      <trkpt lat="47.28125" lon="-2.35677">
        <ele>145.19999694824</ele>
        <time>2022-03-31T07:43:37.000Z</time>
      </trkpt>
      <trkpt lat="47.28128" lon="-2.35676">
        <ele>145.19999694824</ele>
        <time>2022-03-31T07:43:39.000Z</time>
      </trkpt>
      <trkpt lat="47.28133" lon="-2.35674">
        <ele>145.60000610352</ele>
        <time>2022-03-31T07:43:42.000Z</time>
      </trkpt>
      <trkpt lat="47.28135" lon="-2.35673">
        <ele>146.19999694824</ele>
        <time>2022-03-31T07:43:43.000Z</time>
      </trkpt>
      <trkpt lat="47.28137" lon="-2.35672">
        <ele>146.60000610352</ele>
        <time>2022-03-31T07:43:44.000Z</time>
      </trkpt>
      <trkpt lat="47.28139" lon="-2.35671">
        <ele>147</ele>
        <time>2022-03-31T07:43:45.000Z</time>
      </trkpt>
      <trkpt lat="47.2814" lon="-2.35669">
        <ele>147.60000610352</ele>
        <time>2022-03-31T07:43:46.000Z</time>
      </trkpt>
      <trkpt lat="47.28143" lon="-2.35669">
        <ele>147.60000610352</ele>
        <time>2022-03-31T07:43:47.000Z</time>
      </trkpt>
      <trkpt lat="47.28148" lon="-2.35674">
        <ele>147.60000610352</ele>
        <time>2022-03-31T07:43:51.000Z</time>
      </trkpt>
      <trkpt lat="47.2816" lon="-2.35681">
        <ele>147.60000610352</ele>
        <time>2022-03-31T07:43:56.000Z</time>
      </trkpt>
      <trkpt lat="47.28162" lon="-2.35679">
        <ele>147</ele>
        <time>2022-03-31T07:43:58.000Z</time>
      </trkpt>
      <trkpt lat="47.28164" lon="-2.35679">
        <ele>146.19999694824</ele>
        <time>2022-03-31T07:43:59.000Z</time>
      </trkpt>
      <trkpt lat="47.28173" lon="-2.35694">
        <ele>144</ele>
        <time>2022-03-31T07:44:08.000Z</time>
      </trkpt>
      <trkpt lat="47.28175" lon="-2.35697">
        <ele>143.60000610352</ele>
        <time>2022-03-31T07:44:09.000Z</time>
      </trkpt>
      <trkpt lat="47.28176" lon="-2.35701">
        <ele>143.19999694824</ele>
        <time>2022-03-31T07:44:10.000Z</time>
      </trkpt>
      <trkpt lat="47.2818" lon="-2.35706">
        <ele>142.80000305176</ele>
        <time>2022-03-31T07:44:13.000Z</time>
      </trkpt>
      <trkpt lat="47.28181" lon="-2.35708">
        <ele>142.39999389648</ele>
        <time>2022-03-31T07:44:14.000Z</time>
      </trkpt>
      <trkpt lat="47.28182" lon="-2.35709">
        <ele>142</ele>
        <time>2022-03-31T07:44:15.000Z</time>
      </trkpt>
      <trkpt lat="47.28195" lon="-2.35717">
        <ele>139</ele>
        <time>2022-03-31T07:44:46.000Z</time>
      </trkpt>
      <trkpt lat="47.28199" lon="-2.35721">
        <ele>139</ele>
        <time>2022-03-31T07:44:48.000Z</time>
      </trkpt>
      <trkpt lat="47.28205" lon="-2.35737">
        <ele>139</ele>
        <time>2022-03-31T07:44:55.000Z</time>
      </trkpt>
      <trkpt lat="47.28205" lon="-2.35739">
        <ele>139.39999389648</ele>
        <time>2022-03-31T07:44:56.000Z</time>
      </trkpt>
      <trkpt lat="47.28205" lon="-2.35742">
        <ele>140</ele>
        <time>2022-03-31T07:44:57.000Z</time>
      </trkpt>
      <trkpt lat="47.28204" lon="-2.35745">
        <ele>140.39999389648</ele>
        <time>2022-03-31T07:44:58.000Z</time>
      </trkpt>
      <trkpt lat="47.28203" lon="-2.35747">
        <ele>140.80000305176</ele>
        <time>2022-03-31T07:44:59.000Z</time>
      </trkpt>
      <trkpt lat="47.28203" lon="-2.3575">
        <ele>141.19999694824</ele>
        <time>2022-03-31T07:45:00.000Z</time>
      </trkpt>
      <trkpt lat="47.28203" lon="-2.35754">
        <ele>141.19999694824</ele>
        <time>2022-03-31T07:45:01.000Z</time>
      </trkpt>
      <trkpt lat="47.28203" lon="-2.35763">
        <ele>141.60000610352</ele>
        <time>2022-03-31T07:45:04.000Z</time>
      </trkpt>
      <trkpt lat="47.28202" lon="-2.35765">
        <ele>142.19999694824</ele>
        <time>2022-03-31T07:45:05.000Z</time>
      </trkpt>
      <trkpt lat="47.28202" lon="-2.35768">
        <ele>142.60000610352</ele>
        <time>2022-03-31T07:45:06.000Z</time>
      </trkpt>
      <trkpt lat="47.28202" lon="-2.3577">
        <ele>143</ele>
        <time>2022-03-31T07:45:07.000Z</time>
      </trkpt>
      <trkpt lat="47.28202" lon="-2.35773">
        <ele>143.60000610352</ele>
        <time>2022-03-31T07:45:08.000Z</time>
      </trkpt>
      <trkpt lat="47.28207" lon="-2.35789">
        <ele>143.60000610352</ele>
        <time>2022-03-31T07:45:15.000Z</time>
      </trkpt>
      <trkpt lat="47.28207" lon="-2.3579">
        <ele>143.60000610352</ele>
        <time>2022-03-31T07:45:16.000Z</time>
      </trkpt>
      <trkpt lat="47.28208" lon="-2.35806">
        <ele>145.60000610352</ele>
        <time>2022-03-31T07:45:48.000Z</time>
      </trkpt>
      <trkpt lat="47.28204" lon="-2.35815">
        <ele>145.60000610352</ele>
        <time>2022-03-31T07:45:50.000Z</time>
      </trkpt>
      <trkpt lat="47.28192" lon="-2.35841">
        <ele>145</ele>
        <time>2022-03-31T07:45:54.000Z</time>
      </trkpt>
      <trkpt lat="47.28189" lon="-2.35848">
        <ele>144.60000610352</ele>
        <time>2022-03-31T07:45:55.000Z</time>
      </trkpt>
      <trkpt lat="47.28186" lon="-2.35855">
        <ele>144.19999694824</ele>
        <time>2022-03-31T07:45:56.000Z</time>
      </trkpt>
      <trkpt lat="47.28183" lon="-2.35863">
        <ele>143.60000610352</ele>
        <time>2022-03-31T07:45:57.000Z</time>
      </trkpt>
      <trkpt lat="47.2818" lon="-2.35868">
        <ele>143.19999694824</ele>
        <time>2022-03-31T07:45:58.000Z</time>
      </trkpt>
      <trkpt lat="47.28176" lon="-2.3588">
        <ele>143.19999694824</ele>
        <time>2022-03-31T07:46:00.000Z</time>
      </trkpt>
      <trkpt lat="47.28175" lon="-2.35896">
        <ele>142.80000305176</ele>
        <time>2022-03-31T07:46:03.000Z</time>
      </trkpt>
      <trkpt lat="47.28175" lon="-2.35902">
        <ele>142.39999389648</ele>
        <time>2022-03-31T07:46:04.000Z</time>
      </trkpt>
      <trkpt lat="47.28175" lon="-2.35908">
        <ele>142</ele>
        <time>2022-03-31T07:46:05.000Z</time>
      </trkpt>
      <trkpt lat="47.28175" lon="-2.35915">
        <ele>141.60000610352</ele>
        <time>2022-03-31T07:46:06.000Z</time>
      </trkpt>
      <trkpt lat="47.28175" lon="-2.35923">
        <ele>141.19999694824</ele>
        <time>2022-03-31T07:46:07.000Z</time>
      </trkpt>
      <trkpt lat="47.28177" lon="-2.35929">
        <ele>141.19999694824</ele>
        <time>2022-03-31T07:46:08.000Z</time>
      </trkpt>
      <trkpt lat="47.28177" lon="-2.35937">
        <ele>141.19999694824</ele>
        <time>2022-03-31T07:46:10.000Z</time>
      </trkpt>
      <trkpt lat="47.28178" lon="-2.35946">
        <ele>141.19999694824</ele>
        <time>2022-03-31T07:46:46.000Z</time>
      </trkpt>
      <trkpt lat="47.28183" lon="-2.35962">
        <ele>141.19999694824</ele>
        <time>2022-03-31T07:46:50.000Z</time>
      </trkpt>
      <trkpt lat="47.28191" lon="-2.35984">
        <ele>141.19999694824</ele>
        <time>2022-03-31T07:46:54.000Z</time>
      </trkpt>
      <trkpt lat="47.28205" lon="-2.3601">
        <ele>141.19999694824</ele>
        <time>2022-03-31T07:46:59.000Z</time>
      </trkpt>
      <trkpt lat="47.2821" lon="-2.36022">
        <ele>141.19999694824</ele>
        <time>2022-03-31T07:47:03.000Z</time>
      </trkpt>
      <trkpt lat="47.28221" lon="-2.3603">
        <ele>141.19999694824</ele>
        <time>2022-03-31T07:47:06.000Z</time>
      </trkpt>
      <trkpt lat="47.28228" lon="-2.36029">
        <ele>141.19999694824</ele>
        <time>2022-03-31T07:47:08.000Z</time>
      </trkpt>
      <trkpt lat="47.2823" lon="-2.36028">
        <ele>141.19999694824</ele>
        <time>2022-03-31T07:47:09.000Z</time>
      </trkpt>
      <trkpt lat="47.28245" lon="-2.3602">
        <ele>141.19999694824</ele>
        <time>2022-03-31T07:47:14.000Z</time>
      </trkpt>
      <trkpt lat="47.2825" lon="-2.3602">
        <ele>141.19999694824</ele>
        <time>2022-03-31T07:47:16.000Z</time>
      </trkpt>
      <trkpt lat="47.28254" lon="-2.36023">
        <ele>141.19999694824</ele>
        <time>2022-03-31T07:47:18.000Z</time>
      </trkpt>
      <trkpt lat="47.28251" lon="-2.36028">
        <ele>141.19999694824</ele>
        <time>2022-03-31T07:47:20.000Z</time>
      </trkpt>
      <trkpt lat="47.2825" lon="-2.36031">
        <ele>141.60000610352</ele>
        <time>2022-03-31T07:47:21.000Z</time>
      </trkpt>
      <trkpt lat="47.28249" lon="-2.36035">
        <ele>142</ele>
        <time>2022-03-31T07:47:22.000Z</time>
      </trkpt>
      <trkpt lat="47.28249" lon="-2.3604">
        <ele>142.39999389648</ele>
        <time>2022-03-31T07:47:23.000Z</time>
      </trkpt>
      <trkpt lat="47.28248" lon="-2.36044">
        <ele>142.80000305176</ele>
        <time>2022-03-31T07:47:24.000Z</time>
      </trkpt>
      <trkpt lat="47.28248" lon="-2.36048">
        <ele>143.39999389648</ele>
        <time>2022-03-31T07:47:25.000Z</time>
      </trkpt>
      <trkpt lat="47.28247" lon="-2.36057">
        <ele>143.39999389648</ele>
        <time>2022-03-31T07:47:27.000Z</time>
      </trkpt>
      <trkpt lat="47.28245" lon="-2.36071">
        <ele>143.80000305176</ele>
        <time>2022-03-31T07:47:30.000Z</time>
      </trkpt>
      <trkpt lat="47.28243" lon="-2.36075">
        <ele>144.19999694824</ele>
        <time>2022-03-31T07:47:31.000Z</time>
      </trkpt>
      <trkpt lat="47.28242" lon="-2.36079">
        <ele>144.60000610352</ele>
        <time>2022-03-31T07:47:32.000Z</time>
      </trkpt>
      <trkpt lat="47.2824" lon="-2.36083">
        <ele>145</ele>
        <time>2022-03-31T07:47:33.000Z</time>
      </trkpt>
      <trkpt lat="47.28239" lon="-2.36087">
        <ele>145.39999389648</ele>
        <time>2022-03-31T07:47:34.000Z</time>
      </trkpt>
      <trkpt lat="47.28238" lon="-2.36102">
        <ele>145.39999389648</ele>
        <time>2022-03-31T07:47:37.000Z</time>
      </trkpt>
      <trkpt lat="47.28246" lon="-2.3613">
        <ele>145.39999389648</ele>
        <time>2022-03-31T07:47:42.000Z</time>
      </trkpt>
      <trkpt lat="47.28261" lon="-2.36161">
        <ele>145.39999389648</ele>
        <time>2022-03-31T07:47:47.000Z</time>
      </trkpt>
      <trkpt lat="47.28268" lon="-2.36196">
        <ele>145.39999389648</ele>
        <time>2022-03-31T07:47:53.000Z</time>
      </trkpt>
      <trkpt lat="47.28272" lon="-2.36211">
        <ele>145</ele>
        <time>2022-03-31T07:47:56.000Z</time>
      </trkpt>
      <trkpt lat="47.28275" lon="-2.36214">
        <ele>144.60000610352</ele>
        <time>2022-03-31T07:47:57.000Z</time>
      </trkpt>
      <trkpt lat="47.28277" lon="-2.36215">
        <ele>144.19999694824</ele>
        <time>2022-03-31T07:47:58.000Z</time>
      </trkpt>
      <trkpt lat="47.28279" lon="-2.36216">
        <ele>143.80000305176</ele>
        <time>2022-03-31T07:47:59.000Z</time>
      </trkpt>
      <trkpt lat="47.28281" lon="-2.36217">
        <ele>143.39999389648</ele>
        <time>2022-03-31T07:48:00.000Z</time>
      </trkpt>
      <trkpt lat="47.28283" lon="-2.36218">
        <ele>143.39999389648</ele>
        <time>2022-03-31T07:48:01.000Z</time>
      </trkpt>
      <trkpt lat="47.28287" lon="-2.36216">
        <ele>143.39999389648</ele>
        <time>2022-03-31T07:48:03.000Z</time>
      </trkpt>
      <trkpt lat="47.28296" lon="-2.36212">
        <ele>143.39999389648</ele>
        <time>2022-03-31T07:48:07.000Z</time>
      </trkpt>
      <trkpt lat="47.28304" lon="-2.3621">
        <ele>143.80000305176</ele>
        <time>2022-03-31T07:48:10.000Z</time>
      </trkpt>
      <trkpt lat="47.28307" lon="-2.36209">
        <ele>144.19999694824</ele>
        <time>2022-03-31T07:48:11.000Z</time>
      </trkpt>
      <trkpt lat="47.28309" lon="-2.36208">
        <ele>144.80000305176</ele>
        <time>2022-03-31T07:48:12.000Z</time>
      </trkpt>
      <trkpt lat="47.28312" lon="-2.36207">
        <ele>145.19999694824</ele>
        <time>2022-03-31T07:48:13.000Z</time>
      </trkpt>
      <trkpt lat="47.28314" lon="-2.36206">
        <ele>145.60000610352</ele>
        <time>2022-03-31T07:48:14.000Z</time>
      </trkpt>
      <trkpt lat="47.28326" lon="-2.36197">
        <ele>145.60000610352</ele>
        <time>2022-03-31T07:48:19.000Z</time>
      </trkpt>
      <trkpt lat="47.28331" lon="-2.36193">
        <ele>146</ele>
        <time>2022-03-31T07:48:22.000Z</time>
      </trkpt>
      <trkpt lat="47.28332" lon="-2.36191">
        <ele>146.39999389648</ele>
        <time>2022-03-31T07:48:23.000Z</time>
      </trkpt>
      <trkpt lat="47.28334" lon="-2.36189">
        <ele>146.80000305176</ele>
        <time>2022-03-31T07:48:24.000Z</time>
      </trkpt>
      <trkpt lat="47.28335" lon="-2.36188">
        <ele>147.19999694824</ele>
        <time>2022-03-31T07:48:25.000Z</time>
      </trkpt>
      <trkpt lat="47.28336" lon="-2.36186">
        <ele>147.60000610352</ele>
        <time>2022-03-31T07:48:26.000Z</time>
      </trkpt>
      <trkpt lat="47.2834" lon="-2.36182">
        <ele>148</ele>
        <time>2022-03-31T07:48:29.000Z</time>
      </trkpt>
      <trkpt lat="47.28342" lon="-2.3618">
        <ele>148.80000305176</ele>
        <time>2022-03-31T07:48:30.000Z</time>
      </trkpt>
      <trkpt lat="47.28344" lon="-2.36178">
        <ele>149.19999694824</ele>
        <time>2022-03-31T07:48:31.000Z</time>
      </trkpt>
      <trkpt lat="47.28345" lon="-2.36176">
        <ele>149.60000610352</ele>
        <time>2022-03-31T07:48:32.000Z</time>
      </trkpt>
      <trkpt lat="47.28347" lon="-2.36174">
        <ele>150</ele>
        <time>2022-03-31T07:48:33.000Z</time>
      </trkpt>
      <trkpt lat="47.28348" lon="-2.36172">
        <ele>150.60000610352</ele>
        <time>2022-03-31T07:48:34.000Z</time>
      </trkpt>
      <trkpt lat="47.28349" lon="-2.3617">
        <ele>151</ele>
        <time>2022-03-31T07:48:35.000Z</time>
      </trkpt>
      <trkpt lat="47.2835" lon="-2.36168">
        <ele>151.39999389648</ele>
        <time>2022-03-31T07:48:36.000Z</time>
      </trkpt>
      <trkpt lat="47.28351" lon="-2.36166">
        <ele>151.80000305176</ele>
        <time>2022-03-31T07:48:37.000Z</time>
      </trkpt>
      <trkpt lat="47.28352" lon="-2.36165">
        <ele>152.19999694824</ele>
        <time>2022-03-31T07:48:38.000Z</time>
      </trkpt>
      <trkpt lat="47.28354" lon="-2.36163">
        <ele>152.60000610352</ele>
        <time>2022-03-31T07:48:39.000Z</time>
      </trkpt>
      <trkpt lat="47.28356" lon="-2.36161">
        <ele>153.19999694824</ele>
        <time>2022-03-31T07:48:40.000Z</time>
      </trkpt>
      <trkpt lat="47.28357" lon="-2.3616">
        <ele>153.60000610352</ele>
        <time>2022-03-31T07:48:41.000Z</time>
      </trkpt>
      <trkpt lat="47.28359" lon="-2.36158">
        <ele>154</ele>
        <time>2022-03-31T07:48:42.000Z</time>
      </trkpt>
      <trkpt lat="47.2836" lon="-2.36157">
        <ele>154.60000610352</ele>
        <time>2022-03-31T07:48:43.000Z</time>
      </trkpt>
      <trkpt lat="47.28361" lon="-2.36156">
        <ele>155</ele>
        <time>2022-03-31T07:48:44.000Z</time>
      </trkpt>
      <trkpt lat="47.28362" lon="-2.36154">
        <ele>155.39999389648</ele>
        <time>2022-03-31T07:48:45.000Z</time>
      </trkpt>
      <trkpt lat="47.28364" lon="-2.36153">
        <ele>155.80000305176</ele>
        <time>2022-03-31T07:48:46.000Z</time>
      </trkpt>
      <trkpt lat="47.28365" lon="-2.36152">
        <ele>156.39999389648</ele>
        <time>2022-03-31T07:48:47.000Z</time>
      </trkpt>
      <trkpt lat="47.28366" lon="-2.36151">
        <ele>156.80000305176</ele>
        <time>2022-03-31T07:48:48.000Z</time>
      </trkpt>
      <trkpt lat="47.28367" lon="-2.36149">
        <ele>157.19999694824</ele>
        <time>2022-03-31T07:48:49.000Z</time>
      </trkpt>
      <trkpt lat="47.28369" lon="-2.36147">
        <ele>157.60000610352</ele>
        <time>2022-03-31T07:48:50.000Z</time>
      </trkpt>
      <trkpt lat="47.2837" lon="-2.36145">
        <ele>158</ele>
        <time>2022-03-31T07:48:51.000Z</time>
      </trkpt>
      <trkpt lat="47.28373" lon="-2.3614">
        <ele>158.39999389648</ele>
        <time>2022-03-31T07:48:52.000Z</time>
      </trkpt>
      <trkpt lat="47.28379" lon="-2.36127">
        <ele>158.80000305176</ele>
        <time>2022-03-31T07:48:56.000Z</time>
      </trkpt>
      <trkpt lat="47.2838" lon="-2.36125">
        <ele>159.39999389648</ele>
        <time>2022-03-31T07:48:57.000Z</time>
      </trkpt>
      <trkpt lat="47.2838" lon="-2.36122">
        <ele>159.80000305176</ele>
        <time>2022-03-31T07:48:58.000Z</time>
      </trkpt>
      <trkpt lat="47.28381" lon="-2.36119">
        <ele>160.19999694824</ele>
        <time>2022-03-31T07:48:59.000Z</time>
      </trkpt>
      <trkpt lat="47.28382" lon="-2.36117">
        <ele>160.60000610352</ele>
        <time>2022-03-31T07:49:00.000Z</time>
      </trkpt>
      <trkpt lat="47.28383" lon="-2.36111">
        <ele>160.60000610352</ele>
        <time>2022-03-31T07:49:02.000Z</time>
      </trkpt>
      <trkpt lat="47.28385" lon="-2.361">
        <ele>161</ele>
        <time>2022-03-31T07:49:06.000Z</time>
      </trkpt>
      <trkpt lat="47.28385" lon="-2.36096">
        <ele>161.39999389648</ele>
        <time>2022-03-31T07:49:07.000Z</time>
      </trkpt>
      <trkpt lat="47.28385" lon="-2.36093">
        <ele>161.80000305176</ele>
        <time>2022-03-31T07:49:08.000Z</time>
      </trkpt>
      <trkpt lat="47.28385" lon="-2.3609">
        <ele>162.19999694824</ele>
        <time>2022-03-31T07:49:09.000Z</time>
      </trkpt>
      <trkpt lat="47.28386" lon="-2.36086">
        <ele>162.60000610352</ele>
        <time>2022-03-31T07:49:10.000Z</time>
      </trkpt>
      <trkpt lat="47.28385" lon="-2.36073">
        <ele>162.60000610352</ele>
        <time>2022-03-31T07:49:15.000Z</time>
      </trkpt>
      <trkpt lat="47.28384" lon="-2.36053">
        <ele>162.60000610352</ele>
        <time>2022-03-31T07:49:21.000Z</time>
      </trkpt>
      <trkpt lat="47.28384" lon="-2.36048">
        <ele>162.60000610352</ele>
        <time>2022-03-31T07:49:26.000Z</time>
      </trkpt>
      <trkpt lat="47.28384" lon="-2.36039">
        <ele>162.60000610352</ele>
        <time>2022-03-31T07:49:30.000Z</time>
      </trkpt>
      <trkpt lat="47.28385" lon="-2.36028">
        <ele>162.60000610352</ele>
        <time>2022-03-31T07:49:33.000Z</time>
      </trkpt>
      <trkpt lat="47.28386" lon="-2.36026">
        <ele>162.60000610352</ele>
        <time>2022-03-31T07:49:34.000Z</time>
      </trkpt>
      <trkpt lat="47.2839" lon="-2.36025">
        <ele>162.60000610352</ele>
        <time>2022-03-31T07:49:37.000Z</time>
      </trkpt>
      <trkpt lat="47.28391" lon="-2.36025">
        <ele>162.60000610352</ele>
        <time>2022-03-31T07:49:38.000Z</time>
      </trkpt>
      <trkpt lat="47.28394" lon="-2.36025">
        <ele>162.60000610352</ele>
        <time>2022-03-31T07:49:41.000Z</time>
      </trkpt>
      <trkpt lat="47.28396" lon="-2.36024">
        <ele>162.60000610352</ele>
        <time>2022-03-31T07:50:06.000Z</time>
      </trkpt>
      <trkpt lat="47.28397" lon="-2.36023">
        <ele>162.60000610352</ele>
        <time>2022-03-31T07:50:07.000Z</time>
      </trkpt>
      <trkpt lat="47.28405" lon="-2.36018">
        <ele>163</ele>
        <time>2022-03-31T07:50:12.000Z</time>
      </trkpt>
      <trkpt lat="47.28407" lon="-2.36016">
        <ele>163.39999389648</ele>
        <time>2022-03-31T07:50:13.000Z</time>
      </trkpt>
      <trkpt lat="47.28408" lon="-2.36013">
        <ele>163.80000305176</ele>
        <time>2022-03-31T07:50:14.000Z</time>
      </trkpt>
      <trkpt lat="47.2841" lon="-2.36011">
        <ele>164.19999694824</ele>
        <time>2022-03-31T07:50:15.000Z</time>
      </trkpt>
      <trkpt lat="47.28414" lon="-2.36008">
        <ele>164.60000610352</ele>
        <time>2022-03-31T07:50:16.000Z</time>
      </trkpt>
      <trkpt lat="47.2842" lon="-2.36002">
        <ele>164.60000610352</ele>
        <time>2022-03-31T07:50:18.000Z</time>
      </trkpt>
      <trkpt lat="47.28436" lon="-2.35992">
        <ele>164.60000610352</ele>
        <time>2022-03-31T07:50:24.000Z</time>
      </trkpt>
      <trkpt lat="47.28447" lon="-2.35991">
        <ele>164.60000610352</ele>
        <time>2022-03-31T07:50:29.000Z</time>
      </trkpt>
      <trkpt lat="47.28449" lon="-2.35994">
        <ele>164.60000610352</ele>
        <time>2022-03-31T07:50:30.000Z</time>
      </trkpt>
      <trkpt lat="47.28461" lon="-2.36016">
        <ele>164.60000610352</ele>
        <time>2022-03-31T07:50:36.000Z</time>
      </trkpt>
      <trkpt lat="47.28475" lon="-2.36027">
        <ele>164.60000610352</ele>
        <time>2022-03-31T07:50:41.000Z</time>
      </trkpt>
      <trkpt lat="47.28492" lon="-2.36033">
        <ele>165</ele>
        <time>2022-03-31T07:50:46.000Z</time>
      </trkpt>
      <trkpt lat="47.28495" lon="-2.36035">
        <ele>165.39999389648</ele>
        <time>2022-03-31T07:50:47.000Z</time>
      </trkpt>
      <trkpt lat="47.28498" lon="-2.36037">
        <ele>165.80000305176</ele>
        <time>2022-03-31T07:50:48.000Z</time>
      </trkpt>
      <trkpt lat="47.28501" lon="-2.36039">
        <ele>166.19999694824</ele>
        <time>2022-03-31T07:50:49.000Z</time>
      </trkpt>
      <trkpt lat="47.28504" lon="-2.36042">
        <ele>166.60000610352</ele>
        <time>2022-03-31T07:50:50.000Z</time>
      </trkpt>
      <trkpt lat="47.28506" lon="-2.36046">
        <ele>166.60000610352</ele>
        <time>2022-03-31T07:50:51.000Z</time>
      </trkpt>
      <trkpt lat="47.28524" lon="-2.36073">
        <ele>166.60000610352</ele>
        <time>2022-03-31T07:50:58.000Z</time>
      </trkpt>
      <trkpt lat="47.28532" lon="-2.36101">
        <ele>166.60000610352</ele>
        <time>2022-03-31T07:51:03.000Z</time>
      </trkpt>
      <trkpt lat="47.28537" lon="-2.36123">
        <ele>166.60000610352</ele>
        <time>2022-03-31T07:51:06.000Z</time>
      </trkpt>
      <trkpt lat="47.28539" lon="-2.36131">
        <ele>166.60000610352</ele>
        <time>2022-03-31T07:51:07.000Z</time>
      </trkpt>
      <trkpt lat="47.28544" lon="-2.36145">
        <ele>166.60000610352</ele>
        <time>2022-03-31T07:51:09.000Z</time>
      </trkpt>
      <trkpt lat="47.2855" lon="-2.36157">
        <ele>166.60000610352</ele>
        <time>2022-03-31T07:51:12.000Z</time>
      </trkpt>
      <trkpt lat="47.28553" lon="-2.36173">
        <ele>166.60000610352</ele>
        <time>2022-03-31T07:51:16.000Z</time>
      </trkpt>
      <trkpt lat="47.28552" lon="-2.36178">
        <ele>166.60000610352</ele>
        <time>2022-03-31T07:51:17.000Z</time>
      </trkpt>
      <trkpt lat="47.28549" lon="-2.36211">
        <ele>166.60000610352</ele>
        <time>2022-03-31T07:51:23.000Z</time>
      </trkpt>
      <trkpt lat="47.28548" lon="-2.3624">
        <ele>166.60000610352</ele>
        <time>2022-03-31T07:51:28.000Z</time>
      </trkpt>
      <trkpt lat="47.2855" lon="-2.36269">
        <ele>166.60000610352</ele>
        <time>2022-03-31T07:51:33.000Z</time>
      </trkpt>
      <trkpt lat="47.28545" lon="-2.36294">
        <ele>166.60000610352</ele>
        <time>2022-03-31T07:51:38.000Z</time>
      </trkpt>
      <trkpt lat="47.28536" lon="-2.36314">
        <ele>166.60000610352</ele>
        <time>2022-03-31T07:51:42.000Z</time>
      </trkpt>
      <trkpt lat="47.28535" lon="-2.3633">
        <ele>166.60000610352</ele>
        <time>2022-03-31T07:51:45.000Z</time>
      </trkpt>
      <trkpt lat="47.28537" lon="-2.36334">
        <ele>166.60000610352</ele>
        <time>2022-03-31T07:51:46.000Z</time>
      </trkpt>
      <trkpt lat="47.2854" lon="-2.36343">
        <ele>166.60000610352</ele>
        <time>2022-03-31T07:51:49.000Z</time>
      </trkpt>
      <trkpt lat="47.28543" lon="-2.36362">
        <ele>167.19999694824</ele>
        <time>2022-03-31T07:51:54.000Z</time>
      </trkpt>
      <trkpt lat="47.28543" lon="-2.36367">
        <ele>167.60000610352</ele>
        <time>2022-03-31T07:51:55.000Z</time>
      </trkpt>
      <trkpt lat="47.28544" lon="-2.36371">
        <ele>168</ele>
        <time>2022-03-31T07:51:56.000Z</time>
      </trkpt>
      <trkpt lat="47.28544" lon="-2.36375">
        <ele>168.39999389648</ele>
        <time>2022-03-31T07:51:57.000Z</time>
      </trkpt>
      <trkpt lat="47.28545" lon="-2.36379">
        <ele>169</ele>
        <time>2022-03-31T07:51:58.000Z</time>
      </trkpt>
      <trkpt lat="47.28547" lon="-2.36398">
        <ele>169</ele>
        <time>2022-03-31T07:52:02.000Z</time>
      </trkpt>
      <trkpt lat="47.28553" lon="-2.36425">
        <ele>169</ele>
        <time>2022-03-31T07:52:07.000Z</time>
      </trkpt>
      <trkpt lat="47.28559" lon="-2.36447">
        <ele>169</ele>
        <time>2022-03-31T07:52:12.000Z</time>
      </trkpt>
      <trkpt lat="47.28567" lon="-2.3646">
        <ele>169</ele>
        <time>2022-03-31T07:52:15.000Z</time>
      </trkpt>
      <trkpt lat="47.28571" lon="-2.36463">
        <ele>169</ele>
        <time>2022-03-31T07:52:16.000Z</time>
      </trkpt>
      <trkpt lat="47.28582" lon="-2.3648">
        <ele>169</ele>
        <time>2022-03-31T07:52:19.000Z</time>
      </trkpt>
      <trkpt lat="47.28588" lon="-2.36492">
        <ele>169</ele>
        <time>2022-03-31T07:52:21.000Z</time>
      </trkpt>
      <trkpt lat="47.28593" lon="-2.36498">
        <ele>169</ele>
        <time>2022-03-31T07:52:22.000Z</time>
      </trkpt>
      <trkpt lat="47.28597" lon="-2.36504">
        <ele>168.39999389648</ele>
        <time>2022-03-31T07:52:23.000Z</time>
      </trkpt>
      <trkpt lat="47.28601" lon="-2.36511">
        <ele>168</ele>
        <time>2022-03-31T07:52:24.000Z</time>
      </trkpt>
      <trkpt lat="47.28605" lon="-2.3652">
        <ele>167.39999389648</ele>
        <time>2022-03-31T07:52:25.000Z</time>
      </trkpt>
      <trkpt lat="47.28609" lon="-2.36529">
        <ele>166.60000610352</ele>
        <time>2022-03-31T07:52:26.000Z</time>
      </trkpt>
      <trkpt lat="47.28611" lon="-2.36536">
        <ele>165.80000305176</ele>
        <time>2022-03-31T07:52:27.000Z</time>
      </trkpt>
      <trkpt lat="47.28613" lon="-2.36542">
        <ele>165</ele>
        <time>2022-03-31T07:52:28.000Z</time>
      </trkpt>
      <trkpt lat="47.28614" lon="-2.36546">
        <ele>164.19999694824</ele>
        <time>2022-03-31T07:52:29.000Z</time>
      </trkpt>
      <trkpt lat="47.28616" lon="-2.3655">
        <ele>163.39999389648</ele>
        <time>2022-03-31T07:52:30.000Z</time>
      </trkpt>
      <trkpt lat="47.28617" lon="-2.36552">
        <ele>162.60000610352</ele>
        <time>2022-03-31T07:52:31.000Z</time>
      </trkpt>
      <trkpt lat="47.28617" lon="-2.36554">
        <ele>162.19999694824</ele>
        <time>2022-03-31T07:52:32.000Z</time>
      </trkpt>
      <trkpt lat="47.28617" lon="-2.36555">
        <ele>161.60000610352</ele>
        <time>2022-03-31T07:52:33.000Z</time>
      </trkpt>
      <trkpt lat="47.28619" lon="-2.3656">
        <ele>160.39999389648</ele>
        <time>2022-03-31T07:53:51.000Z</time>
      </trkpt>
      <trkpt lat="47.28626" lon="-2.36576">
        <ele>160.39999389648</ele>
        <time>2022-03-31T07:53:56.000Z</time>
      </trkpt>
      <trkpt lat="47.28628" lon="-2.3658">
        <ele>160.80000305176</ele>
        <time>2022-03-31T07:53:57.000Z</time>
      </trkpt>
      <trkpt lat="47.28631" lon="-2.36583">
        <ele>161.39999389648</ele>
        <time>2022-03-31T07:53:58.000Z</time>
      </trkpt>
      <trkpt lat="47.28633" lon="-2.36587">
        <ele>161.80000305176</ele>
        <time>2022-03-31T07:53:59.000Z</time>
      </trkpt>
      <trkpt lat="47.28635" lon="-2.36591">
        <ele>162.19999694824</ele>
        <time>2022-03-31T07:54:00.000Z</time>
      </trkpt>
      <trkpt lat="47.28636" lon="-2.36593">
        <ele>162.60000610352</ele>
        <time>2022-03-31T07:54:01.000Z</time>
      </trkpt>
      <trkpt lat="47.28638" lon="-2.36596">
        <ele>162.60000610352</ele>
        <time>2022-03-31T07:54:02.000Z</time>
      </trkpt>
      <trkpt lat="47.28652" lon="-2.36607">
        <ele>162.60000610352</ele>
        <time>2022-03-31T07:54:07.000Z</time>
      </trkpt>
      <trkpt lat="47.28667" lon="-2.36603">
        <ele>162.60000610352</ele>
        <time>2022-03-31T07:54:12.000Z</time>
      </trkpt>
      <trkpt lat="47.28677" lon="-2.36594">
        <ele>163</ele>
        <time>2022-03-31T07:54:16.000Z</time>
      </trkpt>
      <trkpt lat="47.28678" lon="-2.36593">
        <ele>163.39999389648</ele>
        <time>2022-03-31T07:54:17.000Z</time>
      </trkpt>
      <trkpt lat="47.2868" lon="-2.36591">
        <ele>163.80000305176</ele>
        <time>2022-03-31T07:54:18.000Z</time>
      </trkpt>
      <trkpt lat="47.2868" lon="-2.36588">
        <ele>164.19999694824</ele>
        <time>2022-03-31T07:54:19.000Z</time>
      </trkpt>
      <trkpt lat="47.28682" lon="-2.36585">
        <ele>164.60000610352</ele>
        <time>2022-03-31T07:54:20.000Z</time>
      </trkpt>
      <trkpt lat="47.28683" lon="-2.36582">
        <ele>164.60000610352</ele>
        <time>2022-03-31T07:54:21.000Z</time>
      </trkpt>
      <trkpt lat="47.28685" lon="-2.36579">
        <ele>165</ele>
        <time>2022-03-31T07:54:22.000Z</time>
      </trkpt>
      <trkpt lat="47.28686" lon="-2.36576">
        <ele>165.39999389648</ele>
        <time>2022-03-31T07:54:23.000Z</time>
      </trkpt>
      <trkpt lat="47.28687" lon="-2.36573">
        <ele>166</ele>
        <time>2022-03-31T07:54:24.000Z</time>
      </trkpt>
      <trkpt lat="47.28687" lon="-2.3657">
        <ele>166.39999389648</ele>
        <time>2022-03-31T07:54:25.000Z</time>
      </trkpt>
      <trkpt lat="47.28688" lon="-2.36568">
        <ele>166.80000305176</ele>
        <time>2022-03-31T07:54:26.000Z</time>
      </trkpt>
      <trkpt lat="47.28688" lon="-2.36566">
        <ele>167.39999389648</ele>
        <time>2022-03-31T07:54:27.000Z</time>
      </trkpt>
      <trkpt lat="47.28688" lon="-2.36564">
        <ele>167.80000305176</ele>
        <time>2022-03-31T07:54:28.000Z</time>
      </trkpt>
      <trkpt lat="47.28689" lon="-2.36562">
        <ele>168.19999694824</ele>
        <time>2022-03-31T07:54:29.000Z</time>
      </trkpt>
      <trkpt lat="47.28688" lon="-2.3656">
        <ele>168.80000305176</ele>
        <time>2022-03-31T07:54:30.000Z</time>
      </trkpt>
      <trkpt lat="47.28688" lon="-2.36558">
        <ele>169.19999694824</ele>
        <time>2022-03-31T07:54:31.000Z</time>
      </trkpt>
      <trkpt lat="47.28688" lon="-2.36548">
        <ele>169.60000610352</ele>
        <time>2022-03-31T07:54:34.000Z</time>
      </trkpt>
      <trkpt lat="47.28688" lon="-2.36544">
        <ele>170</ele>
        <time>2022-03-31T07:54:35.000Z</time>
      </trkpt>
      <trkpt lat="47.28687" lon="-2.36541">
        <ele>170.39999389648</ele>
        <time>2022-03-31T07:54:36.000Z</time>
      </trkpt>
      <trkpt lat="47.28687" lon="-2.36538">
        <ele>170.80000305176</ele>
        <time>2022-03-31T07:54:37.000Z</time>
      </trkpt>
      <trkpt lat="47.28687" lon="-2.36535">
        <ele>171.19999694824</ele>
        <time>2022-03-31T07:54:38.000Z</time>
      </trkpt>
      <trkpt lat="47.28687" lon="-2.36531">
        <ele>171.19999694824</ele>
        <time>2022-03-31T07:54:39.000Z</time>
      </trkpt>
      <trkpt lat="47.28687" lon="-2.36527">
        <ele>171.60000610352</ele>
        <time>2022-03-31T07:54:40.000Z</time>
      </trkpt>
      <trkpt lat="47.28687" lon="-2.36523">
        <ele>172.19999694824</ele>
        <time>2022-03-31T07:54:41.000Z</time>
      </trkpt>
      <trkpt lat="47.28687" lon="-2.36519">
        <ele>172.60000610352</ele>
        <time>2022-03-31T07:54:42.000Z</time>
      </trkpt>
      <trkpt lat="47.28687" lon="-2.36515">
        <ele>173</ele>
        <time>2022-03-31T07:54:43.000Z</time>
      </trkpt>
      <trkpt lat="47.28688" lon="-2.36512">
        <ele>173.39999389648</ele>
        <time>2022-03-31T07:54:44.000Z</time>
      </trkpt>
      <trkpt lat="47.28687" lon="-2.36504">
        <ele>173.39999389648</ele>
        <time>2022-03-31T07:54:46.000Z</time>
      </trkpt>
      <trkpt lat="47.2869" lon="-2.36469">
        <ele>173.39999389648</ele>
        <time>2022-03-31T07:54:53.000Z</time>
      </trkpt>
      <trkpt lat="47.2869" lon="-2.36439">
        <ele>173.39999389648</ele>
        <time>2022-03-31T07:54:59.000Z</time>
      </trkpt>
      <trkpt lat="47.2869" lon="-2.36432">
        <ele>173.39999389648</ele>
        <time>2022-03-31T07:55:00.000Z</time>
      </trkpt>
      <trkpt lat="47.28691" lon="-2.36411">
        <ele>173.39999389648</ele>
        <time>2022-03-31T07:55:03.000Z</time>
      </trkpt>
      <trkpt lat="47.28692" lon="-2.36404">
        <ele>173.39999389648</ele>
        <time>2022-03-31T07:55:04.000Z</time>
      </trkpt>
      <trkpt lat="47.28696" lon="-2.36382">
        <ele>173.39999389648</ele>
        <time>2022-03-31T07:55:07.000Z</time>
      </trkpt>
      <trkpt lat="47.28698" lon="-2.36366">
        <ele>173.39999389648</ele>
        <time>2022-03-31T07:55:09.000Z</time>
      </trkpt>
      <trkpt lat="47.287" lon="-2.36358">
        <ele>173.39999389648</ele>
        <time>2022-03-31T07:55:10.000Z</time>
      </trkpt>
      <trkpt lat="47.28701" lon="-2.36349">
        <ele>173.39999389648</ele>
        <time>2022-03-31T07:55:11.000Z</time>
      </trkpt>
      <trkpt lat="47.28703" lon="-2.36334">
        <ele>173</ele>
        <time>2022-03-31T07:55:13.000Z</time>
      </trkpt>
      <trkpt lat="47.28704" lon="-2.36328">
        <ele>172.39999389648</ele>
        <time>2022-03-31T07:55:14.000Z</time>
      </trkpt>
      <trkpt lat="47.28705" lon="-2.36321">
        <ele>172</ele>
        <time>2022-03-31T07:55:15.000Z</time>
      </trkpt>
      <trkpt lat="47.28705" lon="-2.36314">
        <ele>171.39999389648</ele>
        <time>2022-03-31T07:55:16.000Z</time>
      </trkpt>
      <trkpt lat="47.28705" lon="-2.36307">
        <ele>171</ele>
        <time>2022-03-31T07:55:17.000Z</time>
      </trkpt>
      <trkpt lat="47.28706" lon="-2.36301">
        <ele>170.39999389648</ele>
        <time>2022-03-31T07:55:18.000Z</time>
      </trkpt>
      <trkpt lat="47.28707" lon="-2.36295">
        <ele>169.80000305176</ele>
        <time>2022-03-31T07:55:19.000Z</time>
      </trkpt>
      <trkpt lat="47.28707" lon="-2.36288">
        <ele>169.39999389648</ele>
        <time>2022-03-31T07:55:20.000Z</time>
      </trkpt>
      <trkpt lat="47.28709" lon="-2.36282">
        <ele>168.80000305176</ele>
        <time>2022-03-31T07:55:21.000Z</time>
      </trkpt>
      <trkpt lat="47.28712" lon="-2.36275">
        <ele>168.39999389648</ele>
        <time>2022-03-31T07:55:23.000Z</time>
      </trkpt>
      <trkpt lat="47.28714" lon="-2.36272">
        <ele>167.80000305176</ele>
        <time>2022-03-31T07:55:24.000Z</time>
      </trkpt>
      <trkpt lat="47.28716" lon="-2.36268">
        <ele>167.39999389648</ele>
        <time>2022-03-31T07:55:25.000Z</time>
      </trkpt>
      <trkpt lat="47.28718" lon="-2.36263">
        <ele>167</ele>
        <time>2022-03-31T07:55:26.000Z</time>
      </trkpt>
      <trkpt lat="47.2872" lon="-2.36259">
        <ele>166.39999389648</ele>
        <time>2022-03-31T07:55:27.000Z</time>
      </trkpt>
      <trkpt lat="47.28726" lon="-2.36249">
        <ele>166.39999389648</ele>
        <time>2022-03-31T07:55:30.000Z</time>
      </trkpt>
      <trkpt lat="47.28742" lon="-2.36234">
        <ele>166.39999389648</ele>
        <time>2022-03-31T07:55:36.000Z</time>
      </trkpt>
      <trkpt lat="47.28746" lon="-2.36233">
        <ele>166.39999389648</ele>
        <time>2022-03-31T07:55:37.000Z</time>
      </trkpt>
      <trkpt lat="47.28754" lon="-2.36238">
        <ele>166.39999389648</ele>
        <time>2022-03-31T07:55:39.000Z</time>
      </trkpt>
      <trkpt lat="47.28765" lon="-2.3625">
        <ele>166.39999389648</ele>
        <time>2022-03-31T07:55:42.000Z</time>
      </trkpt>
      <trkpt lat="47.28777" lon="-2.36262">
        <ele>166.39999389648</ele>
        <time>2022-03-31T07:55:45.000Z</time>
      </trkpt>
      <trkpt lat="47.28781" lon="-2.36265">
        <ele>166.39999389648</ele>
        <time>2022-03-31T07:55:46.000Z</time>
      </trkpt>
      <trkpt lat="47.28794" lon="-2.36276">
        <ele>166.39999389648</ele>
        <time>2022-03-31T07:55:49.000Z</time>
      </trkpt>
      <trkpt lat="47.28804" lon="-2.36284">
        <ele>166.39999389648</ele>
        <time>2022-03-31T07:55:51.000Z</time>
      </trkpt>
      <trkpt lat="47.28824" lon="-2.36302">
        <ele>165.60000610352</ele>
        <time>2022-03-31T07:55:55.000Z</time>
      </trkpt>
      <trkpt lat="47.28829" lon="-2.36308">
        <ele>165.19999694824</ele>
        <time>2022-03-31T07:55:56.000Z</time>
      </trkpt>
      <trkpt lat="47.28833" lon="-2.36313">
        <ele>164.80000305176</ele>
        <time>2022-03-31T07:55:57.000Z</time>
      </trkpt>
      <trkpt lat="47.28836" lon="-2.36317">
        <ele>164.19999694824</ele>
        <time>2022-03-31T07:55:58.000Z</time>
      </trkpt>
      <trkpt lat="47.28839" lon="-2.3632">
        <ele>164.19999694824</ele>
        <time>2022-03-31T07:55:59.000Z</time>
      </trkpt>
      <trkpt lat="47.28844" lon="-2.36322">
        <ele>164.19999694824</ele>
        <time>2022-03-31T07:56:01.000Z</time>
      </trkpt>
      <trkpt lat="47.28847" lon="-2.36319">
        <ele>164.19999694824</ele>
        <time>2022-03-31T07:56:03.000Z</time>
      </trkpt>
      <trkpt lat="47.28852" lon="-2.36324">
        <ele>164.19999694824</ele>
        <time>2022-03-31T07:56:07.000Z</time>
      </trkpt>
      <trkpt lat="47.28853" lon="-2.36325">
        <ele>164.19999694824</ele>
        <time>2022-03-31T07:56:08.000Z</time>
      </trkpt>
      <trkpt lat="47.28854" lon="-2.36325">
        <ele>164.19999694824</ele>
        <time>2022-03-31T07:56:16.000Z</time>
      </trkpt>
      <trkpt lat="47.28857" lon="-2.36326">
        <ele>164.19999694824</ele>
        <time>2022-03-31T07:56:17.000Z</time>
      </trkpt>
      <trkpt lat="47.28868" lon="-2.36327">
        <ele>163.80000305176</ele>
        <time>2022-03-31T07:56:19.000Z</time>
      </trkpt>
      <trkpt lat="47.28875" lon="-2.3633">
        <ele>163</ele>
        <time>2022-03-31T07:56:20.000Z</time>
      </trkpt>
      <trkpt lat="47.28884" lon="-2.36334">
        <ele>162.19999694824</ele>
        <time>2022-03-31T07:56:21.000Z</time>
      </trkpt>
      <trkpt lat="47.28893" lon="-2.36339">
        <ele>161.60000610352</ele>
        <time>2022-03-31T07:56:22.000Z</time>
      </trkpt>
      <trkpt lat="47.28903" lon="-2.36344">
        <ele>160.80000305176</ele>
        <time>2022-03-31T07:56:23.000Z</time>
      </trkpt>
      <trkpt lat="47.28913" lon="-2.36349">
        <ele>160</ele>
        <time>2022-03-31T07:56:24.000Z</time>
      </trkpt>
      <trkpt lat="47.28922" lon="-2.36354">
        <ele>159.19999694824</ele>
        <time>2022-03-31T07:56:25.000Z</time>
      </trkpt>
      <trkpt lat="47.2893" lon="-2.3636">
        <ele>158.19999694824</ele>
        <time>2022-03-31T07:56:26.000Z</time>
      </trkpt>
      <trkpt lat="47.28938" lon="-2.36368">
        <ele>157.39999389648</ele>
        <time>2022-03-31T07:56:27.000Z</time>
      </trkpt>
      <trkpt lat="47.28946" lon="-2.36376">
        <ele>156.80000305176</ele>
        <time>2022-03-31T07:56:28.000Z</time>
      </trkpt>
      <trkpt lat="47.28953" lon="-2.36385">
        <ele>156.19999694824</ele>
        <time>2022-03-31T07:56:29.000Z</time>
      </trkpt>
      <trkpt lat="47.28959" lon="-2.36393">
        <ele>155.60000610352</ele>
        <time>2022-03-31T07:56:30.000Z</time>
      </trkpt>
      <trkpt lat="47.28966" lon="-2.36402">
        <ele>155</ele>
        <time>2022-03-31T07:56:31.000Z</time>
      </trkpt>
      <trkpt lat="47.28972" lon="-2.36411">
        <ele>154.39999389648</ele>
        <time>2022-03-31T07:56:32.000Z</time>
      </trkpt>
      <trkpt lat="47.28982" lon="-2.3643">
        <ele>154</ele>
        <time>2022-03-31T07:56:34.000Z</time>
      </trkpt>
      <trkpt lat="47.28987" lon="-2.36439">
        <ele>153.60000610352</ele>
        <time>2022-03-31T07:56:35.000Z</time>
      </trkpt>
      <trkpt lat="47.28991" lon="-2.36448">
        <ele>153</ele>
        <time>2022-03-31T07:56:36.000Z</time>
      </trkpt>
      <trkpt lat="47.28997" lon="-2.36455">
        <ele>152.60000610352</ele>
        <time>2022-03-31T07:56:37.000Z</time>
      </trkpt>
      <trkpt lat="47.29001" lon="-2.36462">
        <ele>152.19999694824</ele>
        <time>2022-03-31T07:56:38.000Z</time>
      </trkpt>
      <trkpt lat="47.29016" lon="-2.36487">
        <ele>152.19999694824</ele>
        <time>2022-03-31T07:56:42.000Z</time>
      </trkpt>
      <trkpt lat="47.29021" lon="-2.36499">
        <ele>152.19999694824</ele>
        <time>2022-03-31T07:56:45.000Z</time>
      </trkpt>
      <trkpt lat="47.29018" lon="-2.36517">
        <ele>152.19999694824</ele>
        <time>2022-03-31T07:56:49.000Z</time>
      </trkpt>
      <trkpt lat="47.29013" lon="-2.36523">
        <ele>152.60000610352</ele>
        <time>2022-03-31T07:56:51.000Z</time>
      </trkpt>
      <trkpt lat="47.29009" lon="-2.36527">
        <ele>153</ele>
        <time>2022-03-31T07:56:52.000Z</time>
      </trkpt>
      <trkpt lat="47.29005" lon="-2.3653">
        <ele>153.39999389648</ele>
        <time>2022-03-31T07:56:53.000Z</time>
      </trkpt>
      <trkpt lat="47.29001" lon="-2.36533">
        <ele>153.80000305176</ele>
        <time>2022-03-31T07:56:54.000Z</time>
      </trkpt>
      <trkpt lat="47.28997" lon="-2.36536">
        <ele>154.19999694824</ele>
        <time>2022-03-31T07:56:55.000Z</time>
      </trkpt>
      <trkpt lat="47.28981" lon="-2.3655">
        <ele>154.19999694824</ele>
        <time>2022-03-31T07:56:59.000Z</time>
      </trkpt>
      <trkpt lat="47.28968" lon="-2.36566">
        <ele>154.19999694824</ele>
        <time>2022-03-31T07:57:03.000Z</time>
      </trkpt>
      <trkpt lat="47.28961" lon="-2.36575">
        <ele>154.19999694824</ele>
        <time>2022-03-31T07:57:05.000Z</time>
      </trkpt>
      <trkpt lat="47.28958" lon="-2.36581">
        <ele>154.19999694824</ele>
        <time>2022-03-31T07:57:06.000Z</time>
      </trkpt>
      <trkpt lat="47.28947" lon="-2.36601">
        <ele>154.19999694824</ele>
        <time>2022-03-31T07:57:10.000Z</time>
      </trkpt>
      <trkpt lat="47.28934" lon="-2.36631">
        <ele>154.19999694824</ele>
        <time>2022-03-31T07:57:16.000Z</time>
      </trkpt>
      <trkpt lat="47.28916" lon="-2.36675">
        <ele>154.19999694824</ele>
        <time>2022-03-31T07:57:25.000Z</time>
      </trkpt>
      <trkpt lat="47.28904" lon="-2.36701">
        <ele>154.19999694824</ele>
        <time>2022-03-31T07:57:31.000Z</time>
      </trkpt>
      <trkpt lat="47.28889" lon="-2.36735">
        <ele>154.19999694824</ele>
        <time>2022-03-31T07:57:38.000Z</time>
      </trkpt>
      <trkpt lat="47.28879" lon="-2.36767">
        <ele>154.19999694824</ele>
        <time>2022-03-31T07:57:45.000Z</time>
      </trkpt>
      <trkpt lat="47.28874" lon="-2.36783">
        <ele>154.19999694824</ele>
        <time>2022-03-31T07:57:52.000Z</time>
      </trkpt>
      <trkpt lat="47.2887" lon="-2.368">
        <ele>154.19999694824</ele>
        <time>2022-03-31T07:57:58.000Z</time>
      </trkpt>
      <trkpt lat="47.2887" lon="-2.36802">
        <ele>154.19999694824</ele>
        <time>2022-03-31T07:58:00.000Z</time>
      </trkpt>
      <trkpt lat="47.28869" lon="-2.36804">
        <ele>154.19999694824</ele>
        <time>2022-03-31T07:58:48.000Z</time>
      </trkpt>
      <trkpt lat="47.28867" lon="-2.36805">
        <ele>154.19999694824</ele>
        <time>2022-03-31T07:58:49.000Z</time>
      </trkpt>
      <trkpt lat="47.28863" lon="-2.368">
        <ele>154.19999694824</ele>
        <time>2022-03-31T07:58:52.000Z</time>
      </trkpt>
      <trkpt lat="47.28865" lon="-2.36791">
        <ele>154.19999694824</ele>
        <time>2022-03-31T07:58:55.000Z</time>
      </trkpt>
      <trkpt lat="47.2887" lon="-2.36783">
        <ele>154.19999694824</ele>
        <time>2022-03-31T07:58:58.000Z</time>
      </trkpt>
      <trkpt lat="47.28878" lon="-2.36779">
        <ele>154.19999694824</ele>
        <time>2022-03-31T07:59:02.000Z</time>
      </trkpt>
      <trkpt lat="47.2888" lon="-2.36779">
        <ele>154.19999694824</ele>
        <time>2022-03-31T07:59:03.000Z</time>
      </trkpt>
      <trkpt lat="47.28897" lon="-2.3678">
        <ele>154.60000610352</ele>
        <time>2022-03-31T07:59:10.000Z</time>
      </trkpt>
      <trkpt lat="47.28899" lon="-2.36781">
        <ele>155</ele>
        <time>2022-03-31T07:59:11.000Z</time>
      </trkpt>
      <trkpt lat="47.28902" lon="-2.36782">
        <ele>155.39999389648</ele>
        <time>2022-03-31T07:59:12.000Z</time>
      </trkpt>
      <trkpt lat="47.28905" lon="-2.36784">
        <ele>156.19999694824</ele>
        <time>2022-03-31T07:59:13.000Z</time>
      </trkpt>
      <trkpt lat="47.28911" lon="-2.36788">
        <ele>156.19999694824</ele>
        <time>2022-03-31T07:59:15.000Z</time>
      </trkpt>
      <trkpt lat="47.28917" lon="-2.36794">
        <ele>156.60000610352</ele>
        <time>2022-03-31T07:59:17.000Z</time>
      </trkpt>
      <trkpt lat="47.2892" lon="-2.36796">
        <ele>157.19999694824</ele>
        <time>2022-03-31T07:59:18.000Z</time>
      </trkpt>
      <trkpt lat="47.28922" lon="-2.368">
        <ele>157.60000610352</ele>
        <time>2022-03-31T07:59:19.000Z</time>
      </trkpt>
      <trkpt lat="47.28925" lon="-2.36803">
        <ele>158</ele>
        <time>2022-03-31T07:59:20.000Z</time>
      </trkpt>
      <trkpt lat="47.28929" lon="-2.36805">
        <ele>158.39999389648</ele>
        <time>2022-03-31T07:59:21.000Z</time>
      </trkpt>
      <trkpt lat="47.28946" lon="-2.3682">
        <ele>158.39999389648</ele>
        <time>2022-03-31T07:59:26.000Z</time>
      </trkpt>
      <trkpt lat="47.28952" lon="-2.36827">
        <ele>159</ele>
        <time>2022-03-31T07:59:28.000Z</time>
      </trkpt>
      <trkpt lat="47.28956" lon="-2.3683">
        <ele>159.39999389648</ele>
        <time>2022-03-31T07:59:29.000Z</time>
      </trkpt>
      <trkpt lat="47.28959" lon="-2.36833">
        <ele>159.80000305176</ele>
        <time>2022-03-31T07:59:30.000Z</time>
      </trkpt>
      <trkpt lat="47.28963" lon="-2.36837">
        <ele>160.19999694824</ele>
        <time>2022-03-31T07:59:31.000Z</time>
      </trkpt>
      <trkpt lat="47.28967" lon="-2.3684">
        <ele>160.60000610352</ele>
        <time>2022-03-31T07:59:32.000Z</time>
      </trkpt>
      <trkpt lat="47.28974" lon="-2.36847">
        <ele>160.60000610352</ele>
        <time>2022-03-31T07:59:34.000Z</time>
      </trkpt>
      <trkpt lat="47.28997" lon="-2.36869">
        <ele>160.60000610352</ele>
        <time>2022-03-31T07:59:41.000Z</time>
      </trkpt>
      <trkpt lat="47.29022" lon="-2.36893">
        <ele>160.60000610352</ele>
        <time>2022-03-31T07:59:49.000Z</time>
      </trkpt>
      <trkpt lat="47.29028" lon="-2.36898">
        <ele>161</ele>
        <time>2022-03-31T07:59:51.000Z</time>
      </trkpt>
      <trkpt lat="47.29031" lon="-2.36901">
        <ele>161.60000610352</ele>
        <time>2022-03-31T07:59:52.000Z</time>
      </trkpt>
      <trkpt lat="47.29034" lon="-2.36904">
        <ele>162</ele>
        <time>2022-03-31T07:59:53.000Z</time>
      </trkpt>
      <trkpt lat="47.29036" lon="-2.36907">
        <ele>162.39999389648</ele>
        <time>2022-03-31T07:59:54.000Z</time>
      </trkpt>
      <trkpt lat="47.29039" lon="-2.3691">
        <ele>162.80000305176</ele>
        <time>2022-03-31T07:59:55.000Z</time>
      </trkpt>
      <trkpt lat="47.29044" lon="-2.36915">
        <ele>162.80000305176</ele>
        <time>2022-03-31T07:59:57.000Z</time>
      </trkpt>
      <trkpt lat="47.29045" lon="-2.36917">
        <ele>162.80000305176</ele>
        <time>2022-03-31T07:59:58.000Z</time>
      </trkpt>
      <trkpt lat="47.29049" lon="-2.36924">
        <ele>162.80000305176</ele>
        <time>2022-03-31T08:00:01.000Z</time>
      </trkpt>
      <trkpt lat="47.29052" lon="-2.36926">
        <ele>162.80000305176</ele>
        <time>2022-03-31T08:00:02.000Z</time>
      </trkpt>
      <trkpt lat="47.29067" lon="-2.36937">
        <ele>162.80000305176</ele>
        <time>2022-03-31T08:00:07.000Z</time>
      </trkpt>
      <trkpt lat="47.29074" lon="-2.36941">
        <ele>163.19999694824</ele>
        <time>2022-03-31T08:00:09.000Z</time>
      </trkpt>
      <trkpt lat="47.29077" lon="-2.36943">
        <ele>163.60000610352</ele>
        <time>2022-03-31T08:00:10.000Z</time>
      </trkpt>
      <trkpt lat="47.29081" lon="-2.36945">
        <ele>164</ele>
        <time>2022-03-31T08:00:11.000Z</time>
      </trkpt>
      <trkpt lat="47.29085" lon="-2.36947">
        <ele>164.60000610352</ele>
        <time>2022-03-31T08:00:12.000Z</time>
      </trkpt>
      <trkpt lat="47.29088" lon="-2.36949">
        <ele>165</ele>
        <time>2022-03-31T08:00:13.000Z</time>
      </trkpt>
      <trkpt lat="47.29107" lon="-2.36955">
        <ele>165</ele>
        <time>2022-03-31T08:00:19.000Z</time>
      </trkpt>
      <trkpt lat="47.29112" lon="-2.36957">
        <ele>165</ele>
        <time>2022-03-31T08:00:21.000Z</time>
      </trkpt>
      <trkpt lat="47.29119" lon="-2.36957">
        <ele>165</ele>
        <time>2022-03-31T08:00:23.000Z</time>
      </trkpt>
      <trkpt lat="47.29135" lon="-2.36969">
        <ele>165</ele>
        <time>2022-03-31T08:00:27.000Z</time>
      </trkpt>
      <trkpt lat="47.29146" lon="-2.36981">
        <ele>165.39999389648</ele>
        <time>2022-03-31T08:00:30.000Z</time>
      </trkpt>
      <trkpt lat="47.2915" lon="-2.36985">
        <ele>165.80000305176</ele>
        <time>2022-03-31T08:00:31.000Z</time>
      </trkpt>
      <trkpt lat="47.29153" lon="-2.3699">
        <ele>166.19999694824</ele>
        <time>2022-03-31T08:00:32.000Z</time>
      </trkpt>
      <trkpt lat="47.29157" lon="-2.36995">
        <ele>166.60000610352</ele>
        <time>2022-03-31T08:00:33.000Z</time>
      </trkpt>
      <trkpt lat="47.29161" lon="-2.36999">
        <ele>167.19999694824</ele>
        <time>2022-03-31T08:00:34.000Z</time>
      </trkpt>
      <trkpt lat="47.2918" lon="-2.37021">
        <ele>167.19999694824</ele>
        <time>2022-03-31T08:00:39.000Z</time>
      </trkpt>
      <trkpt lat="47.2921" lon="-2.37057">
        <ele>167.19999694824</ele>
        <time>2022-03-31T08:00:47.000Z</time>
      </trkpt>
      <trkpt lat="47.29243" lon="-2.37095">
        <ele>167.19999694824</ele>
        <time>2022-03-31T08:00:55.000Z</time>
      </trkpt>
      <trkpt lat="47.29277" lon="-2.37133">
        <ele>167.19999694824</ele>
        <time>2022-03-31T08:01:03.000Z</time>
      </trkpt>
      <trkpt lat="47.29294" lon="-2.37148">
        <ele>167.19999694824</ele>
        <time>2022-03-31T08:01:07.000Z</time>
      </trkpt>
      <trkpt lat="47.29301" lon="-2.37159">
        <ele>167.19999694824</ele>
        <time>2022-03-31T08:01:09.000Z</time>
      </trkpt>
      <trkpt lat="47.29305" lon="-2.37164">
        <ele>167.19999694824</ele>
        <time>2022-03-31T08:01:10.000Z</time>
      </trkpt>
      <trkpt lat="47.29318" lon="-2.37177">
        <ele>167.19999694824</ele>
        <time>2022-03-31T08:01:13.000Z</time>
      </trkpt>
      <trkpt lat="47.29354" lon="-2.37204">
        <ele>167.19999694824</ele>
        <time>2022-03-31T08:01:20.000Z</time>
      </trkpt>
      <trkpt lat="47.29408" lon="-2.3723">
        <ele>167.19999694824</ele>
        <time>2022-03-31T08:01:30.000Z</time>
      </trkpt>
      <trkpt lat="47.29414" lon="-2.37233">
        <ele>167.19999694824</ele>
        <time>2022-03-31T08:01:31.000Z</time>
      </trkpt>
      <trkpt lat="47.29428" lon="-2.37247">
        <ele>167.19999694824</ele>
        <time>2022-03-31T08:01:34.000Z</time>
      </trkpt>
      <trkpt lat="47.29458" lon="-2.37276">
        <ele>167.19999694824</ele>
        <time>2022-03-31T08:01:41.000Z</time>
      </trkpt>
      <trkpt lat="47.29481" lon="-2.37302">
        <ele>167.60000610352</ele>
        <time>2022-03-31T08:01:47.000Z</time>
      </trkpt>
      <trkpt lat="47.29484" lon="-2.37306">
        <ele>168</ele>
        <time>2022-03-31T08:01:48.000Z</time>
      </trkpt>
      <trkpt lat="47.29488" lon="-2.3731">
        <ele>168.39999389648</ele>
        <time>2022-03-31T08:01:49.000Z</time>
      </trkpt>
      <trkpt lat="47.29492" lon="-2.37314">
        <ele>168.80000305176</ele>
        <time>2022-03-31T08:01:50.000Z</time>
      </trkpt>
      <trkpt lat="47.29497" lon="-2.37319">
        <ele>169.19999694824</ele>
        <time>2022-03-31T08:01:51.000Z</time>
      </trkpt>
      <trkpt lat="47.29513" lon="-2.37338">
        <ele>169.19999694824</ele>
        <time>2022-03-31T08:01:55.000Z</time>
      </trkpt>
      <trkpt lat="47.2954" lon="-2.37371">
        <ele>169.60000610352</ele>
        <time>2022-03-31T08:02:02.000Z</time>
      </trkpt>
      <trkpt lat="47.29544" lon="-2.37376">
        <ele>170</ele>
        <time>2022-03-31T08:02:03.000Z</time>
      </trkpt>
      <trkpt lat="47.29547" lon="-2.37381">
        <ele>170.39999389648</ele>
        <time>2022-03-31T08:02:04.000Z</time>
      </trkpt>
      <trkpt lat="47.2955" lon="-2.37385">
        <ele>170.80000305176</ele>
        <time>2022-03-31T08:02:05.000Z</time>
      </trkpt>
      <trkpt lat="47.29554" lon="-2.3739">
        <ele>171.19999694824</ele>
        <time>2022-03-31T08:02:06.000Z</time>
      </trkpt>
      <trkpt lat="47.29563" lon="-2.37404">
        <ele>171.19999694824</ele>
        <time>2022-03-31T08:02:09.000Z</time>
      </trkpt>
      <trkpt lat="47.29569" lon="-2.37414">
        <ele>171.19999694824</ele>
        <time>2022-03-31T08:02:11.000Z</time>
      </trkpt>
      <trkpt lat="47.29577" lon="-2.37429">
        <ele>171.19999694824</ele>
        <time>2022-03-31T08:02:14.000Z</time>
      </trkpt>
      <trkpt lat="47.29585" lon="-2.37444">
        <ele>171.19999694824</ele>
        <time>2022-03-31T08:02:17.000Z</time>
      </trkpt>
      <trkpt lat="47.29604" lon="-2.37478">
        <ele>171.19999694824</ele>
        <time>2022-03-31T08:02:23.000Z</time>
      </trkpt>
      <trkpt lat="47.29613" lon="-2.37489">
        <ele>171.19999694824</ele>
        <time>2022-03-31T08:02:25.000Z</time>
      </trkpt>
      <trkpt lat="47.2963" lon="-2.37503">
        <ele>171.19999694824</ele>
        <time>2022-03-31T08:02:28.000Z</time>
      </trkpt>
      <trkpt lat="47.29674" lon="-2.37533">
        <ele>170.80000305176</ele>
        <time>2022-03-31T08:02:35.000Z</time>
      </trkpt>
      <trkpt lat="47.2968" lon="-2.37538">
        <ele>170.39999389648</ele>
        <time>2022-03-31T08:02:36.000Z</time>
      </trkpt>
      <trkpt lat="47.29686" lon="-2.37543">
        <ele>170</ele>
        <time>2022-03-31T08:02:37.000Z</time>
      </trkpt>
      <trkpt lat="47.29692" lon="-2.37547">
        <ele>169.60000610352</ele>
        <time>2022-03-31T08:02:38.000Z</time>
      </trkpt>
      <trkpt lat="47.29697" lon="-2.37552">
        <ele>169</ele>
        <time>2022-03-31T08:02:39.000Z</time>
      </trkpt>
      <trkpt lat="47.29707" lon="-2.37561">
        <ele>169</ele>
        <time>2022-03-31T08:02:41.000Z</time>
      </trkpt>
      <trkpt lat="47.29727" lon="-2.37586">
        <ele>169.60000610352</ele>
        <time>2022-03-31T08:02:46.000Z</time>
      </trkpt>
      <trkpt lat="47.29731" lon="-2.37591">
        <ele>170</ele>
        <time>2022-03-31T08:02:47.000Z</time>
      </trkpt>
      <trkpt lat="47.29734" lon="-2.37596">
        <ele>170.39999389648</ele>
        <time>2022-03-31T08:02:48.000Z</time>
      </trkpt>
      <trkpt lat="47.29737" lon="-2.37601">
        <ele>170.80000305176</ele>
        <time>2022-03-31T08:02:49.000Z</time>
      </trkpt>
      <trkpt lat="47.29741" lon="-2.37606">
        <ele>171.19999694824</ele>
        <time>2022-03-31T08:02:50.000Z</time>
      </trkpt>
      <trkpt lat="47.29756" lon="-2.37627">
        <ele>171.19999694824</ele>
        <time>2022-03-31T08:02:55.000Z</time>
      </trkpt>
      <trkpt lat="47.29767" lon="-2.3764">
        <ele>171.60000610352</ele>
        <time>2022-03-31T08:02:58.000Z</time>
      </trkpt>
      <trkpt lat="47.29771" lon="-2.37644">
        <ele>172</ele>
        <time>2022-03-31T08:02:59.000Z</time>
      </trkpt>
      <trkpt lat="47.29774" lon="-2.37649">
        <ele>172.39999389648</ele>
        <time>2022-03-31T08:03:00.000Z</time>
      </trkpt>
      <trkpt lat="47.29778" lon="-2.37654">
        <ele>172.80000305176</ele>
        <time>2022-03-31T08:03:01.000Z</time>
      </trkpt>
      <trkpt lat="47.29781" lon="-2.37658">
        <ele>173.19999694824</ele>
        <time>2022-03-31T08:03:02.000Z</time>
      </trkpt>
      <trkpt lat="47.29784" lon="-2.37663">
        <ele>173.19999694824</ele>
        <time>2022-03-31T08:03:03.000Z</time>
      </trkpt>
      <trkpt lat="47.29809" lon="-2.37702">
        <ele>173.19999694824</ele>
        <time>2022-03-31T08:03:11.000Z</time>
      </trkpt>
      <trkpt lat="47.29834" lon="-2.37745">
        <ele>173.19999694824</ele>
        <time>2022-03-31T08:03:19.000Z</time>
      </trkpt>
      <trkpt lat="47.2986" lon="-2.37793">
        <ele>173.19999694824</ele>
        <time>2022-03-31T08:03:27.000Z</time>
      </trkpt>
      <trkpt lat="47.29869" lon="-2.37816">
        <ele>173.19999694824</ele>
        <time>2022-03-31T08:03:31.000Z</time>
      </trkpt>
      <trkpt lat="47.29867" lon="-2.37822">
        <ele>172.80000305176</ele>
        <time>2022-03-31T08:03:32.000Z</time>
      </trkpt>
      <trkpt lat="47.29864" lon="-2.37827">
        <ele>172.39999389648</ele>
        <time>2022-03-31T08:03:33.000Z</time>
      </trkpt>
      <trkpt lat="47.29861" lon="-2.37832">
        <ele>172</ele>
        <time>2022-03-31T08:03:34.000Z</time>
      </trkpt>
      <trkpt lat="47.29858" lon="-2.37837">
        <ele>171.60000610352</ele>
        <time>2022-03-31T08:03:35.000Z</time>
      </trkpt>
      <trkpt lat="47.29856" lon="-2.37842">
        <ele>171.19999694824</ele>
        <time>2022-03-31T08:03:36.000Z</time>
      </trkpt>
      <trkpt lat="47.29848" lon="-2.3786">
        <ele>171.19999694824</ele>
        <time>2022-03-31T08:03:39.000Z</time>
      </trkpt>
      <trkpt lat="47.29829" lon="-2.37882">
        <ele>171.19999694824</ele>
        <time>2022-03-31T08:03:44.000Z</time>
      </trkpt>
      <trkpt lat="47.29821" lon="-2.37888">
        <ele>171.19999694824</ele>
        <time>2022-03-31T08:03:46.000Z</time>
      </trkpt>
      <trkpt lat="47.29807" lon="-2.37894">
        <ele>171.19999694824</ele>
        <time>2022-03-31T08:03:49.000Z</time>
      </trkpt>
      <trkpt lat="47.29785" lon="-2.37905">
        <ele>171.19999694824</ele>
        <time>2022-03-31T08:03:55.000Z</time>
      </trkpt>
      <trkpt lat="47.29759" lon="-2.37927">
        <ele>171.19999694824</ele>
        <time>2022-03-31T08:04:01.000Z</time>
      </trkpt>
      <trkpt lat="47.29747" lon="-2.37941">
        <ele>171.19999694824</ele>
        <time>2022-03-31T08:04:04.000Z</time>
      </trkpt>
      <trkpt lat="47.29739" lon="-2.3796">
        <ele>171.19999694824</ele>
        <time>2022-03-31T08:04:07.000Z</time>
      </trkpt>
      <trkpt lat="47.29737" lon="-2.37966">
        <ele>171.19999694824</ele>
        <time>2022-03-31T08:04:08.000Z</time>
      </trkpt>
      <trkpt lat="47.29734" lon="-2.37971">
        <ele>170.60000610352</ele>
        <time>2022-03-31T08:04:09.000Z</time>
      </trkpt>
      <trkpt lat="47.29732" lon="-2.37977">
        <ele>170.19999694824</ele>
        <time>2022-03-31T08:04:10.000Z</time>
      </trkpt>
      <trkpt lat="47.2973" lon="-2.37983">
        <ele>169.80000305176</ele>
        <time>2022-03-31T08:04:11.000Z</time>
      </trkpt>
      <trkpt lat="47.29729" lon="-2.37989">
        <ele>169.19999694824</ele>
        <time>2022-03-31T08:04:12.000Z</time>
      </trkpt>
      <trkpt lat="47.29728" lon="-2.37995">
        <ele>168.60000610352</ele>
        <time>2022-03-31T08:04:13.000Z</time>
      </trkpt>
      <trkpt lat="47.29729" lon="-2.38">
        <ele>168</ele>
        <time>2022-03-31T08:04:14.000Z</time>
      </trkpt>
      <trkpt lat="47.2973" lon="-2.38007">
        <ele>167.39999389648</ele>
        <time>2022-03-31T08:04:15.000Z</time>
      </trkpt>
      <trkpt lat="47.2973" lon="-2.38013">
        <ele>166.80000305176</ele>
        <time>2022-03-31T08:04:16.000Z</time>
      </trkpt>
      <trkpt lat="47.29732" lon="-2.38019">
        <ele>166.19999694824</ele>
        <time>2022-03-31T08:04:17.000Z</time>
      </trkpt>
      <trkpt lat="47.29733" lon="-2.38025">
        <ele>165.39999389648</ele>
        <time>2022-03-31T08:04:18.000Z</time>
      </trkpt>
      <trkpt lat="47.29733" lon="-2.38031">
        <ele>164.80000305176</ele>
        <time>2022-03-31T08:04:19.000Z</time>
      </trkpt>
      <trkpt lat="47.29731" lon="-2.38037">
        <ele>164</ele>
        <time>2022-03-31T08:04:20.000Z</time>
      </trkpt>
      <trkpt lat="47.29728" lon="-2.38041">
        <ele>163.39999389648</ele>
        <time>2022-03-31T08:04:21.000Z</time>
      </trkpt>
      <trkpt lat="47.29723" lon="-2.38045">
        <ele>162.60000610352</ele>
        <time>2022-03-31T08:04:22.000Z</time>
      </trkpt>
      <trkpt lat="47.29717" lon="-2.3805">
        <ele>162</ele>
        <time>2022-03-31T08:04:23.000Z</time>
      </trkpt>
      <trkpt lat="47.2971" lon="-2.38054">
        <ele>161.39999389648</ele>
        <time>2022-03-31T08:04:24.000Z</time>
      </trkpt>
      <trkpt lat="47.29705" lon="-2.38059">
        <ele>160.80000305176</ele>
        <time>2022-03-31T08:04:25.000Z</time>
      </trkpt>
      <trkpt lat="47.29699" lon="-2.38065">
        <ele>160.19999694824</ele>
        <time>2022-03-31T08:04:26.000Z</time>
      </trkpt>
      <trkpt lat="47.29693" lon="-2.3807">
        <ele>159.39999389648</ele>
        <time>2022-03-31T08:04:27.000Z</time>
      </trkpt>
      <trkpt lat="47.29688" lon="-2.38074">
        <ele>158.60000610352</ele>
        <time>2022-03-31T08:04:28.000Z</time>
      </trkpt>
      <trkpt lat="47.29682" lon="-2.38078">
        <ele>157.80000305176</ele>
        <time>2022-03-31T08:04:29.000Z</time>
      </trkpt>
      <trkpt lat="47.29675" lon="-2.38082">
        <ele>157</ele>
        <time>2022-03-31T08:04:30.000Z</time>
      </trkpt>
      <trkpt lat="47.29668" lon="-2.38086">
        <ele>156.19999694824</ele>
        <time>2022-03-31T08:04:31.000Z</time>
      </trkpt>
      <trkpt lat="47.29661" lon="-2.3809">
        <ele>155.19999694824</ele>
        <time>2022-03-31T08:04:32.000Z</time>
      </trkpt>
      <trkpt lat="47.29653" lon="-2.38094">
        <ele>153.60000610352</ele>
        <time>2022-03-31T08:04:33.000Z</time>
      </trkpt>
      <trkpt lat="47.29646" lon="-2.38098">
        <ele>153</ele>
        <time>2022-03-31T08:04:34.000Z</time>
      </trkpt>
      <trkpt lat="47.29638" lon="-2.38102">
        <ele>152.60000610352</ele>
        <time>2022-03-31T08:04:35.000Z</time>
      </trkpt>
      <trkpt lat="47.29631" lon="-2.38106">
        <ele>152</ele>
        <time>2022-03-31T08:04:36.000Z</time>
      </trkpt>
      <trkpt lat="47.29623" lon="-2.3811">
        <ele>151.60000610352</ele>
        <time>2022-03-31T08:04:37.000Z</time>
      </trkpt>
      <trkpt lat="47.29616" lon="-2.38112">
        <ele>151</ele>
        <time>2022-03-31T08:04:38.000Z</time>
      </trkpt>
      <trkpt lat="47.296" lon="-2.38116">
        <ele>151</ele>
        <time>2022-03-31T08:04:40.000Z</time>
      </trkpt>
      <trkpt lat="47.29585" lon="-2.38119">
        <ele>150.60000610352</ele>
        <time>2022-03-31T08:04:42.000Z</time>
      </trkpt>
      <trkpt lat="47.29577" lon="-2.38122">
        <ele>150.19999694824</ele>
        <time>2022-03-31T08:04:43.000Z</time>
      </trkpt>
      <trkpt lat="47.29569" lon="-2.38124">
        <ele>149.80000305176</ele>
        <time>2022-03-31T08:04:44.000Z</time>
      </trkpt>
      <trkpt lat="47.29561" lon="-2.38125">
        <ele>149.19999694824</ele>
        <time>2022-03-31T08:04:45.000Z</time>
      </trkpt>
      <trkpt lat="47.29553" lon="-2.38126">
        <ele>148.80000305176</ele>
        <time>2022-03-31T08:04:46.000Z</time>
      </trkpt>
      <trkpt lat="47.29529" lon="-2.38127">
        <ele>148.39999389648</ele>
        <time>2022-03-31T08:04:49.000Z</time>
      </trkpt>
      <trkpt lat="47.29522" lon="-2.38126">
        <ele>148</ele>
        <time>2022-03-31T08:04:50.000Z</time>
      </trkpt>
      <trkpt lat="47.29514" lon="-2.38125">
        <ele>147.39999389648</ele>
        <time>2022-03-31T08:04:51.000Z</time>
      </trkpt>
      <trkpt lat="47.29506" lon="-2.38124">
        <ele>147</ele>
        <time>2022-03-31T08:04:52.000Z</time>
      </trkpt>
      <trkpt lat="47.29498" lon="-2.38123">
        <ele>146.60000610352</ele>
        <time>2022-03-31T08:04:53.000Z</time>
      </trkpt>
      <trkpt lat="47.29491" lon="-2.38125">
        <ele>146.60000610352</ele>
        <time>2022-03-31T08:04:54.000Z</time>
      </trkpt>
      <trkpt lat="47.29477" lon="-2.38132">
        <ele>146.60000610352</ele>
        <time>2022-03-31T08:04:56.000Z</time>
      </trkpt>
      <trkpt lat="47.29471" lon="-2.38136">
        <ele>146.19999694824</ele>
        <time>2022-03-31T08:04:57.000Z</time>
      </trkpt>
      <trkpt lat="47.29465" lon="-2.38141">
        <ele>145.39999389648</ele>
        <time>2022-03-31T08:04:58.000Z</time>
      </trkpt>
      <trkpt lat="47.2946" lon="-2.38145">
        <ele>145</ele>
        <time>2022-03-31T08:04:59.000Z</time>
      </trkpt>
      <trkpt lat="47.29454" lon="-2.38149">
        <ele>144.39999389648</ele>
        <time>2022-03-31T08:05:00.000Z</time>
      </trkpt>
      <trkpt lat="47.2945" lon="-2.38152">
        <ele>144.39999389648</ele>
        <time>2022-03-31T08:05:01.000Z</time>
      </trkpt>
      <trkpt lat="47.29449" lon="-2.38155">
        <ele>144</ele>
        <time>2022-03-31T08:05:02.000Z</time>
      </trkpt>
      <trkpt lat="47.29448" lon="-2.38158">
        <ele>143.60000610352</ele>
        <time>2022-03-31T08:05:03.000Z</time>
      </trkpt>
      <trkpt lat="47.29449" lon="-2.38161">
        <ele>143.19999694824</ele>
        <time>2022-03-31T08:05:04.000Z</time>
      </trkpt>
      <trkpt lat="47.29449" lon="-2.38165">
        <ele>142.80000305176</ele>
        <time>2022-03-31T08:05:05.000Z</time>
      </trkpt>
      <trkpt lat="47.2945" lon="-2.3817">
        <ele>142.39999389648</ele>
        <time>2022-03-31T08:05:06.000Z</time>
      </trkpt>
      <trkpt lat="47.29452" lon="-2.38185">
        <ele>142.39999389648</ele>
        <time>2022-03-31T08:05:09.000Z</time>
      </trkpt>
      <trkpt lat="47.29455" lon="-2.3822">
        <ele>142.39999389648</ele>
        <time>2022-03-31T08:05:14.000Z</time>
      </trkpt>
      <trkpt lat="47.2946" lon="-2.38277">
        <ele>142.39999389648</ele>
        <time>2022-03-31T08:05:21.000Z</time>
      </trkpt>
      <trkpt lat="47.29458" lon="-2.38328">
        <ele>142.39999389648</ele>
        <time>2022-03-31T08:05:26.000Z</time>
      </trkpt>
      <trkpt lat="47.29457" lon="-2.38402">
        <ele>142.39999389648</ele>
        <time>2022-03-31T08:05:33.000Z</time>
      </trkpt>
      <trkpt lat="47.29462" lon="-2.38488">
        <ele>142.39999389648</ele>
        <time>2022-03-31T08:05:42.000Z</time>
      </trkpt>
      <trkpt lat="47.29464" lon="-2.38556">
        <ele>142.39999389648</ele>
        <time>2022-03-31T08:05:50.000Z</time>
      </trkpt>
      <trkpt lat="47.29466" lon="-2.38624">
        <ele>142.39999389648</ele>
        <time>2022-03-31T08:05:58.000Z</time>
      </trkpt>
      <trkpt lat="47.29466" lon="-2.38658">
        <ele>142.39999389648</ele>
        <time>2022-03-31T08:06:02.000Z</time>
      </trkpt>
      <trkpt lat="47.29468" lon="-2.38676">
        <ele>142.80000305176</ele>
        <time>2022-03-31T08:06:04.000Z</time>
      </trkpt>
      <trkpt lat="47.2947" lon="-2.38685">
        <ele>143.19999694824</ele>
        <time>2022-03-31T08:06:05.000Z</time>
      </trkpt>
      <trkpt lat="47.29471" lon="-2.38693">
        <ele>143.60000610352</ele>
        <time>2022-03-31T08:06:06.000Z</time>
      </trkpt>
      <trkpt lat="47.29472" lon="-2.38702">
        <ele>144</ele>
        <time>2022-03-31T08:06:07.000Z</time>
      </trkpt>
      <trkpt lat="47.29473" lon="-2.38711">
        <ele>144.39999389648</ele>
        <time>2022-03-31T08:06:08.000Z</time>
      </trkpt>
      <trkpt lat="47.29473" lon="-2.38728">
        <ele>144.39999389648</ele>
        <time>2022-03-31T08:06:10.000Z</time>
      </trkpt>
      <trkpt lat="47.29475" lon="-2.38785">
        <ele>144.39999389648</ele>
        <time>2022-03-31T08:06:17.000Z</time>
      </trkpt>
      <trkpt lat="47.29476" lon="-2.38829">
        <ele>144.39999389648</ele>
        <time>2022-03-31T08:06:23.000Z</time>
      </trkpt>
      <trkpt lat="47.29478" lon="-2.38835">
        <ele>144.39999389648</ele>
        <time>2022-03-31T08:06:24.000Z</time>
      </trkpt>
      <trkpt lat="47.2949" lon="-2.38839">
        <ele>144.39999389648</ele>
        <time>2022-03-31T08:06:27.000Z</time>
      </trkpt>
      <trkpt lat="47.29499" lon="-2.38836">
        <ele>144.39999389648</ele>
        <time>2022-03-31T08:06:29.000Z</time>
      </trkpt>
      <trkpt lat="47.29519" lon="-2.38828">
        <ele>144.39999389648</ele>
        <time>2022-03-31T08:06:33.000Z</time>
      </trkpt>
      <trkpt lat="47.29524" lon="-2.38826">
        <ele>144.80000305176</ele>
        <time>2022-03-31T08:06:34.000Z</time>
      </trkpt>
      <trkpt lat="47.29529" lon="-2.38824">
        <ele>145.60000610352</ele>
        <time>2022-03-31T08:06:35.000Z</time>
      </trkpt>
      <trkpt lat="47.29534" lon="-2.38822">
        <ele>146</ele>
        <time>2022-03-31T08:06:36.000Z</time>
      </trkpt>
      <trkpt lat="47.29539" lon="-2.38819">
        <ele>146.39999389648</ele>
        <time>2022-03-31T08:06:37.000Z</time>
      </trkpt>
      <trkpt lat="47.29543" lon="-2.38815">
        <ele>146.39999389648</ele>
        <time>2022-03-31T08:06:38.000Z</time>
      </trkpt>
      <trkpt lat="47.29548" lon="-2.3881">
        <ele>146.39999389648</ele>
        <time>2022-03-31T08:06:39.000Z</time>
      </trkpt>
      <trkpt lat="47.29567" lon="-2.38784">
        <ele>146.39999389648</ele>
        <time>2022-03-31T08:06:44.000Z</time>
      </trkpt>
      <trkpt lat="47.29601" lon="-2.38747">
        <ele>146.80000305176</ele>
        <time>2022-03-31T08:06:52.000Z</time>
      </trkpt>
      <trkpt lat="47.29606" lon="-2.38743">
        <ele>147.19999694824</ele>
        <time>2022-03-31T08:06:53.000Z</time>
      </trkpt>
      <trkpt lat="47.2961" lon="-2.38739">
        <ele>147.60000610352</ele>
        <time>2022-03-31T08:06:54.000Z</time>
      </trkpt>
      <trkpt lat="47.29615" lon="-2.38736">
        <ele>148</ele>
        <time>2022-03-31T08:06:55.000Z</time>
      </trkpt>
      <trkpt lat="47.29619" lon="-2.38732">
        <ele>148.60000610352</ele>
        <time>2022-03-31T08:06:56.000Z</time>
      </trkpt>
      <trkpt lat="47.29649" lon="-2.38709">
        <ele>148.60000610352</ele>
        <time>2022-03-31T08:07:02.000Z</time>
      </trkpt>
      <trkpt lat="47.29686" lon="-2.38679">
        <ele>148.60000610352</ele>
        <time>2022-03-31T08:07:10.000Z</time>
      </trkpt>
      <trkpt lat="47.29705" lon="-2.38665">
        <ele>149</ele>
        <time>2022-03-31T08:07:14.000Z</time>
      </trkpt>
      <trkpt lat="47.29709" lon="-2.38662">
        <ele>149.39999389648</ele>
        <time>2022-03-31T08:07:15.000Z</time>
      </trkpt>
      <trkpt lat="47.29714" lon="-2.38659">
        <ele>149.80000305176</ele>
        <time>2022-03-31T08:07:16.000Z</time>
      </trkpt>
      <trkpt lat="47.29718" lon="-2.38656">
        <ele>150.19999694824</ele>
        <time>2022-03-31T08:07:17.000Z</time>
      </trkpt>
      <trkpt lat="47.29723" lon="-2.38653">
        <ele>150.80000305176</ele>
        <time>2022-03-31T08:07:18.000Z</time>
      </trkpt>
      <trkpt lat="47.29736" lon="-2.38646">
        <ele>150.80000305176</ele>
        <time>2022-03-31T08:07:21.000Z</time>
      </trkpt>
      <trkpt lat="47.29749" lon="-2.38642">
        <ele>150.80000305176</ele>
        <time>2022-03-31T08:07:24.000Z</time>
      </trkpt>
      <trkpt lat="47.29774" lon="-2.38638">
        <ele>150.80000305176</ele>
        <time>2022-03-31T08:07:30.000Z</time>
      </trkpt>
      <trkpt lat="47.29778" lon="-2.38639">
        <ele>150.80000305176</ele>
        <time>2022-03-31T08:07:31.000Z</time>
      </trkpt>
      <trkpt lat="47.29795" lon="-2.38647">
        <ele>150.80000305176</ele>
        <time>2022-03-31T08:07:35.000Z</time>
      </trkpt>
      <trkpt lat="47.29799" lon="-2.3865">
        <ele>150.80000305176</ele>
        <time>2022-03-31T08:07:36.000Z</time>
      </trkpt>
      <trkpt lat="47.29803" lon="-2.38654">
        <ele>150.80000305176</ele>
        <time>2022-03-31T08:07:37.000Z</time>
      </trkpt>
      <trkpt lat="47.29807" lon="-2.38658">
        <ele>151.19999694824</ele>
        <time>2022-03-31T08:07:38.000Z</time>
      </trkpt>
      <trkpt lat="47.29811" lon="-2.38662">
        <ele>151.60000610352</ele>
        <time>2022-03-31T08:07:39.000Z</time>
      </trkpt>
      <trkpt lat="47.29816" lon="-2.38666">
        <ele>152</ele>
        <time>2022-03-31T08:07:40.000Z</time>
      </trkpt>
      <trkpt lat="47.2982" lon="-2.38669">
        <ele>152.39999389648</ele>
        <time>2022-03-31T08:07:41.000Z</time>
      </trkpt>
      <trkpt lat="47.29825" lon="-2.38673">
        <ele>152.80000305176</ele>
        <time>2022-03-31T08:07:42.000Z</time>
      </trkpt>
      <trkpt lat="47.29835" lon="-2.38678">
        <ele>152.80000305176</ele>
        <time>2022-03-31T08:07:44.000Z</time>
      </trkpt>
      <trkpt lat="47.29863" lon="-2.38684">
        <ele>152.80000305176</ele>
        <time>2022-03-31T08:07:50.000Z</time>
      </trkpt>
      <trkpt lat="47.29876" lon="-2.38681">
        <ele>153.19999694824</ele>
        <time>2022-03-31T08:07:53.000Z</time>
      </trkpt>
      <trkpt lat="47.29881" lon="-2.38678">
        <ele>153.60000610352</ele>
        <time>2022-03-31T08:07:54.000Z</time>
      </trkpt>
      <trkpt lat="47.29885" lon="-2.38676">
        <ele>154</ele>
        <time>2022-03-31T08:07:55.000Z</time>
      </trkpt>
      <trkpt lat="47.29889" lon="-2.38674">
        <ele>154.39999389648</ele>
        <time>2022-03-31T08:07:56.000Z</time>
      </trkpt>
      <trkpt lat="47.29894" lon="-2.38672">
        <ele>154.80000305176</ele>
        <time>2022-03-31T08:07:57.000Z</time>
      </trkpt>
      <trkpt lat="47.29918" lon="-2.38662">
        <ele>155.19999694824</ele>
        <time>2022-03-31T08:08:03.000Z</time>
      </trkpt>
      <trkpt lat="47.29922" lon="-2.3866">
        <ele>155.60000610352</ele>
        <time>2022-03-31T08:08:04.000Z</time>
      </trkpt>
      <trkpt lat="47.29926" lon="-2.38658">
        <ele>156</ele>
        <time>2022-03-31T08:08:05.000Z</time>
      </trkpt>
      <trkpt lat="47.2993" lon="-2.38656">
        <ele>156.39999389648</ele>
        <time>2022-03-31T08:08:06.000Z</time>
      </trkpt>
      <trkpt lat="47.29934" lon="-2.38654">
        <ele>157</ele>
        <time>2022-03-31T08:08:07.000Z</time>
      </trkpt>
      <trkpt lat="47.29949" lon="-2.38645">
        <ele>157.39999389648</ele>
        <time>2022-03-31T08:08:11.000Z</time>
      </trkpt>
      <trkpt lat="47.29952" lon="-2.38644">
        <ele>157.80000305176</ele>
        <time>2022-03-31T08:08:12.000Z</time>
      </trkpt>
      <trkpt lat="47.29956" lon="-2.38642">
        <ele>158.19999694824</ele>
        <time>2022-03-31T08:08:13.000Z</time>
      </trkpt>
      <trkpt lat="47.2996" lon="-2.3864">
        <ele>159</ele>
        <time>2022-03-31T08:08:14.000Z</time>
      </trkpt>
      <trkpt lat="47.29971" lon="-2.38634">
        <ele>159.39999389648</ele>
        <time>2022-03-31T08:08:17.000Z</time>
      </trkpt>
      <trkpt lat="47.29974" lon="-2.38633">
        <ele>160</ele>
        <time>2022-03-31T08:08:18.000Z</time>
      </trkpt>
      <trkpt lat="47.29977" lon="-2.38631">
        <ele>160.39999389648</ele>
        <time>2022-03-31T08:08:19.000Z</time>
      </trkpt>
      <trkpt lat="47.29981" lon="-2.38629">
        <ele>160.80000305176</ele>
        <time>2022-03-31T08:08:20.000Z</time>
      </trkpt>
      <trkpt lat="47.29984" lon="-2.38627">
        <ele>161.19999694824</ele>
        <time>2022-03-31T08:08:21.000Z</time>
      </trkpt>
      <trkpt lat="47.29998" lon="-2.3862">
        <ele>161.60000610352</ele>
        <time>2022-03-31T08:08:25.000Z</time>
      </trkpt>
      <trkpt lat="47.30002" lon="-2.38618">
        <ele>162</ele>
        <time>2022-03-31T08:08:26.000Z</time>
      </trkpt>
      <trkpt lat="47.30005" lon="-2.38616">
        <ele>162.39999389648</ele>
        <time>2022-03-31T08:08:27.000Z</time>
      </trkpt>
      <trkpt lat="47.30009" lon="-2.38615">
        <ele>162.80000305176</ele>
        <time>2022-03-31T08:08:28.000Z</time>
      </trkpt>
      <trkpt lat="47.30012" lon="-2.38613">
        <ele>163.19999694824</ele>
        <time>2022-03-31T08:08:29.000Z</time>
      </trkpt>
      <trkpt lat="47.30021" lon="-2.38608">
        <ele>163.60000610352</ele>
        <time>2022-03-31T08:08:32.000Z</time>
      </trkpt>
      <trkpt lat="47.30024" lon="-2.38607">
        <ele>164.19999694824</ele>
        <time>2022-03-31T08:08:33.000Z</time>
      </trkpt>
      <trkpt lat="47.30027" lon="-2.38605">
        <ele>164.60000610352</ele>
        <time>2022-03-31T08:08:34.000Z</time>
      </trkpt>
      <trkpt lat="47.3003" lon="-2.38603">
        <ele>165</ele>
        <time>2022-03-31T08:08:35.000Z</time>
      </trkpt>
      <trkpt lat="47.30033" lon="-2.38602">
        <ele>165.39999389648</ele>
        <time>2022-03-31T08:08:36.000Z</time>
      </trkpt>
      <trkpt lat="47.3005" lon="-2.38597">
        <ele>166</ele>
        <time>2022-03-31T08:08:41.000Z</time>
      </trkpt>
      <trkpt lat="47.30054" lon="-2.38598">
        <ele>166.39999389648</ele>
        <time>2022-03-31T08:08:42.000Z</time>
      </trkpt>
      <trkpt lat="47.30057" lon="-2.38598">
        <ele>166.80000305176</ele>
        <time>2022-03-31T08:08:43.000Z</time>
      </trkpt>
      <trkpt lat="47.3006" lon="-2.38597">
        <ele>167.19999694824</ele>
        <time>2022-03-31T08:08:44.000Z</time>
      </trkpt>
      <trkpt lat="47.30063" lon="-2.38597">
        <ele>167.60000610352</ele>
        <time>2022-03-31T08:08:45.000Z</time>
      </trkpt>
      <trkpt lat="47.30072" lon="-2.38594">
        <ele>167.60000610352</ele>
        <time>2022-03-31T08:08:48.000Z</time>
      </trkpt>
      <trkpt lat="47.30076" lon="-2.38593">
        <ele>168</ele>
        <time>2022-03-31T08:08:49.000Z</time>
      </trkpt>
      <trkpt lat="47.30079" lon="-2.38592">
        <ele>168.39999389648</ele>
        <time>2022-03-31T08:08:50.000Z</time>
      </trkpt>
      <trkpt lat="47.30083" lon="-2.38592">
        <ele>168.80000305176</ele>
        <time>2022-03-31T08:08:51.000Z</time>
      </trkpt>
      <trkpt lat="47.30087" lon="-2.38591">
        <ele>169.39999389648</ele>
        <time>2022-03-31T08:08:52.000Z</time>
      </trkpt>
      <trkpt lat="47.3009" lon="-2.3859">
        <ele>169.80000305176</ele>
        <time>2022-03-31T08:08:53.000Z</time>
      </trkpt>
      <trkpt lat="47.30097" lon="-2.38589">
        <ele>169.80000305176</ele>
        <time>2022-03-31T08:08:55.000Z</time>
      </trkpt>
      <trkpt lat="47.301" lon="-2.38588">
        <ele>170.19999694824</ele>
        <time>2022-03-31T08:08:56.000Z</time>
      </trkpt>
      <trkpt lat="47.30103" lon="-2.38587">
        <ele>170.60000610352</ele>
        <time>2022-03-31T08:08:57.000Z</time>
      </trkpt>
      <trkpt lat="47.30107" lon="-2.38585">
        <ele>171</ele>
        <time>2022-03-31T08:08:58.000Z</time>
      </trkpt>
      <trkpt lat="47.3011" lon="-2.38584">
        <ele>171.39999389648</ele>
        <time>2022-03-31T08:08:59.000Z</time>
      </trkpt>
      <trkpt lat="47.30114" lon="-2.38582">
        <ele>171.80000305176</ele>
        <time>2022-03-31T08:09:00.000Z</time>
      </trkpt>
      <trkpt lat="47.30127" lon="-2.38575">
        <ele>172.39999389648</ele>
        <time>2022-03-31T08:09:04.000Z</time>
      </trkpt>
      <trkpt lat="47.3013" lon="-2.38572">
        <ele>172.80000305176</ele>
        <time>2022-03-31T08:09:05.000Z</time>
      </trkpt>
      <trkpt lat="47.30133" lon="-2.3857">
        <ele>173.19999694824</ele>
        <time>2022-03-31T08:09:06.000Z</time>
      </trkpt>
      <trkpt lat="47.30136" lon="-2.38569">
        <ele>173.60000610352</ele>
        <time>2022-03-31T08:09:07.000Z</time>
      </trkpt>
      <trkpt lat="47.30139" lon="-2.38568">
        <ele>174</ele>
        <time>2022-03-31T08:09:08.000Z</time>
      </trkpt>
      <trkpt lat="47.3015" lon="-2.38563">
        <ele>174</ele>
        <time>2022-03-31T08:09:11.000Z</time>
      </trkpt>
      <trkpt lat="47.30171" lon="-2.38554">
        <ele>174.39999389648</ele>
        <time>2022-03-31T08:09:17.000Z</time>
      </trkpt>
      <trkpt lat="47.30175" lon="-2.38552">
        <ele>174.80000305176</ele>
        <time>2022-03-31T08:09:18.000Z</time>
      </trkpt>
      <trkpt lat="47.30179" lon="-2.3855">
        <ele>175.19999694824</ele>
        <time>2022-03-31T08:09:19.000Z</time>
      </trkpt>
      <trkpt lat="47.30182" lon="-2.38548">
        <ele>175.60000610352</ele>
        <time>2022-03-31T08:09:20.000Z</time>
      </trkpt>
      <trkpt lat="47.30186" lon="-2.38546">
        <ele>176.19999694824</ele>
        <time>2022-03-31T08:09:21.000Z</time>
      </trkpt>
      <trkpt lat="47.30208" lon="-2.38536">
        <ele>176.19999694824</ele>
        <time>2022-03-31T08:09:27.000Z</time>
      </trkpt>
      <trkpt lat="47.30215" lon="-2.38532">
        <ele>176.60000610352</ele>
        <time>2022-03-31T08:09:29.000Z</time>
      </trkpt>
      <trkpt lat="47.30219" lon="-2.38529">
        <ele>177</ele>
        <time>2022-03-31T08:09:30.000Z</time>
      </trkpt>
      <trkpt lat="47.30222" lon="-2.38527">
        <ele>177.39999389648</ele>
        <time>2022-03-31T08:09:31.000Z</time>
      </trkpt>
      <trkpt lat="47.30226" lon="-2.38525">
        <ele>177.80000305176</ele>
        <time>2022-03-31T08:09:32.000Z</time>
      </trkpt>
      <trkpt lat="47.3023" lon="-2.38523">
        <ele>178.19999694824</ele>
        <time>2022-03-31T08:09:33.000Z</time>
      </trkpt>
      <trkpt lat="47.30256" lon="-2.38508">
        <ele>178.19999694824</ele>
        <time>2022-03-31T08:09:40.000Z</time>
      </trkpt>
      <trkpt lat="47.30284" lon="-2.38491">
        <ele>178.19999694824</ele>
        <time>2022-03-31T08:09:47.000Z</time>
      </trkpt>
      <trkpt lat="47.30296" lon="-2.38483">
        <ele>178.19999694824</ele>
        <time>2022-03-31T08:09:50.000Z</time>
      </trkpt>
      <trkpt lat="47.30307" lon="-2.38478">
        <ele>178.60000610352</ele>
        <time>2022-03-31T08:09:53.000Z</time>
      </trkpt>
      <trkpt lat="47.30311" lon="-2.38478">
        <ele>179</ele>
        <time>2022-03-31T08:09:54.000Z</time>
      </trkpt>
      <trkpt lat="47.30315" lon="-2.38479">
        <ele>179.39999389648</ele>
        <time>2022-03-31T08:09:55.000Z</time>
      </trkpt>
      <trkpt lat="47.30319" lon="-2.38479">
        <ele>179.80000305176</ele>
        <time>2022-03-31T08:09:56.000Z</time>
      </trkpt>
      <trkpt lat="47.30323" lon="-2.38477">
        <ele>180.19999694824</ele>
        <time>2022-03-31T08:09:57.000Z</time>
      </trkpt>
      <trkpt lat="47.30327" lon="-2.38475">
        <ele>180.19999694824</ele>
        <time>2022-03-31T08:09:58.000Z</time>
      </trkpt>
      <trkpt lat="47.30337" lon="-2.38467">
        <ele>180.19999694824</ele>
        <time>2022-03-31T08:10:01.000Z</time>
      </trkpt>
      <trkpt lat="47.30342" lon="-2.38463">
        <ele>180.19999694824</ele>
        <time>2022-03-31T08:10:03.000Z</time>
      </trkpt>
      <trkpt lat="47.30362" lon="-2.38452">
        <ele>180.19999694824</ele>
        <time>2022-03-31T08:10:10.000Z</time>
      </trkpt>
      <trkpt lat="47.30381" lon="-2.38442">
        <ele>180.19999694824</ele>
        <time>2022-03-31T08:10:17.000Z</time>
      </trkpt>
      <trkpt lat="47.30386" lon="-2.3844">
        <ele>180.19999694824</ele>
        <time>2022-03-31T08:10:21.000Z</time>
      </trkpt>
      <trkpt lat="47.30388" lon="-2.38438">
        <ele>180.19999694824</ele>
        <time>2022-03-31T08:10:37.000Z</time>
      </trkpt>
      <trkpt lat="47.30391" lon="-2.38437">
        <ele>180.19999694824</ele>
        <time>2022-03-31T08:10:39.000Z</time>
      </trkpt>
      <trkpt lat="47.30395" lon="-2.38434">
        <ele>180.19999694824</ele>
        <time>2022-03-31T08:10:41.000Z</time>
      </trkpt>
      <trkpt lat="47.30404" lon="-2.38428">
        <ele>180.19999694824</ele>
        <time>2022-03-31T08:10:45.000Z</time>
      </trkpt>
      <trkpt lat="47.30419" lon="-2.38417">
        <ele>180.19999694824</ele>
        <time>2022-03-31T08:10:51.000Z</time>
      </trkpt>
      <trkpt lat="47.30428" lon="-2.38416">
        <ele>180.19999694824</ele>
        <time>2022-03-31T08:10:55.000Z</time>
      </trkpt>
      <trkpt lat="47.30431" lon="-2.38418">
        <ele>180.19999694824</ele>
        <time>2022-03-31T08:10:56.000Z</time>
      </trkpt>
      <trkpt lat="47.30436" lon="-2.38427">
        <ele>180.60000610352</ele>
        <time>2022-03-31T08:10:59.000Z</time>
      </trkpt>
      <trkpt lat="47.30438" lon="-2.38431">
        <ele>181</ele>
        <time>2022-03-31T08:11:00.000Z</time>
      </trkpt>
      <trkpt lat="47.3044" lon="-2.38434">
        <ele>181.39999389648</ele>
        <time>2022-03-31T08:11:01.000Z</time>
      </trkpt>
      <trkpt lat="47.30442" lon="-2.38438">
        <ele>181.80000305176</ele>
        <time>2022-03-31T08:11:02.000Z</time>
      </trkpt>
      <trkpt lat="47.30444" lon="-2.38441">
        <ele>182.39999389648</ele>
        <time>2022-03-31T08:11:03.000Z</time>
      </trkpt>
      <trkpt lat="47.30454" lon="-2.38459">
        <ele>182.39999389648</ele>
        <time>2022-03-31T08:11:08.000Z</time>
      </trkpt>
      <trkpt lat="47.30457" lon="-2.38463">
        <ele>182.80000305176</ele>
        <time>2022-03-31T08:11:09.000Z</time>
      </trkpt>
      <trkpt lat="47.30459" lon="-2.38468">
        <ele>183.19999694824</ele>
        <time>2022-03-31T08:11:10.000Z</time>
      </trkpt>
      <trkpt lat="47.30462" lon="-2.38472">
        <ele>183.60000610352</ele>
        <time>2022-03-31T08:11:11.000Z</time>
      </trkpt>
      <trkpt lat="47.30464" lon="-2.38477">
        <ele>184</ele>
        <time>2022-03-31T08:11:12.000Z</time>
      </trkpt>
      <trkpt lat="47.30466" lon="-2.38482">
        <ele>184.39999389648</ele>
        <time>2022-03-31T08:11:13.000Z</time>
      </trkpt>
      <trkpt lat="47.3047" lon="-2.38492">
        <ele>184.39999389648</ele>
        <time>2022-03-31T08:11:15.000Z</time>
      </trkpt>
      <trkpt lat="47.30484" lon="-2.38533">
        <ele>184.39999389648</ele>
        <time>2022-03-31T08:11:23.000Z</time>
      </trkpt>
      <trkpt lat="47.30493" lon="-2.38558">
        <ele>184.39999389648</ele>
        <time>2022-03-31T08:11:29.000Z</time>
      </trkpt>
      <trkpt lat="47.30494" lon="-2.38566">
        <ele>185.19999694824</ele>
        <time>2022-03-31T08:11:31.000Z</time>
      </trkpt>
      <trkpt lat="47.30494" lon="-2.3857">
        <ele>185.60000610352</ele>
        <time>2022-03-31T08:11:32.000Z</time>
      </trkpt>
      <trkpt lat="47.30493" lon="-2.38573">
        <ele>186</ele>
        <time>2022-03-31T08:11:33.000Z</time>
      </trkpt>
      <trkpt lat="47.3049" lon="-2.38575">
        <ele>186.39999389648</ele>
        <time>2022-03-31T08:11:34.000Z</time>
      </trkpt>
      <trkpt lat="47.30476" lon="-2.38588">
        <ele>186.39999389648</ele>
        <time>2022-03-31T08:11:39.000Z</time>
      </trkpt>
      <trkpt lat="47.3047" lon="-2.38599">
        <ele>186.39999389648</ele>
        <time>2022-03-31T08:11:43.000Z</time>
      </trkpt>
      <trkpt lat="47.30461" lon="-2.38592">
        <ele>186.39999389648</ele>
        <time>2022-03-31T08:11:47.000Z</time>
      </trkpt>
      <trkpt lat="47.30457" lon="-2.38581">
        <ele>186.39999389648</ele>
        <time>2022-03-31T08:11:50.000Z</time>
      </trkpt>
      <trkpt lat="47.30449" lon="-2.38584">
        <ele>186.39999389648</ele>
        <time>2022-03-31T08:11:54.000Z</time>
      </trkpt>
      <trkpt lat="47.30433" lon="-2.38593">
        <ele>186.39999389648</ele>
        <time>2022-03-31T08:11:59.000Z</time>
      </trkpt>
      <trkpt lat="47.30422" lon="-2.38597">
        <ele>186.39999389648</ele>
        <time>2022-03-31T08:12:03.000Z</time>
      </trkpt>
      <trkpt lat="47.30419" lon="-2.38594">
        <ele>186.39999389648</ele>
        <time>2022-03-31T08:12:04.000Z</time>
      </trkpt>
      <trkpt lat="47.30414" lon="-2.38589">
        <ele>186.39999389648</ele>
        <time>2022-03-31T08:12:09.000Z</time>
      </trkpt>
      <trkpt lat="47.30412" lon="-2.38586">
        <ele>186.39999389648</ele>
        <time>2022-03-31T08:13:35.000Z</time>
      </trkpt>
      <trkpt lat="47.30408" lon="-2.38575">
        <ele>186.39999389648</ele>
        <time>2022-03-31T08:13:38.000Z</time>
      </trkpt>
      <trkpt lat="47.30406" lon="-2.38569">
        <ele>186.39999389648</ele>
        <time>2022-03-31T08:13:42.000Z</time>
      </trkpt>
      <trkpt lat="47.30402" lon="-2.38556">
        <ele>186.39999389648</ele>
        <time>2022-03-31T08:13:49.000Z</time>
      </trkpt>
      <trkpt lat="47.30405" lon="-2.38559">
        <ele>186.39999389648</ele>
        <time>2022-03-31T08:13:53.000Z</time>
      </trkpt>
      <trkpt lat="47.30411" lon="-2.38572">
        <ele>186.39999389648</ele>
        <time>2022-03-31T08:14:00.000Z</time>
      </trkpt>
      <trkpt lat="47.30413" lon="-2.38577">
        <ele>186.39999389648</ele>
        <time>2022-03-31T08:14:59.000Z</time>
      </trkpt>
      <trkpt lat="47.30418" lon="-2.38587">
        <ele>186.39999389648</ele>
        <time>2022-03-31T08:15:02.000Z</time>
      </trkpt>
      <trkpt lat="47.30427" lon="-2.38596">
        <ele>186.39999389648</ele>
        <time>2022-03-31T08:15:06.000Z</time>
      </trkpt>
      <trkpt lat="47.30442" lon="-2.38587">
        <ele>186.39999389648</ele>
        <time>2022-03-31T08:15:11.000Z</time>
      </trkpt>
      <trkpt lat="47.30453" lon="-2.38582">
        <ele>186.39999389648</ele>
        <time>2022-03-31T08:15:16.000Z</time>
      </trkpt>
      <trkpt lat="47.30458" lon="-2.38586">
        <ele>186.39999389648</ele>
        <time>2022-03-31T08:15:19.000Z</time>
      </trkpt>
      <trkpt lat="47.3046" lon="-2.38588">
        <ele>186.39999389648</ele>
        <time>2022-03-31T08:15:20.000Z</time>
      </trkpt>
      <trkpt lat="47.30462" lon="-2.38593">
        <ele>186.39999389648</ele>
        <time>2022-03-31T08:15:23.000Z</time>
      </trkpt>
      <trkpt lat="47.30465" lon="-2.38597">
        <ele>186.80000305176</ele>
        <time>2022-03-31T08:15:25.000Z</time>
      </trkpt>
      <trkpt lat="47.30466" lon="-2.38598">
        <ele>187.19999694824</ele>
        <time>2022-03-31T08:15:26.000Z</time>
      </trkpt>
      <trkpt lat="47.30466" lon="-2.386">
        <ele>187.60000610352</ele>
        <time>2022-03-31T08:15:27.000Z</time>
      </trkpt>
      <trkpt lat="47.30467" lon="-2.38602">
        <ele>188</ele>
        <time>2022-03-31T08:15:28.000Z</time>
      </trkpt>
      <trkpt lat="47.30468" lon="-2.38605">
        <ele>188.60000610352</ele>
        <time>2022-03-31T08:15:29.000Z</time>
      </trkpt>
      <trkpt lat="47.3047" lon="-2.38611">
        <ele>188.60000610352</ele>
        <time>2022-03-31T08:15:32.000Z</time>
      </trkpt>
      <trkpt lat="47.30475" lon="-2.38623">
        <ele>188.60000610352</ele>
        <time>2022-03-31T08:15:36.000Z</time>
      </trkpt>
      <trkpt lat="47.30478" lon="-2.38631">
        <ele>188.60000610352</ele>
        <time>2022-03-31T08:15:38.000Z</time>
      </trkpt>
      <trkpt lat="47.30486" lon="-2.38655">
        <ele>188.60000610352</ele>
        <time>2022-03-31T08:15:45.000Z</time>
      </trkpt>
      <trkpt lat="47.30495" lon="-2.38683">
        <ele>189</ele>
        <time>2022-03-31T08:15:52.000Z</time>
      </trkpt>
      <trkpt lat="47.30496" lon="-2.38686">
        <ele>189.39999389648</ele>
        <time>2022-03-31T08:15:53.000Z</time>
      </trkpt>
      <trkpt lat="47.30497" lon="-2.3869">
        <ele>189.80000305176</ele>
        <time>2022-03-31T08:15:54.000Z</time>
      </trkpt>
      <trkpt lat="47.30498" lon="-2.38694">
        <ele>190.19999694824</ele>
        <time>2022-03-31T08:15:55.000Z</time>
      </trkpt>
      <trkpt lat="47.30499" lon="-2.38698">
        <ele>190.60000610352</ele>
        <time>2022-03-31T08:15:56.000Z</time>
      </trkpt>
      <trkpt lat="47.30503" lon="-2.38713">
        <ele>190.60000610352</ele>
        <time>2022-03-31T08:16:00.000Z</time>
      </trkpt>
      <trkpt lat="47.30497" lon="-2.38722">
        <ele>190.60000610352</ele>
        <time>2022-03-31T08:16:03.000Z</time>
      </trkpt>
      <trkpt lat="47.30482" lon="-2.38732">
        <ele>190.60000610352</ele>
        <time>2022-03-31T08:16:08.000Z</time>
      </trkpt>
      <trkpt lat="47.30456" lon="-2.38753">
        <ele>190.60000610352</ele>
        <time>2022-03-31T08:16:16.000Z</time>
      </trkpt>
      <trkpt lat="47.30437" lon="-2.38766">
        <ele>190.60000610352</ele>
        <time>2022-03-31T08:16:22.000Z</time>
      </trkpt>
      <trkpt lat="47.30429" lon="-2.38773">
        <ele>190.60000610352</ele>
        <time>2022-03-31T08:16:27.000Z</time>
      </trkpt>
      <trkpt lat="47.30421" lon="-2.38782">
        <ele>190.60000610352</ele>
        <time>2022-03-31T08:16:32.000Z</time>
      </trkpt>
      <trkpt lat="47.30414" lon="-2.38811">
        <ele>190.60000610352</ele>
        <time>2022-03-31T08:16:38.000Z</time>
      </trkpt>
      <trkpt lat="47.3041" lon="-2.38823">
        <ele>190.60000610352</ele>
        <time>2022-03-31T08:16:40.000Z</time>
      </trkpt>
      <trkpt lat="47.30402" lon="-2.38841">
        <ele>190.60000610352</ele>
        <time>2022-03-31T08:16:43.000Z</time>
      </trkpt>
      <trkpt lat="47.30398" lon="-2.38847">
        <ele>190.60000610352</ele>
        <time>2022-03-31T08:16:44.000Z</time>
      </trkpt>
      <trkpt lat="47.30394" lon="-2.38853">
        <ele>190.19999694824</ele>
        <time>2022-03-31T08:16:45.000Z</time>
      </trkpt>
      <trkpt lat="47.30391" lon="-2.3886">
        <ele>189.80000305176</ele>
        <time>2022-03-31T08:16:46.000Z</time>
      </trkpt>
      <trkpt lat="47.30387" lon="-2.38866">
        <ele>189.19999694824</ele>
        <time>2022-03-31T08:16:47.000Z</time>
      </trkpt>
      <trkpt lat="47.30383" lon="-2.38873">
        <ele>188.80000305176</ele>
        <time>2022-03-31T08:16:48.000Z</time>
      </trkpt>
      <trkpt lat="47.30378" lon="-2.3888">
        <ele>188.39999389648</ele>
        <time>2022-03-31T08:16:49.000Z</time>
      </trkpt>
      <trkpt lat="47.30368" lon="-2.38896">
        <ele>188.39999389648</ele>
        <time>2022-03-31T08:16:51.000Z</time>
      </trkpt>
      <trkpt lat="47.30363" lon="-2.38904">
        <ele>188</ele>
        <time>2022-03-31T08:16:52.000Z</time>
      </trkpt>
      <trkpt lat="47.30358" lon="-2.38912">
        <ele>187.60000610352</ele>
        <time>2022-03-31T08:16:53.000Z</time>
      </trkpt>
      <trkpt lat="47.30353" lon="-2.38919">
        <ele>187.19999694824</ele>
        <time>2022-03-31T08:16:54.000Z</time>
      </trkpt>
      <trkpt lat="47.30347" lon="-2.38927">
        <ele>186.60000610352</ele>
        <time>2022-03-31T08:16:55.000Z</time>
      </trkpt>
      <trkpt lat="47.30341" lon="-2.38934">
        <ele>186.19999694824</ele>
        <time>2022-03-31T08:16:56.000Z</time>
      </trkpt>
      <trkpt lat="47.30332" lon="-2.38951">
        <ele>186.19999694824</ele>
        <time>2022-03-31T08:16:58.000Z</time>
      </trkpt>
      <trkpt lat="47.3033" lon="-2.3896">
        <ele>185.80000305176</ele>
        <time>2022-03-31T08:16:59.000Z</time>
      </trkpt>
      <trkpt lat="47.3033" lon="-2.3897">
        <ele>185.39999389648</ele>
        <time>2022-03-31T08:17:00.000Z</time>
      </trkpt>
      <trkpt lat="47.30331" lon="-2.38979">
        <ele>185</ele>
        <time>2022-03-31T08:17:01.000Z</time>
      </trkpt>
      <trkpt lat="47.30333" lon="-2.38987">
        <ele>184.60000610352</ele>
        <time>2022-03-31T08:17:02.000Z</time>
      </trkpt>
      <trkpt lat="47.30337" lon="-2.38995">
        <ele>184.19999694824</ele>
        <time>2022-03-31T08:17:03.000Z</time>
      </trkpt>
      <trkpt lat="47.3034" lon="-2.39003">
        <ele>184.19999694824</ele>
        <time>2022-03-31T08:17:04.000Z</time>
      </trkpt>
      <trkpt lat="47.30345" lon="-2.39018">
        <ele>184.19999694824</ele>
        <time>2022-03-31T08:17:06.000Z</time>
      </trkpt>
      <trkpt lat="47.3035" lon="-2.39039">
        <ele>184.19999694824</ele>
        <time>2022-03-31T08:17:09.000Z</time>
      </trkpt>
      <trkpt lat="47.30364" lon="-2.39102">
        <ele>184.19999694824</ele>
        <time>2022-03-31T08:17:17.000Z</time>
      </trkpt>
      <trkpt lat="47.30377" lon="-2.39137">
        <ele>184.19999694824</ele>
        <time>2022-03-31T08:17:21.000Z</time>
      </trkpt>
      <trkpt lat="47.30385" lon="-2.39153">
        <ele>184.19999694824</ele>
        <time>2022-03-31T08:17:23.000Z</time>
      </trkpt>
      <trkpt lat="47.30402" lon="-2.39169">
        <ele>184.19999694824</ele>
        <time>2022-03-31T08:17:26.000Z</time>
      </trkpt>
      <trkpt lat="47.30409" lon="-2.39171">
        <ele>184.19999694824</ele>
        <time>2022-03-31T08:17:27.000Z</time>
      </trkpt>
      <trkpt lat="47.30421" lon="-2.39169">
        <ele>184.19999694824</ele>
        <time>2022-03-31T08:17:29.000Z</time>
      </trkpt>
      <trkpt lat="47.30444" lon="-2.39155">
        <ele>184.19999694824</ele>
        <time>2022-03-31T08:17:33.000Z</time>
      </trkpt>
      <trkpt lat="47.30448" lon="-2.3915">
        <ele>184.19999694824</ele>
        <time>2022-03-31T08:17:34.000Z</time>
      </trkpt>
      <trkpt lat="47.30474" lon="-2.39121">
        <ele>184.19999694824</ele>
        <time>2022-03-31T08:17:40.000Z</time>
      </trkpt>
      <trkpt lat="47.30503" lon="-2.39091">
        <ele>184.19999694824</ele>
        <time>2022-03-31T08:17:47.000Z</time>
      </trkpt>
      <trkpt lat="47.30516" lon="-2.39079">
        <ele>184.60000610352</ele>
        <time>2022-03-31T08:17:50.000Z</time>
      </trkpt>
      <trkpt lat="47.3052" lon="-2.39075">
        <ele>185</ele>
        <time>2022-03-31T08:17:51.000Z</time>
      </trkpt>
      <trkpt lat="47.30524" lon="-2.39072">
        <ele>185.39999389648</ele>
        <time>2022-03-31T08:17:52.000Z</time>
      </trkpt>
      <trkpt lat="47.30527" lon="-2.39068">
        <ele>185.80000305176</ele>
        <time>2022-03-31T08:17:53.000Z</time>
      </trkpt>
      <trkpt lat="47.30531" lon="-2.39065">
        <ele>186.19999694824</ele>
        <time>2022-03-31T08:17:54.000Z</time>
      </trkpt>
      <trkpt lat="47.30555" lon="-2.3904">
        <ele>186.19999694824</ele>
        <time>2022-03-31T08:18:01.000Z</time>
      </trkpt>
      <trkpt lat="47.30572" lon="-2.3902">
        <ele>186.60000610352</ele>
        <time>2022-03-31T08:18:06.000Z</time>
      </trkpt>
      <trkpt lat="47.30575" lon="-2.39015">
        <ele>187</ele>
        <time>2022-03-31T08:18:07.000Z</time>
      </trkpt>
      <trkpt lat="47.30578" lon="-2.39011">
        <ele>187.39999389648</ele>
        <time>2022-03-31T08:18:08.000Z</time>
      </trkpt>
      <trkpt lat="47.30581" lon="-2.39007">
        <ele>187.80000305176</ele>
        <time>2022-03-31T08:18:09.000Z</time>
      </trkpt>
      <trkpt lat="47.30584" lon="-2.39003">
        <ele>188.19999694824</ele>
        <time>2022-03-31T08:18:10.000Z</time>
      </trkpt>
      <trkpt lat="47.306" lon="-2.38983">
        <ele>188.19999694824</ele>
        <time>2022-03-31T08:18:15.000Z</time>
      </trkpt>
      <trkpt lat="47.30622" lon="-2.38961">
        <ele>188.19999694824</ele>
        <time>2022-03-31T08:18:21.000Z</time>
      </trkpt>
      <trkpt lat="47.30626" lon="-2.38957">
        <ele>188.60000610352</ele>
        <time>2022-03-31T08:18:22.000Z</time>
      </trkpt>
      <trkpt lat="47.3063" lon="-2.38953">
        <ele>189</ele>
        <time>2022-03-31T08:18:23.000Z</time>
      </trkpt>
      <trkpt lat="47.30633" lon="-2.3895">
        <ele>189.39999389648</ele>
        <time>2022-03-31T08:18:24.000Z</time>
      </trkpt>
      <trkpt lat="47.30637" lon="-2.38947">
        <ele>189.80000305176</ele>
        <time>2022-03-31T08:18:25.000Z</time>
      </trkpt>
      <trkpt lat="47.30641" lon="-2.38943">
        <ele>190.19999694824</ele>
        <time>2022-03-31T08:18:26.000Z</time>
      </trkpt>
      <trkpt lat="47.30652" lon="-2.38933">
        <ele>190.19999694824</ele>
        <time>2022-03-31T08:18:29.000Z</time>
      </trkpt>
      <trkpt lat="47.30675" lon="-2.38912">
        <ele>190.19999694824</ele>
        <time>2022-03-31T08:18:36.000Z</time>
      </trkpt>
      <trkpt lat="47.30684" lon="-2.38908">
        <ele>190.19999694824</ele>
        <time>2022-03-31T08:18:40.000Z</time>
      </trkpt>
      <trkpt lat="47.30686" lon="-2.38908">
        <ele>190.19999694824</ele>
        <time>2022-03-31T08:18:41.000Z</time>
      </trkpt>
      <trkpt lat="47.30694" lon="-2.38927">
        <ele>190.19999694824</ele>
        <time>2022-03-31T08:18:45.000Z</time>
      </trkpt>
      <trkpt lat="47.30698" lon="-2.38953">
        <ele>190.19999694824</ele>
        <time>2022-03-31T08:18:49.000Z</time>
      </trkpt>
      <trkpt lat="47.30703" lon="-2.38961">
        <ele>190.19999694824</ele>
        <time>2022-03-31T08:18:52.000Z</time>
      </trkpt>
      <trkpt lat="47.30704" lon="-2.38962">
        <ele>190.19999694824</ele>
        <time>2022-03-31T08:18:53.000Z</time>
      </trkpt>
      <trkpt lat="47.30714" lon="-2.38966">
        <ele>190.19999694824</ele>
        <time>2022-03-31T08:19:00.000Z</time>
      </trkpt>
      <trkpt lat="47.30725" lon="-2.38958">
        <ele>190.19999694824</ele>
        <time>2022-03-31T08:19:04.000Z</time>
      </trkpt>
      <trkpt lat="47.30729" lon="-2.38956">
        <ele>190.19999694824</ele>
        <time>2022-03-31T08:19:05.000Z</time>
      </trkpt>
      <trkpt lat="47.30744" lon="-2.38955">
        <ele>190.19999694824</ele>
        <time>2022-03-31T08:19:08.000Z</time>
      </trkpt>
      <trkpt lat="47.30765" lon="-2.38951">
        <ele>190.19999694824</ele>
        <time>2022-03-31T08:19:12.000Z</time>
      </trkpt>
      <trkpt lat="47.30771" lon="-2.38947">
        <ele>190.19999694824</ele>
        <time>2022-03-31T08:19:13.000Z</time>
      </trkpt>
      <trkpt lat="47.30789" lon="-2.38934">
        <ele>189.80000305176</ele>
        <time>2022-03-31T08:19:16.000Z</time>
      </trkpt>
      <trkpt lat="47.30795" lon="-2.38929">
        <ele>189.39999389648</ele>
        <time>2022-03-31T08:19:17.000Z</time>
      </trkpt>
      <trkpt lat="47.308" lon="-2.38925">
        <ele>189</ele>
        <time>2022-03-31T08:19:18.000Z</time>
      </trkpt>
      <trkpt lat="47.30806" lon="-2.3892">
        <ele>188.19999694824</ele>
        <time>2022-03-31T08:19:19.000Z</time>
      </trkpt>
      <trkpt lat="47.30816" lon="-2.38911">
        <ele>188.19999694824</ele>
        <time>2022-03-31T08:19:21.000Z</time>
      </trkpt>
      <trkpt lat="47.30826" lon="-2.38902">
        <ele>188.19999694824</ele>
        <time>2022-03-31T08:19:23.000Z</time>
      </trkpt>
      <trkpt lat="47.30858" lon="-2.38877">
        <ele>188.19999694824</ele>
        <time>2022-03-31T08:19:30.000Z</time>
      </trkpt>
      <trkpt lat="47.30861" lon="-2.38872">
        <ele>188.60000610352</ele>
        <time>2022-03-31T08:19:31.000Z</time>
      </trkpt>
      <trkpt lat="47.30865" lon="-2.38867">
        <ele>189</ele>
        <time>2022-03-31T08:19:32.000Z</time>
      </trkpt>
      <trkpt lat="47.30867" lon="-2.3886">
        <ele>189.60000610352</ele>
        <time>2022-03-31T08:19:33.000Z</time>
      </trkpt>
      <trkpt lat="47.30869" lon="-2.38854">
        <ele>190</ele>
        <time>2022-03-31T08:19:34.000Z</time>
      </trkpt>
      <trkpt lat="47.30872" lon="-2.38848">
        <ele>190.39999389648</ele>
        <time>2022-03-31T08:19:35.000Z</time>
      </trkpt>
      <trkpt lat="47.30884" lon="-2.38841">
        <ele>190.39999389648</ele>
        <time>2022-03-31T08:19:38.000Z</time>
      </trkpt>
      <trkpt lat="47.30897" lon="-2.3885">
        <ele>190.39999389648</ele>
        <time>2022-03-31T08:19:41.000Z</time>
      </trkpt>
      <trkpt lat="47.30902" lon="-2.38862">
        <ele>190.80000305176</ele>
        <time>2022-03-31T08:19:43.000Z</time>
      </trkpt>
      <trkpt lat="47.30904" lon="-2.38869">
        <ele>191.80000305176</ele>
        <time>2022-03-31T08:19:44.000Z</time>
      </trkpt>
      <trkpt lat="47.30907" lon="-2.38875">
        <ele>192.19999694824</ele>
        <time>2022-03-31T08:19:45.000Z</time>
      </trkpt>
      <trkpt lat="47.3091" lon="-2.38882">
        <ele>192.60000610352</ele>
        <time>2022-03-31T08:19:46.000Z</time>
      </trkpt>
      <trkpt lat="47.30921" lon="-2.38897">
        <ele>192.60000610352</ele>
        <time>2022-03-31T08:19:49.000Z</time>
      </trkpt>
      <trkpt lat="47.30925" lon="-2.38902">
        <ele>192.60000610352</ele>
        <time>2022-03-31T08:19:50.000Z</time>
      </trkpt>
      <trkpt lat="47.3093" lon="-2.38923">
        <ele>192.60000610352</ele>
        <time>2022-03-31T08:19:53.000Z</time>
      </trkpt>
      <trkpt lat="47.30925" lon="-2.38945">
        <ele>192.60000610352</ele>
        <time>2022-03-31T08:19:56.000Z</time>
      </trkpt>
      <trkpt lat="47.30915" lon="-2.38963">
        <ele>192.60000610352</ele>
        <time>2022-03-31T08:19:59.000Z</time>
      </trkpt>
      <trkpt lat="47.30909" lon="-2.38977">
        <ele>192.60000610352</ele>
        <time>2022-03-31T08:20:01.000Z</time>
      </trkpt>
      <trkpt lat="47.30904" lon="-2.39007">
        <ele>192.60000610352</ele>
        <time>2022-03-31T08:20:05.000Z</time>
      </trkpt>
      <trkpt lat="47.30904" lon="-2.39015">
        <ele>192.60000610352</ele>
        <time>2022-03-31T08:20:06.000Z</time>
      </trkpt>
      <trkpt lat="47.30901" lon="-2.39078">
        <ele>192.60000610352</ele>
        <time>2022-03-31T08:20:14.000Z</time>
      </trkpt>
      <trkpt lat="47.30912" lon="-2.39115">
        <ele>192.60000610352</ele>
        <time>2022-03-31T08:20:19.000Z</time>
      </trkpt>
      <trkpt lat="47.30934" lon="-2.39174">
        <ele>192.60000610352</ele>
        <time>2022-03-31T08:20:27.000Z</time>
      </trkpt>
      <trkpt lat="47.30953" lon="-2.39219">
        <ele>192.60000610352</ele>
        <time>2022-03-31T08:20:33.000Z</time>
      </trkpt>
      <trkpt lat="47.30979" lon="-2.3928">
        <ele>192.60000610352</ele>
        <time>2022-03-31T08:20:41.000Z</time>
      </trkpt>
      <trkpt lat="47.31003" lon="-2.39353">
        <ele>192.60000610352</ele>
        <time>2022-03-31T08:20:50.000Z</time>
      </trkpt>
      <trkpt lat="47.31009" lon="-2.39368">
        <ele>192.60000610352</ele>
        <time>2022-03-31T08:20:52.000Z</time>
      </trkpt>
      <trkpt lat="47.31033" lon="-2.3944">
        <ele>192.60000610352</ele>
        <time>2022-03-31T08:21:01.000Z</time>
      </trkpt>
      <trkpt lat="47.31039" lon="-2.39458">
        <ele>192.60000610352</ele>
        <time>2022-03-31T08:21:03.000Z</time>
      </trkpt>
      <trkpt lat="47.3106" lon="-2.39522">
        <ele>192.60000610352</ele>
        <time>2022-03-31T08:21:11.000Z</time>
      </trkpt>
      <trkpt lat="47.31076" lon="-2.39568">
        <ele>192.60000610352</ele>
        <time>2022-03-31T08:21:18.000Z</time>
      </trkpt>
      <trkpt lat="47.31081" lon="-2.39581">
        <ele>193</ele>
        <time>2022-03-31T08:21:20.000Z</time>
      </trkpt>
      <trkpt lat="47.31083" lon="-2.39587">
        <ele>193.60000610352</ele>
        <time>2022-03-31T08:21:21.000Z</time>
      </trkpt>
      <trkpt lat="47.31086" lon="-2.39593">
        <ele>194</ele>
        <time>2022-03-31T08:21:22.000Z</time>
      </trkpt>
      <trkpt lat="47.31088" lon="-2.396">
        <ele>194.39999389648</ele>
        <time>2022-03-31T08:21:23.000Z</time>
      </trkpt>
      <trkpt lat="47.3109" lon="-2.39606">
        <ele>194.80000305176</ele>
        <time>2022-03-31T08:21:24.000Z</time>
      </trkpt>
      <trkpt lat="47.31095" lon="-2.39618">
        <ele>194.80000305176</ele>
        <time>2022-03-31T08:21:26.000Z</time>
      </trkpt>
      <trkpt lat="47.31115" lon="-2.39678">
        <ele>194.80000305176</ele>
        <time>2022-03-31T08:21:35.000Z</time>
      </trkpt>
      <trkpt lat="47.31138" lon="-2.39742">
        <ele>194.80000305176</ele>
        <time>2022-03-31T08:21:44.000Z</time>
      </trkpt>
      <trkpt lat="47.31148" lon="-2.39772">
        <ele>194.39999389648</ele>
        <time>2022-03-31T08:21:48.000Z</time>
      </trkpt>
      <trkpt lat="47.31151" lon="-2.3978">
        <ele>194</ele>
        <time>2022-03-31T08:21:49.000Z</time>
      </trkpt>
      <trkpt lat="47.31153" lon="-2.39788">
        <ele>193.60000610352</ele>
        <time>2022-03-31T08:21:50.000Z</time>
      </trkpt>
      <trkpt lat="47.31156" lon="-2.39796">
        <ele>193.19999694824</ele>
        <time>2022-03-31T08:21:51.000Z</time>
      </trkpt>
      <trkpt lat="47.31158" lon="-2.39804">
        <ele>192.80000305176</ele>
        <time>2022-03-31T08:21:52.000Z</time>
      </trkpt>
      <trkpt lat="47.3116" lon="-2.39812">
        <ele>192.80000305176</ele>
        <time>2022-03-31T08:21:53.000Z</time>
      </trkpt>
      <trkpt lat="47.31163" lon="-2.39821">
        <ele>192.80000305176</ele>
        <time>2022-03-31T08:21:54.000Z</time>
      </trkpt>
      <trkpt lat="47.31173" lon="-2.39842">
        <ele>192.80000305176</ele>
        <time>2022-03-31T08:21:57.000Z</time>
      </trkpt>
      <trkpt lat="47.31179" lon="-2.39855">
        <ele>192.80000305176</ele>
        <time>2022-03-31T08:21:59.000Z</time>
      </trkpt>
      <trkpt lat="47.31183" lon="-2.39871">
        <ele>192.80000305176</ele>
        <time>2022-03-31T08:22:01.000Z</time>
      </trkpt>
      <trkpt lat="47.31186" lon="-2.39882">
        <ele>192.80000305176</ele>
        <time>2022-03-31T08:22:03.000Z</time>
      </trkpt>
      <trkpt lat="47.31188" lon="-2.39885">
        <ele>192.80000305176</ele>
        <time>2022-03-31T08:22:04.000Z</time>
      </trkpt>
      <trkpt lat="47.31193" lon="-2.39902">
        <ele>192.80000305176</ele>
        <time>2022-03-31T08:22:07.000Z</time>
      </trkpt>
      <trkpt lat="47.31195" lon="-2.39908">
        <ele>192.39999389648</ele>
        <time>2022-03-31T08:22:08.000Z</time>
      </trkpt>
      <trkpt lat="47.31198" lon="-2.39914">
        <ele>191.80000305176</ele>
        <time>2022-03-31T08:22:09.000Z</time>
      </trkpt>
      <trkpt lat="47.312" lon="-2.39919">
        <ele>191.39999389648</ele>
        <time>2022-03-31T08:22:10.000Z</time>
      </trkpt>
      <trkpt lat="47.31202" lon="-2.39925">
        <ele>191</ele>
        <time>2022-03-31T08:22:11.000Z</time>
      </trkpt>
      <trkpt lat="47.31205" lon="-2.39931">
        <ele>190.39999389648</ele>
        <time>2022-03-31T08:22:12.000Z</time>
      </trkpt>
      <trkpt lat="47.31209" lon="-2.39943">
        <ele>190.39999389648</ele>
        <time>2022-03-31T08:22:14.000Z</time>
      </trkpt>
      <trkpt lat="47.31213" lon="-2.39952">
        <ele>190</ele>
        <time>2022-03-31T08:22:16.000Z</time>
      </trkpt>
      <trkpt lat="47.31214" lon="-2.39956">
        <ele>189.60000610352</ele>
        <time>2022-03-31T08:22:17.000Z</time>
      </trkpt>
      <trkpt lat="47.31216" lon="-2.3996">
        <ele>189.19999694824</ele>
        <time>2022-03-31T08:22:18.000Z</time>
      </trkpt>
      <trkpt lat="47.31217" lon="-2.39964">
        <ele>188.80000305176</ele>
        <time>2022-03-31T08:22:19.000Z</time>
      </trkpt>
      <trkpt lat="47.31219" lon="-2.39968">
        <ele>188.39999389648</ele>
        <time>2022-03-31T08:22:20.000Z</time>
      </trkpt>
      <trkpt lat="47.31224" lon="-2.39983">
        <ele>188.39999389648</ele>
        <time>2022-03-31T08:22:23.000Z</time>
      </trkpt>
      <trkpt lat="47.3123" lon="-2.40003">
        <ele>188</ele>
        <time>2022-03-31T08:22:27.000Z</time>
      </trkpt>
      <trkpt lat="47.31231" lon="-2.40009">
        <ele>187.39999389648</ele>
        <time>2022-03-31T08:22:28.000Z</time>
      </trkpt>
      <trkpt lat="47.31232" lon="-2.40014">
        <ele>187</ele>
        <time>2022-03-31T08:22:29.000Z</time>
      </trkpt>
      <trkpt lat="47.31232" lon="-2.40017">
        <ele>186.60000610352</ele>
        <time>2022-03-31T08:22:30.000Z</time>
      </trkpt>
      <trkpt lat="47.31233" lon="-2.4002">
        <ele>186.19999694824</ele>
        <time>2022-03-31T08:22:31.000Z</time>
      </trkpt>
      <trkpt lat="47.31238" lon="-2.40039">
        <ele>186.19999694824</ele>
        <time>2022-03-31T08:22:36.000Z</time>
      </trkpt>
      <trkpt lat="47.31245" lon="-2.40042">
        <ele>186.19999694824</ele>
        <time>2022-03-31T08:22:39.000Z</time>
      </trkpt>
      <trkpt lat="47.31248" lon="-2.40043">
        <ele>186.19999694824</ele>
        <time>2022-03-31T08:22:41.000Z</time>
      </trkpt>
      <trkpt lat="47.31251" lon="-2.40047">
        <ele>186.19999694824</ele>
        <time>2022-03-31T08:22:43.000Z</time>
      </trkpt>
      <trkpt lat="47.31264" lon="-2.40052">
        <ele>186.19999694824</ele>
        <time>2022-03-31T08:22:46.000Z</time>
      </trkpt>
      <trkpt lat="47.31289" lon="-2.40057">
        <ele>186.19999694824</ele>
        <time>2022-03-31T08:22:51.000Z</time>
      </trkpt>
      <trkpt lat="47.31315" lon="-2.40065">
        <ele>186.19999694824</ele>
        <time>2022-03-31T08:22:57.000Z</time>
      </trkpt>
      <trkpt lat="47.31333" lon="-2.40073">
        <ele>186.19999694824</ele>
        <time>2022-03-31T08:23:01.000Z</time>
      </trkpt>
      <trkpt lat="47.31337" lon="-2.40075">
        <ele>186.19999694824</ele>
        <time>2022-03-31T08:23:02.000Z</time>
      </trkpt>
      <trkpt lat="47.31347" lon="-2.40079">
        <ele>186.19999694824</ele>
        <time>2022-03-31T08:23:04.000Z</time>
      </trkpt>
      <trkpt lat="47.31364" lon="-2.4009">
        <ele>186.19999694824</ele>
        <time>2022-03-31T08:23:08.000Z</time>
      </trkpt>
      <trkpt lat="47.31385" lon="-2.40103">
        <ele>186.19999694824</ele>
        <time>2022-03-31T08:23:13.000Z</time>
      </trkpt>
      <trkpt lat="47.31414" lon="-2.40125">
        <ele>186.19999694824</ele>
        <time>2022-03-31T08:23:21.000Z</time>
      </trkpt>
      <trkpt lat="47.31433" lon="-2.40139">
        <ele>186.19999694824</ele>
        <time>2022-03-31T08:23:27.000Z</time>
      </trkpt>
      <trkpt lat="47.31447" lon="-2.40152">
        <ele>186.60000610352</ele>
        <time>2022-03-31T08:23:31.000Z</time>
      </trkpt>
      <trkpt lat="47.3145" lon="-2.40155">
        <ele>187</ele>
        <time>2022-03-31T08:23:32.000Z</time>
      </trkpt>
      <trkpt lat="47.31454" lon="-2.40157">
        <ele>187.39999389648</ele>
        <time>2022-03-31T08:23:33.000Z</time>
      </trkpt>
      <trkpt lat="47.31457" lon="-2.4016">
        <ele>187.80000305176</ele>
        <time>2022-03-31T08:23:34.000Z</time>
      </trkpt>
      <trkpt lat="47.31461" lon="-2.40162">
        <ele>188.19999694824</ele>
        <time>2022-03-31T08:23:35.000Z</time>
      </trkpt>
      <trkpt lat="47.31467" lon="-2.40167">
        <ele>188.19999694824</ele>
        <time>2022-03-31T08:23:37.000Z</time>
      </trkpt>
      <trkpt lat="47.31485" lon="-2.4018">
        <ele>188.19999694824</ele>
        <time>2022-03-31T08:23:43.000Z</time>
      </trkpt>
      <trkpt lat="47.31504" lon="-2.40192">
        <ele>188.19999694824</ele>
        <time>2022-03-31T08:23:49.000Z</time>
      </trkpt>
      <trkpt lat="47.31527" lon="-2.40212">
        <ele>188.19999694824</ele>
        <time>2022-03-31T08:23:55.000Z</time>
      </trkpt>
      <trkpt lat="47.31549" lon="-2.40229">
        <ele>188.60000610352</ele>
        <time>2022-03-31T08:24:01.000Z</time>
      </trkpt>
      <trkpt lat="47.31553" lon="-2.40232">
        <ele>189</ele>
        <time>2022-03-31T08:24:02.000Z</time>
      </trkpt>
      <trkpt lat="47.31556" lon="-2.40235">
        <ele>189.39999389648</ele>
        <time>2022-03-31T08:24:03.000Z</time>
      </trkpt>
      <trkpt lat="47.3156" lon="-2.40238">
        <ele>189.80000305176</ele>
        <time>2022-03-31T08:24:04.000Z</time>
      </trkpt>
      <trkpt lat="47.31563" lon="-2.4024">
        <ele>190.19999694824</ele>
        <time>2022-03-31T08:24:05.000Z</time>
      </trkpt>
      <trkpt lat="47.3157" lon="-2.40245">
        <ele>190.19999694824</ele>
        <time>2022-03-31T08:24:07.000Z</time>
      </trkpt>
      <trkpt lat="47.31597" lon="-2.40266">
        <ele>190.19999694824</ele>
        <time>2022-03-31T08:24:14.000Z</time>
      </trkpt>
      <trkpt lat="47.31611" lon="-2.40274">
        <ele>190.19999694824</ele>
        <time>2022-03-31T08:24:18.000Z</time>
      </trkpt>
      <trkpt lat="47.31635" lon="-2.40294">
        <ele>190.19999694824</ele>
        <time>2022-03-31T08:24:25.000Z</time>
      </trkpt>
      <trkpt lat="47.31641" lon="-2.40298">
        <ele>190.60000610352</ele>
        <time>2022-03-31T08:24:27.000Z</time>
      </trkpt>
      <trkpt lat="47.31644" lon="-2.403">
        <ele>191.19999694824</ele>
        <time>2022-03-31T08:24:28.000Z</time>
      </trkpt>
      <trkpt lat="47.31648" lon="-2.40303">
        <ele>191.60000610352</ele>
        <time>2022-03-31T08:24:29.000Z</time>
      </trkpt>
      <trkpt lat="47.31651" lon="-2.40306">
        <ele>192</ele>
        <time>2022-03-31T08:24:30.000Z</time>
      </trkpt>
      <trkpt lat="47.31655" lon="-2.40308">
        <ele>192.39999389648</ele>
        <time>2022-03-31T08:24:31.000Z</time>
      </trkpt>
      <trkpt lat="47.31671" lon="-2.4032">
        <ele>192.39999389648</ele>
        <time>2022-03-31T08:24:36.000Z</time>
      </trkpt>
      <trkpt lat="47.31685" lon="-2.40331">
        <ele>192.39999389648</ele>
        <time>2022-03-31T08:24:42.000Z</time>
      </trkpt>
      <trkpt lat="47.31699" lon="-2.40342">
        <ele>192.39999389648</ele>
        <time>2022-03-31T08:24:49.000Z</time>
      </trkpt>
      <trkpt lat="47.31711" lon="-2.40349">
        <ele>192.39999389648</ele>
        <time>2022-03-31T08:24:56.000Z</time>
      </trkpt>
      <trkpt lat="47.3172" lon="-2.40356">
        <ele>192.80000305176</ele>
        <time>2022-03-31T08:24:59.000Z</time>
      </trkpt>
      <trkpt lat="47.31723" lon="-2.40359">
        <ele>193.19999694824</ele>
        <time>2022-03-31T08:25:00.000Z</time>
      </trkpt>
      <trkpt lat="47.31726" lon="-2.40362">
        <ele>193.60000610352</ele>
        <time>2022-03-31T08:25:01.000Z</time>
      </trkpt>
      <trkpt lat="47.31728" lon="-2.40364">
        <ele>194</ele>
        <time>2022-03-31T08:25:02.000Z</time>
      </trkpt>
      <trkpt lat="47.31731" lon="-2.40366">
        <ele>194.39999389648</ele>
        <time>2022-03-31T08:25:03.000Z</time>
      </trkpt>
      <trkpt lat="47.31755" lon="-2.40387">
        <ele>194.39999389648</ele>
        <time>2022-03-31T08:25:09.000Z</time>
      </trkpt>
      <trkpt lat="47.31785" lon="-2.40411">
        <ele>194.39999389648</ele>
        <time>2022-03-31T08:25:16.000Z</time>
      </trkpt>
      <trkpt lat="47.31815" lon="-2.40433">
        <ele>194.80000305176</ele>
        <time>2022-03-31T08:25:23.000Z</time>
      </trkpt>
      <trkpt lat="47.31819" lon="-2.40435">
        <ele>195.19999694824</ele>
        <time>2022-03-31T08:25:24.000Z</time>
      </trkpt>
      <trkpt lat="47.31823" lon="-2.40437">
        <ele>195.60000610352</ele>
        <time>2022-03-31T08:25:25.000Z</time>
      </trkpt>
      <trkpt lat="47.31826" lon="-2.40439">
        <ele>196</ele>
        <time>2022-03-31T08:25:26.000Z</time>
      </trkpt>
      <trkpt lat="47.31829" lon="-2.40442">
        <ele>196.60000610352</ele>
        <time>2022-03-31T08:25:27.000Z</time>
      </trkpt>
      <trkpt lat="47.31833" lon="-2.40445">
        <ele>196.60000610352</ele>
        <time>2022-03-31T08:25:28.000Z</time>
      </trkpt>
      <trkpt lat="47.31856" lon="-2.40462">
        <ele>196.60000610352</ele>
        <time>2022-03-31T08:25:34.000Z</time>
      </trkpt>
      <trkpt lat="47.31864" lon="-2.40467">
        <ele>196.60000610352</ele>
        <time>2022-03-31T08:25:36.000Z</time>
      </trkpt>
      <trkpt lat="47.31876" lon="-2.40475">
        <ele>196.60000610352</ele>
        <time>2022-03-31T08:25:39.000Z</time>
      </trkpt>
      <trkpt lat="47.31902" lon="-2.40497">
        <ele>197</ele>
        <time>2022-03-31T08:25:46.000Z</time>
      </trkpt>
      <trkpt lat="47.31905" lon="-2.405">
        <ele>197.39999389648</ele>
        <time>2022-03-31T08:25:47.000Z</time>
      </trkpt>
      <trkpt lat="47.31908" lon="-2.40502">
        <ele>197.80000305176</ele>
        <time>2022-03-31T08:25:48.000Z</time>
      </trkpt>
      <trkpt lat="47.31911" lon="-2.40505">
        <ele>198.19999694824</ele>
        <time>2022-03-31T08:25:49.000Z</time>
      </trkpt>
      <trkpt lat="47.31914" lon="-2.40508">
        <ele>198.60000610352</ele>
        <time>2022-03-31T08:25:50.000Z</time>
      </trkpt>
      <trkpt lat="47.31939" lon="-2.4052">
        <ele>198.60000610352</ele>
        <time>2022-03-31T08:25:56.000Z</time>
      </trkpt>
      <trkpt lat="47.31973" lon="-2.40548">
        <ele>198.60000610352</ele>
        <time>2022-03-31T08:26:03.000Z</time>
      </trkpt>
      <trkpt lat="47.32006" lon="-2.40578">
        <ele>198.60000610352</ele>
        <time>2022-03-31T08:26:10.000Z</time>
      </trkpt>
      <trkpt lat="47.32021" lon="-2.40592">
        <ele>199</ele>
        <time>2022-03-31T08:26:13.000Z</time>
      </trkpt>
      <trkpt lat="47.32027" lon="-2.40597">
        <ele>199.39999389648</ele>
        <time>2022-03-31T08:26:14.000Z</time>
      </trkpt>
      <trkpt lat="47.32032" lon="-2.40601">
        <ele>199.80000305176</ele>
        <time>2022-03-31T08:26:15.000Z</time>
      </trkpt>
      <trkpt lat="47.32037" lon="-2.40605">
        <ele>200.19999694824</ele>
        <time>2022-03-31T08:26:16.000Z</time>
      </trkpt>
      <trkpt lat="47.32042" lon="-2.4061">
        <ele>200.60000610352</ele>
        <time>2022-03-31T08:26:17.000Z</time>
      </trkpt>
      <trkpt lat="47.32059" lon="-2.40627">
        <ele>200.60000610352</ele>
        <time>2022-03-31T08:26:21.000Z</time>
      </trkpt>
      <trkpt lat="47.32097" lon="-2.40664">
        <ele>200.60000610352</ele>
        <time>2022-03-31T08:26:29.000Z</time>
      </trkpt>
      <trkpt lat="47.32111" lon="-2.40678">
        <ele>201</ele>
        <time>2022-03-31T08:26:32.000Z</time>
      </trkpt>
      <trkpt lat="47.32116" lon="-2.40683">
        <ele>201.39999389648</ele>
        <time>2022-03-31T08:26:33.000Z</time>
      </trkpt>
      <trkpt lat="47.3212" lon="-2.40688">
        <ele>201.80000305176</ele>
        <time>2022-03-31T08:26:34.000Z</time>
      </trkpt>
      <trkpt lat="47.32124" lon="-2.40693">
        <ele>202.19999694824</ele>
        <time>2022-03-31T08:26:35.000Z</time>
      </trkpt>
      <trkpt lat="47.32129" lon="-2.40698">
        <ele>202.60000610352</ele>
        <time>2022-03-31T08:26:36.000Z</time>
      </trkpt>
      <trkpt lat="47.32147" lon="-2.40718">
        <ele>202.60000610352</ele>
        <time>2022-03-31T08:26:40.000Z</time>
      </trkpt>
      <trkpt lat="47.32155" lon="-2.40728">
        <ele>202.60000610352</ele>
        <time>2022-03-31T08:26:42.000Z</time>
      </trkpt>
      <trkpt lat="47.32168" lon="-2.40743">
        <ele>202.60000610352</ele>
        <time>2022-03-31T08:26:45.000Z</time>
      </trkpt>
      <trkpt lat="47.32176" lon="-2.40753">
        <ele>202.60000610352</ele>
        <time>2022-03-31T08:26:47.000Z</time>
      </trkpt>
      <trkpt lat="47.32183" lon="-2.40764">
        <ele>202.60000610352</ele>
        <time>2022-03-31T08:26:49.000Z</time>
      </trkpt>
      <trkpt lat="47.32193" lon="-2.40778">
        <ele>202.60000610352</ele>
        <time>2022-03-31T08:26:52.000Z</time>
      </trkpt>
      <trkpt lat="47.32195" lon="-2.40782">
        <ele>202.60000610352</ele>
        <time>2022-03-31T08:26:53.000Z</time>
      </trkpt>
      <trkpt lat="47.32201" lon="-2.40795">
        <ele>202.60000610352</ele>
        <time>2022-03-31T08:26:56.000Z</time>
      </trkpt>
      <trkpt lat="47.32215" lon="-2.40815">
        <ele>202.60000610352</ele>
        <time>2022-03-31T08:27:02.000Z</time>
      </trkpt>
      <trkpt lat="47.32218" lon="-2.40817">
        <ele>202.60000610352</ele>
        <time>2022-03-31T08:27:03.000Z</time>
      </trkpt>
      <trkpt lat="47.32224" lon="-2.40824">
        <ele>202.60000610352</ele>
        <time>2022-03-31T08:27:05.000Z</time>
      </trkpt>
      <trkpt lat="47.32245" lon="-2.40856">
        <ele>202.60000610352</ele>
        <time>2022-03-31T08:27:11.000Z</time>
      </trkpt>
      <trkpt lat="47.32273" lon="-2.40903">
        <ele>202.60000610352</ele>
        <time>2022-03-31T08:27:19.000Z</time>
      </trkpt>
      <trkpt lat="47.32295" lon="-2.40945">
        <ele>202.60000610352</ele>
        <time>2022-03-31T08:27:26.000Z</time>
      </trkpt>
      <trkpt lat="47.32321" lon="-2.40993">
        <ele>203.39999389648</ele>
        <time>2022-03-31T08:27:34.000Z</time>
      </trkpt>
      <trkpt lat="47.32324" lon="-2.40999">
        <ele>203.80000305176</ele>
        <time>2022-03-31T08:27:35.000Z</time>
      </trkpt>
      <trkpt lat="47.32328" lon="-2.41005">
        <ele>204.19999694824</ele>
        <time>2022-03-31T08:27:36.000Z</time>
      </trkpt>
      <trkpt lat="47.32331" lon="-2.4101">
        <ele>204.80000305176</ele>
        <time>2022-03-31T08:27:37.000Z</time>
      </trkpt>
      <trkpt lat="47.32352" lon="-2.4105">
        <ele>204.80000305176</ele>
        <time>2022-03-31T08:27:44.000Z</time>
      </trkpt>
      <trkpt lat="47.3236" lon="-2.41066">
        <ele>204.80000305176</ele>
        <time>2022-03-31T08:27:47.000Z</time>
      </trkpt>
      <trkpt lat="47.3237" lon="-2.41081">
        <ele>204.80000305176</ele>
        <time>2022-03-31T08:27:50.000Z</time>
      </trkpt>
      <trkpt lat="47.32381" lon="-2.41108">
        <ele>204.80000305176</ele>
        <time>2022-03-31T08:27:55.000Z</time>
      </trkpt>
      <trkpt lat="47.32401" lon="-2.41143">
        <ele>204.80000305176</ele>
        <time>2022-03-31T08:28:02.000Z</time>
      </trkpt>
      <trkpt lat="47.32407" lon="-2.41155">
        <ele>204.80000305176</ele>
        <time>2022-03-31T08:28:06.000Z</time>
      </trkpt>
      <trkpt lat="47.3241" lon="-2.41157">
        <ele>204.80000305176</ele>
        <time>2022-03-31T08:28:08.000Z</time>
      </trkpt>
      <trkpt lat="47.32414" lon="-2.41154">
        <ele>204.80000305176</ele>
        <time>2022-03-31T08:28:10.000Z</time>
      </trkpt>
      <trkpt lat="47.32421" lon="-2.41153">
        <ele>204.80000305176</ele>
        <time>2022-03-31T08:28:14.000Z</time>
      </trkpt>
      <trkpt lat="47.32422" lon="-2.41154">
        <ele>204.80000305176</ele>
        <time>2022-03-31T08:28:15.000Z</time>
      </trkpt>
      <trkpt lat="47.32426" lon="-2.41161">
        <ele>204.80000305176</ele>
        <time>2022-03-31T08:28:19.000Z</time>
      </trkpt>
      <trkpt lat="47.32427" lon="-2.41164">
        <ele>204.80000305176</ele>
        <time>2022-03-31T08:28:22.000Z</time>
      </trkpt>
      <trkpt lat="47.32423" lon="-2.41183">
        <ele>204.80000305176</ele>
        <time>2022-03-31T08:28:27.000Z</time>
      </trkpt>
      <trkpt lat="47.32421" lon="-2.41186">
        <ele>204.80000305176</ele>
        <time>2022-03-31T08:28:30.000Z</time>
      </trkpt>
      <trkpt lat="47.32414" lon="-2.41187">
        <ele>204.80000305176</ele>
        <time>2022-03-31T08:28:34.000Z</time>
      </trkpt>
      <trkpt lat="47.32405" lon="-2.41195">
        <ele>204.80000305176</ele>
        <time>2022-03-31T08:28:39.000Z</time>
      </trkpt>
      <trkpt lat="47.3239" lon="-2.41207">
        <ele>204.80000305176</ele>
        <time>2022-03-31T08:28:45.000Z</time>
      </trkpt>
      <trkpt lat="47.32389" lon="-2.41221">
        <ele>204.80000305176</ele>
        <time>2022-03-31T08:28:49.000Z</time>
      </trkpt>
      <trkpt lat="47.32392" lon="-2.41239">
        <ele>204.80000305176</ele>
        <time>2022-03-31T08:28:54.000Z</time>
      </trkpt>
      <trkpt lat="47.32396" lon="-2.41247">
        <ele>204.80000305176</ele>
        <time>2022-03-31T08:28:58.000Z</time>
      </trkpt>
      <trkpt lat="47.32398" lon="-2.41255">
        <ele>204.80000305176</ele>
        <time>2022-03-31T08:29:02.000Z</time>
      </trkpt>
      <trkpt lat="47.32398" lon="-2.41256">
        <ele>204.80000305176</ele>
        <time>2022-03-31T08:29:03.000Z</time>
      </trkpt>
      <trkpt lat="47.32398" lon="-2.41256">
        <ele>204.80000305176</ele>
        <time>2022-03-31T08:29:04.000Z</time>
      </trkpt>
      <trkpt lat="47.32399" lon="-2.41254">
        <ele>204.80000305176</ele>
        <time>2022-03-31T08:34:37.000Z</time>
      </trkpt>
      <trkpt lat="47.32398" lon="-2.41249">
        <ele>204.80000305176</ele>
        <time>2022-03-31T08:34:39.000Z</time>
      </trkpt>
      <trkpt lat="47.32397" lon="-2.41247">
        <ele>204.80000305176</ele>
        <time>2022-03-31T08:34:40.000Z</time>
      </trkpt>
      <trkpt lat="47.32393" lon="-2.41238">
        <ele>204.80000305176</ele>
        <time>2022-03-31T08:34:43.000Z</time>
      </trkpt>
      <trkpt lat="47.32388" lon="-2.4122">
        <ele>204.80000305176</ele>
        <time>2022-03-31T08:34:48.000Z</time>
      </trkpt>
      <trkpt lat="47.32387" lon="-2.412">
        <ele>204.80000305176</ele>
        <time>2022-03-31T08:34:53.000Z</time>
      </trkpt>
      <trkpt lat="47.32395" lon="-2.4119">
        <ele>204.80000305176</ele>
        <time>2022-03-31T08:34:57.000Z</time>
      </trkpt>
      <trkpt lat="47.32396" lon="-2.41188">
        <ele>205.19999694824</ele>
        <time>2022-03-31T08:34:58.000Z</time>
      </trkpt>
      <trkpt lat="47.32398" lon="-2.41186">
        <ele>205.60000610352</ele>
        <time>2022-03-31T08:34:59.000Z</time>
      </trkpt>
      <trkpt lat="47.324" lon="-2.41185">
        <ele>206.39999389648</ele>
        <time>2022-03-31T08:35:00.000Z</time>
      </trkpt>
      <trkpt lat="47.32402" lon="-2.41185">
        <ele>206.80000305176</ele>
        <time>2022-03-31T08:35:01.000Z</time>
      </trkpt>
      <trkpt lat="47.32404" lon="-2.41185">
        <ele>206.80000305176</ele>
        <time>2022-03-31T08:35:02.000Z</time>
      </trkpt>
      <trkpt lat="47.32417" lon="-2.4118">
        <ele>206.80000305176</ele>
        <time>2022-03-31T08:35:07.000Z</time>
      </trkpt>
      <trkpt lat="47.32433" lon="-2.41165">
        <ele>206.80000305176</ele>
        <time>2022-03-31T08:35:12.000Z</time>
      </trkpt>
      <trkpt lat="47.32441" lon="-2.41158">
        <ele>206.80000305176</ele>
        <time>2022-03-31T08:35:14.000Z</time>
      </trkpt>
      <trkpt lat="47.32452" lon="-2.41144">
        <ele>206.80000305176</ele>
        <time>2022-03-31T08:35:17.000Z</time>
      </trkpt>
      <trkpt lat="47.32456" lon="-2.4114">
        <ele>206.80000305176</ele>
        <time>2022-03-31T08:35:18.000Z</time>
      </trkpt>
      <trkpt lat="47.3246" lon="-2.41135">
        <ele>207.19999694824</ele>
        <time>2022-03-31T08:35:19.000Z</time>
      </trkpt>
      <trkpt lat="47.32463" lon="-2.4113">
        <ele>207.60000610352</ele>
        <time>2022-03-31T08:35:20.000Z</time>
      </trkpt>
      <trkpt lat="47.32467" lon="-2.41125">
        <ele>208</ele>
        <time>2022-03-31T08:35:21.000Z</time>
      </trkpt>
      <trkpt lat="47.3247" lon="-2.41121">
        <ele>208.39999389648</ele>
        <time>2022-03-31T08:35:22.000Z</time>
      </trkpt>
      <trkpt lat="47.32473" lon="-2.41116">
        <ele>208.80000305176</ele>
        <time>2022-03-31T08:35:23.000Z</time>
      </trkpt>
      <trkpt lat="47.32481" lon="-2.41107">
        <ele>208.80000305176</ele>
        <time>2022-03-31T08:35:25.000Z</time>
      </trkpt>
      <trkpt lat="47.325" lon="-2.4108">
        <ele>208.80000305176</ele>
        <time>2022-03-31T08:35:31.000Z</time>
      </trkpt>
      <trkpt lat="47.32503" lon="-2.41074">
        <ele>208.80000305176</ele>
        <time>2022-03-31T08:35:32.000Z</time>
      </trkpt>
      <trkpt lat="47.32508" lon="-2.41054">
        <ele>208.80000305176</ele>
        <time>2022-03-31T08:35:36.000Z</time>
      </trkpt>
      <trkpt lat="47.32512" lon="-2.41043">
        <ele>208.80000305176</ele>
        <time>2022-03-31T08:35:38.000Z</time>
      </trkpt>
      <trkpt lat="47.32519" lon="-2.41035">
        <ele>208.80000305176</ele>
        <time>2022-03-31T08:35:40.000Z</time>
      </trkpt>
      <trkpt lat="47.32528" lon="-2.41026">
        <ele>208.80000305176</ele>
        <time>2022-03-31T08:35:42.000Z</time>
      </trkpt>
      <trkpt lat="47.32533" lon="-2.41012">
        <ele>208.80000305176</ele>
        <time>2022-03-31T08:35:44.000Z</time>
      </trkpt>
      <trkpt lat="47.32539" lon="-2.40984">
        <ele>208.80000305176</ele>
        <time>2022-03-31T08:35:48.000Z</time>
      </trkpt>
      <trkpt lat="47.32539" lon="-2.40977">
        <ele>208.80000305176</ele>
        <time>2022-03-31T08:35:49.000Z</time>
      </trkpt>
      <trkpt lat="47.32545" lon="-2.40943">
        <ele>208.80000305176</ele>
        <time>2022-03-31T08:35:54.000Z</time>
      </trkpt>
      <trkpt lat="47.32549" lon="-2.40912">
        <ele>208.80000305176</ele>
        <time>2022-03-31T08:35:59.000Z</time>
      </trkpt>
      <trkpt lat="47.32557" lon="-2.40861">
        <ele>208.80000305176</ele>
        <time>2022-03-31T08:36:07.000Z</time>
      </trkpt>
      <trkpt lat="47.32562" lon="-2.4083">
        <ele>208.80000305176</ele>
        <time>2022-03-31T08:36:12.000Z</time>
      </trkpt>
      <trkpt lat="47.3256" lon="-2.40817">
        <ele>208.80000305176</ele>
        <time>2022-03-31T08:36:14.000Z</time>
      </trkpt>
      <trkpt lat="47.3256" lon="-2.40805">
        <ele>208.80000305176</ele>
        <time>2022-03-31T08:36:16.000Z</time>
      </trkpt>
      <trkpt lat="47.32563" lon="-2.40792">
        <ele>208.80000305176</ele>
        <time>2022-03-31T08:36:18.000Z</time>
      </trkpt>
      <trkpt lat="47.32568" lon="-2.40778">
        <ele>208.80000305176</ele>
        <time>2022-03-31T08:36:20.000Z</time>
      </trkpt>
      <trkpt lat="47.32573" lon="-2.40755">
        <ele>208.80000305176</ele>
        <time>2022-03-31T08:36:23.000Z</time>
      </trkpt>
      <trkpt lat="47.32581" lon="-2.40708">
        <ele>208.80000305176</ele>
        <time>2022-03-31T08:36:29.000Z</time>
      </trkpt>
      <trkpt lat="47.32582" lon="-2.40694">
        <ele>208.80000305176</ele>
        <time>2022-03-31T08:36:31.000Z</time>
      </trkpt>
      <trkpt lat="47.32585" lon="-2.40674">
        <ele>208.80000305176</ele>
        <time>2022-03-31T08:36:34.000Z</time>
      </trkpt>
      <trkpt lat="47.32586" lon="-2.40654">
        <ele>208.80000305176</ele>
        <time>2022-03-31T08:36:37.000Z</time>
      </trkpt>
      <trkpt lat="47.32584" lon="-2.40633">
        <ele>208.80000305176</ele>
        <time>2022-03-31T08:36:40.000Z</time>
      </trkpt>
      <trkpt lat="47.32582" lon="-2.40626">
        <ele>208.80000305176</ele>
        <time>2022-03-31T08:36:41.000Z</time>
      </trkpt>
      <trkpt lat="47.32575" lon="-2.40589">
        <ele>208.80000305176</ele>
        <time>2022-03-31T08:36:46.000Z</time>
      </trkpt>
      <trkpt lat="47.32571" lon="-2.40558">
        <ele>208.80000305176</ele>
        <time>2022-03-31T08:36:50.000Z</time>
      </trkpt>
      <trkpt lat="47.32564" lon="-2.40537">
        <ele>208.80000305176</ele>
        <time>2022-03-31T08:36:53.000Z</time>
      </trkpt>
      <trkpt lat="47.3256" lon="-2.40523">
        <ele>208.80000305176</ele>
        <time>2022-03-31T08:36:55.000Z</time>
      </trkpt>
      <trkpt lat="47.32555" lon="-2.40501">
        <ele>208.80000305176</ele>
        <time>2022-03-31T08:36:58.000Z</time>
      </trkpt>
      <trkpt lat="47.32546" lon="-2.40447">
        <ele>208.80000305176</ele>
        <time>2022-03-31T08:37:05.000Z</time>
      </trkpt>
      <trkpt lat="47.32537" lon="-2.40374">
        <ele>208.80000305176</ele>
        <time>2022-03-31T08:37:14.000Z</time>
      </trkpt>
      <trkpt lat="47.32533" lon="-2.40308">
        <ele>208.80000305176</ele>
        <time>2022-03-31T08:37:22.000Z</time>
      </trkpt>
      <trkpt lat="47.32531" lon="-2.40237">
        <ele>208.80000305176</ele>
        <time>2022-03-31T08:37:30.000Z</time>
      </trkpt>
      <trkpt lat="47.32527" lon="-2.40169">
        <ele>208.80000305176</ele>
        <time>2022-03-31T08:37:37.000Z</time>
      </trkpt>
      <trkpt lat="47.32522" lon="-2.40089">
        <ele>208.39999389648</ele>
        <time>2022-03-31T08:37:45.000Z</time>
      </trkpt>
      <trkpt lat="47.32521" lon="-2.40079">
        <ele>208</ele>
        <time>2022-03-31T08:37:46.000Z</time>
      </trkpt>
      <trkpt lat="47.32521" lon="-2.4007">
        <ele>207.60000610352</ele>
        <time>2022-03-31T08:37:47.000Z</time>
      </trkpt>
      <trkpt lat="47.32521" lon="-2.40063">
        <ele>207.19999694824</ele>
        <time>2022-03-31T08:37:48.000Z</time>
      </trkpt>
      <trkpt lat="47.32521" lon="-2.40057">
        <ele>206.80000305176</ele>
        <time>2022-03-31T08:37:49.000Z</time>
      </trkpt>
      <trkpt lat="47.32521" lon="-2.40053">
        <ele>206.80000305176</ele>
        <time>2022-03-31T08:37:50.000Z</time>
      </trkpt>
      <trkpt lat="47.32519" lon="-2.40034">
        <ele>206.80000305176</ele>
        <time>2022-03-31T08:37:55.000Z</time>
      </trkpt>
      <trkpt lat="47.32515" lon="-2.40004">
        <ele>206.80000305176</ele>
        <time>2022-03-31T08:38:01.000Z</time>
      </trkpt>
      <trkpt lat="47.3252" lon="-2.39988">
        <ele>206.80000305176</ele>
        <time>2022-03-31T08:38:04.000Z</time>
      </trkpt>
      <trkpt lat="47.32538" lon="-2.3997">
        <ele>206.80000305176</ele>
        <time>2022-03-31T08:38:09.000Z</time>
      </trkpt>
      <trkpt lat="47.32545" lon="-2.39962">
        <ele>206.80000305176</ele>
        <time>2022-03-31T08:38:11.000Z</time>
      </trkpt>
      <trkpt lat="47.32557" lon="-2.39948">
        <ele>206.80000305176</ele>
        <time>2022-03-31T08:38:14.000Z</time>
      </trkpt>
      <trkpt lat="47.32563" lon="-2.39938">
        <ele>206.80000305176</ele>
        <time>2022-03-31T08:38:16.000Z</time>
      </trkpt>
      <trkpt lat="47.32573" lon="-2.39914">
        <ele>206.80000305176</ele>
        <time>2022-03-31T08:38:20.000Z</time>
      </trkpt>
      <trkpt lat="47.3259" lon="-2.3988">
        <ele>206.80000305176</ele>
        <time>2022-03-31T08:38:27.000Z</time>
      </trkpt>
      <trkpt lat="47.32606" lon="-2.39843">
        <ele>206.80000305176</ele>
        <time>2022-03-31T08:38:35.000Z</time>
      </trkpt>
      <trkpt lat="47.32611" lon="-2.39832">
        <ele>206.39999389648</ele>
        <time>2022-03-31T08:38:38.000Z</time>
      </trkpt>
      <trkpt lat="47.32612" lon="-2.3983">
        <ele>206</ele>
        <time>2022-03-31T08:38:39.000Z</time>
      </trkpt>
      <trkpt lat="47.32613" lon="-2.39828">
        <ele>205.60000610352</ele>
        <time>2022-03-31T08:38:40.000Z</time>
      </trkpt>
      <trkpt lat="47.32614" lon="-2.39827">
        <ele>205.19999694824</ele>
        <time>2022-03-31T08:38:41.000Z</time>
      </trkpt>
      <trkpt lat="47.32615" lon="-2.39824">
        <ele>204.80000305176</ele>
        <time>2022-03-31T08:38:42.000Z</time>
      </trkpt>
      <trkpt lat="47.32621" lon="-2.39813">
        <ele>204.80000305176</ele>
        <time>2022-03-31T08:38:46.000Z</time>
      </trkpt>
      <trkpt lat="47.32634" lon="-2.39787">
        <ele>204.80000305176</ele>
        <time>2022-03-31T08:38:52.000Z</time>
      </trkpt>
      <trkpt lat="47.32652" lon="-2.39753">
        <ele>204.80000305176</ele>
        <time>2022-03-31T08:38:58.000Z</time>
      </trkpt>
      <trkpt lat="47.32666" lon="-2.39728">
        <ele>204.80000305176</ele>
        <time>2022-03-31T08:39:02.000Z</time>
      </trkpt>
      <trkpt lat="47.32673" lon="-2.39716">
        <ele>204.80000305176</ele>
        <time>2022-03-31T08:39:04.000Z</time>
      </trkpt>
      <trkpt lat="47.32698" lon="-2.39669">
        <ele>204.80000305176</ele>
        <time>2022-03-31T08:39:11.000Z</time>
      </trkpt>
      <trkpt lat="47.32718" lon="-2.39636">
        <ele>204.80000305176</ele>
        <time>2022-03-31T08:39:16.000Z</time>
      </trkpt>
      <trkpt lat="47.32742" lon="-2.39609">
        <ele>204.80000305176</ele>
        <time>2022-03-31T08:39:21.000Z</time>
      </trkpt>
      <trkpt lat="47.32747" lon="-2.39605">
        <ele>204.80000305176</ele>
        <time>2022-03-31T08:39:22.000Z</time>
      </trkpt>
      <trkpt lat="47.32791" lon="-2.39573">
        <ele>204.80000305176</ele>
        <time>2022-03-31T08:39:30.000Z</time>
      </trkpt>
      <trkpt lat="47.32816" lon="-2.39555">
        <ele>204.80000305176</ele>
        <time>2022-03-31T08:39:34.000Z</time>
      </trkpt>
      <trkpt lat="47.32821" lon="-2.39548">
        <ele>204.80000305176</ele>
        <time>2022-03-31T08:39:35.000Z</time>
      </trkpt>
      <trkpt lat="47.3283" lon="-2.39534">
        <ele>204.80000305176</ele>
        <time>2022-03-31T08:39:37.000Z</time>
      </trkpt>
      <trkpt lat="47.32838" lon="-2.39522">
        <ele>204.80000305176</ele>
        <time>2022-03-31T08:39:39.000Z</time>
      </trkpt>
      <trkpt lat="47.32842" lon="-2.39519">
        <ele>204.80000305176</ele>
        <time>2022-03-31T08:39:40.000Z</time>
      </trkpt>
      <trkpt lat="47.32858" lon="-2.39518">
        <ele>204.80000305176</ele>
        <time>2022-03-31T08:39:43.000Z</time>
      </trkpt>
      <trkpt lat="47.32889" lon="-2.39512">
        <ele>204.80000305176</ele>
        <time>2022-03-31T08:39:49.000Z</time>
      </trkpt>
      <trkpt lat="47.32926" lon="-2.39506">
        <ele>204.80000305176</ele>
        <time>2022-03-31T08:39:56.000Z</time>
      </trkpt>
      <trkpt lat="47.3297" lon="-2.39499">
        <ele>204.80000305176</ele>
        <time>2022-03-31T08:40:04.000Z</time>
      </trkpt>
      <trkpt lat="47.32975" lon="-2.39498">
        <ele>204.80000305176</ele>
        <time>2022-03-31T08:40:05.000Z</time>
      </trkpt>
      <trkpt lat="47.32986" lon="-2.39494">
        <ele>204.80000305176</ele>
        <time>2022-03-31T08:40:07.000Z</time>
      </trkpt>
      <trkpt lat="47.32996" lon="-2.39487">
        <ele>204.80000305176</ele>
        <time>2022-03-31T08:40:09.000Z</time>
      </trkpt>
      <trkpt lat="47.33007" lon="-2.39484">
        <ele>204.80000305176</ele>
        <time>2022-03-31T08:40:11.000Z</time>
      </trkpt>
      <trkpt lat="47.33024" lon="-2.39485">
        <ele>204.80000305176</ele>
        <time>2022-03-31T08:40:14.000Z</time>
      </trkpt>
      <trkpt lat="47.33061" lon="-2.39485">
        <ele>204.80000305176</ele>
        <time>2022-03-31T08:40:20.000Z</time>
      </trkpt>
      <trkpt lat="47.33119" lon="-2.39474">
        <ele>204.80000305176</ele>
        <time>2022-03-31T08:40:29.000Z</time>
      </trkpt>
      <trkpt lat="47.33163" lon="-2.39465">
        <ele>204.80000305176</ele>
        <time>2022-03-31T08:40:36.000Z</time>
      </trkpt>
      <trkpt lat="47.33216" lon="-2.39455">
        <ele>204.80000305176</ele>
        <time>2022-03-31T08:40:45.000Z</time>
      </trkpt>
      <trkpt lat="47.33223" lon="-2.39455">
        <ele>204.80000305176</ele>
        <time>2022-03-31T08:40:46.000Z</time>
      </trkpt>
      <trkpt lat="47.33229" lon="-2.39454">
        <ele>204.39999389648</ele>
        <time>2022-03-31T08:40:47.000Z</time>
      </trkpt>
      <trkpt lat="47.33235" lon="-2.39453">
        <ele>204</ele>
        <time>2022-03-31T08:40:48.000Z</time>
      </trkpt>
      <trkpt lat="47.33241" lon="-2.39451">
        <ele>203.39999389648</ele>
        <time>2022-03-31T08:40:49.000Z</time>
      </trkpt>
      <trkpt lat="47.33247" lon="-2.3945">
        <ele>203</ele>
        <time>2022-03-31T08:40:50.000Z</time>
      </trkpt>
      <trkpt lat="47.33253" lon="-2.39448">
        <ele>202.60000610352</ele>
        <time>2022-03-31T08:40:51.000Z</time>
      </trkpt>
      <trkpt lat="47.33261" lon="-2.39447">
        <ele>202.60000610352</ele>
        <time>2022-03-31T08:40:53.000Z</time>
      </trkpt>
      <trkpt lat="47.33266" lon="-2.39446">
        <ele>202.60000610352</ele>
        <time>2022-03-31T08:40:56.000Z</time>
      </trkpt>
      <trkpt lat="47.33267" lon="-2.39446">
        <ele>202.19999694824</ele>
        <time>2022-03-31T08:40:57.000Z</time>
      </trkpt>
      <trkpt lat="47.33267" lon="-2.39446">
        <ele>201.80000305176</ele>
        <time>2022-03-31T08:40:58.000Z</time>
      </trkpt>
      <trkpt lat="47.33267" lon="-2.39447">
        <ele>201.39999389648</ele>
        <time>2022-03-31T08:40:59.000Z</time>
      </trkpt>
      <trkpt lat="47.33269" lon="-2.39445">
        <ele>200.60000610352</ele>
        <time>2022-03-31T08:41:02.000Z</time>
      </trkpt>
      <trkpt lat="47.33282" lon="-2.39439">
        <ele>200.60000610352</ele>
        <time>2022-03-31T08:41:06.000Z</time>
      </trkpt>
      <trkpt lat="47.33308" lon="-2.39432">
        <ele>200.60000610352</ele>
        <time>2022-03-31T08:41:11.000Z</time>
      </trkpt>
      <trkpt lat="47.33348" lon="-2.39424">
        <ele>200.60000610352</ele>
        <time>2022-03-31T08:41:17.000Z</time>
      </trkpt>
      <trkpt lat="47.33392" lon="-2.39407">
        <ele>200.19999694824</ele>
        <time>2022-03-31T08:41:24.000Z</time>
      </trkpt>
      <trkpt lat="47.33399" lon="-2.39405">
        <ele>199.80000305176</ele>
        <time>2022-03-31T08:41:25.000Z</time>
      </trkpt>
      <trkpt lat="47.33405" lon="-2.39402">
        <ele>199.19999694824</ele>
        <time>2022-03-31T08:41:26.000Z</time>
      </trkpt>
      <trkpt lat="47.33411" lon="-2.394">
        <ele>198.80000305176</ele>
        <time>2022-03-31T08:41:27.000Z</time>
      </trkpt>
      <trkpt lat="47.33418" lon="-2.39397">
        <ele>198.39999389648</ele>
        <time>2022-03-31T08:41:28.000Z</time>
      </trkpt>
      <trkpt lat="47.33444" lon="-2.39387">
        <ele>198.39999389648</ele>
        <time>2022-03-31T08:41:32.000Z</time>
      </trkpt>
      <trkpt lat="47.33489" lon="-2.39373">
        <ele>198.39999389648</ele>
        <time>2022-03-31T08:41:39.000Z</time>
      </trkpt>
      <trkpt lat="47.33495" lon="-2.39372">
        <ele>198.39999389648</ele>
        <time>2022-03-31T08:41:40.000Z</time>
      </trkpt>
      <trkpt lat="47.33515" lon="-2.39371">
        <ele>198</ele>
        <time>2022-03-31T08:41:43.000Z</time>
      </trkpt>
      <trkpt lat="47.33522" lon="-2.3937">
        <ele>197.60000610352</ele>
        <time>2022-03-31T08:41:44.000Z</time>
      </trkpt>
      <trkpt lat="47.33528" lon="-2.3937">
        <ele>197.19999694824</ele>
        <time>2022-03-31T08:41:45.000Z</time>
      </trkpt>
      <trkpt lat="47.33535" lon="-2.39368">
        <ele>196.80000305176</ele>
        <time>2022-03-31T08:41:46.000Z</time>
      </trkpt>
      <trkpt lat="47.33541" lon="-2.39367">
        <ele>196.19999694824</ele>
        <time>2022-03-31T08:41:47.000Z</time>
      </trkpt>
      <trkpt lat="47.33574" lon="-2.39356">
        <ele>196.19999694824</ele>
        <time>2022-03-31T08:41:52.000Z</time>
      </trkpt>
      <trkpt lat="47.33598" lon="-2.39345">
        <ele>195.80000305176</ele>
        <time>2022-03-31T08:41:56.000Z</time>
      </trkpt>
      <trkpt lat="47.33605" lon="-2.39343">
        <ele>195.39999389648</ele>
        <time>2022-03-31T08:41:57.000Z</time>
      </trkpt>
      <trkpt lat="47.3361" lon="-2.3934">
        <ele>195</ele>
        <time>2022-03-31T08:41:58.000Z</time>
      </trkpt>
      <trkpt lat="47.33616" lon="-2.39336">
        <ele>194.60000610352</ele>
        <time>2022-03-31T08:41:59.000Z</time>
      </trkpt>
      <trkpt lat="47.33622" lon="-2.39332">
        <ele>194.19999694824</ele>
        <time>2022-03-31T08:42:00.000Z</time>
      </trkpt>
      <trkpt lat="47.33643" lon="-2.39313">
        <ele>194.19999694824</ele>
        <time>2022-03-31T08:42:04.000Z</time>
      </trkpt>
      <trkpt lat="47.33654" lon="-2.39301">
        <ele>194.19999694824</ele>
        <time>2022-03-31T08:42:06.000Z</time>
      </trkpt>
      <trkpt lat="47.33677" lon="-2.39293">
        <ele>194.19999694824</ele>
        <time>2022-03-31T08:42:10.000Z</time>
      </trkpt>
      <trkpt lat="47.33689" lon="-2.39296">
        <ele>194.19999694824</ele>
        <time>2022-03-31T08:42:12.000Z</time>
      </trkpt>
      <trkpt lat="47.33706" lon="-2.393">
        <ele>194.19999694824</ele>
        <time>2022-03-31T08:42:15.000Z</time>
      </trkpt>
      <trkpt lat="47.33719" lon="-2.39301">
        <ele>194.19999694824</ele>
        <time>2022-03-31T08:42:17.000Z</time>
      </trkpt>
      <trkpt lat="47.33734" lon="-2.393">
        <ele>194.19999694824</ele>
        <time>2022-03-31T08:42:20.000Z</time>
      </trkpt>
      <trkpt lat="47.33763" lon="-2.39299">
        <ele>193.80000305176</ele>
        <time>2022-03-31T08:42:26.000Z</time>
      </trkpt>
      <trkpt lat="47.33769" lon="-2.39299">
        <ele>193.39999389648</ele>
        <time>2022-03-31T08:42:27.000Z</time>
      </trkpt>
      <trkpt lat="47.33775" lon="-2.39298">
        <ele>193</ele>
        <time>2022-03-31T08:42:28.000Z</time>
      </trkpt>
      <trkpt lat="47.33781" lon="-2.39297">
        <ele>192.39999389648</ele>
        <time>2022-03-31T08:42:29.000Z</time>
      </trkpt>
      <trkpt lat="47.33787" lon="-2.39296">
        <ele>192</ele>
        <time>2022-03-31T08:42:30.000Z</time>
      </trkpt>
      <trkpt lat="47.33799" lon="-2.39294">
        <ele>192</ele>
        <time>2022-03-31T08:42:32.000Z</time>
      </trkpt>
      <trkpt lat="47.3383" lon="-2.3929">
        <ele>191.60000610352</ele>
        <time>2022-03-31T08:42:37.000Z</time>
      </trkpt>
      <trkpt lat="47.33835" lon="-2.39289">
        <ele>191.19999694824</ele>
        <time>2022-03-31T08:42:38.000Z</time>
      </trkpt>
      <trkpt lat="47.33841" lon="-2.39288">
        <ele>190.80000305176</ele>
        <time>2022-03-31T08:42:39.000Z</time>
      </trkpt>
      <trkpt lat="47.33847" lon="-2.39287">
        <ele>190.39999389648</ele>
        <time>2022-03-31T08:42:40.000Z</time>
      </trkpt>
      <trkpt lat="47.33854" lon="-2.39287">
        <ele>189.80000305176</ele>
        <time>2022-03-31T08:42:41.000Z</time>
      </trkpt>
      <trkpt lat="47.33881" lon="-2.39283">
        <ele>189.80000305176</ele>
        <time>2022-03-31T08:42:45.000Z</time>
      </trkpt>
      <trkpt lat="47.33926" lon="-2.39273">
        <ele>189.80000305176</ele>
        <time>2022-03-31T08:42:52.000Z</time>
      </trkpt>
      <trkpt lat="47.3397" lon="-2.39266">
        <ele>189.80000305176</ele>
        <time>2022-03-31T08:42:59.000Z</time>
      </trkpt>
      <trkpt lat="47.3401" lon="-2.39258">
        <ele>189.80000305176</ele>
        <time>2022-03-31T08:43:05.000Z</time>
      </trkpt>
      <trkpt lat="47.34017" lon="-2.39257">
        <ele>189.39999389648</ele>
        <time>2022-03-31T08:43:06.000Z</time>
      </trkpt>
      <trkpt lat="47.34024" lon="-2.39256">
        <ele>189</ele>
        <time>2022-03-31T08:43:07.000Z</time>
      </trkpt>
      <trkpt lat="47.34031" lon="-2.39255">
        <ele>188.60000610352</ele>
        <time>2022-03-31T08:43:08.000Z</time>
      </trkpt>
      <trkpt lat="47.34038" lon="-2.39255">
        <ele>188.19999694824</ele>
        <time>2022-03-31T08:43:09.000Z</time>
      </trkpt>
      <trkpt lat="47.34044" lon="-2.39255">
        <ele>187.80000305176</ele>
        <time>2022-03-31T08:43:10.000Z</time>
      </trkpt>
      <trkpt lat="47.34055" lon="-2.39256">
        <ele>187.80000305176</ele>
        <time>2022-03-31T08:43:12.000Z</time>
      </trkpt>
      <trkpt lat="47.34059" lon="-2.39259">
        <ele>187.80000305176</ele>
        <time>2022-03-31T08:43:13.000Z</time>
      </trkpt>
      <trkpt lat="47.34065" lon="-2.39271">
        <ele>187.80000305176</ele>
        <time>2022-03-31T08:43:15.000Z</time>
      </trkpt>
      <trkpt lat="47.3407" lon="-2.39304">
        <ele>187.80000305176</ele>
        <time>2022-03-31T08:43:19.000Z</time>
      </trkpt>
      <trkpt lat="47.34074" lon="-2.3932">
        <ele>187.80000305176</ele>
        <time>2022-03-31T08:43:21.000Z</time>
      </trkpt>
      <trkpt lat="47.34079" lon="-2.39345">
        <ele>187.80000305176</ele>
        <time>2022-03-31T08:43:24.000Z</time>
      </trkpt>
      <trkpt lat="47.34087" lon="-2.39396">
        <ele>187.80000305176</ele>
        <time>2022-03-31T08:43:30.000Z</time>
      </trkpt>
      <trkpt lat="47.34088" lon="-2.39404">
        <ele>187.80000305176</ele>
        <time>2022-03-31T08:43:31.000Z</time>
      </trkpt>
      <trkpt lat="47.34091" lon="-2.3942">
        <ele>187.80000305176</ele>
        <time>2022-03-31T08:43:33.000Z</time>
      </trkpt>
      <trkpt lat="47.341" lon="-2.39429">
        <ele>187.80000305176</ele>
        <time>2022-03-31T08:43:35.000Z</time>
      </trkpt>
      <trkpt lat="47.34111" lon="-2.39426">
        <ele>187.80000305176</ele>
        <time>2022-03-31T08:43:37.000Z</time>
      </trkpt>
      <trkpt lat="47.34126" lon="-2.39415">
        <ele>187.80000305176</ele>
        <time>2022-03-31T08:43:40.000Z</time>
      </trkpt>
      <trkpt lat="47.34136" lon="-2.39409">
        <ele>187.80000305176</ele>
        <time>2022-03-31T08:43:42.000Z</time>
      </trkpt>
      <trkpt lat="47.34172" lon="-2.39384">
        <ele>187.80000305176</ele>
        <time>2022-03-31T08:43:49.000Z</time>
      </trkpt>
      <trkpt lat="47.3421" lon="-2.39361">
        <ele>187.80000305176</ele>
        <time>2022-03-31T08:43:56.000Z</time>
      </trkpt>
      <trkpt lat="47.34245" lon="-2.39337">
        <ele>187.80000305176</ele>
        <time>2022-03-31T08:44:02.000Z</time>
      </trkpt>
      <trkpt lat="47.34286" lon="-2.39314">
        <ele>187.80000305176</ele>
        <time>2022-03-31T08:44:09.000Z</time>
      </trkpt>
      <trkpt lat="47.34319" lon="-2.39297">
        <ele>187.39999389648</ele>
        <time>2022-03-31T08:44:15.000Z</time>
      </trkpt>
      <trkpt lat="47.34324" lon="-2.39295">
        <ele>187</ele>
        <time>2022-03-31T08:44:16.000Z</time>
      </trkpt>
      <trkpt lat="47.34329" lon="-2.39292">
        <ele>186.39999389648</ele>
        <time>2022-03-31T08:44:17.000Z</time>
      </trkpt>
      <trkpt lat="47.34334" lon="-2.39289">
        <ele>186</ele>
        <time>2022-03-31T08:44:18.000Z</time>
      </trkpt>
      <trkpt lat="47.34339" lon="-2.39285">
        <ele>185.60000610352</ele>
        <time>2022-03-31T08:44:19.000Z</time>
      </trkpt>
      <trkpt lat="47.34357" lon="-2.39276">
        <ele>185.60000610352</ele>
        <time>2022-03-31T08:44:22.000Z</time>
      </trkpt>
      <trkpt lat="47.34377" lon="-2.39267">
        <ele>185.19999694824</ele>
        <time>2022-03-31T08:44:25.000Z</time>
      </trkpt>
      <trkpt lat="47.34384" lon="-2.39264">
        <ele>184.60000610352</ele>
        <time>2022-03-31T08:44:26.000Z</time>
      </trkpt>
      <trkpt lat="47.34391" lon="-2.39261">
        <ele>184.19999694824</ele>
        <time>2022-03-31T08:44:27.000Z</time>
      </trkpt>
      <trkpt lat="47.34398" lon="-2.39257">
        <ele>183.19999694824</ele>
        <time>2022-03-31T08:44:28.000Z</time>
      </trkpt>
      <trkpt lat="47.3442" lon="-2.3925">
        <ele>182.80000305176</ele>
        <time>2022-03-31T08:44:31.000Z</time>
      </trkpt>
      <trkpt lat="47.34427" lon="-2.39248">
        <ele>182.39999389648</ele>
        <time>2022-03-31T08:44:32.000Z</time>
      </trkpt>
      <trkpt lat="47.34434" lon="-2.39247">
        <ele>182</ele>
        <time>2022-03-31T08:44:33.000Z</time>
      </trkpt>
      <trkpt lat="47.34441" lon="-2.39245">
        <ele>181.60000610352</ele>
        <time>2022-03-31T08:44:34.000Z</time>
      </trkpt>
      <trkpt lat="47.34448" lon="-2.39243">
        <ele>181</ele>
        <time>2022-03-31T08:44:35.000Z</time>
      </trkpt>
      <trkpt lat="47.34463" lon="-2.39239">
        <ele>180.60000610352</ele>
        <time>2022-03-31T08:44:37.000Z</time>
      </trkpt>
      <trkpt lat="47.3447" lon="-2.39237">
        <ele>180.19999694824</ele>
        <time>2022-03-31T08:44:38.000Z</time>
      </trkpt>
      <trkpt lat="47.34477" lon="-2.39234">
        <ele>179.80000305176</ele>
        <time>2022-03-31T08:44:39.000Z</time>
      </trkpt>
      <trkpt lat="47.34484" lon="-2.39233">
        <ele>179.19999694824</ele>
        <time>2022-03-31T08:44:40.000Z</time>
      </trkpt>
      <trkpt lat="47.34491" lon="-2.39231">
        <ele>178.80000305176</ele>
        <time>2022-03-31T08:44:41.000Z</time>
      </trkpt>
      <trkpt lat="47.34514" lon="-2.39226">
        <ele>178.39999389648</ele>
        <time>2022-03-31T08:44:44.000Z</time>
      </trkpt>
      <trkpt lat="47.34522" lon="-2.39225">
        <ele>178</ele>
        <time>2022-03-31T08:44:45.000Z</time>
      </trkpt>
      <trkpt lat="47.34529" lon="-2.39225">
        <ele>177.60000610352</ele>
        <time>2022-03-31T08:44:46.000Z</time>
      </trkpt>
      <trkpt lat="47.34537" lon="-2.39225">
        <ele>177.19999694824</ele>
        <time>2022-03-31T08:44:47.000Z</time>
      </trkpt>
      <trkpt lat="47.34545" lon="-2.39227">
        <ele>176.80000305176</ele>
        <time>2022-03-31T08:44:48.000Z</time>
      </trkpt>
      <trkpt lat="47.34552" lon="-2.39228">
        <ele>176.39999389648</ele>
        <time>2022-03-31T08:44:49.000Z</time>
      </trkpt>
      <trkpt lat="47.3456" lon="-2.39231">
        <ele>176</ele>
        <time>2022-03-31T08:44:50.000Z</time>
      </trkpt>
      <trkpt lat="47.34567" lon="-2.39233">
        <ele>175.60000610352</ele>
        <time>2022-03-31T08:44:51.000Z</time>
      </trkpt>
      <trkpt lat="47.34574" lon="-2.39237">
        <ele>175.19999694824</ele>
        <time>2022-03-31T08:44:52.000Z</time>
      </trkpt>
      <trkpt lat="47.34581" lon="-2.3924">
        <ele>174.80000305176</ele>
        <time>2022-03-31T08:44:53.000Z</time>
      </trkpt>
      <trkpt lat="47.34612" lon="-2.39261">
        <ele>174.80000305176</ele>
        <time>2022-03-31T08:44:58.000Z</time>
      </trkpt>
      <trkpt lat="47.34647" lon="-2.39293">
        <ele>174.80000305176</ele>
        <time>2022-03-31T08:45:05.000Z</time>
      </trkpt>
      <trkpt lat="47.34655" lon="-2.393">
        <ele>174.80000305176</ele>
        <time>2022-03-31T08:45:07.000Z</time>
      </trkpt>
      <trkpt lat="47.34665" lon="-2.39296">
        <ele>174.80000305176</ele>
        <time>2022-03-31T08:45:09.000Z</time>
      </trkpt>
      <trkpt lat="47.34677" lon="-2.39276">
        <ele>174.80000305176</ele>
        <time>2022-03-31T08:45:12.000Z</time>
      </trkpt>
      <trkpt lat="47.34681" lon="-2.39269">
        <ele>174.80000305176</ele>
        <time>2022-03-31T08:45:13.000Z</time>
      </trkpt>
      <trkpt lat="47.34711" lon="-2.39212">
        <ele>174.80000305176</ele>
        <time>2022-03-31T08:45:21.000Z</time>
      </trkpt>
      <trkpt lat="47.34716" lon="-2.39207">
        <ele>174.39999389648</ele>
        <time>2022-03-31T08:45:22.000Z</time>
      </trkpt>
      <trkpt lat="47.3472" lon="-2.39201">
        <ele>174</ele>
        <time>2022-03-31T08:45:23.000Z</time>
      </trkpt>
      <trkpt lat="47.34725" lon="-2.39195">
        <ele>173.60000610352</ele>
        <time>2022-03-31T08:45:24.000Z</time>
      </trkpt>
      <trkpt lat="47.34729" lon="-2.3919">
        <ele>173.19999694824</ele>
        <time>2022-03-31T08:45:25.000Z</time>
      </trkpt>
      <trkpt lat="47.34734" lon="-2.39186">
        <ele>172.60000610352</ele>
        <time>2022-03-31T08:45:26.000Z</time>
      </trkpt>
      <trkpt lat="47.34738" lon="-2.39181">
        <ele>172.60000610352</ele>
        <time>2022-03-31T08:45:27.000Z</time>
      </trkpt>
      <trkpt lat="47.34769" lon="-2.39148">
        <ele>172.60000610352</ele>
        <time>2022-03-31T08:45:33.000Z</time>
      </trkpt>
      <trkpt lat="47.34795" lon="-2.39106">
        <ele>172.60000610352</ele>
        <time>2022-03-31T08:45:39.000Z</time>
      </trkpt>
      <trkpt lat="47.34826" lon="-2.39054">
        <ele>172.60000610352</ele>
        <time>2022-03-31T08:45:46.000Z</time>
      </trkpt>
      <trkpt lat="47.34846" lon="-2.3902">
        <ele>172.19999694824</ele>
        <time>2022-03-31T08:45:51.000Z</time>
      </trkpt>
      <trkpt lat="47.3485" lon="-2.39012">
        <ele>171.80000305176</ele>
        <time>2022-03-31T08:45:52.000Z</time>
      </trkpt>
      <trkpt lat="47.34854" lon="-2.39005">
        <ele>171.19999694824</ele>
        <time>2022-03-31T08:45:53.000Z</time>
      </trkpt>
      <trkpt lat="47.34857" lon="-2.38999">
        <ele>170.80000305176</ele>
        <time>2022-03-31T08:45:54.000Z</time>
      </trkpt>
      <trkpt lat="47.34861" lon="-2.38992">
        <ele>170.39999389648</ele>
        <time>2022-03-31T08:45:55.000Z</time>
      </trkpt>
      <trkpt lat="47.34869" lon="-2.3898">
        <ele>170.39999389648</ele>
        <time>2022-03-31T08:45:57.000Z</time>
      </trkpt>
      <trkpt lat="47.34892" lon="-2.3894">
        <ele>170.39999389648</ele>
        <time>2022-03-31T08:46:03.000Z</time>
      </trkpt>
      <trkpt lat="47.34921" lon="-2.38895">
        <ele>170.39999389648</ele>
        <time>2022-03-31T08:46:09.000Z</time>
      </trkpt>
      <trkpt lat="47.34949" lon="-2.38849">
        <ele>170.39999389648</ele>
        <time>2022-03-31T08:46:15.000Z</time>
      </trkpt>
      <trkpt lat="47.34989" lon="-2.38788">
        <ele>170.39999389648</ele>
        <time>2022-03-31T08:46:24.000Z</time>
      </trkpt>
      <trkpt lat="47.34994" lon="-2.38783">
        <ele>170.39999389648</ele>
        <time>2022-03-31T08:46:25.000Z</time>
      </trkpt>
      <trkpt lat="47.35025" lon="-2.38753">
        <ele>170.39999389648</ele>
        <time>2022-03-31T08:46:31.000Z</time>
      </trkpt>
      <trkpt lat="47.35034" lon="-2.38739">
        <ele>170</ele>
        <time>2022-03-31T08:46:33.000Z</time>
      </trkpt>
      <trkpt lat="47.35038" lon="-2.38731">
        <ele>169.60000610352</ele>
        <time>2022-03-31T08:46:34.000Z</time>
      </trkpt>
      <trkpt lat="47.35042" lon="-2.38723">
        <ele>169</ele>
        <time>2022-03-31T08:46:35.000Z</time>
      </trkpt>
      <trkpt lat="47.35045" lon="-2.38715">
        <ele>168.60000610352</ele>
        <time>2022-03-31T08:46:36.000Z</time>
      </trkpt>
      <trkpt lat="47.35049" lon="-2.38707">
        <ele>168.19999694824</ele>
        <time>2022-03-31T08:46:37.000Z</time>
      </trkpt>
      <trkpt lat="47.35062" lon="-2.38677">
        <ele>168.19999694824</ele>
        <time>2022-03-31T08:46:41.000Z</time>
      </trkpt>
      <trkpt lat="47.3509" lon="-2.3862">
        <ele>168.19999694824</ele>
        <time>2022-03-31T08:46:49.000Z</time>
      </trkpt>
      <trkpt lat="47.35114" lon="-2.3857">
        <ele>168.19999694824</ele>
        <time>2022-03-31T08:46:56.000Z</time>
      </trkpt>
      <trkpt lat="47.35132" lon="-2.38524">
        <ele>168.19999694824</ele>
        <time>2022-03-31T08:47:02.000Z</time>
      </trkpt>
      <trkpt lat="47.35134" lon="-2.38514">
        <ele>168.19999694824</ele>
        <time>2022-03-31T08:47:05.000Z</time>
      </trkpt>
      <trkpt lat="47.35134" lon="-2.38511">
        <ele>168.19999694824</ele>
        <time>2022-03-31T08:47:07.000Z</time>
      </trkpt>
      <trkpt lat="47.35138" lon="-2.38509">
        <ele>168.19999694824</ele>
        <time>2022-03-31T08:47:09.000Z</time>
      </trkpt>
      <trkpt lat="47.35149" lon="-2.38496">
        <ele>168.19999694824</ele>
        <time>2022-03-31T08:47:14.000Z</time>
      </trkpt>
      <trkpt lat="47.35152" lon="-2.38491">
        <ele>168.19999694824</ele>
        <time>2022-03-31T08:47:15.000Z</time>
      </trkpt>
      <trkpt lat="47.3516" lon="-2.38476">
        <ele>168.19999694824</ele>
        <time>2022-03-31T08:47:18.000Z</time>
      </trkpt>
      <trkpt lat="47.35167" lon="-2.38467">
        <ele>168.19999694824</ele>
        <time>2022-03-31T08:47:20.000Z</time>
      </trkpt>
      <trkpt lat="47.35195" lon="-2.3843">
        <ele>168.19999694824</ele>
        <time>2022-03-31T08:47:27.000Z</time>
      </trkpt>
      <trkpt lat="47.35238" lon="-2.38371">
        <ele>168.19999694824</ele>
        <time>2022-03-31T08:47:37.000Z</time>
      </trkpt>
      <trkpt lat="47.35275" lon="-2.3832">
        <ele>168.19999694824</ele>
        <time>2022-03-31T08:47:45.000Z</time>
      </trkpt>
      <trkpt lat="47.35303" lon="-2.38281">
        <ele>168.19999694824</ele>
        <time>2022-03-31T08:47:52.000Z</time>
      </trkpt>
      <trkpt lat="47.35321" lon="-2.38255">
        <ele>168.19999694824</ele>
        <time>2022-03-31T08:47:57.000Z</time>
      </trkpt>
      <trkpt lat="47.35325" lon="-2.3825">
        <ele>168.19999694824</ele>
        <time>2022-03-31T08:47:58.000Z</time>
      </trkpt>
      <trkpt lat="47.35329" lon="-2.38247">
        <ele>168.19999694824</ele>
        <time>2022-03-31T08:47:59.000Z</time>
      </trkpt>
      <trkpt lat="47.35334" lon="-2.38243">
        <ele>168.60000610352</ele>
        <time>2022-03-31T08:48:00.000Z</time>
      </trkpt>
      <trkpt lat="47.35338" lon="-2.38237">
        <ele>169.19999694824</ele>
        <time>2022-03-31T08:48:01.000Z</time>
      </trkpt>
      <trkpt lat="47.35341" lon="-2.38232">
        <ele>169.60000610352</ele>
        <time>2022-03-31T08:48:02.000Z</time>
      </trkpt>
      <trkpt lat="47.35345" lon="-2.38225">
        <ele>170</ele>
        <time>2022-03-31T08:48:03.000Z</time>
      </trkpt>
      <trkpt lat="47.35349" lon="-2.38219">
        <ele>170.39999389648</ele>
        <time>2022-03-31T08:48:04.000Z</time>
      </trkpt>
      <trkpt lat="47.35373" lon="-2.38182">
        <ele>170.39999389648</ele>
        <time>2022-03-31T08:48:10.000Z</time>
      </trkpt>
      <trkpt lat="47.3541" lon="-2.38128">
        <ele>170.80000305176</ele>
        <time>2022-03-31T08:48:19.000Z</time>
      </trkpt>
      <trkpt lat="47.35414" lon="-2.38122">
        <ele>171.19999694824</ele>
        <time>2022-03-31T08:48:20.000Z</time>
      </trkpt>
      <trkpt lat="47.35418" lon="-2.38117">
        <ele>171.60000610352</ele>
        <time>2022-03-31T08:48:21.000Z</time>
      </trkpt>
      <trkpt lat="47.35422" lon="-2.38111">
        <ele>172</ele>
        <time>2022-03-31T08:48:22.000Z</time>
      </trkpt>
      <trkpt lat="47.35425" lon="-2.38106">
        <ele>172.39999389648</ele>
        <time>2022-03-31T08:48:23.000Z</time>
      </trkpt>
      <trkpt lat="47.35436" lon="-2.38092">
        <ele>172.39999389648</ele>
        <time>2022-03-31T08:48:26.000Z</time>
      </trkpt>
      <trkpt lat="47.35445" lon="-2.38067">
        <ele>172.39999389648</ele>
        <time>2022-03-31T08:48:32.000Z</time>
      </trkpt>
      <trkpt lat="47.35437" lon="-2.38044">
        <ele>172.39999389648</ele>
        <time>2022-03-31T08:48:36.000Z</time>
      </trkpt>
      <trkpt lat="47.35421" lon="-2.37991">
        <ele>172.39999389648</ele>
        <time>2022-03-31T08:48:44.000Z</time>
      </trkpt>
      <trkpt lat="47.35407" lon="-2.37943">
        <ele>172.39999389648</ele>
        <time>2022-03-31T08:48:51.000Z</time>
      </trkpt>
      <trkpt lat="47.35392" lon="-2.37888">
        <ele>172.39999389648</ele>
        <time>2022-03-31T08:48:58.000Z</time>
      </trkpt>
      <trkpt lat="47.35378" lon="-2.37838">
        <ele>172.39999389648</ele>
        <time>2022-03-31T08:49:05.000Z</time>
      </trkpt>
      <trkpt lat="47.35363" lon="-2.37783">
        <ele>172.39999389648</ele>
        <time>2022-03-31T08:49:13.000Z</time>
      </trkpt>
      <trkpt lat="47.35349" lon="-2.37724">
        <ele>172.39999389648</ele>
        <time>2022-03-31T08:49:21.000Z</time>
      </trkpt>
      <trkpt lat="47.35336" lon="-2.37674">
        <ele>172.39999389648</ele>
        <time>2022-03-31T08:49:28.000Z</time>
      </trkpt>
      <trkpt lat="47.35322" lon="-2.37619">
        <ele>172.39999389648</ele>
        <time>2022-03-31T08:49:35.000Z</time>
      </trkpt>
      <trkpt lat="47.35307" lon="-2.37561">
        <ele>172.39999389648</ele>
        <time>2022-03-31T08:49:42.000Z</time>
      </trkpt>
      <trkpt lat="47.35297" lon="-2.37516">
        <ele>172.39999389648</ele>
        <time>2022-03-31T08:49:48.000Z</time>
      </trkpt>
      <trkpt lat="47.35288" lon="-2.37466">
        <ele>172.39999389648</ele>
        <time>2022-03-31T08:49:55.000Z</time>
      </trkpt>
      <trkpt lat="47.35287" lon="-2.37459">
        <ele>172.80000305176</ele>
        <time>2022-03-31T08:49:56.000Z</time>
      </trkpt>
      <trkpt lat="47.35285" lon="-2.37453">
        <ele>173.39999389648</ele>
        <time>2022-03-31T08:49:57.000Z</time>
      </trkpt>
      <trkpt lat="47.35284" lon="-2.37447">
        <ele>173.80000305176</ele>
        <time>2022-03-31T08:49:58.000Z</time>
      </trkpt>
      <trkpt lat="47.35283" lon="-2.37442">
        <ele>174.19999694824</ele>
        <time>2022-03-31T08:49:59.000Z</time>
      </trkpt>
      <trkpt lat="47.35281" lon="-2.37436">
        <ele>174.60000610352</ele>
        <time>2022-03-31T08:50:00.000Z</time>
      </trkpt>
      <trkpt lat="47.35281" lon="-2.3743">
        <ele>174.60000610352</ele>
        <time>2022-03-31T08:50:01.000Z</time>
      </trkpt>
      <trkpt lat="47.35281" lon="-2.37419">
        <ele>174.60000610352</ele>
        <time>2022-03-31T08:50:03.000Z</time>
      </trkpt>
      <trkpt lat="47.35281" lon="-2.37397">
        <ele>175</ele>
        <time>2022-03-31T08:50:07.000Z</time>
      </trkpt>
      <trkpt lat="47.35281" lon="-2.37391">
        <ele>175.39999389648</ele>
        <time>2022-03-31T08:50:08.000Z</time>
      </trkpt>
      <trkpt lat="47.35281" lon="-2.37386">
        <ele>175.80000305176</ele>
        <time>2022-03-31T08:50:09.000Z</time>
      </trkpt>
      <trkpt lat="47.35281" lon="-2.37381">
        <ele>176.19999694824</ele>
        <time>2022-03-31T08:50:10.000Z</time>
      </trkpt>
      <trkpt lat="47.35281" lon="-2.37375">
        <ele>176.60000610352</ele>
        <time>2022-03-31T08:50:11.000Z</time>
      </trkpt>
      <trkpt lat="47.35279" lon="-2.37325">
        <ele>176.60000610352</ele>
        <time>2022-03-31T08:50:19.000Z</time>
      </trkpt>
      <trkpt lat="47.35278" lon="-2.37272">
        <ele>176.60000610352</ele>
        <time>2022-03-31T08:50:26.000Z</time>
      </trkpt>
      <trkpt lat="47.35278" lon="-2.37224">
        <ele>176.60000610352</ele>
        <time>2022-03-31T08:50:32.000Z</time>
      </trkpt>
      <trkpt lat="47.35277" lon="-2.37219">
        <ele>176.60000610352</ele>
        <time>2022-03-31T08:50:33.000Z</time>
      </trkpt>
      <trkpt lat="47.35267" lon="-2.37204">
        <ele>176.60000610352</ele>
        <time>2022-03-31T08:50:36.000Z</time>
      </trkpt>
      <trkpt lat="47.3526" lon="-2.37194">
        <ele>176.60000610352</ele>
        <time>2022-03-31T08:50:38.000Z</time>
      </trkpt>
      <trkpt lat="47.35256" lon="-2.37189">
        <ele>176.60000610352</ele>
        <time>2022-03-31T08:50:39.000Z</time>
      </trkpt>
      <trkpt lat="47.35249" lon="-2.37177">
        <ele>176.60000610352</ele>
        <time>2022-03-31T08:50:41.000Z</time>
      </trkpt>
      <trkpt lat="47.35242" lon="-2.37165">
        <ele>176.60000610352</ele>
        <time>2022-03-31T08:50:43.000Z</time>
      </trkpt>
      <trkpt lat="47.35235" lon="-2.37144">
        <ele>176.60000610352</ele>
        <time>2022-03-31T08:50:46.000Z</time>
      </trkpt>
      <trkpt lat="47.35232" lon="-2.37128">
        <ele>176.60000610352</ele>
        <time>2022-03-31T08:50:48.000Z</time>
      </trkpt>
      <trkpt lat="47.35221" lon="-2.37064">
        <ele>176.60000610352</ele>
        <time>2022-03-31T08:50:56.000Z</time>
      </trkpt>
      <trkpt lat="47.35206" lon="-2.37008">
        <ele>176.60000610352</ele>
        <time>2022-03-31T08:51:03.000Z</time>
      </trkpt>
      <trkpt lat="47.35203" lon="-2.37">
        <ele>177.39999389648</ele>
        <time>2022-03-31T08:51:04.000Z</time>
      </trkpt>
      <trkpt lat="47.352" lon="-2.36993">
        <ele>177.80000305176</ele>
        <time>2022-03-31T08:51:05.000Z</time>
      </trkpt>
      <trkpt lat="47.35196" lon="-2.36985">
        <ele>178.19999694824</ele>
        <time>2022-03-31T08:51:06.000Z</time>
      </trkpt>
      <trkpt lat="47.35192" lon="-2.36978">
        <ele>178.60000610352</ele>
        <time>2022-03-31T08:51:07.000Z</time>
      </trkpt>
      <trkpt lat="47.35185" lon="-2.36963">
        <ele>178.60000610352</ele>
        <time>2022-03-31T08:51:09.000Z</time>
      </trkpt>
      <trkpt lat="47.35156" lon="-2.36897">
        <ele>178.60000610352</ele>
        <time>2022-03-31T08:51:17.000Z</time>
      </trkpt>
      <trkpt lat="47.35144" lon="-2.36854">
        <ele>178.60000610352</ele>
        <time>2022-03-31T08:51:22.000Z</time>
      </trkpt>
      <trkpt lat="47.35126" lon="-2.3677">
        <ele>178.60000610352</ele>
        <time>2022-03-31T08:51:32.000Z</time>
      </trkpt>
      <trkpt lat="47.35114" lon="-2.36719">
        <ele>178.60000610352</ele>
        <time>2022-03-31T08:51:38.000Z</time>
      </trkpt>
      <trkpt lat="47.35111" lon="-2.3671">
        <ele>178.60000610352</ele>
        <time>2022-03-31T08:51:39.000Z</time>
      </trkpt>
      <trkpt lat="47.35098" lon="-2.36668">
        <ele>178.60000610352</ele>
        <time>2022-03-31T08:51:44.000Z</time>
      </trkpt>
      <trkpt lat="47.35095" lon="-2.3666">
        <ele>178.60000610352</ele>
        <time>2022-03-31T08:51:45.000Z</time>
      </trkpt>
      <trkpt lat="47.3508" lon="-2.36617">
        <ele>178.19999694824</ele>
        <time>2022-03-31T08:51:50.000Z</time>
      </trkpt>
      <trkpt lat="47.35077" lon="-2.36609">
        <ele>177.80000305176</ele>
        <time>2022-03-31T08:51:51.000Z</time>
      </trkpt>
      <trkpt lat="47.35074" lon="-2.366">
        <ele>177.39999389648</ele>
        <time>2022-03-31T08:51:52.000Z</time>
      </trkpt>
      <trkpt lat="47.35071" lon="-2.36591">
        <ele>177</ele>
        <time>2022-03-31T08:51:53.000Z</time>
      </trkpt>
      <trkpt lat="47.35068" lon="-2.36582">
        <ele>176.60000610352</ele>
        <time>2022-03-31T08:51:54.000Z</time>
      </trkpt>
      <trkpt lat="47.3506" lon="-2.36558">
        <ele>176.60000610352</ele>
        <time>2022-03-31T08:51:57.000Z</time>
      </trkpt>
      <trkpt lat="47.35041" lon="-2.3652">
        <ele>176</ele>
        <time>2022-03-31T08:52:02.000Z</time>
      </trkpt>
      <trkpt lat="47.35037" lon="-2.36513">
        <ele>175.60000610352</ele>
        <time>2022-03-31T08:52:03.000Z</time>
      </trkpt>
      <trkpt lat="47.35032" lon="-2.36505">
        <ele>175.19999694824</ele>
        <time>2022-03-31T08:52:04.000Z</time>
      </trkpt>
      <trkpt lat="47.35028" lon="-2.36498">
        <ele>174.80000305176</ele>
        <time>2022-03-31T08:52:05.000Z</time>
      </trkpt>
      <trkpt lat="47.35023" lon="-2.3649">
        <ele>174.39999389648</ele>
        <time>2022-03-31T08:52:06.000Z</time>
      </trkpt>
      <trkpt lat="47.35011" lon="-2.36464">
        <ele>174.39999389648</ele>
        <time>2022-03-31T08:52:09.000Z</time>
      </trkpt>
      <trkpt lat="47.34998" lon="-2.36424">
        <ele>174.39999389648</ele>
        <time>2022-03-31T08:52:14.000Z</time>
      </trkpt>
      <trkpt lat="47.34984" lon="-2.3641">
        <ele>174.39999389648</ele>
        <time>2022-03-31T08:52:17.000Z</time>
      </trkpt>
      <trkpt lat="47.34978" lon="-2.36407">
        <ele>174.39999389648</ele>
        <time>2022-03-31T08:52:18.000Z</time>
      </trkpt>
      <trkpt lat="47.34944" lon="-2.36384">
        <ele>174.39999389648</ele>
        <time>2022-03-31T08:52:24.000Z</time>
      </trkpt>
      <trkpt lat="47.34928" lon="-2.36375">
        <ele>174.80000305176</ele>
        <time>2022-03-31T08:52:27.000Z</time>
      </trkpt>
      <trkpt lat="47.34923" lon="-2.36372">
        <ele>175.19999694824</ele>
        <time>2022-03-31T08:52:28.000Z</time>
      </trkpt>
      <trkpt lat="47.34918" lon="-2.36369">
        <ele>175.80000305176</ele>
        <time>2022-03-31T08:52:29.000Z</time>
      </trkpt>
      <trkpt lat="47.34913" lon="-2.36366">
        <ele>176.19999694824</ele>
        <time>2022-03-31T08:52:30.000Z</time>
      </trkpt>
      <trkpt lat="47.34908" lon="-2.36363">
        <ele>176.60000610352</ele>
        <time>2022-03-31T08:52:31.000Z</time>
      </trkpt>
      <trkpt lat="47.34888" lon="-2.36352">
        <ele>177</ele>
        <time>2022-03-31T08:52:35.000Z</time>
      </trkpt>
      <trkpt lat="47.34882" lon="-2.36349">
        <ele>177.39999389648</ele>
        <time>2022-03-31T08:52:36.000Z</time>
      </trkpt>
      <trkpt lat="47.34877" lon="-2.36346">
        <ele>177.80000305176</ele>
        <time>2022-03-31T08:52:37.000Z</time>
      </trkpt>
      <trkpt lat="47.34873" lon="-2.36343">
        <ele>178.19999694824</ele>
        <time>2022-03-31T08:52:38.000Z</time>
      </trkpt>
      <trkpt lat="47.34868" lon="-2.3634">
        <ele>178.60000610352</ele>
        <time>2022-03-31T08:52:39.000Z</time>
      </trkpt>
      <trkpt lat="47.34851" lon="-2.3633">
        <ele>178.60000610352</ele>
        <time>2022-03-31T08:52:43.000Z</time>
      </trkpt>
      <trkpt lat="47.34844" lon="-2.36325">
        <ele>178.60000610352</ele>
        <time>2022-03-31T08:52:45.000Z</time>
      </trkpt>
      <trkpt lat="47.34828" lon="-2.36318">
        <ele>178.60000610352</ele>
        <time>2022-03-31T08:52:50.000Z</time>
      </trkpt>
      <trkpt lat="47.34808" lon="-2.36331">
        <ele>178.60000610352</ele>
        <time>2022-03-31T08:52:55.000Z</time>
      </trkpt>
      <trkpt lat="47.34771" lon="-2.36357">
        <ele>178.60000610352</ele>
        <time>2022-03-31T08:53:03.000Z</time>
      </trkpt>
      <trkpt lat="47.34742" lon="-2.36375">
        <ele>178.60000610352</ele>
        <time>2022-03-31T08:53:09.000Z</time>
      </trkpt>
      <trkpt lat="47.34711" lon="-2.36393">
        <ele>178.60000610352</ele>
        <time>2022-03-31T08:53:15.000Z</time>
      </trkpt>
      <trkpt lat="47.34676" lon="-2.36406">
        <ele>178.60000610352</ele>
        <time>2022-03-31T08:53:21.000Z</time>
      </trkpt>
      <trkpt lat="47.34625" lon="-2.3643">
        <ele>178.60000610352</ele>
        <time>2022-03-31T08:53:29.000Z</time>
      </trkpt>
      <trkpt lat="47.34613" lon="-2.36436">
        <ele>178.19999694824</ele>
        <time>2022-03-31T08:53:31.000Z</time>
      </trkpt>
      <trkpt lat="47.34608" lon="-2.36438">
        <ele>177.80000305176</ele>
        <time>2022-03-31T08:53:32.000Z</time>
      </trkpt>
      <trkpt lat="47.34603" lon="-2.3644">
        <ele>176.80000305176</ele>
        <time>2022-03-31T08:53:33.000Z</time>
      </trkpt>
      <trkpt lat="47.34597" lon="-2.3644">
        <ele>176.39999389648</ele>
        <time>2022-03-31T08:53:34.000Z</time>
      </trkpt>
      <trkpt lat="47.34585" lon="-2.36428">
        <ele>176.39999389648</ele>
        <time>2022-03-31T08:53:37.000Z</time>
      </trkpt>
      <trkpt lat="47.34581" lon="-2.36421">
        <ele>176.39999389648</ele>
        <time>2022-03-31T08:53:38.000Z</time>
      </trkpt>
      <trkpt lat="47.34565" lon="-2.36394">
        <ele>176</ele>
        <time>2022-03-31T08:53:42.000Z</time>
      </trkpt>
      <trkpt lat="47.3456" lon="-2.36387">
        <ele>175.60000610352</ele>
        <time>2022-03-31T08:53:43.000Z</time>
      </trkpt>
      <trkpt lat="47.34556" lon="-2.36379">
        <ele>175.19999694824</ele>
        <time>2022-03-31T08:53:44.000Z</time>
      </trkpt>
      <trkpt lat="47.34551" lon="-2.36371">
        <ele>174.80000305176</ele>
        <time>2022-03-31T08:53:45.000Z</time>
      </trkpt>
      <trkpt lat="47.34548" lon="-2.36362">
        <ele>174.39999389648</ele>
        <time>2022-03-31T08:53:46.000Z</time>
      </trkpt>
      <trkpt lat="47.34541" lon="-2.36342">
        <ele>174.39999389648</ele>
        <time>2022-03-31T08:53:48.000Z</time>
      </trkpt>
      <trkpt lat="47.34537" lon="-2.36333">
        <ele>174.39999389648</ele>
        <time>2022-03-31T08:53:49.000Z</time>
      </trkpt>
      <trkpt lat="47.34516" lon="-2.36271">
        <ele>174.39999389648</ele>
        <time>2022-03-31T08:53:56.000Z</time>
      </trkpt>
      <trkpt lat="47.34513" lon="-2.36262">
        <ele>174</ele>
        <time>2022-03-31T08:53:57.000Z</time>
      </trkpt>
      <trkpt lat="47.34511" lon="-2.36253">
        <ele>173</ele>
        <time>2022-03-31T08:53:58.000Z</time>
      </trkpt>
      <trkpt lat="47.34509" lon="-2.36245">
        <ele>172.60000610352</ele>
        <time>2022-03-31T08:53:59.000Z</time>
      </trkpt>
      <trkpt lat="47.34507" lon="-2.36237">
        <ele>172.19999694824</ele>
        <time>2022-03-31T08:54:00.000Z</time>
      </trkpt>
      <trkpt lat="47.34504" lon="-2.36229">
        <ele>172.19999694824</ele>
        <time>2022-03-31T08:54:01.000Z</time>
      </trkpt>
      <trkpt lat="47.34499" lon="-2.36222">
        <ele>172.19999694824</ele>
        <time>2022-03-31T08:54:02.000Z</time>
      </trkpt>
      <trkpt lat="47.34467" lon="-2.3617">
        <ele>172.19999694824</ele>
        <time>2022-03-31T08:54:10.000Z</time>
      </trkpt>
      <trkpt lat="47.34464" lon="-2.36164">
        <ele>172.19999694824</ele>
        <time>2022-03-31T08:54:11.000Z</time>
      </trkpt>
      <trkpt lat="47.34453" lon="-2.36136">
        <ele>172.19999694824</ele>
        <time>2022-03-31T08:54:15.000Z</time>
      </trkpt>
      <trkpt lat="47.34438" lon="-2.36096">
        <ele>172.60000610352</ele>
        <time>2022-03-31T08:54:21.000Z</time>
      </trkpt>
      <trkpt lat="47.34435" lon="-2.3609">
        <ele>173</ele>
        <time>2022-03-31T08:54:22.000Z</time>
      </trkpt>
      <trkpt lat="47.34433" lon="-2.36083">
        <ele>173.80000305176</ele>
        <time>2022-03-31T08:54:23.000Z</time>
      </trkpt>
      <trkpt lat="47.34431" lon="-2.36076">
        <ele>174.19999694824</ele>
        <time>2022-03-31T08:54:24.000Z</time>
      </trkpt>
      <trkpt lat="47.34424" lon="-2.36048">
        <ele>174.19999694824</ele>
        <time>2022-03-31T08:54:28.000Z</time>
      </trkpt>
      <trkpt lat="47.34421" lon="-2.36035">
        <ele>174.19999694824</ele>
        <time>2022-03-31T08:54:30.000Z</time>
      </trkpt>
      <trkpt lat="47.34416" lon="-2.36021">
        <ele>174.19999694824</ele>
        <time>2022-03-31T08:54:33.000Z</time>
      </trkpt>
      <trkpt lat="47.34401" lon="-2.35998">
        <ele>174.19999694824</ele>
        <time>2022-03-31T08:54:39.000Z</time>
      </trkpt>
      <trkpt lat="47.34377" lon="-2.35986">
        <ele>174.19999694824</ele>
        <time>2022-03-31T08:54:44.000Z</time>
      </trkpt>
      <trkpt lat="47.34345" lon="-2.35973">
        <ele>174.19999694824</ele>
        <time>2022-03-31T08:54:51.000Z</time>
      </trkpt>
      <trkpt lat="47.34315" lon="-2.35959">
        <ele>174.19999694824</ele>
        <time>2022-03-31T08:54:58.000Z</time>
      </trkpt>
      <trkpt lat="47.34284" lon="-2.35951">
        <ele>174.19999694824</ele>
        <time>2022-03-31T08:55:04.000Z</time>
      </trkpt>
      <trkpt lat="47.34278" lon="-2.3595">
        <ele>174.19999694824</ele>
        <time>2022-03-31T08:55:05.000Z</time>
      </trkpt>
      <trkpt lat="47.34259" lon="-2.35949">
        <ele>174.19999694824</ele>
        <time>2022-03-31T08:55:08.000Z</time>
      </trkpt>
      <trkpt lat="47.34249" lon="-2.35949">
        <ele>173.80000305176</ele>
        <time>2022-03-31T08:55:10.000Z</time>
      </trkpt>
      <trkpt lat="47.34245" lon="-2.35948">
        <ele>173.39999389648</ele>
        <time>2022-03-31T08:55:11.000Z</time>
      </trkpt>
      <trkpt lat="47.34242" lon="-2.35946">
        <ele>172.39999389648</ele>
        <time>2022-03-31T08:55:12.000Z</time>
      </trkpt>
      <trkpt lat="47.34239" lon="-2.35942">
        <ele>172</ele>
        <time>2022-03-31T08:55:13.000Z</time>
      </trkpt>
      <trkpt lat="47.34239" lon="-2.35937">
        <ele>172</ele>
        <time>2022-03-31T08:55:14.000Z</time>
      </trkpt>
      <trkpt lat="47.34242" lon="-2.35917">
        <ele>171.39999389648</ele>
        <time>2022-03-31T08:55:17.000Z</time>
      </trkpt>
      <trkpt lat="47.34243" lon="-2.3591">
        <ele>171</ele>
        <time>2022-03-31T08:55:18.000Z</time>
      </trkpt>
      <trkpt lat="47.34244" lon="-2.35902">
        <ele>170.60000610352</ele>
        <time>2022-03-31T08:55:19.000Z</time>
      </trkpt>
      <trkpt lat="47.34245" lon="-2.35895">
        <ele>170.19999694824</ele>
        <time>2022-03-31T08:55:20.000Z</time>
      </trkpt>
      <trkpt lat="47.34246" lon="-2.35887">
        <ele>169.80000305176</ele>
        <time>2022-03-31T08:55:21.000Z</time>
      </trkpt>
      <trkpt lat="47.34248" lon="-2.35871">
        <ele>169.80000305176</ele>
        <time>2022-03-31T08:55:23.000Z</time>
      </trkpt>
      <trkpt lat="47.34248" lon="-2.35847">
        <ele>169.80000305176</ele>
        <time>2022-03-31T08:55:26.000Z</time>
      </trkpt>
      <trkpt lat="47.34244" lon="-2.35825">
        <ele>169.80000305176</ele>
        <time>2022-03-31T08:55:29.000Z</time>
      </trkpt>
      <trkpt lat="47.34238" lon="-2.35807">
        <ele>169.80000305176</ele>
        <time>2022-03-31T08:55:32.000Z</time>
      </trkpt>
      <trkpt lat="47.34224" lon="-2.35764">
        <ele>169.80000305176</ele>
        <time>2022-03-31T08:55:39.000Z</time>
      </trkpt>
      <trkpt lat="47.3422" lon="-2.35737">
        <ele>169.80000305176</ele>
        <time>2022-03-31T08:55:44.000Z</time>
      </trkpt>
      <trkpt lat="47.34214" lon="-2.35731">
        <ele>169.80000305176</ele>
        <time>2022-03-31T08:55:47.000Z</time>
      </trkpt>
      <trkpt lat="47.34208" lon="-2.35723">
        <ele>169.80000305176</ele>
        <time>2022-03-31T08:55:50.000Z</time>
      </trkpt>
      <trkpt lat="47.34204" lon="-2.3571">
        <ele>170.19999694824</ele>
        <time>2022-03-31T08:55:54.000Z</time>
      </trkpt>
      <trkpt lat="47.34203" lon="-2.35707">
        <ele>170.80000305176</ele>
        <time>2022-03-31T08:55:55.000Z</time>
      </trkpt>
      <trkpt lat="47.34202" lon="-2.35703">
        <ele>171.19999694824</ele>
        <time>2022-03-31T08:55:56.000Z</time>
      </trkpt>
      <trkpt lat="47.342" lon="-2.357">
        <ele>171.60000610352</ele>
        <time>2022-03-31T08:55:57.000Z</time>
      </trkpt>
      <trkpt lat="47.34198" lon="-2.35696">
        <ele>172.19999694824</ele>
        <time>2022-03-31T08:55:58.000Z</time>
      </trkpt>
      <trkpt lat="47.34193" lon="-2.3569">
        <ele>172.60000610352</ele>
        <time>2022-03-31T08:56:00.000Z</time>
      </trkpt>
      <trkpt lat="47.3419" lon="-2.35687">
        <ele>173</ele>
        <time>2022-03-31T08:56:01.000Z</time>
      </trkpt>
      <trkpt lat="47.34187" lon="-2.35683">
        <ele>173.80000305176</ele>
        <time>2022-03-31T08:56:02.000Z</time>
      </trkpt>
      <trkpt lat="47.34185" lon="-2.35679">
        <ele>174.19999694824</ele>
        <time>2022-03-31T08:56:03.000Z</time>
      </trkpt>
      <trkpt lat="47.34176" lon="-2.3566">
        <ele>174.60000610352</ele>
        <time>2022-03-31T08:56:07.000Z</time>
      </trkpt>
      <trkpt lat="47.34174" lon="-2.35656">
        <ele>175</ele>
        <time>2022-03-31T08:56:08.000Z</time>
      </trkpt>
      <trkpt lat="47.34171" lon="-2.35652">
        <ele>175.39999389648</ele>
        <time>2022-03-31T08:56:09.000Z</time>
      </trkpt>
      <trkpt lat="47.34169" lon="-2.35648">
        <ele>175.80000305176</ele>
        <time>2022-03-31T08:56:10.000Z</time>
      </trkpt>
      <trkpt lat="47.34166" lon="-2.35644">
        <ele>176.19999694824</ele>
        <time>2022-03-31T08:56:11.000Z</time>
      </trkpt>
      <trkpt lat="47.3416" lon="-2.35636">
        <ele>176.19999694824</ele>
        <time>2022-03-31T08:56:13.000Z</time>
      </trkpt>
      <trkpt lat="47.34142" lon="-2.35601">
        <ele>176.60000610352</ele>
        <time>2022-03-31T08:56:20.000Z</time>
      </trkpt>
      <trkpt lat="47.34139" lon="-2.35596">
        <ele>177</ele>
        <time>2022-03-31T08:56:21.000Z</time>
      </trkpt>
      <trkpt lat="47.34137" lon="-2.35589">
        <ele>177.39999389648</ele>
        <time>2022-03-31T08:56:22.000Z</time>
      </trkpt>
      <trkpt lat="47.34134" lon="-2.35583">
        <ele>178</ele>
        <time>2022-03-31T08:56:23.000Z</time>
      </trkpt>
      <trkpt lat="47.34131" lon="-2.35576">
        <ele>178.39999389648</ele>
        <time>2022-03-31T08:56:24.000Z</time>
      </trkpt>
      <trkpt lat="47.34126" lon="-2.35561">
        <ele>178.39999389648</ele>
        <time>2022-03-31T08:56:26.000Z</time>
      </trkpt>
      <trkpt lat="47.34109" lon="-2.35506">
        <ele>178.39999389648</ele>
        <time>2022-03-31T08:56:33.000Z</time>
      </trkpt>
      <trkpt lat="47.34091" lon="-2.35458">
        <ele>178.39999389648</ele>
        <time>2022-03-31T08:56:40.000Z</time>
      </trkpt>
      <trkpt lat="47.34071" lon="-2.35403">
        <ele>178.39999389648</ele>
        <time>2022-03-31T08:56:48.000Z</time>
      </trkpt>
      <trkpt lat="47.34048" lon="-2.35358">
        <ele>178.39999389648</ele>
        <time>2022-03-31T08:56:55.000Z</time>
      </trkpt>
      <trkpt lat="47.34018" lon="-2.35326">
        <ele>178.39999389648</ele>
        <time>2022-03-31T08:57:02.000Z</time>
      </trkpt>
      <trkpt lat="47.34004" lon="-2.35314">
        <ele>178.39999389648</ele>
        <time>2022-03-31T08:57:05.000Z</time>
      </trkpt>
      <trkpt lat="47.33991" lon="-2.35301">
        <ele>178.39999389648</ele>
        <time>2022-03-31T08:57:08.000Z</time>
      </trkpt>
      <trkpt lat="47.33979" lon="-2.35286">
        <ele>178.80000305176</ele>
        <time>2022-03-31T08:57:11.000Z</time>
      </trkpt>
      <trkpt lat="47.33975" lon="-2.35281">
        <ele>179.19999694824</ele>
        <time>2022-03-31T08:57:12.000Z</time>
      </trkpt>
      <trkpt lat="47.33971" lon="-2.35277">
        <ele>179.60000610352</ele>
        <time>2022-03-31T08:57:13.000Z</time>
      </trkpt>
      <trkpt lat="47.33968" lon="-2.35272">
        <ele>180</ele>
        <time>2022-03-31T08:57:14.000Z</time>
      </trkpt>
      <trkpt lat="47.33964" lon="-2.35268">
        <ele>180.39999389648</ele>
        <time>2022-03-31T08:57:15.000Z</time>
      </trkpt>
      <trkpt lat="47.33953" lon="-2.35256">
        <ele>180.80000305176</ele>
        <time>2022-03-31T08:57:18.000Z</time>
      </trkpt>
      <trkpt lat="47.3395" lon="-2.35251">
        <ele>181.39999389648</ele>
        <time>2022-03-31T08:57:19.000Z</time>
      </trkpt>
      <trkpt lat="47.33947" lon="-2.35245">
        <ele>181.80000305176</ele>
        <time>2022-03-31T08:57:20.000Z</time>
      </trkpt>
      <trkpt lat="47.33945" lon="-2.35239">
        <ele>182.19999694824</ele>
        <time>2022-03-31T08:57:21.000Z</time>
      </trkpt>
      <trkpt lat="47.33942" lon="-2.35232">
        <ele>182.60000610352</ele>
        <time>2022-03-31T08:57:22.000Z</time>
      </trkpt>
      <trkpt lat="47.3394" lon="-2.35225">
        <ele>182.60000610352</ele>
        <time>2022-03-31T08:57:23.000Z</time>
      </trkpt>
      <trkpt lat="47.33937" lon="-2.35219">
        <ele>182.60000610352</ele>
        <time>2022-03-31T08:57:24.000Z</time>
      </trkpt>
      <trkpt lat="47.33924" lon="-2.35195">
        <ele>182.60000610352</ele>
        <time>2022-03-31T08:57:28.000Z</time>
      </trkpt>
      <trkpt lat="47.33916" lon="-2.35186">
        <ele>182.60000610352</ele>
        <time>2022-03-31T08:57:30.000Z</time>
      </trkpt>
      <trkpt lat="47.33884" lon="-2.35157">
        <ele>182.60000610352</ele>
        <time>2022-03-31T08:57:37.000Z</time>
      </trkpt>
      <trkpt lat="47.3385" lon="-2.35128">
        <ele>182.60000610352</ele>
        <time>2022-03-31T08:57:44.000Z</time>
      </trkpt>
      <trkpt lat="47.33815" lon="-2.35106">
        <ele>182.60000610352</ele>
        <time>2022-03-31T08:57:50.000Z</time>
      </trkpt>
      <trkpt lat="47.33762" lon="-2.35074">
        <ele>182.60000610352</ele>
        <time>2022-03-31T08:57:58.000Z</time>
      </trkpt>
      <trkpt lat="47.33725" lon="-2.35042">
        <ele>182.60000610352</ele>
        <time>2022-03-31T08:58:04.000Z</time>
      </trkpt>
      <trkpt lat="47.33711" lon="-2.35022">
        <ele>182.60000610352</ele>
        <time>2022-03-31T08:58:07.000Z</time>
      </trkpt>
      <trkpt lat="47.33709" lon="-2.35014">
        <ele>182.60000610352</ele>
        <time>2022-03-31T08:58:08.000Z</time>
      </trkpt>
      <trkpt lat="47.33716" lon="-2.34996">
        <ele>182.60000610352</ele>
        <time>2022-03-31T08:58:11.000Z</time>
      </trkpt>
      <trkpt lat="47.33728" lon="-2.34983">
        <ele>182.60000610352</ele>
        <time>2022-03-31T08:58:14.000Z</time>
      </trkpt>
      <trkpt lat="47.33732" lon="-2.34979">
        <ele>182.19999694824</ele>
        <time>2022-03-31T08:58:15.000Z</time>
      </trkpt>
      <trkpt lat="47.33737" lon="-2.34975">
        <ele>181.80000305176</ele>
        <time>2022-03-31T08:58:16.000Z</time>
      </trkpt>
      <trkpt lat="47.33741" lon="-2.3497">
        <ele>181.39999389648</ele>
        <time>2022-03-31T08:58:17.000Z</time>
      </trkpt>
      <trkpt lat="47.33745" lon="-2.34967">
        <ele>181</ele>
        <time>2022-03-31T08:58:18.000Z</time>
      </trkpt>
      <trkpt lat="47.33749" lon="-2.34963">
        <ele>180.60000610352</ele>
        <time>2022-03-31T08:58:19.000Z</time>
      </trkpt>
      <trkpt lat="47.33759" lon="-2.34957">
        <ele>180.60000610352</ele>
        <time>2022-03-31T08:58:22.000Z</time>
      </trkpt>
      <trkpt lat="47.3377" lon="-2.34947">
        <ele>180.60000610352</ele>
        <time>2022-03-31T08:58:27.000Z</time>
      </trkpt>
      <trkpt lat="47.33781" lon="-2.3493">
        <ele>180.60000610352</ele>
        <time>2022-03-31T08:58:32.000Z</time>
      </trkpt>
      <trkpt lat="47.33789" lon="-2.34918">
        <ele>180.19999694824</ele>
        <time>2022-03-31T08:58:36.000Z</time>
      </trkpt>
      <trkpt lat="47.33791" lon="-2.34915">
        <ele>179.80000305176</ele>
        <time>2022-03-31T08:58:37.000Z</time>
      </trkpt>
      <trkpt lat="47.33793" lon="-2.34912">
        <ele>179.39999389648</ele>
        <time>2022-03-31T08:58:38.000Z</time>
      </trkpt>
      <trkpt lat="47.33794" lon="-2.34908">
        <ele>179</ele>
        <time>2022-03-31T08:58:39.000Z</time>
      </trkpt>
      <trkpt lat="47.33795" lon="-2.34904">
        <ele>178.60000610352</ele>
        <time>2022-03-31T08:58:40.000Z</time>
      </trkpt>
      <trkpt lat="47.33797" lon="-2.34899">
        <ele>178.60000610352</ele>
        <time>2022-03-31T08:58:41.000Z</time>
      </trkpt>
      <trkpt lat="47.33807" lon="-2.34884">
        <ele>178.60000610352</ele>
        <time>2022-03-31T08:58:47.000Z</time>
      </trkpt>
      <trkpt lat="47.33818" lon="-2.34869">
        <ele>178.60000610352</ele>
        <time>2022-03-31T08:58:52.000Z</time>
      </trkpt>
      <trkpt lat="47.33829" lon="-2.34857">
        <ele>178.60000610352</ele>
        <time>2022-03-31T08:58:56.000Z</time>
      </trkpt>
      <trkpt lat="47.33843" lon="-2.34846">
        <ele>178.60000610352</ele>
        <time>2022-03-31T08:59:02.000Z</time>
      </trkpt>
      <trkpt lat="47.33848" lon="-2.34841">
        <ele>178.60000610352</ele>
        <time>2022-03-31T08:59:06.000Z</time>
      </trkpt>
      <trkpt lat="47.3385" lon="-2.34839">
        <ele>178.60000610352</ele>
        <time>2022-03-31T08:59:08.000Z</time>
      </trkpt>
      <trkpt lat="47.3385" lon="-2.34838">
        <ele>178.60000610352</ele>
        <time>2022-03-31T08:59:09.000Z</time>
      </trkpt>
      <trkpt lat="47.33851" lon="-2.34836">
        <ele>178.60000610352</ele>
        <time>2022-03-31T08:59:12.000Z</time>
      </trkpt>
      <trkpt lat="47.33854" lon="-2.34828">
        <ele>178.60000610352</ele>
        <time>2022-03-31T08:59:15.000Z</time>
      </trkpt>
      <trkpt lat="47.3386" lon="-2.34805">
        <ele>178.60000610352</ele>
        <time>2022-03-31T08:59:20.000Z</time>
      </trkpt>
      <trkpt lat="47.33864" lon="-2.34775">
        <ele>178.60000610352</ele>
        <time>2022-03-31T08:59:27.000Z</time>
      </trkpt>
      <trkpt lat="47.33867" lon="-2.34748">
        <ele>178.60000610352</ele>
        <time>2022-03-31T08:59:32.000Z</time>
      </trkpt>
      <trkpt lat="47.3387" lon="-2.34715">
        <ele>178.60000610352</ele>
        <time>2022-03-31T08:59:38.000Z</time>
      </trkpt>
      <trkpt lat="47.33871" lon="-2.34686">
        <ele>179</ele>
        <time>2022-03-31T08:59:43.000Z</time>
      </trkpt>
      <trkpt lat="47.33873" lon="-2.3468">
        <ele>179.39999389648</ele>
        <time>2022-03-31T08:59:44.000Z</time>
      </trkpt>
      <trkpt lat="47.33874" lon="-2.34675">
        <ele>180.19999694824</ele>
        <time>2022-03-31T08:59:45.000Z</time>
      </trkpt>
      <trkpt lat="47.33876" lon="-2.34669">
        <ele>180.60000610352</ele>
        <time>2022-03-31T08:59:46.000Z</time>
      </trkpt>
      <trkpt lat="47.33877" lon="-2.34657">
        <ele>180.60000610352</ele>
        <time>2022-03-31T08:59:48.000Z</time>
      </trkpt>
      <trkpt lat="47.33879" lon="-2.34631">
        <ele>180.60000610352</ele>
        <time>2022-03-31T08:59:53.000Z</time>
      </trkpt>
      <trkpt lat="47.33885" lon="-2.3461">
        <ele>180.60000610352</ele>
        <time>2022-03-31T08:59:58.000Z</time>
      </trkpt>
      <trkpt lat="47.33892" lon="-2.34599">
        <ele>180.60000610352</ele>
        <time>2022-03-31T09:00:03.000Z</time>
      </trkpt>
      <trkpt lat="47.33897" lon="-2.34592">
        <ele>180.60000610352</ele>
        <time>2022-03-31T09:00:07.000Z</time>
      </trkpt>
      <trkpt lat="47.33907" lon="-2.34594">
        <ele>184.60000610352</ele>
        <time>2022-03-31T09:14:59.000Z</time>
      </trkpt>
      <trkpt lat="47.33908" lon="-2.34593">
        <ele>184.60000610352</ele>
        <time>2022-03-31T09:15:00.000Z</time>
      </trkpt>
      <trkpt lat="47.3391" lon="-2.34593">
        <ele>184.60000610352</ele>
        <time>2022-03-31T09:15:01.000Z</time>
      </trkpt>
      <trkpt lat="47.33918" lon="-2.34591">
        <ele>184.60000610352</ele>
        <time>2022-03-31T09:15:05.000Z</time>
      </trkpt>
      <trkpt lat="47.33933" lon="-2.34591">
        <ele>184.60000610352</ele>
        <time>2022-03-31T09:15:10.000Z</time>
      </trkpt>
      <trkpt lat="47.33946" lon="-2.34591">
        <ele>184.60000610352</ele>
        <time>2022-03-31T09:15:15.000Z</time>
      </trkpt>
      <trkpt lat="47.33964" lon="-2.34594">
        <ele>184.60000610352</ele>
        <time>2022-03-31T09:15:21.000Z</time>
      </trkpt>
      <trkpt lat="47.33967" lon="-2.34595">
        <ele>185</ele>
        <time>2022-03-31T09:15:22.000Z</time>
      </trkpt>
      <trkpt lat="47.3397" lon="-2.34596">
        <ele>185.60000610352</ele>
        <time>2022-03-31T09:15:23.000Z</time>
      </trkpt>
      <trkpt lat="47.33973" lon="-2.34598">
        <ele>186.39999389648</ele>
        <time>2022-03-31T09:15:24.000Z</time>
      </trkpt>
      <trkpt lat="47.33975" lon="-2.34599">
        <ele>186.80000305176</ele>
        <time>2022-03-31T09:15:25.000Z</time>
      </trkpt>
      <trkpt lat="47.33978" lon="-2.346">
        <ele>186.80000305176</ele>
        <time>2022-03-31T09:15:26.000Z</time>
      </trkpt>
      <trkpt lat="47.33994" lon="-2.34603">
        <ele>186.80000305176</ele>
        <time>2022-03-31T09:15:30.000Z</time>
      </trkpt>
      <trkpt lat="47.34015" lon="-2.34602">
        <ele>186.80000305176</ele>
        <time>2022-03-31T09:15:35.000Z</time>
      </trkpt>
      <trkpt lat="47.34036" lon="-2.34592">
        <ele>186.80000305176</ele>
        <time>2022-03-31T09:15:41.000Z</time>
      </trkpt>
      <trkpt lat="47.34043" lon="-2.34587">
        <ele>186.80000305176</ele>
        <time>2022-03-31T09:15:46.000Z</time>
      </trkpt>
      <trkpt lat="47.34045" lon="-2.34585">
        <ele>186.39999389648</ele>
        <time>2022-03-31T09:15:47.000Z</time>
      </trkpt>
      <trkpt lat="47.34048" lon="-2.34582">
        <ele>186</ele>
        <time>2022-03-31T09:15:48.000Z</time>
      </trkpt>
      <trkpt lat="47.3405" lon="-2.3458">
        <ele>185.19999694824</ele>
        <time>2022-03-31T09:15:49.000Z</time>
      </trkpt>
      <trkpt lat="47.34053" lon="-2.34578">
        <ele>184.80000305176</ele>
        <time>2022-03-31T09:15:50.000Z</time>
      </trkpt>
      <trkpt lat="47.34056" lon="-2.34576">
        <ele>184.80000305176</ele>
        <time>2022-03-31T09:15:51.000Z</time>
      </trkpt>
      <trkpt lat="47.3407" lon="-2.34565">
        <ele>184.80000305176</ele>
        <time>2022-03-31T09:15:56.000Z</time>
      </trkpt>
      <trkpt lat="47.34095" lon="-2.34547">
        <ele>184.80000305176</ele>
        <time>2022-03-31T09:16:03.000Z</time>
      </trkpt>
      <trkpt lat="47.34099" lon="-2.34545">
        <ele>184.80000305176</ele>
        <time>2022-03-31T09:16:04.000Z</time>
      </trkpt>
      <trkpt lat="47.34115" lon="-2.34535">
        <ele>184.80000305176</ele>
        <time>2022-03-31T09:16:08.000Z</time>
      </trkpt>
      <trkpt lat="47.3414" lon="-2.34523">
        <ele>184.80000305176</ele>
        <time>2022-03-31T09:16:14.000Z</time>
      </trkpt>
      <trkpt lat="47.34165" lon="-2.34512">
        <ele>184.80000305176</ele>
        <time>2022-03-31T09:16:20.000Z</time>
      </trkpt>
      <trkpt lat="47.34174" lon="-2.34509">
        <ele>184.80000305176</ele>
        <time>2022-03-31T09:16:22.000Z</time>
      </trkpt>
      <trkpt lat="47.34201" lon="-2.345">
        <ele>184.80000305176</ele>
        <time>2022-03-31T09:16:27.000Z</time>
      </trkpt>
      <trkpt lat="47.34205" lon="-2.34497">
        <ele>184.80000305176</ele>
        <time>2022-03-31T09:16:28.000Z</time>
      </trkpt>
      <trkpt lat="47.34225" lon="-2.34487">
        <ele>184.80000305176</ele>
        <time>2022-03-31T09:16:32.000Z</time>
      </trkpt>
      <trkpt lat="47.34234" lon="-2.34483">
        <ele>184.80000305176</ele>
        <time>2022-03-31T09:16:34.000Z</time>
      </trkpt>
      <trkpt lat="47.34251" lon="-2.34474">
        <ele>184.80000305176</ele>
        <time>2022-03-31T09:16:38.000Z</time>
      </trkpt>
      <trkpt lat="47.34256" lon="-2.34473">
        <ele>184.80000305176</ele>
        <time>2022-03-31T09:16:39.000Z</time>
      </trkpt>
      <trkpt lat="47.34277" lon="-2.34466">
        <ele>184.80000305176</ele>
        <time>2022-03-31T09:16:43.000Z</time>
      </trkpt>
      <trkpt lat="47.34283" lon="-2.34466">
        <ele>184.80000305176</ele>
        <time>2022-03-31T09:16:44.000Z</time>
      </trkpt>
      <trkpt lat="47.34301" lon="-2.34468">
        <ele>184.80000305176</ele>
        <time>2022-03-31T09:16:47.000Z</time>
      </trkpt>
      <trkpt lat="47.34307" lon="-2.34468">
        <ele>184.80000305176</ele>
        <time>2022-03-31T09:16:48.000Z</time>
      </trkpt>
      <trkpt lat="47.34327" lon="-2.34464">
        <ele>184.80000305176</ele>
        <time>2022-03-31T09:16:52.000Z</time>
      </trkpt>
      <trkpt lat="47.34332" lon="-2.34462">
        <ele>184.80000305176</ele>
        <time>2022-03-31T09:16:53.000Z</time>
      </trkpt>
      <trkpt lat="47.34352" lon="-2.3445">
        <ele>184.80000305176</ele>
        <time>2022-03-31T09:16:57.000Z</time>
      </trkpt>
      <trkpt lat="47.3439" lon="-2.34428">
        <ele>184.80000305176</ele>
        <time>2022-03-31T09:17:04.000Z</time>
      </trkpt>
      <trkpt lat="47.34431" lon="-2.3441">
        <ele>184.80000305176</ele>
        <time>2022-03-31T09:17:11.000Z</time>
      </trkpt>
      <trkpt lat="47.34458" lon="-2.34401">
        <ele>184.39999389648</ele>
        <time>2022-03-31T09:17:16.000Z</time>
      </trkpt>
      <trkpt lat="47.34464" lon="-2.34399">
        <ele>184</ele>
        <time>2022-03-31T09:17:17.000Z</time>
      </trkpt>
      <trkpt lat="47.34469" lon="-2.34396">
        <ele>183.39999389648</ele>
        <time>2022-03-31T09:17:18.000Z</time>
      </trkpt>
      <trkpt lat="47.34474" lon="-2.34393">
        <ele>183</ele>
        <time>2022-03-31T09:17:19.000Z</time>
      </trkpt>
      <trkpt lat="47.3448" lon="-2.34391">
        <ele>182.60000610352</ele>
        <time>2022-03-31T09:17:20.000Z</time>
      </trkpt>
      <trkpt lat="47.3449" lon="-2.34382">
        <ele>182.60000610352</ele>
        <time>2022-03-31T09:17:22.000Z</time>
      </trkpt>
      <trkpt lat="47.34495" lon="-2.34377">
        <ele>182.60000610352</ele>
        <time>2022-03-31T09:17:23.000Z</time>
      </trkpt>
      <trkpt lat="47.34505" lon="-2.34367">
        <ele>182.60000610352</ele>
        <time>2022-03-31T09:17:25.000Z</time>
      </trkpt>
      <trkpt lat="47.34519" lon="-2.34351">
        <ele>182.60000610352</ele>
        <time>2022-03-31T09:17:28.000Z</time>
      </trkpt>
      <trkpt lat="47.34551" lon="-2.34319">
        <ele>182.60000610352</ele>
        <time>2022-03-31T09:17:35.000Z</time>
      </trkpt>
      <trkpt lat="47.34561" lon="-2.34314">
        <ele>182.60000610352</ele>
        <time>2022-03-31T09:17:37.000Z</time>
      </trkpt>
      <trkpt lat="47.34573" lon="-2.34308">
        <ele>182.60000610352</ele>
        <time>2022-03-31T09:17:39.000Z</time>
      </trkpt>
      <trkpt lat="47.34579" lon="-2.34305">
        <ele>182.19999694824</ele>
        <time>2022-03-31T09:17:40.000Z</time>
      </trkpt>
      <trkpt lat="47.34585" lon="-2.34303">
        <ele>181.80000305176</ele>
        <time>2022-03-31T09:17:41.000Z</time>
      </trkpt>
      <trkpt lat="47.34591" lon="-2.34301">
        <ele>181.39999389648</ele>
        <time>2022-03-31T09:17:42.000Z</time>
      </trkpt>
      <trkpt lat="47.34597" lon="-2.343">
        <ele>181</ele>
        <time>2022-03-31T09:17:43.000Z</time>
      </trkpt>
      <trkpt lat="47.34604" lon="-2.343">
        <ele>180.60000610352</ele>
        <time>2022-03-31T09:17:44.000Z</time>
      </trkpt>
      <trkpt lat="47.3461" lon="-2.343">
        <ele>180.60000610352</ele>
        <time>2022-03-31T09:17:45.000Z</time>
      </trkpt>
      <trkpt lat="47.3462" lon="-2.34299">
        <ele>180</ele>
        <time>2022-03-31T09:17:47.000Z</time>
      </trkpt>
      <trkpt lat="47.34623" lon="-2.34298">
        <ele>179.60000610352</ele>
        <time>2022-03-31T09:17:48.000Z</time>
      </trkpt>
      <trkpt lat="47.34627" lon="-2.34296">
        <ele>179.19999694824</ele>
        <time>2022-03-31T09:17:49.000Z</time>
      </trkpt>
      <trkpt lat="47.34631" lon="-2.34293">
        <ele>178.80000305176</ele>
        <time>2022-03-31T09:17:50.000Z</time>
      </trkpt>
      <trkpt lat="47.34635" lon="-2.34289">
        <ele>178.39999389648</ele>
        <time>2022-03-31T09:17:51.000Z</time>
      </trkpt>
      <trkpt lat="47.34643" lon="-2.34279">
        <ele>178.39999389648</ele>
        <time>2022-03-31T09:17:53.000Z</time>
      </trkpt>
      <trkpt lat="47.34654" lon="-2.34268">
        <ele>178.39999389648</ele>
        <time>2022-03-31T09:17:55.000Z</time>
      </trkpt>
      <trkpt lat="47.3466" lon="-2.34265">
        <ele>178</ele>
        <time>2022-03-31T09:17:56.000Z</time>
      </trkpt>
      <trkpt lat="47.34665" lon="-2.34263">
        <ele>177.60000610352</ele>
        <time>2022-03-31T09:17:57.000Z</time>
      </trkpt>
      <trkpt lat="47.34671" lon="-2.34261">
        <ele>177.19999694824</ele>
        <time>2022-03-31T09:17:58.000Z</time>
      </trkpt>
      <trkpt lat="47.34678" lon="-2.34261">
        <ele>176.80000305176</ele>
        <time>2022-03-31T09:17:59.000Z</time>
      </trkpt>
      <trkpt lat="47.34684" lon="-2.3426">
        <ele>176.39999389648</ele>
        <time>2022-03-31T09:18:00.000Z</time>
      </trkpt>
      <trkpt lat="47.34702" lon="-2.34258">
        <ele>176.39999389648</ele>
        <time>2022-03-31T09:18:03.000Z</time>
      </trkpt>
      <trkpt lat="47.34734" lon="-2.3425">
        <ele>176.39999389648</ele>
        <time>2022-03-31T09:18:09.000Z</time>
      </trkpt>
      <trkpt lat="47.3476" lon="-2.34243">
        <ele>176.39999389648</ele>
        <time>2022-03-31T09:18:15.000Z</time>
      </trkpt>
      <trkpt lat="47.34782" lon="-2.34237">
        <ele>176.39999389648</ele>
        <time>2022-03-31T09:18:20.000Z</time>
      </trkpt>
      <trkpt lat="47.34805" lon="-2.34231">
        <ele>176.80000305176</ele>
        <time>2022-03-31T09:18:25.000Z</time>
      </trkpt>
      <trkpt lat="47.34809" lon="-2.34231">
        <ele>177.19999694824</ele>
        <time>2022-03-31T09:18:26.000Z</time>
      </trkpt>
      <trkpt lat="47.34813" lon="-2.34231">
        <ele>177.60000610352</ele>
        <time>2022-03-31T09:18:27.000Z</time>
      </trkpt>
      <trkpt lat="47.34817" lon="-2.34231">
        <ele>178</ele>
        <time>2022-03-31T09:18:28.000Z</time>
      </trkpt>
      <trkpt lat="47.34821" lon="-2.34231">
        <ele>178.39999389648</ele>
        <time>2022-03-31T09:18:29.000Z</time>
      </trkpt>
      <trkpt lat="47.34834" lon="-2.34232">
        <ele>178.39999389648</ele>
        <time>2022-03-31T09:18:32.000Z</time>
      </trkpt>
      <trkpt lat="47.34845" lon="-2.34231">
        <ele>178.80000305176</ele>
        <time>2022-03-31T09:18:35.000Z</time>
      </trkpt>
      <trkpt lat="47.34848" lon="-2.34233">
        <ele>179.60000610352</ele>
        <time>2022-03-31T09:18:36.000Z</time>
      </trkpt>
      <trkpt lat="47.34851" lon="-2.34235">
        <ele>180</ele>
        <time>2022-03-31T09:18:37.000Z</time>
      </trkpt>
      <trkpt lat="47.34854" lon="-2.34236">
        <ele>180.39999389648</ele>
        <time>2022-03-31T09:18:38.000Z</time>
      </trkpt>
      <trkpt lat="47.34856" lon="-2.34237">
        <ele>180.80000305176</ele>
        <time>2022-03-31T09:18:39.000Z</time>
      </trkpt>
      <trkpt lat="47.34858" lon="-2.34237">
        <ele>181.19999694824</ele>
        <time>2022-03-31T09:18:40.000Z</time>
      </trkpt>
      <trkpt lat="47.3486" lon="-2.34237">
        <ele>181.60000610352</ele>
        <time>2022-03-31T09:18:41.000Z</time>
      </trkpt>
      <trkpt lat="47.34862" lon="-2.34235">
        <ele>182</ele>
        <time>2022-03-31T09:18:42.000Z</time>
      </trkpt>
      <trkpt lat="47.34863" lon="-2.34234">
        <ele>182.39999389648</ele>
        <time>2022-03-31T09:18:43.000Z</time>
      </trkpt>
      <trkpt lat="47.34866" lon="-2.34229">
        <ele>182.39999389648</ele>
        <time>2022-03-31T09:18:45.000Z</time>
      </trkpt>
      <trkpt lat="47.34867" lon="-2.34227">
        <ele>182.39999389648</ele>
        <time>2022-03-31T09:18:46.000Z</time>
      </trkpt>
      <trkpt lat="47.34869" lon="-2.34222">
        <ele>182.80000305176</ele>
        <time>2022-03-31T09:18:48.000Z</time>
      </trkpt>
      <trkpt lat="47.34871" lon="-2.3422">
        <ele>183.39999389648</ele>
        <time>2022-03-31T09:18:49.000Z</time>
      </trkpt>
      <trkpt lat="47.34872" lon="-2.34218">
        <ele>183.80000305176</ele>
        <time>2022-03-31T09:18:50.000Z</time>
      </trkpt>
      <trkpt lat="47.34874" lon="-2.34216">
        <ele>184.19999694824</ele>
        <time>2022-03-31T09:18:51.000Z</time>
      </trkpt>
      <trkpt lat="47.34875" lon="-2.34214">
        <ele>184.60000610352</ele>
        <time>2022-03-31T09:18:52.000Z</time>
      </trkpt>
      <trkpt lat="47.34878" lon="-2.34213">
        <ele>184.60000610352</ele>
        <time>2022-03-31T09:18:54.000Z</time>
      </trkpt>
      <trkpt lat="47.34882" lon="-2.34212">
        <ele>184.60000610352</ele>
        <time>2022-03-31T09:18:56.000Z</time>
      </trkpt>
      <trkpt lat="47.34886" lon="-2.34211">
        <ele>185</ele>
        <time>2022-03-31T09:18:58.000Z</time>
      </trkpt>
      <trkpt lat="47.34887" lon="-2.3421">
        <ele>185.39999389648</ele>
        <time>2022-03-31T09:18:59.000Z</time>
      </trkpt>
      <trkpt lat="47.34888" lon="-2.34209">
        <ele>186.19999694824</ele>
        <time>2022-03-31T09:19:00.000Z</time>
      </trkpt>
      <trkpt lat="47.3489" lon="-2.34208">
        <ele>186.80000305176</ele>
        <time>2022-03-31T09:19:01.000Z</time>
      </trkpt>
      <trkpt lat="47.34892" lon="-2.34207">
        <ele>186.80000305176</ele>
        <time>2022-03-31T09:19:02.000Z</time>
      </trkpt>
      <trkpt lat="47.3491" lon="-2.34211">
        <ele>186.80000305176</ele>
        <time>2022-03-31T09:19:08.000Z</time>
      </trkpt>
      <trkpt lat="47.34922" lon="-2.34212">
        <ele>186.80000305176</ele>
        <time>2022-03-31T09:19:11.000Z</time>
      </trkpt>
      <trkpt lat="47.34927" lon="-2.34211">
        <ele>186.19999694824</ele>
        <time>2022-03-31T09:19:12.000Z</time>
      </trkpt>
      <trkpt lat="47.34931" lon="-2.34209">
        <ele>185.80000305176</ele>
        <time>2022-03-31T09:19:13.000Z</time>
      </trkpt>
      <trkpt lat="47.34935" lon="-2.34207">
        <ele>185.39999389648</ele>
        <time>2022-03-31T09:19:14.000Z</time>
      </trkpt>
      <trkpt lat="47.3494" lon="-2.34205">
        <ele>184.80000305176</ele>
        <time>2022-03-31T09:19:15.000Z</time>
      </trkpt>
      <trkpt lat="47.34945" lon="-2.34203">
        <ele>184.39999389648</ele>
        <time>2022-03-31T09:19:16.000Z</time>
      </trkpt>
      <trkpt lat="47.34954" lon="-2.34198">
        <ele>184.39999389648</ele>
        <time>2022-03-31T09:19:18.000Z</time>
      </trkpt>
      <trkpt lat="47.34958" lon="-2.34197">
        <ele>184</ele>
        <time>2022-03-31T09:19:19.000Z</time>
      </trkpt>
      <trkpt lat="47.34962" lon="-2.34196">
        <ele>183.60000610352</ele>
        <time>2022-03-31T09:19:20.000Z</time>
      </trkpt>
      <trkpt lat="47.34966" lon="-2.34197">
        <ele>183.19999694824</ele>
        <time>2022-03-31T09:19:21.000Z</time>
      </trkpt>
      <trkpt lat="47.34969" lon="-2.342">
        <ele>182.80000305176</ele>
        <time>2022-03-31T09:19:22.000Z</time>
      </trkpt>
      <trkpt lat="47.34972" lon="-2.34204">
        <ele>182.39999389648</ele>
        <time>2022-03-31T09:19:23.000Z</time>
      </trkpt>
      <trkpt lat="47.3498" lon="-2.34219">
        <ele>181.80000305176</ele>
        <time>2022-03-31T09:19:26.000Z</time>
      </trkpt>
      <trkpt lat="47.34981" lon="-2.34226">
        <ele>181.39999389648</ele>
        <time>2022-03-31T09:19:27.000Z</time>
      </trkpt>
      <trkpt lat="47.34982" lon="-2.34233">
        <ele>181</ele>
        <time>2022-03-31T09:19:28.000Z</time>
      </trkpt>
      <trkpt lat="47.34984" lon="-2.3424">
        <ele>180.60000610352</ele>
        <time>2022-03-31T09:19:29.000Z</time>
      </trkpt>
      <trkpt lat="47.34985" lon="-2.34248">
        <ele>180</ele>
        <time>2022-03-31T09:19:30.000Z</time>
      </trkpt>
      <trkpt lat="47.34986" lon="-2.34256">
        <ele>179.60000610352</ele>
        <time>2022-03-31T09:19:31.000Z</time>
      </trkpt>
      <trkpt lat="47.34988" lon="-2.34264">
        <ele>179.19999694824</ele>
        <time>2022-03-31T09:19:32.000Z</time>
      </trkpt>
      <trkpt lat="47.3499" lon="-2.34272">
        <ele>178.80000305176</ele>
        <time>2022-03-31T09:19:33.000Z</time>
      </trkpt>
      <trkpt lat="47.34992" lon="-2.3428">
        <ele>178.39999389648</ele>
        <time>2022-03-31T09:19:34.000Z</time>
      </trkpt>
      <trkpt lat="47.34995" lon="-2.34288">
        <ele>178</ele>
        <time>2022-03-31T09:19:35.000Z</time>
      </trkpt>
      <trkpt lat="47.35002" lon="-2.34307">
        <ele>177.60000610352</ele>
        <time>2022-03-31T09:19:37.000Z</time>
      </trkpt>
      <trkpt lat="47.35005" lon="-2.34317">
        <ele>177.19999694824</ele>
        <time>2022-03-31T09:19:38.000Z</time>
      </trkpt>
      <trkpt lat="47.35009" lon="-2.34327">
        <ele>176.80000305176</ele>
        <time>2022-03-31T09:19:39.000Z</time>
      </trkpt>
      <trkpt lat="47.35013" lon="-2.34337">
        <ele>176.39999389648</ele>
        <time>2022-03-31T09:19:40.000Z</time>
      </trkpt>
      <trkpt lat="47.35016" lon="-2.34345">
        <ele>176</ele>
        <time>2022-03-31T09:19:41.000Z</time>
      </trkpt>
      <trkpt lat="47.35019" lon="-2.34354">
        <ele>175.60000610352</ele>
        <time>2022-03-31T09:19:42.000Z</time>
      </trkpt>
      <trkpt lat="47.35022" lon="-2.34362">
        <ele>175</ele>
        <time>2022-03-31T09:19:43.000Z</time>
      </trkpt>
      <trkpt lat="47.35026" lon="-2.34371">
        <ele>174.60000610352</ele>
        <time>2022-03-31T09:19:44.000Z</time>
      </trkpt>
      <trkpt lat="47.35029" lon="-2.34379">
        <ele>174</ele>
        <time>2022-03-31T09:19:45.000Z</time>
      </trkpt>
      <trkpt lat="47.35033" lon="-2.34387">
        <ele>173.60000610352</ele>
        <time>2022-03-31T09:19:46.000Z</time>
      </trkpt>
      <trkpt lat="47.35037" lon="-2.34395">
        <ele>173.19999694824</ele>
        <time>2022-03-31T09:19:47.000Z</time>
      </trkpt>
      <trkpt lat="47.3504" lon="-2.344">
        <ele>172.80000305176</ele>
        <time>2022-03-31T09:19:48.000Z</time>
      </trkpt>
      <trkpt lat="47.35043" lon="-2.34405">
        <ele>172.19999694824</ele>
        <time>2022-03-31T09:19:49.000Z</time>
      </trkpt>
      <trkpt lat="47.35045" lon="-2.34407">
        <ele>171.19999694824</ele>
        <time>2022-03-31T09:19:50.000Z</time>
      </trkpt>
      <trkpt lat="47.35046" lon="-2.34408">
        <ele>170.60000610352</ele>
        <time>2022-03-31T09:19:51.000Z</time>
      </trkpt>
      <trkpt lat="47.35046" lon="-2.34408">
        <ele>170</ele>
        <time>2022-03-31T09:19:52.000Z</time>
      </trkpt>
      <trkpt lat="47.35047" lon="-2.34409">
        <ele>169.39999389648</ele>
        <time>2022-03-31T09:19:53.000Z</time>
      </trkpt>
      <trkpt lat="47.35064" lon="-2.34448">
        <ele>166.80000305176</ele>
        <time>2022-03-31T09:21:25.000Z</time>
      </trkpt>
      <trkpt lat="47.3507" lon="-2.34465">
        <ele>166.80000305176</ele>
        <time>2022-03-31T09:21:32.000Z</time>
      </trkpt>
      <trkpt lat="47.35078" lon="-2.34481">
        <ele>167.19999694824</ele>
        <time>2022-03-31T09:21:39.000Z</time>
      </trkpt>
      <trkpt lat="47.3508" lon="-2.34483">
        <ele>167.60000610352</ele>
        <time>2022-03-31T09:21:40.000Z</time>
      </trkpt>
      <trkpt lat="47.35081" lon="-2.34486">
        <ele>168.19999694824</ele>
        <time>2022-03-31T09:21:41.000Z</time>
      </trkpt>
      <trkpt lat="47.35083" lon="-2.34488">
        <ele>168.60000610352</ele>
        <time>2022-03-31T09:21:42.000Z</time>
      </trkpt>
      <trkpt lat="47.35086" lon="-2.34491">
        <ele>169</ele>
        <time>2022-03-31T09:21:43.000Z</time>
      </trkpt>
      <trkpt lat="47.35092" lon="-2.34499">
        <ele>169</ele>
        <time>2022-03-31T09:21:46.000Z</time>
      </trkpt>
      <trkpt lat="47.35095" lon="-2.34505">
        <ele>169.39999389648</ele>
        <time>2022-03-31T09:21:48.000Z</time>
      </trkpt>
      <trkpt lat="47.35096" lon="-2.34507">
        <ele>170</ele>
        <time>2022-03-31T09:21:49.000Z</time>
      </trkpt>
      <trkpt lat="47.35098" lon="-2.3451">
        <ele>170.39999389648</ele>
        <time>2022-03-31T09:21:50.000Z</time>
      </trkpt>
      <trkpt lat="47.351" lon="-2.34512">
        <ele>170.80000305176</ele>
        <time>2022-03-31T09:21:51.000Z</time>
      </trkpt>
      <trkpt lat="47.35101" lon="-2.34515">
        <ele>171.19999694824</ele>
        <time>2022-03-31T09:21:52.000Z</time>
      </trkpt>
      <trkpt lat="47.35105" lon="-2.34528">
        <ele>171.19999694824</ele>
        <time>2022-03-31T09:21:57.000Z</time>
      </trkpt>
      <trkpt lat="47.35106" lon="-2.34534">
        <ele>171.19999694824</ele>
        <time>2022-03-31T09:22:00.000Z</time>
      </trkpt>
      <trkpt lat="47.35104" lon="-2.34538">
        <ele>171.19999694824</ele>
        <time>2022-03-31T09:23:12.000Z</time>
      </trkpt>
      <trkpt lat="47.35102" lon="-2.3454">
        <ele>171.19999694824</ele>
        <time>2022-03-31T09:23:13.000Z</time>
      </trkpt>
      <trkpt lat="47.35091" lon="-2.34543">
        <ele>171.19999694824</ele>
        <time>2022-03-31T09:23:19.000Z</time>
      </trkpt>
      <trkpt lat="47.35084" lon="-2.34544">
        <ele>171.19999694824</ele>
        <time>2022-03-31T09:23:26.000Z</time>
      </trkpt>
      <trkpt lat="47.3508" lon="-2.34543">
        <ele>171.19999694824</ele>
        <time>2022-03-31T09:23:32.000Z</time>
      </trkpt>
      <trkpt lat="47.35077" lon="-2.34547">
        <ele>171.19999694824</ele>
        <time>2022-03-31T09:23:35.000Z</time>
      </trkpt>
      <trkpt lat="47.35077" lon="-2.34549">
        <ele>171.19999694824</ele>
        <time>2022-03-31T09:23:36.000Z</time>
      </trkpt>
      <trkpt lat="47.35081" lon="-2.34552">
        <ele>171.19999694824</ele>
        <time>2022-03-31T09:23:40.000Z</time>
      </trkpt>
      <trkpt lat="47.35083" lon="-2.34547">
        <ele>171.19999694824</ele>
        <time>2022-03-31T09:23:44.000Z</time>
      </trkpt>
      <trkpt lat="47.35082" lon="-2.34539">
        <ele>171.19999694824</ele>
        <time>2022-03-31T09:23:51.000Z</time>
      </trkpt>
      <trkpt lat="47.35078" lon="-2.3453">
        <ele>171.19999694824</ele>
        <time>2022-03-31T09:23:56.000Z</time>
      </trkpt>
      <trkpt lat="47.35076" lon="-2.34524">
        <ele>171.19999694824</ele>
        <time>2022-03-31T09:24:02.000Z</time>
      </trkpt>
      <trkpt lat="47.35074" lon="-2.34519">
        <ele>170.80000305176</ele>
        <time>2022-03-31T09:24:06.000Z</time>
      </trkpt>
      <trkpt lat="47.35073" lon="-2.34517">
        <ele>170.39999389648</ele>
        <time>2022-03-31T09:24:07.000Z</time>
      </trkpt>
      <trkpt lat="47.35072" lon="-2.34516">
        <ele>170</ele>
        <time>2022-03-31T09:24:08.000Z</time>
      </trkpt>
      <trkpt lat="47.35071" lon="-2.34514">
        <ele>169.60000610352</ele>
        <time>2022-03-31T09:24:09.000Z</time>
      </trkpt>
      <trkpt lat="47.35071" lon="-2.34513">
        <ele>169.19999694824</ele>
        <time>2022-03-31T09:24:10.000Z</time>
      </trkpt>
      <trkpt lat="47.35068" lon="-2.34506">
        <ele>169.19999694824</ele>
        <time>2022-03-31T09:24:14.000Z</time>
      </trkpt>
      <trkpt lat="47.35066" lon="-2.34504">
        <ele>169.19999694824</ele>
        <time>2022-03-31T09:24:17.000Z</time>
      </trkpt>
      <trkpt lat="47.35064" lon="-2.34502">
        <ele>169.19999694824</ele>
        <time>2022-03-31T09:25:01.000Z</time>
      </trkpt>
      <trkpt lat="47.35063" lon="-2.345">
        <ele>168.80000305176</ele>
        <time>2022-03-31T09:25:02.000Z</time>
      </trkpt>
      <trkpt lat="47.35062" lon="-2.34499">
        <ele>168.39999389648</ele>
        <time>2022-03-31T09:25:03.000Z</time>
      </trkpt>
      <trkpt lat="47.35061" lon="-2.34499">
        <ele>168</ele>
        <time>2022-03-31T09:25:04.000Z</time>
      </trkpt>
      <trkpt lat="47.3506" lon="-2.34498">
        <ele>167.60000610352</ele>
        <time>2022-03-31T09:25:05.000Z</time>
      </trkpt>
      <trkpt lat="47.35059" lon="-2.34496">
        <ele>167</ele>
        <time>2022-03-31T09:25:06.000Z</time>
      </trkpt>
      <trkpt lat="47.35059" lon="-2.34495">
        <ele>167</ele>
        <time>2022-03-31T09:25:07.000Z</time>
      </trkpt>
      <trkpt lat="47.35058" lon="-2.34494">
        <ele>167</ele>
        <time>2022-03-31T09:25:08.000Z</time>
      </trkpt>
      <trkpt lat="47.3505" lon="-2.34493">
        <ele>165</ele>
        <time>2022-03-31T09:25:54.000Z</time>
      </trkpt>
      <trkpt lat="47.35047" lon="-2.34488">
        <ele>165</ele>
        <time>2022-03-31T09:25:56.000Z</time>
      </trkpt>
      <trkpt lat="47.3504" lon="-2.34475">
        <ele>165</ele>
        <time>2022-03-31T09:26:01.000Z</time>
      </trkpt>
      <trkpt lat="47.35038" lon="-2.34474">
        <ele>165</ele>
        <time>2022-03-31T09:26:02.000Z</time>
      </trkpt>
      <trkpt lat="47.35032" lon="-2.34473">
        <ele>165.60000610352</ele>
        <time>2022-03-31T09:26:04.000Z</time>
      </trkpt>
      <trkpt lat="47.3503" lon="-2.34472">
        <ele>166</ele>
        <time>2022-03-31T09:26:05.000Z</time>
      </trkpt>
      <trkpt lat="47.35028" lon="-2.34471">
        <ele>166.39999389648</ele>
        <time>2022-03-31T09:26:06.000Z</time>
      </trkpt>
      <trkpt lat="47.35026" lon="-2.3447">
        <ele>166.80000305176</ele>
        <time>2022-03-31T09:26:07.000Z</time>
      </trkpt>
      <trkpt lat="47.35024" lon="-2.34468">
        <ele>167.19999694824</ele>
        <time>2022-03-31T09:26:08.000Z</time>
      </trkpt>
      <trkpt lat="47.35018" lon="-2.3446">
        <ele>167.19999694824</ele>
        <time>2022-03-31T09:26:11.000Z</time>
      </trkpt>
      <trkpt lat="47.35016" lon="-2.34457">
        <ele>167.60000610352</ele>
        <time>2022-03-31T09:26:12.000Z</time>
      </trkpt>
      <trkpt lat="47.35015" lon="-2.34454">
        <ele>168</ele>
        <time>2022-03-31T09:26:13.000Z</time>
      </trkpt>
      <trkpt lat="47.35013" lon="-2.3445">
        <ele>168.60000610352</ele>
        <time>2022-03-31T09:26:14.000Z</time>
      </trkpt>
      <trkpt lat="47.35011" lon="-2.34446">
        <ele>169</ele>
        <time>2022-03-31T09:26:15.000Z</time>
      </trkpt>
      <trkpt lat="47.3501" lon="-2.34443">
        <ele>169.39999389648</ele>
        <time>2022-03-31T09:26:16.000Z</time>
      </trkpt>
      <trkpt lat="47.35008" lon="-2.3444">
        <ele>169.39999389648</ele>
        <time>2022-03-31T09:26:17.000Z</time>
      </trkpt>
      <trkpt lat="47.35002" lon="-2.34418">
        <ele>169.80000305176</ele>
        <time>2022-03-31T09:26:23.000Z</time>
      </trkpt>
      <trkpt lat="47.35001" lon="-2.34415">
        <ele>170.60000610352</ele>
        <time>2022-03-31T09:26:24.000Z</time>
      </trkpt>
      <trkpt lat="47.35" lon="-2.34411">
        <ele>171</ele>
        <time>2022-03-31T09:26:25.000Z</time>
      </trkpt>
      <trkpt lat="47.34999" lon="-2.34407">
        <ele>171.39999389648</ele>
        <time>2022-03-31T09:26:26.000Z</time>
      </trkpt>
      <trkpt lat="47.34997" lon="-2.34398">
        <ele>171.39999389648</ele>
        <time>2022-03-31T09:26:29.000Z</time>
      </trkpt>
      <trkpt lat="47.34986" lon="-2.34375">
        <ele>171.39999389648</ele>
        <time>2022-03-31T09:26:37.000Z</time>
      </trkpt>
      <trkpt lat="47.34982" lon="-2.34372">
        <ele>171.39999389648</ele>
        <time>2022-03-31T09:26:41.000Z</time>
      </trkpt>
      <trkpt lat="47.34975" lon="-2.34373">
        <ele>171.39999389648</ele>
        <time>2022-03-31T09:27:10.000Z</time>
      </trkpt>
      <trkpt lat="47.34965" lon="-2.34371">
        <ele>172.39999389648</ele>
        <time>2022-03-31T09:27:13.000Z</time>
      </trkpt>
      <trkpt lat="47.34962" lon="-2.34371">
        <ele>172.80000305176</ele>
        <time>2022-03-31T09:27:14.000Z</time>
      </trkpt>
      <trkpt lat="47.34958" lon="-2.34372">
        <ele>173.19999694824</ele>
        <time>2022-03-31T09:27:15.000Z</time>
      </trkpt>
      <trkpt lat="47.34953" lon="-2.34372">
        <ele>173.60000610352</ele>
        <time>2022-03-31T09:27:16.000Z</time>
      </trkpt>
      <trkpt lat="47.34949" lon="-2.34372">
        <ele>173.60000610352</ele>
        <time>2022-03-31T09:27:17.000Z</time>
      </trkpt>
      <trkpt lat="47.3494" lon="-2.34371">
        <ele>173.60000610352</ele>
        <time>2022-03-31T09:27:19.000Z</time>
      </trkpt>
      <trkpt lat="47.34924" lon="-2.3437">
        <ele>173.60000610352</ele>
        <time>2022-03-31T09:27:24.000Z</time>
      </trkpt>
      <trkpt lat="47.34905" lon="-2.34373">
        <ele>174</ele>
        <time>2022-03-31T09:27:30.000Z</time>
      </trkpt>
      <trkpt lat="47.34901" lon="-2.34373">
        <ele>174.39999389648</ele>
        <time>2022-03-31T09:27:31.000Z</time>
      </trkpt>
      <trkpt lat="47.34897" lon="-2.34373">
        <ele>174.80000305176</ele>
        <time>2022-03-31T09:27:32.000Z</time>
      </trkpt>
      <trkpt lat="47.34893" lon="-2.34373">
        <ele>175.19999694824</ele>
        <time>2022-03-31T09:27:33.000Z</time>
      </trkpt>
      <trkpt lat="47.34889" lon="-2.34373">
        <ele>175.80000305176</ele>
        <time>2022-03-31T09:27:34.000Z</time>
      </trkpt>
      <trkpt lat="47.34883" lon="-2.34372">
        <ele>175.80000305176</ele>
        <time>2022-03-31T09:27:36.000Z</time>
      </trkpt>
      <trkpt lat="47.3486" lon="-2.34371">
        <ele>175.80000305176</ele>
        <time>2022-03-31T09:27:43.000Z</time>
      </trkpt>
      <trkpt lat="47.34857" lon="-2.34371">
        <ele>176.19999694824</ele>
        <time>2022-03-31T09:27:44.000Z</time>
      </trkpt>
      <trkpt lat="47.34854" lon="-2.34372">
        <ele>176.60000610352</ele>
        <time>2022-03-31T09:27:45.000Z</time>
      </trkpt>
      <trkpt lat="47.34851" lon="-2.34372">
        <ele>177</ele>
        <time>2022-03-31T09:27:46.000Z</time>
      </trkpt>
      <trkpt lat="47.34848" lon="-2.34372">
        <ele>177.39999389648</ele>
        <time>2022-03-31T09:27:47.000Z</time>
      </trkpt>
      <trkpt lat="47.34844" lon="-2.34373">
        <ele>177.80000305176</ele>
        <time>2022-03-31T09:27:48.000Z</time>
      </trkpt>
      <trkpt lat="47.34836" lon="-2.34374">
        <ele>177.80000305176</ele>
        <time>2022-03-31T09:27:50.000Z</time>
      </trkpt>
      <trkpt lat="47.34826" lon="-2.34376">
        <ele>177.80000305176</ele>
        <time>2022-03-31T09:27:52.000Z</time>
      </trkpt>
      <trkpt lat="47.34807" lon="-2.34379">
        <ele>177.80000305176</ele>
        <time>2022-03-31T09:27:56.000Z</time>
      </trkpt>
      <trkpt lat="47.34787" lon="-2.34384">
        <ele>177.80000305176</ele>
        <time>2022-03-31T09:28:01.000Z</time>
      </trkpt>
      <trkpt lat="47.34778" lon="-2.34377">
        <ele>177.80000305176</ele>
        <time>2022-03-31T09:28:04.000Z</time>
      </trkpt>
      <trkpt lat="47.34769" lon="-2.34366">
        <ele>177.80000305176</ele>
        <time>2022-03-31T09:28:08.000Z</time>
      </trkpt>
      <trkpt lat="47.34765" lon="-2.34365">
        <ele>177.80000305176</ele>
        <time>2022-03-31T09:28:09.000Z</time>
      </trkpt>
      <trkpt lat="47.34743" lon="-2.34365">
        <ele>177.80000305176</ele>
        <time>2022-03-31T09:28:15.000Z</time>
      </trkpt>
      <trkpt lat="47.34732" lon="-2.3437">
        <ele>177.80000305176</ele>
        <time>2022-03-31T09:28:19.000Z</time>
      </trkpt>
      <trkpt lat="47.34725" lon="-2.3437">
        <ele>177.39999389648</ele>
        <time>2022-03-31T09:28:21.000Z</time>
      </trkpt>
      <trkpt lat="47.34723" lon="-2.34368">
        <ele>177</ele>
        <time>2022-03-31T09:28:22.000Z</time>
      </trkpt>
      <trkpt lat="47.3472" lon="-2.34365">
        <ele>176.60000610352</ele>
        <time>2022-03-31T09:28:23.000Z</time>
      </trkpt>
      <trkpt lat="47.34717" lon="-2.34362">
        <ele>176</ele>
        <time>2022-03-31T09:28:24.000Z</time>
      </trkpt>
      <trkpt lat="47.34715" lon="-2.34358">
        <ele>175.60000610352</ele>
        <time>2022-03-31T09:28:25.000Z</time>
      </trkpt>
      <trkpt lat="47.34707" lon="-2.34343">
        <ele>175.60000610352</ele>
        <time>2022-03-31T09:28:28.000Z</time>
      </trkpt>
      <trkpt lat="47.34702" lon="-2.34322">
        <ele>175.60000610352</ele>
        <time>2022-03-31T09:28:31.000Z</time>
      </trkpt>
      <trkpt lat="47.34701" lon="-2.34316">
        <ele>175.60000610352</ele>
        <time>2022-03-31T09:28:32.000Z</time>
      </trkpt>
      <trkpt lat="47.34692" lon="-2.34276">
        <ele>175.60000610352</ele>
        <time>2022-03-31T09:28:38.000Z</time>
      </trkpt>
      <trkpt lat="47.3468" lon="-2.34265">
        <ele>175.60000610352</ele>
        <time>2022-03-31T09:28:42.000Z</time>
      </trkpt>
      <trkpt lat="47.34661" lon="-2.34264">
        <ele>175.60000610352</ele>
        <time>2022-03-31T09:28:47.000Z</time>
      </trkpt>
      <trkpt lat="47.34657" lon="-2.34265">
        <ele>175.60000610352</ele>
        <time>2022-03-31T09:28:48.000Z</time>
      </trkpt>
      <trkpt lat="47.34651" lon="-2.34272">
        <ele>175.60000610352</ele>
        <time>2022-03-31T09:28:50.000Z</time>
      </trkpt>
      <trkpt lat="47.34643" lon="-2.34279">
        <ele>175.60000610352</ele>
        <time>2022-03-31T09:28:52.000Z</time>
      </trkpt>
      <trkpt lat="47.34631" lon="-2.34291">
        <ele>175.60000610352</ele>
        <time>2022-03-31T09:28:55.000Z</time>
      </trkpt>
      <trkpt lat="47.34621" lon="-2.343">
        <ele>175.60000610352</ele>
        <time>2022-03-31T09:28:58.000Z</time>
      </trkpt>
      <trkpt lat="47.34613" lon="-2.34302">
        <ele>175.60000610352</ele>
        <time>2022-03-31T09:29:00.000Z</time>
      </trkpt>
      <trkpt lat="47.34606" lon="-2.34302">
        <ele>175.60000610352</ele>
        <time>2022-03-31T09:29:02.000Z</time>
      </trkpt>
      <trkpt lat="47.34598" lon="-2.34302">
        <ele>175.60000610352</ele>
        <time>2022-03-31T09:29:04.000Z</time>
      </trkpt>
      <trkpt lat="47.34594" lon="-2.34302">
        <ele>175.60000610352</ele>
        <time>2022-03-31T09:29:05.000Z</time>
      </trkpt>
      <trkpt lat="47.3459" lon="-2.34302">
        <ele>175.60000610352</ele>
        <time>2022-03-31T09:29:06.000Z</time>
      </trkpt>
      <trkpt lat="47.34585" lon="-2.34303">
        <ele>176.19999694824</ele>
        <time>2022-03-31T09:29:07.000Z</time>
      </trkpt>
      <trkpt lat="47.3458" lon="-2.34305">
        <ele>176.60000610352</ele>
        <time>2022-03-31T09:29:08.000Z</time>
      </trkpt>
      <trkpt lat="47.34576" lon="-2.34306">
        <ele>177</ele>
        <time>2022-03-31T09:29:09.000Z</time>
      </trkpt>
      <trkpt lat="47.34571" lon="-2.34308">
        <ele>177.39999389648</ele>
        <time>2022-03-31T09:29:10.000Z</time>
      </trkpt>
      <trkpt lat="47.34567" lon="-2.3431">
        <ele>177.80000305176</ele>
        <time>2022-03-31T09:29:11.000Z</time>
      </trkpt>
      <trkpt lat="47.34547" lon="-2.34324">
        <ele>178.19999694824</ele>
        <time>2022-03-31T09:29:16.000Z</time>
      </trkpt>
      <trkpt lat="47.34543" lon="-2.34328">
        <ele>178.60000610352</ele>
        <time>2022-03-31T09:29:17.000Z</time>
      </trkpt>
      <trkpt lat="47.3454" lon="-2.34331">
        <ele>179</ele>
        <time>2022-03-31T09:29:18.000Z</time>
      </trkpt>
      <trkpt lat="47.34536" lon="-2.34334">
        <ele>179.39999389648</ele>
        <time>2022-03-31T09:29:19.000Z</time>
      </trkpt>
      <trkpt lat="47.34532" lon="-2.34337">
        <ele>180</ele>
        <time>2022-03-31T09:29:20.000Z</time>
      </trkpt>
      <trkpt lat="47.34528" lon="-2.34341">
        <ele>180</ele>
        <time>2022-03-31T09:29:21.000Z</time>
      </trkpt>
      <trkpt lat="47.34521" lon="-2.34347">
        <ele>180</ele>
        <time>2022-03-31T09:29:23.000Z</time>
      </trkpt>
      <trkpt lat="47.3451" lon="-2.34356">
        <ele>180</ele>
        <time>2022-03-31T09:29:26.000Z</time>
      </trkpt>
      <trkpt lat="47.34507" lon="-2.3436">
        <ele>180</ele>
        <time>2022-03-31T09:29:27.000Z</time>
      </trkpt>
      <trkpt lat="47.34496" lon="-2.34372">
        <ele>180</ele>
        <time>2022-03-31T09:29:30.000Z</time>
      </trkpt>
      <trkpt lat="47.34492" lon="-2.34376">
        <ele>180</ele>
        <time>2022-03-31T09:29:31.000Z</time>
      </trkpt>
      <trkpt lat="47.3447" lon="-2.34391">
        <ele>180</ele>
        <time>2022-03-31T09:29:36.000Z</time>
      </trkpt>
      <trkpt lat="47.34461" lon="-2.34394">
        <ele>180</ele>
        <time>2022-03-31T09:29:38.000Z</time>
      </trkpt>
      <trkpt lat="47.34429" lon="-2.34408">
        <ele>180</ele>
        <time>2022-03-31T09:29:45.000Z</time>
      </trkpt>
      <trkpt lat="47.34405" lon="-2.34419">
        <ele>180</ele>
        <time>2022-03-31T09:29:50.000Z</time>
      </trkpt>
      <trkpt lat="47.34378" lon="-2.34434">
        <ele>180.39999389648</ele>
        <time>2022-03-31T09:29:56.000Z</time>
      </trkpt>
      <trkpt lat="47.34373" lon="-2.34436">
        <ele>180.80000305176</ele>
        <time>2022-03-31T09:29:57.000Z</time>
      </trkpt>
      <trkpt lat="47.34369" lon="-2.34439">
        <ele>181.19999694824</ele>
        <time>2022-03-31T09:29:58.000Z</time>
      </trkpt>
      <trkpt lat="47.34364" lon="-2.34442">
        <ele>181.60000610352</ele>
        <time>2022-03-31T09:29:59.000Z</time>
      </trkpt>
      <trkpt lat="47.34359" lon="-2.34446">
        <ele>182</ele>
        <time>2022-03-31T09:30:00.000Z</time>
      </trkpt>
      <trkpt lat="47.3435" lon="-2.34452">
        <ele>182</ele>
        <time>2022-03-31T09:30:02.000Z</time>
      </trkpt>
      <trkpt lat="47.3434" lon="-2.34459">
        <ele>182</ele>
        <time>2022-03-31T09:30:04.000Z</time>
      </trkpt>
      <trkpt lat="47.3432" lon="-2.34465">
        <ele>182</ele>
        <time>2022-03-31T09:30:08.000Z</time>
      </trkpt>
      <trkpt lat="47.34309" lon="-2.34466">
        <ele>182</ele>
        <time>2022-03-31T09:30:10.000Z</time>
      </trkpt>
      <trkpt lat="47.34294" lon="-2.34467">
        <ele>182</ele>
        <time>2022-03-31T09:30:13.000Z</time>
      </trkpt>
      <trkpt lat="47.34279" lon="-2.34468">
        <ele>182</ele>
        <time>2022-03-31T09:30:16.000Z</time>
      </trkpt>
      <trkpt lat="47.34269" lon="-2.34471">
        <ele>182</ele>
        <time>2022-03-31T09:30:18.000Z</time>
      </trkpt>
      <trkpt lat="47.34264" lon="-2.34473">
        <ele>182</ele>
        <time>2022-03-31T09:30:19.000Z</time>
      </trkpt>
      <trkpt lat="47.3425" lon="-2.34478">
        <ele>182</ele>
        <time>2022-03-31T09:30:22.000Z</time>
      </trkpt>
      <trkpt lat="47.34218" lon="-2.34493">
        <ele>182</ele>
        <time>2022-03-31T09:30:29.000Z</time>
      </trkpt>
      <trkpt lat="47.34189" lon="-2.34508">
        <ele>182</ele>
        <time>2022-03-31T09:30:35.000Z</time>
      </trkpt>
      <trkpt lat="47.34174" lon="-2.34513">
        <ele>182</ele>
        <time>2022-03-31T09:30:38.000Z</time>
      </trkpt>
      <trkpt lat="47.34165" lon="-2.34515">
        <ele>182</ele>
        <time>2022-03-31T09:30:40.000Z</time>
      </trkpt>
      <trkpt lat="47.34135" lon="-2.34527">
        <ele>182</ele>
        <time>2022-03-31T09:30:47.000Z</time>
      </trkpt>
      <trkpt lat="47.3413" lon="-2.34529">
        <ele>182</ele>
        <time>2022-03-31T09:30:48.000Z</time>
      </trkpt>
      <trkpt lat="47.34108" lon="-2.3454">
        <ele>182</ele>
        <time>2022-03-31T09:30:53.000Z</time>
      </trkpt>
      <trkpt lat="47.341" lon="-2.34546">
        <ele>182</ele>
        <time>2022-03-31T09:30:55.000Z</time>
      </trkpt>
      <trkpt lat="47.34088" lon="-2.34555">
        <ele>182</ele>
        <time>2022-03-31T09:30:58.000Z</time>
      </trkpt>
      <trkpt lat="47.34084" lon="-2.34558">
        <ele>182</ele>
        <time>2022-03-31T09:30:59.000Z</time>
      </trkpt>
      <trkpt lat="47.34066" lon="-2.34576">
        <ele>182</ele>
        <time>2022-03-31T09:31:05.000Z</time>
      </trkpt>
      <trkpt lat="47.3405" lon="-2.34586">
        <ele>182</ele>
        <time>2022-03-31T09:31:11.000Z</time>
      </trkpt>
      <trkpt lat="47.3404" lon="-2.34591">
        <ele>182.39999389648</ele>
        <time>2022-03-31T09:31:14.000Z</time>
      </trkpt>
      <trkpt lat="47.34036" lon="-2.34593">
        <ele>182.80000305176</ele>
        <time>2022-03-31T09:31:15.000Z</time>
      </trkpt>
      <trkpt lat="47.34033" lon="-2.34595">
        <ele>183.19999694824</ele>
        <time>2022-03-31T09:31:16.000Z</time>
      </trkpt>
      <trkpt lat="47.34029" lon="-2.34596">
        <ele>183.60000610352</ele>
        <time>2022-03-31T09:31:17.000Z</time>
      </trkpt>
      <trkpt lat="47.34026" lon="-2.34596">
        <ele>184</ele>
        <time>2022-03-31T09:31:18.000Z</time>
      </trkpt>
      <trkpt lat="47.34006" lon="-2.34596">
        <ele>184</ele>
        <time>2022-03-31T09:31:24.000Z</time>
      </trkpt>
      <trkpt lat="47.3399" lon="-2.34593">
        <ele>184</ele>
        <time>2022-03-31T09:31:28.000Z</time>
      </trkpt>
      <trkpt lat="47.33969" lon="-2.34589">
        <ele>184</ele>
        <time>2022-03-31T09:31:32.000Z</time>
      </trkpt>
      <trkpt lat="47.33954" lon="-2.3459">
        <ele>184</ele>
        <time>2022-03-31T09:31:35.000Z</time>
      </trkpt>
      <trkpt lat="47.33944" lon="-2.3459">
        <ele>184</ele>
        <time>2022-03-31T09:31:37.000Z</time>
      </trkpt>
      <trkpt lat="47.33918" lon="-2.3459">
        <ele>184</ele>
        <time>2022-03-31T09:31:42.000Z</time>
      </trkpt>
      <trkpt lat="47.33908" lon="-2.34591">
        <ele>184</ele>
        <time>2022-03-31T09:31:44.000Z</time>
      </trkpt>
      <trkpt lat="47.339" lon="-2.34596">
        <ele>184</ele>
        <time>2022-03-31T09:31:46.000Z</time>
      </trkpt>
      <trkpt lat="47.33896" lon="-2.346">
        <ele>184</ele>
        <time>2022-03-31T09:31:49.000Z</time>
      </trkpt>
      <trkpt lat="47.33895" lon="-2.34602">
        <ele>184</ele>
        <time>2022-03-31T09:31:50.000Z</time>
      </trkpt>
      <trkpt lat="47.33894" lon="-2.34604">
        <ele>184</ele>
        <time>2022-03-31T09:31:51.000Z</time>
      </trkpt>
      <trkpt lat="47.33892" lon="-2.34617">
        <ele>184</ele>
        <time>2022-03-31T09:31:55.000Z</time>
      </trkpt>
      <trkpt lat="47.33886" lon="-2.34644">
        <ele>184</ele>
        <time>2022-03-31T09:31:59.000Z</time>
      </trkpt>
      <trkpt lat="47.33882" lon="-2.34676">
        <ele>184</ele>
        <time>2022-03-31T09:32:04.000Z</time>
      </trkpt>
      <trkpt lat="47.33879" lon="-2.34715">
        <ele>184</ele>
        <time>2022-03-31T09:32:10.000Z</time>
      </trkpt>
      <trkpt lat="47.33876" lon="-2.34739">
        <ele>184</ele>
        <time>2022-03-31T09:32:14.000Z</time>
      </trkpt>
      <trkpt lat="47.33875" lon="-2.34747">
        <ele>184</ele>
        <time>2022-03-31T09:32:15.000Z</time>
      </trkpt>
      <trkpt lat="47.33872" lon="-2.34764">
        <ele>184</ele>
        <time>2022-03-31T09:32:17.000Z</time>
      </trkpt>
      <trkpt lat="47.33866" lon="-2.34795">
        <ele>183.60000610352</ele>
        <time>2022-03-31T09:32:21.000Z</time>
      </trkpt>
      <trkpt lat="47.33865" lon="-2.34801">
        <ele>183.19999694824</ele>
        <time>2022-03-31T09:32:22.000Z</time>
      </trkpt>
      <trkpt lat="47.33865" lon="-2.34805">
        <ele>182.60000610352</ele>
        <time>2022-03-31T09:32:23.000Z</time>
      </trkpt>
      <trkpt lat="47.33864" lon="-2.34808">
        <ele>182.19999694824</ele>
        <time>2022-03-31T09:32:24.000Z</time>
      </trkpt>
      <trkpt lat="47.33864" lon="-2.34812">
        <ele>181.80000305176</ele>
        <time>2022-03-31T09:32:25.000Z</time>
      </trkpt>
      <trkpt lat="47.3386" lon="-2.34821">
        <ele>181.80000305176</ele>
        <time>2022-03-31T09:32:30.000Z</time>
      </trkpt>
      <trkpt lat="47.33857" lon="-2.34832">
        <ele>181.80000305176</ele>
        <time>2022-03-31T09:32:47.000Z</time>
      </trkpt>
      <trkpt lat="47.33855" lon="-2.34834">
        <ele>181.80000305176</ele>
        <time>2022-03-31T09:32:48.000Z</time>
      </trkpt>
      <trkpt lat="47.33852" lon="-2.34836">
        <ele>181.80000305176</ele>
        <time>2022-03-31T09:32:49.000Z</time>
      </trkpt>
      <trkpt lat="47.3384" lon="-2.34847">
        <ele>181.80000305176</ele>
        <time>2022-03-31T09:32:54.000Z</time>
      </trkpt>
      <trkpt lat="47.33828" lon="-2.34858">
        <ele>181.80000305176</ele>
        <time>2022-03-31T09:32:59.000Z</time>
      </trkpt>
      <trkpt lat="47.33819" lon="-2.34873">
        <ele>181.80000305176</ele>
        <time>2022-03-31T09:33:04.000Z</time>
      </trkpt>
      <trkpt lat="47.33818" lon="-2.34875">
        <ele>181.80000305176</ele>
        <time>2022-03-31T09:33:05.000Z</time>
      </trkpt>
      <trkpt lat="47.33813" lon="-2.34888">
        <ele>181.80000305176</ele>
        <time>2022-03-31T09:33:08.000Z</time>
      </trkpt>
      <trkpt lat="47.33802" lon="-2.34912">
        <ele>181.80000305176</ele>
        <time>2022-03-31T09:33:13.000Z</time>
      </trkpt>
      <trkpt lat="47.33786" lon="-2.34937">
        <ele>181.80000305176</ele>
        <time>2022-03-31T09:33:19.000Z</time>
      </trkpt>
      <trkpt lat="47.33774" lon="-2.34948">
        <ele>181.80000305176</ele>
        <time>2022-03-31T09:33:22.000Z</time>
      </trkpt>
      <trkpt lat="47.33769" lon="-2.34953">
        <ele>181.80000305176</ele>
        <time>2022-03-31T09:33:23.000Z</time>
      </trkpt>
      <trkpt lat="47.33747" lon="-2.3497">
        <ele>181.80000305176</ele>
        <time>2022-03-31T09:33:28.000Z</time>
      </trkpt>
      <trkpt lat="47.33725" lon="-2.3499">
        <ele>182.19999694824</ele>
        <time>2022-03-31T09:33:34.000Z</time>
      </trkpt>
      <trkpt lat="47.33721" lon="-2.34993">
        <ele>182.60000610352</ele>
        <time>2022-03-31T09:33:35.000Z</time>
      </trkpt>
      <trkpt lat="47.33718" lon="-2.34994">
        <ele>183</ele>
        <time>2022-03-31T09:33:36.000Z</time>
      </trkpt>
      <trkpt lat="47.33714" lon="-2.34995">
        <ele>183.39999389648</ele>
        <time>2022-03-31T09:33:37.000Z</time>
      </trkpt>
      <trkpt lat="47.3371" lon="-2.34995">
        <ele>183.80000305176</ele>
        <time>2022-03-31T09:33:38.000Z</time>
      </trkpt>
      <trkpt lat="47.33705" lon="-2.34993">
        <ele>183.80000305176</ele>
        <time>2022-03-31T09:33:39.000Z</time>
      </trkpt>
      <trkpt lat="47.33692" lon="-2.34985">
        <ele>183.80000305176</ele>
        <time>2022-03-31T09:33:43.000Z</time>
      </trkpt>
      <trkpt lat="47.33682" lon="-2.34971">
        <ele>183.80000305176</ele>
        <time>2022-03-31T09:33:49.000Z</time>
      </trkpt>
      <trkpt lat="47.3368" lon="-2.34969">
        <ele>183.80000305176</ele>
        <time>2022-03-31T09:33:53.000Z</time>
      </trkpt>
      <trkpt lat="47.33678" lon="-2.34967">
        <ele>183.80000305176</ele>
        <time>2022-03-31T09:34:12.000Z</time>
      </trkpt>
      <trkpt lat="47.33671" lon="-2.34962">
        <ele>183.80000305176</ele>
        <time>2022-03-31T09:34:18.000Z</time>
      </trkpt>
      <trkpt lat="47.33669" lon="-2.3496">
        <ele>183.80000305176</ele>
        <time>2022-03-31T09:34:21.000Z</time>
      </trkpt>
      <trkpt lat="47.33665" lon="-2.34959">
        <ele>183.80000305176</ele>
        <time>2022-03-31T09:34:23.000Z</time>
      </trkpt>
      <trkpt lat="47.33651" lon="-2.34965">
        <ele>183.80000305176</ele>
        <time>2022-03-31T09:34:29.000Z</time>
      </trkpt>
      <trkpt lat="47.33638" lon="-2.34957">
        <ele>183.80000305176</ele>
        <time>2022-03-31T09:34:33.000Z</time>
      </trkpt>
      <trkpt lat="47.33624" lon="-2.34948">
        <ele>184.19999694824</ele>
        <time>2022-03-31T09:34:38.000Z</time>
      </trkpt>
      <trkpt lat="47.33621" lon="-2.34946">
        <ele>184.60000610352</ele>
        <time>2022-03-31T09:34:39.000Z</time>
      </trkpt>
      <trkpt lat="47.33618" lon="-2.34944">
        <ele>185</ele>
        <time>2022-03-31T09:34:40.000Z</time>
      </trkpt>
      <trkpt lat="47.33615" lon="-2.34944">
        <ele>185.39999389648</ele>
        <time>2022-03-31T09:34:41.000Z</time>
      </trkpt>
      <trkpt lat="47.33612" lon="-2.34943">
        <ele>185.80000305176</ele>
        <time>2022-03-31T09:34:42.000Z</time>
      </trkpt>
      <trkpt lat="47.33604" lon="-2.34939">
        <ele>185.80000305176</ele>
        <time>2022-03-31T09:34:44.000Z</time>
      </trkpt>
      <trkpt lat="47.33583" lon="-2.34931">
        <ele>185.80000305176</ele>
        <time>2022-03-31T09:34:50.000Z</time>
      </trkpt>
      <trkpt lat="47.33559" lon="-2.34922">
        <ele>185.80000305176</ele>
        <time>2022-03-31T09:34:56.000Z</time>
      </trkpt>
      <trkpt lat="47.33556" lon="-2.34921">
        <ele>186.19999694824</ele>
        <time>2022-03-31T09:34:57.000Z</time>
      </trkpt>
      <trkpt lat="47.33552" lon="-2.3492">
        <ele>186.60000610352</ele>
        <time>2022-03-31T09:34:58.000Z</time>
      </trkpt>
      <trkpt lat="47.33548" lon="-2.34918">
        <ele>187</ele>
        <time>2022-03-31T09:34:59.000Z</time>
      </trkpt>
      <trkpt lat="47.33545" lon="-2.34916">
        <ele>187.80000305176</ele>
        <time>2022-03-31T09:35:00.000Z</time>
      </trkpt>
      <trkpt lat="47.33519" lon="-2.34901">
        <ele>187.80000305176</ele>
        <time>2022-03-31T09:35:07.000Z</time>
      </trkpt>
      <trkpt lat="47.33504" lon="-2.34895">
        <ele>187.80000305176</ele>
        <time>2022-03-31T09:35:11.000Z</time>
      </trkpt>
      <trkpt lat="47.33489" lon="-2.34896">
        <ele>187.80000305176</ele>
        <time>2022-03-31T09:35:15.000Z</time>
      </trkpt>
      <trkpt lat="47.33485" lon="-2.34897">
        <ele>187.80000305176</ele>
        <time>2022-03-31T09:35:16.000Z</time>
      </trkpt>
      <trkpt lat="47.33461" lon="-2.34905">
        <ele>187.80000305176</ele>
        <time>2022-03-31T09:35:22.000Z</time>
      </trkpt>
      <trkpt lat="47.33457" lon="-2.34907">
        <ele>187.80000305176</ele>
        <time>2022-03-31T09:35:23.000Z</time>
      </trkpt>
      <trkpt lat="47.33447" lon="-2.3491">
        <ele>187.80000305176</ele>
        <time>2022-03-31T09:35:25.000Z</time>
      </trkpt>
      <trkpt lat="47.33438" lon="-2.34914">
        <ele>187.80000305176</ele>
        <time>2022-03-31T09:35:27.000Z</time>
      </trkpt>
      <trkpt lat="47.33419" lon="-2.34925">
        <ele>187.80000305176</ele>
        <time>2022-03-31T09:35:32.000Z</time>
      </trkpt>
      <trkpt lat="47.33414" lon="-2.34927">
        <ele>187.80000305176</ele>
        <time>2022-03-31T09:35:33.000Z</time>
      </trkpt>
      <trkpt lat="47.33391" lon="-2.34932">
        <ele>187.80000305176</ele>
        <time>2022-03-31T09:35:38.000Z</time>
      </trkpt>
      <trkpt lat="47.33382" lon="-2.3493">
        <ele>187.80000305176</ele>
        <time>2022-03-31T09:35:41.000Z</time>
      </trkpt>
      <trkpt lat="47.3338" lon="-2.34932">
        <ele>187.80000305176</ele>
        <time>2022-03-31T09:35:42.000Z</time>
      </trkpt>
      <trkpt lat="47.3337" lon="-2.34932">
        <ele>187.80000305176</ele>
        <time>2022-03-31T09:35:46.000Z</time>
      </trkpt>
      <trkpt lat="47.33363" lon="-2.34933">
        <ele>187.80000305176</ele>
        <time>2022-03-31T09:35:48.000Z</time>
      </trkpt>
      <trkpt lat="47.33349" lon="-2.34936">
        <ele>187.80000305176</ele>
        <time>2022-03-31T09:35:53.000Z</time>
      </trkpt>
      <trkpt lat="47.33346" lon="-2.34937">
        <ele>187.80000305176</ele>
        <time>2022-03-31T09:35:55.000Z</time>
      </trkpt>
      <trkpt lat="47.33344" lon="-2.34938">
        <ele>187.80000305176</ele>
        <time>2022-03-31T09:35:57.000Z</time>
      </trkpt>
      <trkpt lat="47.33337" lon="-2.34933">
        <ele>187.80000305176</ele>
        <time>2022-03-31T09:36:02.000Z</time>
      </trkpt>
      <trkpt lat="47.33335" lon="-2.34932">
        <ele>187.80000305176</ele>
        <time>2022-03-31T09:36:04.000Z</time>
      </trkpt>
      <trkpt lat="47.33334" lon="-2.34933">
        <ele>187.80000305176</ele>
        <time>2022-03-31T09:36:05.000Z</time>
      </trkpt>
      <trkpt lat="47.33331" lon="-2.34933">
        <ele>187.80000305176</ele>
        <time>2022-03-31T09:36:07.000Z</time>
      </trkpt>
      <trkpt lat="47.33325" lon="-2.34933">
        <ele>187.39999389648</ele>
        <time>2022-03-31T09:36:11.000Z</time>
      </trkpt>
      <trkpt lat="47.33324" lon="-2.34934">
        <ele>187</ele>
        <time>2022-03-31T09:36:12.000Z</time>
      </trkpt>
      <trkpt lat="47.33323" lon="-2.34934">
        <ele>186.60000610352</ele>
        <time>2022-03-31T09:36:13.000Z</time>
      </trkpt>
      <trkpt lat="47.33322" lon="-2.34934">
        <ele>186.19999694824</ele>
        <time>2022-03-31T09:36:14.000Z</time>
      </trkpt>
      <trkpt lat="47.3332" lon="-2.34935">
        <ele>185.80000305176</ele>
        <time>2022-03-31T09:36:15.000Z</time>
      </trkpt>
      <trkpt lat="47.3331" lon="-2.34936">
        <ele>185.80000305176</ele>
        <time>2022-03-31T09:36:19.000Z</time>
      </trkpt>
      <trkpt lat="47.33297" lon="-2.34937">
        <ele>185.80000305176</ele>
        <time>2022-03-31T09:36:24.000Z</time>
      </trkpt>
      <trkpt lat="47.3328" lon="-2.34938">
        <ele>185.80000305176</ele>
        <time>2022-03-31T09:36:30.000Z</time>
      </trkpt>
      <trkpt lat="47.33265" lon="-2.34945">
        <ele>185.80000305176</ele>
        <time>2022-03-31T09:36:36.000Z</time>
      </trkpt>
      <trkpt lat="47.33262" lon="-2.34946">
        <ele>185.80000305176</ele>
        <time>2022-03-31T09:36:37.000Z</time>
      </trkpt>
      <trkpt lat="47.33254" lon="-2.34949">
        <ele>185.80000305176</ele>
        <time>2022-03-31T09:36:40.000Z</time>
      </trkpt>
      <trkpt lat="47.33243" lon="-2.34951">
        <ele>185.80000305176</ele>
        <time>2022-03-31T09:36:44.000Z</time>
      </trkpt>
      <trkpt lat="47.33227" lon="-2.3496">
        <ele>185.80000305176</ele>
        <time>2022-03-31T09:36:49.000Z</time>
      </trkpt>
      <trkpt lat="47.33206" lon="-2.34979">
        <ele>185.80000305176</ele>
        <time>2022-03-31T09:36:56.000Z</time>
      </trkpt>
      <trkpt lat="47.33191" lon="-2.34997">
        <ele>185.80000305176</ele>
        <time>2022-03-31T09:37:01.000Z</time>
      </trkpt>
      <trkpt lat="47.33172" lon="-2.35014">
        <ele>185.80000305176</ele>
        <time>2022-03-31T09:37:07.000Z</time>
      </trkpt>
      <trkpt lat="47.33164" lon="-2.35008">
        <ele>185.80000305176</ele>
        <time>2022-03-31T09:37:10.000Z</time>
      </trkpt>
      <trkpt lat="47.33155" lon="-2.35001">
        <ele>185.80000305176</ele>
        <time>2022-03-31T09:37:14.000Z</time>
      </trkpt>
      <trkpt lat="47.3315" lon="-2.35008">
        <ele>185.80000305176</ele>
        <time>2022-03-31T09:37:18.000Z</time>
      </trkpt>
      <trkpt lat="47.33142" lon="-2.35023">
        <ele>185.80000305176</ele>
        <time>2022-03-31T09:37:23.000Z</time>
      </trkpt>
      <trkpt lat="47.33132" lon="-2.35039">
        <ele>185.80000305176</ele>
        <time>2022-03-31T09:37:28.000Z</time>
      </trkpt>
      <trkpt lat="47.3312" lon="-2.35059">
        <ele>185.80000305176</ele>
        <time>2022-03-31T09:37:33.000Z</time>
      </trkpt>
      <trkpt lat="47.33109" lon="-2.35071">
        <ele>185.80000305176</ele>
        <time>2022-03-31T09:37:36.000Z</time>
      </trkpt>
      <trkpt lat="47.33107" lon="-2.35075">
        <ele>185.80000305176</ele>
        <time>2022-03-31T09:37:37.000Z</time>
      </trkpt>
      <trkpt lat="47.33097" lon="-2.35087">
        <ele>185.80000305176</ele>
        <time>2022-03-31T09:37:40.000Z</time>
      </trkpt>
      <trkpt lat="47.3309" lon="-2.35096">
        <ele>185.80000305176</ele>
        <time>2022-03-31T09:37:42.000Z</time>
      </trkpt>
      <trkpt lat="47.33087" lon="-2.35101">
        <ele>185.80000305176</ele>
        <time>2022-03-31T09:37:43.000Z</time>
      </trkpt>
      <trkpt lat="47.33075" lon="-2.35121">
        <ele>185.80000305176</ele>
        <time>2022-03-31T09:37:47.000Z</time>
      </trkpt>
      <trkpt lat="47.33068" lon="-2.35131">
        <ele>185.80000305176</ele>
        <time>2022-03-31T09:37:49.000Z</time>
      </trkpt>
      <trkpt lat="47.33061" lon="-2.3514">
        <ele>185.80000305176</ele>
        <time>2022-03-31T09:37:51.000Z</time>
      </trkpt>
      <trkpt lat="47.33059" lon="-2.35147">
        <ele>186.19999694824</ele>
        <time>2022-03-31T09:37:52.000Z</time>
      </trkpt>
      <trkpt lat="47.33057" lon="-2.35154">
        <ele>186.60000610352</ele>
        <time>2022-03-31T09:37:53.000Z</time>
      </trkpt>
      <trkpt lat="47.33055" lon="-2.3516">
        <ele>187</ele>
        <time>2022-03-31T09:37:54.000Z</time>
      </trkpt>
      <trkpt lat="47.33053" lon="-2.35165">
        <ele>187.39999389648</ele>
        <time>2022-03-31T09:37:55.000Z</time>
      </trkpt>
      <trkpt lat="47.33049" lon="-2.35171">
        <ele>187.80000305176</ele>
        <time>2022-03-31T09:37:56.000Z</time>
      </trkpt>
      <trkpt lat="47.33036" lon="-2.35178">
        <ele>187.80000305176</ele>
        <time>2022-03-31T09:38:00.000Z</time>
      </trkpt>
      <trkpt lat="47.33028" lon="-2.35165">
        <ele>187.80000305176</ele>
        <time>2022-03-31T09:38:03.000Z</time>
      </trkpt>
      <trkpt lat="47.33025" lon="-2.35153">
        <ele>187.80000305176</ele>
        <time>2022-03-31T09:38:05.000Z</time>
      </trkpt>
      <trkpt lat="47.33024" lon="-2.35142">
        <ele>187.80000305176</ele>
        <time>2022-03-31T09:38:07.000Z</time>
      </trkpt>
      <trkpt lat="47.33019" lon="-2.35104">
        <ele>187.80000305176</ele>
        <time>2022-03-31T09:38:13.000Z</time>
      </trkpt>
      <trkpt lat="47.33017" lon="-2.35091">
        <ele>187.80000305176</ele>
        <time>2022-03-31T09:38:15.000Z</time>
      </trkpt>
      <trkpt lat="47.33013" lon="-2.35074">
        <ele>187.80000305176</ele>
        <time>2022-03-31T09:38:18.000Z</time>
      </trkpt>
      <trkpt lat="47.33006" lon="-2.35053">
        <ele>187.80000305176</ele>
        <time>2022-03-31T09:38:22.000Z</time>
      </trkpt>
      <trkpt lat="47.33004" lon="-2.35043">
        <ele>187.80000305176</ele>
        <time>2022-03-31T09:38:24.000Z</time>
      </trkpt>
      <trkpt lat="47.32999" lon="-2.35032">
        <ele>187.80000305176</ele>
        <time>2022-03-31T09:38:27.000Z</time>
      </trkpt>
      <trkpt lat="47.32998" lon="-2.35028">
        <ele>187.80000305176</ele>
        <time>2022-03-31T09:38:28.000Z</time>
      </trkpt>
      <trkpt lat="47.32997" lon="-2.35024">
        <ele>187.39999389648</ele>
        <time>2022-03-31T09:38:29.000Z</time>
      </trkpt>
      <trkpt lat="47.32996" lon="-2.3502">
        <ele>187</ele>
        <time>2022-03-31T09:38:30.000Z</time>
      </trkpt>
      <trkpt lat="47.32994" lon="-2.35015">
        <ele>186.60000610352</ele>
        <time>2022-03-31T09:38:31.000Z</time>
      </trkpt>
      <trkpt lat="47.32992" lon="-2.3501">
        <ele>186.19999694824</ele>
        <time>2022-03-31T09:38:32.000Z</time>
      </trkpt>
      <trkpt lat="47.32991" lon="-2.35004">
        <ele>185.80000305176</ele>
        <time>2022-03-31T09:38:33.000Z</time>
      </trkpt>
      <trkpt lat="47.32982" lon="-2.34984">
        <ele>185.80000305176</ele>
        <time>2022-03-31T09:38:37.000Z</time>
      </trkpt>
      <trkpt lat="47.32976" lon="-2.34966">
        <ele>185.80000305176</ele>
        <time>2022-03-31T09:38:42.000Z</time>
      </trkpt>
      <trkpt lat="47.32971" lon="-2.34948">
        <ele>185.80000305176</ele>
        <time>2022-03-31T09:38:48.000Z</time>
      </trkpt>
      <trkpt lat="47.32966" lon="-2.34923">
        <ele>185.80000305176</ele>
        <time>2022-03-31T09:38:53.000Z</time>
      </trkpt>
      <trkpt lat="47.32961" lon="-2.349">
        <ele>185.80000305176</ele>
        <time>2022-03-31T09:38:57.000Z</time>
      </trkpt>
      <trkpt lat="47.32958" lon="-2.34893">
        <ele>185.80000305176</ele>
        <time>2022-03-31T09:38:58.000Z</time>
      </trkpt>
      <trkpt lat="47.3294" lon="-2.34849">
        <ele>185.80000305176</ele>
        <time>2022-03-31T09:39:04.000Z</time>
      </trkpt>
      <trkpt lat="47.32932" lon="-2.34827">
        <ele>185.80000305176</ele>
        <time>2022-03-31T09:39:07.000Z</time>
      </trkpt>
      <trkpt lat="47.32929" lon="-2.3482">
        <ele>185.39999389648</ele>
        <time>2022-03-31T09:39:08.000Z</time>
      </trkpt>
      <trkpt lat="47.32926" lon="-2.34814">
        <ele>185</ele>
        <time>2022-03-31T09:39:09.000Z</time>
      </trkpt>
      <trkpt lat="47.32923" lon="-2.34809">
        <ele>184.60000610352</ele>
        <time>2022-03-31T09:39:10.000Z</time>
      </trkpt>
      <trkpt lat="47.3292" lon="-2.34803">
        <ele>184.19999694824</ele>
        <time>2022-03-31T09:39:11.000Z</time>
      </trkpt>
      <trkpt lat="47.32916" lon="-2.34798">
        <ele>183.60000610352</ele>
        <time>2022-03-31T09:39:12.000Z</time>
      </trkpt>
      <trkpt lat="47.32908" lon="-2.34792">
        <ele>183.60000610352</ele>
        <time>2022-03-31T09:39:14.000Z</time>
      </trkpt>
      <trkpt lat="47.32904" lon="-2.34793">
        <ele>183.60000610352</ele>
        <time>2022-03-31T09:39:15.000Z</time>
      </trkpt>
      <trkpt lat="47.32895" lon="-2.34796">
        <ele>183.60000610352</ele>
        <time>2022-03-31T09:39:17.000Z</time>
      </trkpt>
      <trkpt lat="47.32887" lon="-2.348">
        <ele>183.60000610352</ele>
        <time>2022-03-31T09:39:19.000Z</time>
      </trkpt>
      <trkpt lat="47.32876" lon="-2.34807">
        <ele>183.60000610352</ele>
        <time>2022-03-31T09:39:22.000Z</time>
      </trkpt>
      <trkpt lat="47.3286" lon="-2.34815">
        <ele>183.60000610352</ele>
        <time>2022-03-31T09:39:27.000Z</time>
      </trkpt>
      <trkpt lat="47.32836" lon="-2.34831">
        <ele>183.60000610352</ele>
        <time>2022-03-31T09:39:34.000Z</time>
      </trkpt>
      <trkpt lat="47.32809" lon="-2.34851">
        <ele>183.60000610352</ele>
        <time>2022-03-31T09:39:42.000Z</time>
      </trkpt>
      <trkpt lat="47.32788" lon="-2.34867">
        <ele>183.60000610352</ele>
        <time>2022-03-31T09:39:48.000Z</time>
      </trkpt>
      <trkpt lat="47.32762" lon="-2.34886">
        <ele>183.60000610352</ele>
        <time>2022-03-31T09:39:55.000Z</time>
      </trkpt>
      <trkpt lat="47.32758" lon="-2.34889">
        <ele>184</ele>
        <time>2022-03-31T09:39:56.000Z</time>
      </trkpt>
      <trkpt lat="47.32753" lon="-2.34892">
        <ele>184.39999389648</ele>
        <time>2022-03-31T09:39:57.000Z</time>
      </trkpt>
      <trkpt lat="47.32749" lon="-2.34895">
        <ele>184.80000305176</ele>
        <time>2022-03-31T09:39:58.000Z</time>
      </trkpt>
      <trkpt lat="47.32745" lon="-2.34897">
        <ele>185.39999389648</ele>
        <time>2022-03-31T09:39:59.000Z</time>
      </trkpt>
      <trkpt lat="47.32742" lon="-2.349">
        <ele>185.80000305176</ele>
        <time>2022-03-31T09:40:00.000Z</time>
      </trkpt>
      <trkpt lat="47.32738" lon="-2.34903">
        <ele>185.80000305176</ele>
        <time>2022-03-31T09:40:01.000Z</time>
      </trkpt>
      <trkpt lat="47.32718" lon="-2.34917">
        <ele>185.80000305176</ele>
        <time>2022-03-31T09:40:06.000Z</time>
      </trkpt>
      <trkpt lat="47.32698" lon="-2.34931">
        <ele>185.80000305176</ele>
        <time>2022-03-31T09:40:12.000Z</time>
      </trkpt>
      <trkpt lat="47.32676" lon="-2.34945">
        <ele>185.80000305176</ele>
        <time>2022-03-31T09:40:18.000Z</time>
      </trkpt>
      <trkpt lat="47.32659" lon="-2.34956">
        <ele>185.80000305176</ele>
        <time>2022-03-31T09:40:23.000Z</time>
      </trkpt>
      <trkpt lat="47.3264" lon="-2.34966">
        <ele>185.80000305176</ele>
        <time>2022-03-31T09:40:28.000Z</time>
      </trkpt>
      <trkpt lat="47.32629" lon="-2.34973">
        <ele>186.19999694824</ele>
        <time>2022-03-31T09:40:31.000Z</time>
      </trkpt>
      <trkpt lat="47.32624" lon="-2.34975">
        <ele>186.60000610352</ele>
        <time>2022-03-31T09:40:32.000Z</time>
      </trkpt>
      <trkpt lat="47.3262" lon="-2.34976">
        <ele>187</ele>
        <time>2022-03-31T09:40:33.000Z</time>
      </trkpt>
      <trkpt lat="47.32617" lon="-2.34977">
        <ele>187.39999389648</ele>
        <time>2022-03-31T09:40:34.000Z</time>
      </trkpt>
      <trkpt lat="47.32613" lon="-2.34979">
        <ele>187.80000305176</ele>
        <time>2022-03-31T09:40:35.000Z</time>
      </trkpt>
      <trkpt lat="47.32596" lon="-2.34986">
        <ele>187.80000305176</ele>
        <time>2022-03-31T09:40:39.000Z</time>
      </trkpt>
      <trkpt lat="47.32573" lon="-2.34996">
        <ele>187.80000305176</ele>
        <time>2022-03-31T09:40:46.000Z</time>
      </trkpt>
      <trkpt lat="47.32554" lon="-2.35006">
        <ele>187.80000305176</ele>
        <time>2022-03-31T09:40:52.000Z</time>
      </trkpt>
      <trkpt lat="47.32531" lon="-2.35015">
        <ele>187.80000305176</ele>
        <time>2022-03-31T09:40:58.000Z</time>
      </trkpt>
      <trkpt lat="47.32515" lon="-2.35019">
        <ele>188.19999694824</ele>
        <time>2022-03-31T09:41:02.000Z</time>
      </trkpt>
      <trkpt lat="47.32511" lon="-2.3502">
        <ele>188.60000610352</ele>
        <time>2022-03-31T09:41:03.000Z</time>
      </trkpt>
      <trkpt lat="47.32508" lon="-2.35022">
        <ele>189</ele>
        <time>2022-03-31T09:41:04.000Z</time>
      </trkpt>
      <trkpt lat="47.32504" lon="-2.35023">
        <ele>189.39999389648</ele>
        <time>2022-03-31T09:41:05.000Z</time>
      </trkpt>
      <trkpt lat="47.325" lon="-2.35024">
        <ele>189.80000305176</ele>
        <time>2022-03-31T09:41:06.000Z</time>
      </trkpt>
      <trkpt lat="47.32475" lon="-2.35031">
        <ele>189.80000305176</ele>
        <time>2022-03-31T09:41:12.000Z</time>
      </trkpt>
      <trkpt lat="47.32455" lon="-2.35036">
        <ele>189.80000305176</ele>
        <time>2022-03-31T09:41:17.000Z</time>
      </trkpt>
      <trkpt lat="47.32429" lon="-2.35043">
        <ele>189.80000305176</ele>
        <time>2022-03-31T09:41:23.000Z</time>
      </trkpt>
      <trkpt lat="47.32412" lon="-2.35047">
        <ele>189.80000305176</ele>
        <time>2022-03-31T09:41:27.000Z</time>
      </trkpt>
      <trkpt lat="47.32403" lon="-2.35047">
        <ele>189.80000305176</ele>
        <time>2022-03-31T09:41:29.000Z</time>
      </trkpt>
      <trkpt lat="47.32374" lon="-2.35047">
        <ele>189.80000305176</ele>
        <time>2022-03-31T09:41:36.000Z</time>
      </trkpt>
      <trkpt lat="47.32362" lon="-2.35048">
        <ele>189.80000305176</ele>
        <time>2022-03-31T09:41:39.000Z</time>
      </trkpt>
      <trkpt lat="47.32353" lon="-2.35047">
        <ele>189.80000305176</ele>
        <time>2022-03-31T09:41:41.000Z</time>
      </trkpt>
      <trkpt lat="47.32339" lon="-2.35047">
        <ele>189.80000305176</ele>
        <time>2022-03-31T09:41:44.000Z</time>
      </trkpt>
      <trkpt lat="47.32327" lon="-2.35047">
        <ele>189.80000305176</ele>
        <time>2022-03-31T09:41:47.000Z</time>
      </trkpt>
      <trkpt lat="47.32322" lon="-2.35046">
        <ele>189.80000305176</ele>
        <time>2022-03-31T09:41:48.000Z</time>
      </trkpt>
      <trkpt lat="47.32306" lon="-2.35046">
        <ele>189.80000305176</ele>
        <time>2022-03-31T09:41:51.000Z</time>
      </trkpt>
      <trkpt lat="47.32263" lon="-2.35048">
        <ele>189.80000305176</ele>
        <time>2022-03-31T09:41:59.000Z</time>
      </trkpt>
      <trkpt lat="47.32257" lon="-2.35049">
        <ele>189.39999389648</ele>
        <time>2022-03-31T09:42:00.000Z</time>
      </trkpt>
      <trkpt lat="47.32251" lon="-2.3505">
        <ele>189</ele>
        <time>2022-03-31T09:42:01.000Z</time>
      </trkpt>
      <trkpt lat="47.32246" lon="-2.35051">
        <ele>188.60000610352</ele>
        <time>2022-03-31T09:42:02.000Z</time>
      </trkpt>
      <trkpt lat="47.32241" lon="-2.35051">
        <ele>188.19999694824</ele>
        <time>2022-03-31T09:42:03.000Z</time>
      </trkpt>
      <trkpt lat="47.32236" lon="-2.35052">
        <ele>187.80000305176</ele>
        <time>2022-03-31T09:42:04.000Z</time>
      </trkpt>
      <trkpt lat="47.32231" lon="-2.35054">
        <ele>187.80000305176</ele>
        <time>2022-03-31T09:42:05.000Z</time>
      </trkpt>
      <trkpt lat="47.32214" lon="-2.35056">
        <ele>187.80000305176</ele>
        <time>2022-03-31T09:42:08.000Z</time>
      </trkpt>
      <trkpt lat="47.32178" lon="-2.35059">
        <ele>187.80000305176</ele>
        <time>2022-03-31T09:42:14.000Z</time>
      </trkpt>
      <trkpt lat="47.32151" lon="-2.35063">
        <ele>187.80000305176</ele>
        <time>2022-03-31T09:42:19.000Z</time>
      </trkpt>
      <trkpt lat="47.32124" lon="-2.35062">
        <ele>187.39999389648</ele>
        <time>2022-03-31T09:42:24.000Z</time>
      </trkpt>
      <trkpt lat="47.32118" lon="-2.35062">
        <ele>187</ele>
        <time>2022-03-31T09:42:25.000Z</time>
      </trkpt>
      <trkpt lat="47.32113" lon="-2.35062">
        <ele>186.60000610352</ele>
        <time>2022-03-31T09:42:26.000Z</time>
      </trkpt>
      <trkpt lat="47.32107" lon="-2.35062">
        <ele>186.19999694824</ele>
        <time>2022-03-31T09:42:27.000Z</time>
      </trkpt>
      <trkpt lat="47.32101" lon="-2.35062">
        <ele>185.80000305176</ele>
        <time>2022-03-31T09:42:28.000Z</time>
      </trkpt>
      <trkpt lat="47.32091" lon="-2.35062">
        <ele>185.80000305176</ele>
        <time>2022-03-31T09:42:30.000Z</time>
      </trkpt>
      <trkpt lat="47.32087" lon="-2.35062">
        <ele>185.80000305176</ele>
        <time>2022-03-31T09:42:31.000Z</time>
      </trkpt>
      <trkpt lat="47.32059" lon="-2.35061">
        <ele>185.80000305176</ele>
        <time>2022-03-31T09:42:37.000Z</time>
      </trkpt>
      <trkpt lat="47.32041" lon="-2.3506">
        <ele>185.80000305176</ele>
        <time>2022-03-31T09:42:41.000Z</time>
      </trkpt>
      <trkpt lat="47.32034" lon="-2.35069">
        <ele>185.80000305176</ele>
        <time>2022-03-31T09:42:43.000Z</time>
      </trkpt>
      <trkpt lat="47.32036" lon="-2.35084">
        <ele>185.80000305176</ele>
        <time>2022-03-31T09:42:46.000Z</time>
      </trkpt>
      <trkpt lat="47.32037" lon="-2.35116">
        <ele>185.80000305176</ele>
        <time>2022-03-31T09:42:51.000Z</time>
      </trkpt>
      <trkpt lat="47.32028" lon="-2.35128">
        <ele>185.80000305176</ele>
        <time>2022-03-31T09:42:54.000Z</time>
      </trkpt>
      <trkpt lat="47.3202" lon="-2.35136">
        <ele>185.80000305176</ele>
        <time>2022-03-31T09:42:56.000Z</time>
      </trkpt>
      <trkpt lat="47.32007" lon="-2.35149">
        <ele>185.80000305176</ele>
        <time>2022-03-31T09:42:59.000Z</time>
      </trkpt>
      <trkpt lat="47.31998" lon="-2.35159">
        <ele>185.80000305176</ele>
        <time>2022-03-31T09:43:01.000Z</time>
      </trkpt>
      <trkpt lat="47.31985" lon="-2.35173">
        <ele>185.80000305176</ele>
        <time>2022-03-31T09:43:04.000Z</time>
      </trkpt>
      <trkpt lat="47.31963" lon="-2.35195">
        <ele>185.80000305176</ele>
        <time>2022-03-31T09:43:09.000Z</time>
      </trkpt>
      <trkpt lat="47.31936" lon="-2.3522">
        <ele>185.80000305176</ele>
        <time>2022-03-31T09:43:15.000Z</time>
      </trkpt>
      <trkpt lat="47.31932" lon="-2.35225">
        <ele>185.80000305176</ele>
        <time>2022-03-31T09:43:16.000Z</time>
      </trkpt>
      <trkpt lat="47.31916" lon="-2.3524">
        <ele>185.80000305176</ele>
        <time>2022-03-31T09:43:20.000Z</time>
      </trkpt>
      <trkpt lat="47.31906" lon="-2.35247">
        <ele>185.80000305176</ele>
        <time>2022-03-31T09:43:22.000Z</time>
      </trkpt>
      <trkpt lat="47.31897" lon="-2.35253">
        <ele>185.80000305176</ele>
        <time>2022-03-31T09:43:24.000Z</time>
      </trkpt>
      <trkpt lat="47.3189" lon="-2.3526">
        <ele>186.19999694824</ele>
        <time>2022-03-31T09:43:26.000Z</time>
      </trkpt>
      <trkpt lat="47.31886" lon="-2.35263">
        <ele>186.60000610352</ele>
        <time>2022-03-31T09:43:27.000Z</time>
      </trkpt>
      <trkpt lat="47.31881" lon="-2.35267">
        <ele>187</ele>
        <time>2022-03-31T09:43:28.000Z</time>
      </trkpt>
      <trkpt lat="47.31876" lon="-2.3527">
        <ele>187.39999389648</ele>
        <time>2022-03-31T09:43:29.000Z</time>
      </trkpt>
      <trkpt lat="47.31873" lon="-2.35274">
        <ele>187.80000305176</ele>
        <time>2022-03-31T09:43:30.000Z</time>
      </trkpt>
      <trkpt lat="47.31847" lon="-2.35293">
        <ele>187.80000305176</ele>
        <time>2022-03-31T09:43:36.000Z</time>
      </trkpt>
      <trkpt lat="47.31832" lon="-2.35301">
        <ele>187.80000305176</ele>
        <time>2022-03-31T09:43:39.000Z</time>
      </trkpt>
      <trkpt lat="47.31824" lon="-2.35306">
        <ele>187.80000305176</ele>
        <time>2022-03-31T09:43:41.000Z</time>
      </trkpt>
      <trkpt lat="47.31815" lon="-2.35312">
        <ele>188.19999694824</ele>
        <time>2022-03-31T09:43:43.000Z</time>
      </trkpt>
      <trkpt lat="47.31811" lon="-2.35316">
        <ele>188.60000610352</ele>
        <time>2022-03-31T09:43:44.000Z</time>
      </trkpt>
      <trkpt lat="47.31807" lon="-2.35318">
        <ele>189</ele>
        <time>2022-03-31T09:43:45.000Z</time>
      </trkpt>
      <trkpt lat="47.31803" lon="-2.35321">
        <ele>189.39999389648</ele>
        <time>2022-03-31T09:43:46.000Z</time>
      </trkpt>
      <trkpt lat="47.31799" lon="-2.35323">
        <ele>189.80000305176</ele>
        <time>2022-03-31T09:43:47.000Z</time>
      </trkpt>
      <trkpt lat="47.31792" lon="-2.35326">
        <ele>189.80000305176</ele>
        <time>2022-03-31T09:43:49.000Z</time>
      </trkpt>
      <trkpt lat="47.31785" lon="-2.3533">
        <ele>189.80000305176</ele>
        <time>2022-03-31T09:43:51.000Z</time>
      </trkpt>
      <trkpt lat="47.31781" lon="-2.35334">
        <ele>189.80000305176</ele>
        <time>2022-03-31T09:43:52.000Z</time>
      </trkpt>
      <trkpt lat="47.31764" lon="-2.35347">
        <ele>190.19999694824</ele>
        <time>2022-03-31T09:43:56.000Z</time>
      </trkpt>
      <trkpt lat="47.31761" lon="-2.3535">
        <ele>190.60000610352</ele>
        <time>2022-03-31T09:43:57.000Z</time>
      </trkpt>
      <trkpt lat="47.31758" lon="-2.35354">
        <ele>191</ele>
        <time>2022-03-31T09:43:58.000Z</time>
      </trkpt>
      <trkpt lat="47.31755" lon="-2.35358">
        <ele>191.39999389648</ele>
        <time>2022-03-31T09:43:59.000Z</time>
      </trkpt>
      <trkpt lat="47.31754" lon="-2.35364">
        <ele>191.80000305176</ele>
        <time>2022-03-31T09:44:00.000Z</time>
      </trkpt>
      <trkpt lat="47.31754" lon="-2.35369">
        <ele>191.80000305176</ele>
        <time>2022-03-31T09:44:01.000Z</time>
      </trkpt>
      <trkpt lat="47.31762" lon="-2.35385">
        <ele>191.80000305176</ele>
        <time>2022-03-31T09:44:04.000Z</time>
      </trkpt>
      <trkpt lat="47.31769" lon="-2.35395">
        <ele>191.80000305176</ele>
        <time>2022-03-31T09:44:06.000Z</time>
      </trkpt>
      <trkpt lat="47.31782" lon="-2.35414">
        <ele>191.80000305176</ele>
        <time>2022-03-31T09:44:09.000Z</time>
      </trkpt>
      <trkpt lat="47.31788" lon="-2.35425">
        <ele>191.80000305176</ele>
        <time>2022-03-31T09:44:11.000Z</time>
      </trkpt>
      <trkpt lat="47.31795" lon="-2.35439">
        <ele>191.39999389648</ele>
        <time>2022-03-31T09:44:14.000Z</time>
      </trkpt>
      <trkpt lat="47.31797" lon="-2.35442">
        <ele>191</ele>
        <time>2022-03-31T09:44:15.000Z</time>
      </trkpt>
      <trkpt lat="47.31799" lon="-2.35445">
        <ele>190.39999389648</ele>
        <time>2022-03-31T09:44:16.000Z</time>
      </trkpt>
      <trkpt lat="47.318" lon="-2.35448">
        <ele>190</ele>
        <time>2022-03-31T09:44:17.000Z</time>
      </trkpt>
      <trkpt lat="47.31801" lon="-2.35451">
        <ele>189.60000610352</ele>
        <time>2022-03-31T09:44:18.000Z</time>
      </trkpt>
      <trkpt lat="47.31803" lon="-2.35454">
        <ele>189.60000610352</ele>
        <time>2022-03-31T09:44:19.000Z</time>
      </trkpt>
      <trkpt lat="47.31805" lon="-2.35462">
        <ele>189.60000610352</ele>
        <time>2022-03-31T09:44:23.000Z</time>
      </trkpt>
      <trkpt lat="47.31806" lon="-2.35466">
        <ele>189.19999694824</ele>
        <time>2022-03-31T09:44:25.000Z</time>
      </trkpt>
      <trkpt lat="47.31807" lon="-2.35468">
        <ele>188.80000305176</ele>
        <time>2022-03-31T09:44:26.000Z</time>
      </trkpt>
      <trkpt lat="47.31806" lon="-2.35471">
        <ele>188.39999389648</ele>
        <time>2022-03-31T09:44:27.000Z</time>
      </trkpt>
      <trkpt lat="47.31807" lon="-2.35473">
        <ele>188</ele>
        <time>2022-03-31T09:44:28.000Z</time>
      </trkpt>
      <trkpt lat="47.31807" lon="-2.35477">
        <ele>187.60000610352</ele>
        <time>2022-03-31T09:44:29.000Z</time>
      </trkpt>
      <trkpt lat="47.31813" lon="-2.35498">
        <ele>187.60000610352</ele>
        <time>2022-03-31T09:44:34.000Z</time>
      </trkpt>
      <trkpt lat="47.31818" lon="-2.35504">
        <ele>187.60000610352</ele>
        <time>2022-03-31T09:44:36.000Z</time>
      </trkpt>
      <trkpt lat="47.31821" lon="-2.35513">
        <ele>187.60000610352</ele>
        <time>2022-03-31T09:44:38.000Z</time>
      </trkpt>
      <trkpt lat="47.31825" lon="-2.35522">
        <ele>187.60000610352</ele>
        <time>2022-03-31T09:44:40.000Z</time>
      </trkpt>
      <trkpt lat="47.31825" lon="-2.35532">
        <ele>187.60000610352</ele>
        <time>2022-03-31T09:44:42.000Z</time>
      </trkpt>
      <trkpt lat="47.31824" lon="-2.35535">
        <ele>187.60000610352</ele>
        <time>2022-03-31T09:44:43.000Z</time>
      </trkpt>
      <trkpt lat="47.31815" lon="-2.35552">
        <ele>187.60000610352</ele>
        <time>2022-03-31T09:44:47.000Z</time>
      </trkpt>
      <trkpt lat="47.31803" lon="-2.35569">
        <ele>187.60000610352</ele>
        <time>2022-03-31T09:44:51.000Z</time>
      </trkpt>
      <trkpt lat="47.318" lon="-2.35586">
        <ele>187.60000610352</ele>
        <time>2022-03-31T09:44:54.000Z</time>
      </trkpt>
      <trkpt lat="47.31799" lon="-2.3559">
        <ele>187.60000610352</ele>
        <time>2022-03-31T09:44:55.000Z</time>
      </trkpt>
      <trkpt lat="47.3179" lon="-2.35612">
        <ele>187.60000610352</ele>
        <time>2022-03-31T09:44:59.000Z</time>
      </trkpt>
      <trkpt lat="47.31787" lon="-2.35624">
        <ele>188</ele>
        <time>2022-03-31T09:45:01.000Z</time>
      </trkpt>
      <trkpt lat="47.31786" lon="-2.35631">
        <ele>188.39999389648</ele>
        <time>2022-03-31T09:45:02.000Z</time>
      </trkpt>
      <trkpt lat="47.31785" lon="-2.35637">
        <ele>188.80000305176</ele>
        <time>2022-03-31T09:45:03.000Z</time>
      </trkpt>
      <trkpt lat="47.31784" lon="-2.35643">
        <ele>189.19999694824</ele>
        <time>2022-03-31T09:45:04.000Z</time>
      </trkpt>
      <trkpt lat="47.31783" lon="-2.3565">
        <ele>189.60000610352</ele>
        <time>2022-03-31T09:45:05.000Z</time>
      </trkpt>
      <trkpt lat="47.31782" lon="-2.35682">
        <ele>189.60000610352</ele>
        <time>2022-03-31T09:45:10.000Z</time>
      </trkpt>
      <trkpt lat="47.31781" lon="-2.35695">
        <ele>189.60000610352</ele>
        <time>2022-03-31T09:45:12.000Z</time>
      </trkpt>
      <trkpt lat="47.31779" lon="-2.35707">
        <ele>190.39999389648</ele>
        <time>2022-03-31T09:45:14.000Z</time>
      </trkpt>
      <trkpt lat="47.31779" lon="-2.35712">
        <ele>190.80000305176</ele>
        <time>2022-03-31T09:45:15.000Z</time>
      </trkpt>
      <trkpt lat="47.31779" lon="-2.3572">
        <ele>191.39999389648</ele>
        <time>2022-03-31T09:45:16.000Z</time>
      </trkpt>
      <trkpt lat="47.31779" lon="-2.35724">
        <ele>191.80000305176</ele>
        <time>2022-03-31T09:45:17.000Z</time>
      </trkpt>
      <trkpt lat="47.31779" lon="-2.35736">
        <ele>191.80000305176</ele>
        <time>2022-03-31T09:45:19.000Z</time>
      </trkpt>
      <trkpt lat="47.31778" lon="-2.35764">
        <ele>191.80000305176</ele>
        <time>2022-03-31T09:45:23.000Z</time>
      </trkpt>
      <trkpt lat="47.31778" lon="-2.35778">
        <ele>191.80000305176</ele>
        <time>2022-03-31T09:45:25.000Z</time>
      </trkpt>
      <trkpt lat="47.31779" lon="-2.35784">
        <ele>192.19999694824</ele>
        <time>2022-03-31T09:45:26.000Z</time>
      </trkpt>
      <trkpt lat="47.31782" lon="-2.3579">
        <ele>192.60000610352</ele>
        <time>2022-03-31T09:45:27.000Z</time>
      </trkpt>
      <trkpt lat="47.31787" lon="-2.35796">
        <ele>193</ele>
        <time>2022-03-31T09:45:28.000Z</time>
      </trkpt>
      <trkpt lat="47.31793" lon="-2.358">
        <ele>193.39999389648</ele>
        <time>2022-03-31T09:45:29.000Z</time>
      </trkpt>
      <trkpt lat="47.31797" lon="-2.35806">
        <ele>193.80000305176</ele>
        <time>2022-03-31T09:45:30.000Z</time>
      </trkpt>
      <trkpt lat="47.31801" lon="-2.35812">
        <ele>193.80000305176</ele>
        <time>2022-03-31T09:45:31.000Z</time>
      </trkpt>
      <trkpt lat="47.31805" lon="-2.35816">
        <ele>193.80000305176</ele>
        <time>2022-03-31T09:45:32.000Z</time>
      </trkpt>
      <trkpt lat="47.31817" lon="-2.35843">
        <ele>193.80000305176</ele>
        <time>2022-03-31T09:45:37.000Z</time>
      </trkpt>
      <trkpt lat="47.3182" lon="-2.35862">
        <ele>193.80000305176</ele>
        <time>2022-03-31T09:45:40.000Z</time>
      </trkpt>
      <trkpt lat="47.31817" lon="-2.35869">
        <ele>193.80000305176</ele>
        <time>2022-03-31T09:45:41.000Z</time>
      </trkpt>
      <trkpt lat="47.31805" lon="-2.35879">
        <ele>193.80000305176</ele>
        <time>2022-03-31T09:45:44.000Z</time>
      </trkpt>
      <trkpt lat="47.31792" lon="-2.35887">
        <ele>193.80000305176</ele>
        <time>2022-03-31T09:45:47.000Z</time>
      </trkpt>
      <trkpt lat="47.31783" lon="-2.35892">
        <ele>193.80000305176</ele>
        <time>2022-03-31T09:45:49.000Z</time>
      </trkpt>
      <trkpt lat="47.31755" lon="-2.35911">
        <ele>193.80000305176</ele>
        <time>2022-03-31T09:45:55.000Z</time>
      </trkpt>
      <trkpt lat="47.31729" lon="-2.35928">
        <ele>193.80000305176</ele>
        <time>2022-03-31T09:46:01.000Z</time>
      </trkpt>
      <trkpt lat="47.3172" lon="-2.35933">
        <ele>194.19999694824</ele>
        <time>2022-03-31T09:46:03.000Z</time>
      </trkpt>
      <trkpt lat="47.31715" lon="-2.35936">
        <ele>194.60000610352</ele>
        <time>2022-03-31T09:46:04.000Z</time>
      </trkpt>
      <trkpt lat="47.31711" lon="-2.35939">
        <ele>195</ele>
        <time>2022-03-31T09:46:05.000Z</time>
      </trkpt>
      <trkpt lat="47.31706" lon="-2.35942">
        <ele>195.39999389648</ele>
        <time>2022-03-31T09:46:06.000Z</time>
      </trkpt>
      <trkpt lat="47.31701" lon="-2.35944">
        <ele>196</ele>
        <time>2022-03-31T09:46:07.000Z</time>
      </trkpt>
      <trkpt lat="47.31675" lon="-2.3596">
        <ele>196</ele>
        <time>2022-03-31T09:46:13.000Z</time>
      </trkpt>
      <trkpt lat="47.3165" lon="-2.35975">
        <ele>196</ele>
        <time>2022-03-31T09:46:19.000Z</time>
      </trkpt>
      <trkpt lat="47.31632" lon="-2.3599">
        <ele>196</ele>
        <time>2022-03-31T09:46:23.000Z</time>
      </trkpt>
      <trkpt lat="47.31627" lon="-2.35993">
        <ele>196</ele>
        <time>2022-03-31T09:46:24.000Z</time>
      </trkpt>
      <trkpt lat="47.31611" lon="-2.36012">
        <ele>196.39999389648</ele>
        <time>2022-03-31T09:46:28.000Z</time>
      </trkpt>
      <trkpt lat="47.31607" lon="-2.36017">
        <ele>196.80000305176</ele>
        <time>2022-03-31T09:46:29.000Z</time>
      </trkpt>
      <trkpt lat="47.31603" lon="-2.36021">
        <ele>197.19999694824</ele>
        <time>2022-03-31T09:46:30.000Z</time>
      </trkpt>
      <trkpt lat="47.31599" lon="-2.36026">
        <ele>197.60000610352</ele>
        <time>2022-03-31T09:46:31.000Z</time>
      </trkpt>
      <trkpt lat="47.31595" lon="-2.3603">
        <ele>198</ele>
        <time>2022-03-31T09:46:32.000Z</time>
      </trkpt>
      <trkpt lat="47.31578" lon="-2.36046">
        <ele>198</ele>
        <time>2022-03-31T09:46:36.000Z</time>
      </trkpt>
      <trkpt lat="47.31555" lon="-2.36071">
        <ele>198</ele>
        <time>2022-03-31T09:46:42.000Z</time>
      </trkpt>
      <trkpt lat="47.31537" lon="-2.36092">
        <ele>198.39999389648</ele>
        <time>2022-03-31T09:46:47.000Z</time>
      </trkpt>
      <trkpt lat="47.31532" lon="-2.36096">
        <ele>198.80000305176</ele>
        <time>2022-03-31T09:46:48.000Z</time>
      </trkpt>
      <trkpt lat="47.31528" lon="-2.36101">
        <ele>199.19999694824</ele>
        <time>2022-03-31T09:46:49.000Z</time>
      </trkpt>
      <trkpt lat="47.31524" lon="-2.36105">
        <ele>199.60000610352</ele>
        <time>2022-03-31T09:46:50.000Z</time>
      </trkpt>
      <trkpt lat="47.3152" lon="-2.3611">
        <ele>200</ele>
        <time>2022-03-31T09:46:51.000Z</time>
      </trkpt>
      <trkpt lat="47.31508" lon="-2.36123">
        <ele>200</ele>
        <time>2022-03-31T09:46:54.000Z</time>
      </trkpt>
      <trkpt lat="47.31497" lon="-2.36139">
        <ele>200</ele>
        <time>2022-03-31T09:46:57.000Z</time>
      </trkpt>
      <trkpt lat="47.31485" lon="-2.36151">
        <ele>200</ele>
        <time>2022-03-31T09:47:00.000Z</time>
      </trkpt>
      <trkpt lat="47.31469" lon="-2.36169">
        <ele>200</ele>
        <time>2022-03-31T09:47:05.000Z</time>
      </trkpt>
      <trkpt lat="47.31461" lon="-2.36177">
        <ele>200</ele>
        <time>2022-03-31T09:47:10.000Z</time>
      </trkpt>
      <trkpt lat="47.31461" lon="-2.36176">
        <ele>200</ele>
        <time>2022-03-31T09:47:12.000Z</time>
      </trkpt>
      <trkpt lat="47.3146" lon="-2.36173">
        <ele>200</ele>
        <time>2022-03-31T09:49:06.000Z</time>
      </trkpt>
      <trkpt lat="47.31459" lon="-2.36169">
        <ele>200</ele>
        <time>2022-03-31T09:49:07.000Z</time>
      </trkpt>
      <trkpt lat="47.31455" lon="-2.36147">
        <ele>200</ele>
        <time>2022-03-31T09:49:13.000Z</time>
      </trkpt>
      <trkpt lat="47.31445" lon="-2.36119">
        <ele>200</ele>
        <time>2022-03-31T09:49:18.000Z</time>
      </trkpt>
      <trkpt lat="47.31431" lon="-2.3608">
        <ele>200</ele>
        <time>2022-03-31T09:49:24.000Z</time>
      </trkpt>
      <trkpt lat="47.31414" lon="-2.36028">
        <ele>200</ele>
        <time>2022-03-31T09:49:30.000Z</time>
      </trkpt>
      <trkpt lat="47.314" lon="-2.35994">
        <ele>199.60000610352</ele>
        <time>2022-03-31T09:49:34.000Z</time>
      </trkpt>
      <trkpt lat="47.31396" lon="-2.35986">
        <ele>199</ele>
        <time>2022-03-31T09:49:35.000Z</time>
      </trkpt>
      <trkpt lat="47.31393" lon="-2.35975">
        <ele>198.60000610352</ele>
        <time>2022-03-31T09:49:36.000Z</time>
      </trkpt>
      <trkpt lat="47.3139" lon="-2.35966">
        <ele>198.19999694824</ele>
        <time>2022-03-31T09:49:37.000Z</time>
      </trkpt>
      <trkpt lat="47.31386" lon="-2.35957">
        <ele>197.80000305176</ele>
        <time>2022-03-31T09:49:38.000Z</time>
      </trkpt>
      <trkpt lat="47.31373" lon="-2.35933">
        <ele>197.80000305176</ele>
        <time>2022-03-31T09:49:41.000Z</time>
      </trkpt>
      <trkpt lat="47.3135" lon="-2.35885">
        <ele>197.80000305176</ele>
        <time>2022-03-31T09:49:47.000Z</time>
      </trkpt>
      <trkpt lat="47.31339" lon="-2.35857">
        <ele>197.80000305176</ele>
        <time>2022-03-31T09:49:51.000Z</time>
      </trkpt>
      <trkpt lat="47.31338" lon="-2.35849">
        <ele>197.80000305176</ele>
        <time>2022-03-31T09:49:52.000Z</time>
      </trkpt>
      <trkpt lat="47.31335" lon="-2.3582">
        <ele>197.80000305176</ele>
        <time>2022-03-31T09:49:56.000Z</time>
      </trkpt>
      <trkpt lat="47.31333" lon="-2.35805">
        <ele>197.80000305176</ele>
        <time>2022-03-31T09:49:58.000Z</time>
      </trkpt>
      <trkpt lat="47.31329" lon="-2.35764">
        <ele>197.80000305176</ele>
        <time>2022-03-31T09:50:03.000Z</time>
      </trkpt>
      <trkpt lat="47.31329" lon="-2.35741">
        <ele>197.80000305176</ele>
        <time>2022-03-31T09:50:06.000Z</time>
      </trkpt>
      <trkpt lat="47.31329" lon="-2.35732">
        <ele>197.80000305176</ele>
        <time>2022-03-31T09:50:07.000Z</time>
      </trkpt>
      <trkpt lat="47.31329" lon="-2.35699">
        <ele>197.80000305176</ele>
        <time>2022-03-31T09:50:11.000Z</time>
      </trkpt>
      <trkpt lat="47.31328" lon="-2.35643">
        <ele>197.80000305176</ele>
        <time>2022-03-31T09:50:18.000Z</time>
      </trkpt>
      <trkpt lat="47.31326" lon="-2.35592">
        <ele>197.80000305176</ele>
        <time>2022-03-31T09:50:24.000Z</time>
      </trkpt>
      <trkpt lat="47.31327" lon="-2.35537">
        <ele>197.80000305176</ele>
        <time>2022-03-31T09:50:30.000Z</time>
      </trkpt>
      <trkpt lat="47.3133" lon="-2.3547">
        <ele>197.80000305176</ele>
        <time>2022-03-31T09:50:37.000Z</time>
      </trkpt>
      <trkpt lat="47.31331" lon="-2.35424">
        <ele>197.80000305176</ele>
        <time>2022-03-31T09:50:42.000Z</time>
      </trkpt>
      <trkpt lat="47.31335" lon="-2.35363">
        <ele>197.80000305176</ele>
        <time>2022-03-31T09:50:48.000Z</time>
      </trkpt>
      <trkpt lat="47.31336" lon="-2.35297">
        <ele>197.80000305176</ele>
        <time>2022-03-31T09:50:54.000Z</time>
      </trkpt>
      <trkpt lat="47.31339" lon="-2.35221">
        <ele>197.80000305176</ele>
        <time>2022-03-31T09:51:01.000Z</time>
      </trkpt>
      <trkpt lat="47.31341" lon="-2.35138">
        <ele>197.80000305176</ele>
        <time>2022-03-31T09:51:09.000Z</time>
      </trkpt>
      <trkpt lat="47.31342" lon="-2.35108">
        <ele>197.80000305176</ele>
        <time>2022-03-31T09:51:12.000Z</time>
      </trkpt>
      <trkpt lat="47.31342" lon="-2.35033">
        <ele>197.80000305176</ele>
        <time>2022-03-31T09:51:20.000Z</time>
      </trkpt>
      <trkpt lat="47.3134" lon="-2.35001">
        <ele>197</ele>
        <time>2022-03-31T09:51:24.000Z</time>
      </trkpt>
      <trkpt lat="47.31338" lon="-2.34993">
        <ele>196.60000610352</ele>
        <time>2022-03-31T09:51:25.000Z</time>
      </trkpt>
      <trkpt lat="47.31337" lon="-2.34985">
        <ele>196.19999694824</ele>
        <time>2022-03-31T09:51:26.000Z</time>
      </trkpt>
      <trkpt lat="47.31336" lon="-2.34977">
        <ele>195.60000610352</ele>
        <time>2022-03-31T09:51:27.000Z</time>
      </trkpt>
      <trkpt lat="47.31332" lon="-2.3496">
        <ele>195.60000610352</ele>
        <time>2022-03-31T09:51:29.000Z</time>
      </trkpt>
      <trkpt lat="47.31326" lon="-2.34937">
        <ele>195.60000610352</ele>
        <time>2022-03-31T09:51:32.000Z</time>
      </trkpt>
      <trkpt lat="47.31314" lon="-2.34896">
        <ele>195.60000610352</ele>
        <time>2022-03-31T09:51:38.000Z</time>
      </trkpt>
      <trkpt lat="47.31307" lon="-2.34876">
        <ele>195.60000610352</ele>
        <time>2022-03-31T09:51:41.000Z</time>
      </trkpt>
      <trkpt lat="47.31299" lon="-2.34848">
        <ele>195.60000610352</ele>
        <time>2022-03-31T09:51:45.000Z</time>
      </trkpt>
      <trkpt lat="47.31289" lon="-2.34792">
        <ele>195.60000610352</ele>
        <time>2022-03-31T09:51:53.000Z</time>
      </trkpt>
      <trkpt lat="47.31279" lon="-2.34738">
        <ele>195.60000610352</ele>
        <time>2022-03-31T09:52:01.000Z</time>
      </trkpt>
      <trkpt lat="47.31274" lon="-2.34706">
        <ele>195.60000610352</ele>
        <time>2022-03-31T09:52:06.000Z</time>
      </trkpt>
      <trkpt lat="47.31276" lon="-2.34694">
        <ele>195.60000610352</ele>
        <time>2022-03-31T09:52:08.000Z</time>
      </trkpt>
      <trkpt lat="47.31284" lon="-2.34676">
        <ele>195.60000610352</ele>
        <time>2022-03-31T09:52:11.000Z</time>
      </trkpt>
      <trkpt lat="47.31289" lon="-2.34663">
        <ele>195.60000610352</ele>
        <time>2022-03-31T09:52:13.000Z</time>
      </trkpt>
      <trkpt lat="47.31289" lon="-2.3463">
        <ele>195.60000610352</ele>
        <time>2022-03-31T09:52:17.000Z</time>
      </trkpt>
      <trkpt lat="47.31285" lon="-2.3459">
        <ele>195.19999694824</ele>
        <time>2022-03-31T09:52:21.000Z</time>
      </trkpt>
      <trkpt lat="47.31284" lon="-2.34579">
        <ele>194.80000305176</ele>
        <time>2022-03-31T09:52:22.000Z</time>
      </trkpt>
      <trkpt lat="47.31283" lon="-2.34568">
        <ele>194.19999694824</ele>
        <time>2022-03-31T09:52:23.000Z</time>
      </trkpt>
      <trkpt lat="47.31282" lon="-2.34557">
        <ele>193.80000305176</ele>
        <time>2022-03-31T09:52:24.000Z</time>
      </trkpt>
      <trkpt lat="47.31282" lon="-2.34547">
        <ele>193.39999389648</ele>
        <time>2022-03-31T09:52:25.000Z</time>
      </trkpt>
      <trkpt lat="47.31277" lon="-2.34505">
        <ele>193.39999389648</ele>
        <time>2022-03-31T09:52:29.000Z</time>
      </trkpt>
      <trkpt lat="47.31275" lon="-2.34483">
        <ele>193</ele>
        <time>2022-03-31T09:52:31.000Z</time>
      </trkpt>
      <trkpt lat="47.31274" lon="-2.34472">
        <ele>192.39999389648</ele>
        <time>2022-03-31T09:52:32.000Z</time>
      </trkpt>
      <trkpt lat="47.31273" lon="-2.34461">
        <ele>192</ele>
        <time>2022-03-31T09:52:33.000Z</time>
      </trkpt>
      <trkpt lat="47.31271" lon="-2.3445">
        <ele>191.60000610352</ele>
        <time>2022-03-31T09:52:34.000Z</time>
      </trkpt>
      <trkpt lat="47.3127" lon="-2.34438">
        <ele>191.19999694824</ele>
        <time>2022-03-31T09:52:35.000Z</time>
      </trkpt>
      <trkpt lat="47.31265" lon="-2.34404">
        <ele>190.80000305176</ele>
        <time>2022-03-31T09:52:38.000Z</time>
      </trkpt>
      <trkpt lat="47.31263" lon="-2.34392">
        <ele>190</ele>
        <time>2022-03-31T09:52:39.000Z</time>
      </trkpt>
      <trkpt lat="47.31261" lon="-2.34381">
        <ele>189.60000610352</ele>
        <time>2022-03-31T09:52:40.000Z</time>
      </trkpt>
      <trkpt lat="47.31257" lon="-2.34369">
        <ele>189</ele>
        <time>2022-03-31T09:52:41.000Z</time>
      </trkpt>
      <trkpt lat="47.31243" lon="-2.34345">
        <ele>189</ele>
        <time>2022-03-31T09:52:44.000Z</time>
      </trkpt>
      <trkpt lat="47.31221" lon="-2.34333">
        <ele>189</ele>
        <time>2022-03-31T09:52:47.000Z</time>
      </trkpt>
      <trkpt lat="47.31214" lon="-2.34329">
        <ele>188.60000610352</ele>
        <time>2022-03-31T09:52:48.000Z</time>
      </trkpt>
      <trkpt lat="47.31206" lon="-2.34323">
        <ele>188.19999694824</ele>
        <time>2022-03-31T09:52:49.000Z</time>
      </trkpt>
      <trkpt lat="47.312" lon="-2.34317">
        <ele>187.80000305176</ele>
        <time>2022-03-31T09:52:50.000Z</time>
      </trkpt>
      <trkpt lat="47.31194" lon="-2.34309">
        <ele>187.19999694824</ele>
        <time>2022-03-31T09:52:51.000Z</time>
      </trkpt>
      <trkpt lat="47.31188" lon="-2.343">
        <ele>186.80000305176</ele>
        <time>2022-03-31T09:52:52.000Z</time>
      </trkpt>
      <trkpt lat="47.31179" lon="-2.34281">
        <ele>186.80000305176</ele>
        <time>2022-03-31T09:52:54.000Z</time>
      </trkpt>
      <trkpt lat="47.31174" lon="-2.34271">
        <ele>186.80000305176</ele>
        <time>2022-03-31T09:52:55.000Z</time>
      </trkpt>
      <trkpt lat="47.31143" lon="-2.34213">
        <ele>186.80000305176</ele>
        <time>2022-03-31T09:53:02.000Z</time>
      </trkpt>
      <trkpt lat="47.31114" lon="-2.34166">
        <ele>186.80000305176</ele>
        <time>2022-03-31T09:53:09.000Z</time>
      </trkpt>
      <trkpt lat="47.31111" lon="-2.3416">
        <ele>187.19999694824</ele>
        <time>2022-03-31T09:53:10.000Z</time>
      </trkpt>
      <trkpt lat="47.31107" lon="-2.34153">
        <ele>187.60000610352</ele>
        <time>2022-03-31T09:53:11.000Z</time>
      </trkpt>
      <trkpt lat="47.31103" lon="-2.34147">
        <ele>188</ele>
        <time>2022-03-31T09:53:12.000Z</time>
      </trkpt>
      <trkpt lat="47.311" lon="-2.34141">
        <ele>188.39999389648</ele>
        <time>2022-03-31T09:53:13.000Z</time>
      </trkpt>
      <trkpt lat="47.31096" lon="-2.34134">
        <ele>188.80000305176</ele>
        <time>2022-03-31T09:53:14.000Z</time>
      </trkpt>
      <trkpt lat="47.31086" lon="-2.34115">
        <ele>189.19999694824</ele>
        <time>2022-03-31T09:53:17.000Z</time>
      </trkpt>
      <trkpt lat="47.31083" lon="-2.34109">
        <ele>189.80000305176</ele>
        <time>2022-03-31T09:53:18.000Z</time>
      </trkpt>
      <trkpt lat="47.3108" lon="-2.34102">
        <ele>190.19999694824</ele>
        <time>2022-03-31T09:53:19.000Z</time>
      </trkpt>
      <trkpt lat="47.31077" lon="-2.34095">
        <ele>190.60000610352</ele>
        <time>2022-03-31T09:53:20.000Z</time>
      </trkpt>
      <trkpt lat="47.31075" lon="-2.34088">
        <ele>191</ele>
        <time>2022-03-31T09:53:21.000Z</time>
      </trkpt>
      <trkpt lat="47.31068" lon="-2.34066">
        <ele>191.60000610352</ele>
        <time>2022-03-31T09:53:24.000Z</time>
      </trkpt>
      <trkpt lat="47.31066" lon="-2.34058">
        <ele>192</ele>
        <time>2022-03-31T09:53:25.000Z</time>
      </trkpt>
      <trkpt lat="47.31065" lon="-2.3405">
        <ele>192.39999389648</ele>
        <time>2022-03-31T09:53:26.000Z</time>
      </trkpt>
      <trkpt lat="47.31064" lon="-2.34043">
        <ele>192.80000305176</ele>
        <time>2022-03-31T09:53:27.000Z</time>
      </trkpt>
      <trkpt lat="47.31063" lon="-2.34035">
        <ele>193.39999389648</ele>
        <time>2022-03-31T09:53:28.000Z</time>
      </trkpt>
      <trkpt lat="47.31062" lon="-2.34019">
        <ele>193.39999389648</ele>
        <time>2022-03-31T09:53:30.000Z</time>
      </trkpt>
      <trkpt lat="47.31059" lon="-2.33962">
        <ele>193.39999389648</ele>
        <time>2022-03-31T09:53:37.000Z</time>
      </trkpt>
      <trkpt lat="47.31058" lon="-2.33955">
        <ele>193.39999389648</ele>
        <time>2022-03-31T09:53:38.000Z</time>
      </trkpt>
      <trkpt lat="47.31047" lon="-2.33943">
        <ele>193.39999389648</ele>
        <time>2022-03-31T09:53:41.000Z</time>
      </trkpt>
      <trkpt lat="47.31037" lon="-2.33945">
        <ele>193.39999389648</ele>
        <time>2022-03-31T09:53:43.000Z</time>
      </trkpt>
      <trkpt lat="47.31027" lon="-2.33948">
        <ele>193.39999389648</ele>
        <time>2022-03-31T09:53:45.000Z</time>
      </trkpt>
      <trkpt lat="47.31022" lon="-2.33949">
        <ele>193.80000305176</ele>
        <time>2022-03-31T09:53:46.000Z</time>
      </trkpt>
      <trkpt lat="47.31017" lon="-2.3395">
        <ele>194.19999694824</ele>
        <time>2022-03-31T09:53:47.000Z</time>
      </trkpt>
      <trkpt lat="47.31012" lon="-2.33951">
        <ele>194.60000610352</ele>
        <time>2022-03-31T09:53:48.000Z</time>
      </trkpt>
      <trkpt lat="47.31007" lon="-2.33951">
        <ele>195</ele>
        <time>2022-03-31T09:53:49.000Z</time>
      </trkpt>
      <trkpt lat="47.31002" lon="-2.33952">
        <ele>195.39999389648</ele>
        <time>2022-03-31T09:53:50.000Z</time>
      </trkpt>
      <trkpt lat="47.30997" lon="-2.33952">
        <ele>195.39999389648</ele>
        <time>2022-03-31T09:53:51.000Z</time>
      </trkpt>
      <trkpt lat="47.30956" lon="-2.33952">
        <ele>195.80000305176</ele>
        <time>2022-03-31T09:53:59.000Z</time>
      </trkpt>
      <trkpt lat="47.30951" lon="-2.33951">
        <ele>196.19999694824</ele>
        <time>2022-03-31T09:54:00.000Z</time>
      </trkpt>
      <trkpt lat="47.30946" lon="-2.33951">
        <ele>196.60000610352</ele>
        <time>2022-03-31T09:54:01.000Z</time>
      </trkpt>
      <trkpt lat="47.30941" lon="-2.3395">
        <ele>197</ele>
        <time>2022-03-31T09:54:02.000Z</time>
      </trkpt>
      <trkpt lat="47.30935" lon="-2.33949">
        <ele>197.39999389648</ele>
        <time>2022-03-31T09:54:03.000Z</time>
      </trkpt>
      <trkpt lat="47.30914" lon="-2.33946">
        <ele>197.39999389648</ele>
        <time>2022-03-31T09:54:07.000Z</time>
      </trkpt>
      <trkpt lat="47.30875" lon="-2.33949">
        <ele>197.39999389648</ele>
        <time>2022-03-31T09:54:14.000Z</time>
      </trkpt>
      <trkpt lat="47.30835" lon="-2.33956">
        <ele>197.39999389648</ele>
        <time>2022-03-31T09:54:21.000Z</time>
      </trkpt>
      <trkpt lat="47.30798" lon="-2.33966">
        <ele>197.39999389648</ele>
        <time>2022-03-31T09:54:28.000Z</time>
      </trkpt>
      <trkpt lat="47.30784" lon="-2.3397">
        <ele>197.39999389648</ele>
        <time>2022-03-31T09:54:31.000Z</time>
      </trkpt>
      <trkpt lat="47.30781" lon="-2.33975">
        <ele>197.39999389648</ele>
        <time>2022-03-31T09:54:32.000Z</time>
      </trkpt>
      <trkpt lat="47.30777" lon="-2.33994">
        <ele>197.39999389648</ele>
        <time>2022-03-31T09:54:35.000Z</time>
      </trkpt>
      <trkpt lat="47.30776" lon="-2.34">
        <ele>197.39999389648</ele>
        <time>2022-03-31T09:54:36.000Z</time>
      </trkpt>
      <trkpt lat="47.30776" lon="-2.34018">
        <ele>197.39999389648</ele>
        <time>2022-03-31T09:54:39.000Z</time>
      </trkpt>
      <trkpt lat="47.30776" lon="-2.34033">
        <ele>197.39999389648</ele>
        <time>2022-03-31T09:54:41.000Z</time>
      </trkpt>
      <trkpt lat="47.30777" lon="-2.34067">
        <ele>197.39999389648</ele>
        <time>2022-03-31T09:54:46.000Z</time>
      </trkpt>
      <trkpt lat="47.30775" lon="-2.34089">
        <ele>197.39999389648</ele>
        <time>2022-03-31T09:54:49.000Z</time>
      </trkpt>
      <trkpt lat="47.30774" lon="-2.34104">
        <ele>197.39999389648</ele>
        <time>2022-03-31T09:54:51.000Z</time>
      </trkpt>
      <trkpt lat="47.30771" lon="-2.34141">
        <ele>197.39999389648</ele>
        <time>2022-03-31T09:54:56.000Z</time>
      </trkpt>
      <trkpt lat="47.3077" lon="-2.34149">
        <ele>197.39999389648</ele>
        <time>2022-03-31T09:54:57.000Z</time>
      </trkpt>
      <trkpt lat="47.30769" lon="-2.34195">
        <ele>197.39999389648</ele>
        <time>2022-03-31T09:55:03.000Z</time>
      </trkpt>
      <trkpt lat="47.30768" lon="-2.34202">
        <ele>197.39999389648</ele>
        <time>2022-03-31T09:55:04.000Z</time>
      </trkpt>
      <trkpt lat="47.3076" lon="-2.34215">
        <ele>197.39999389648</ele>
        <time>2022-03-31T09:55:07.000Z</time>
      </trkpt>
      <trkpt lat="47.30745" lon="-2.34218">
        <ele>197.39999389648</ele>
        <time>2022-03-31T09:55:10.000Z</time>
      </trkpt>
      <trkpt lat="47.30734" lon="-2.34221">
        <ele>197.39999389648</ele>
        <time>2022-03-31T09:55:12.000Z</time>
      </trkpt>
      <trkpt lat="47.3073" lon="-2.34231">
        <ele>197.39999389648</ele>
        <time>2022-03-31T09:55:14.000Z</time>
      </trkpt>
      <trkpt lat="47.30727" lon="-2.34258">
        <ele>197.39999389648</ele>
        <time>2022-03-31T09:55:18.000Z</time>
      </trkpt>
      <trkpt lat="47.30725" lon="-2.34265">
        <ele>197.39999389648</ele>
        <time>2022-03-31T09:55:19.000Z</time>
      </trkpt>
      <trkpt lat="47.30718" lon="-2.34283">
        <ele>197.39999389648</ele>
        <time>2022-03-31T09:55:22.000Z</time>
      </trkpt>
      <trkpt lat="47.30715" lon="-2.34289">
        <ele>197.39999389648</ele>
        <time>2022-03-31T09:55:23.000Z</time>
      </trkpt>
      <trkpt lat="47.30712" lon="-2.34295">
        <ele>197.39999389648</ele>
        <time>2022-03-31T09:55:24.000Z</time>
      </trkpt>
      <trkpt lat="47.30703" lon="-2.34313">
        <ele>197.39999389648</ele>
        <time>2022-03-31T09:55:27.000Z</time>
      </trkpt>
      <trkpt lat="47.30701" lon="-2.34318">
        <ele>197.39999389648</ele>
        <time>2022-03-31T09:55:28.000Z</time>
      </trkpt>
      <trkpt lat="47.30699" lon="-2.34324">
        <ele>197.80000305176</ele>
        <time>2022-03-31T09:55:29.000Z</time>
      </trkpt>
      <trkpt lat="47.30696" lon="-2.3433">
        <ele>198.19999694824</ele>
        <time>2022-03-31T09:55:30.000Z</time>
      </trkpt>
      <trkpt lat="47.30693" lon="-2.34335">
        <ele>198.60000610352</ele>
        <time>2022-03-31T09:55:31.000Z</time>
      </trkpt>
      <trkpt lat="47.3069" lon="-2.34341">
        <ele>199.60000610352</ele>
        <time>2022-03-31T09:55:32.000Z</time>
      </trkpt>
      <trkpt lat="47.30684" lon="-2.34353">
        <ele>199.60000610352</ele>
        <time>2022-03-31T09:55:34.000Z</time>
      </trkpt>
      <trkpt lat="47.30663" lon="-2.34386">
        <ele>199.60000610352</ele>
        <time>2022-03-31T09:55:40.000Z</time>
      </trkpt>
      <trkpt lat="47.30656" lon="-2.34398">
        <ele>199.60000610352</ele>
        <time>2022-03-31T09:55:42.000Z</time>
      </trkpt>
      <trkpt lat="47.30644" lon="-2.34414">
        <ele>199.60000610352</ele>
        <time>2022-03-31T09:55:45.000Z</time>
      </trkpt>
      <trkpt lat="47.3064" lon="-2.34419">
        <ele>199.60000610352</ele>
        <time>2022-03-31T09:55:46.000Z</time>
      </trkpt>
      <trkpt lat="47.30625" lon="-2.34439">
        <ele>199.60000610352</ele>
        <time>2022-03-31T09:55:50.000Z</time>
      </trkpt>
      <trkpt lat="47.30618" lon="-2.34449">
        <ele>199.60000610352</ele>
        <time>2022-03-31T09:55:52.000Z</time>
      </trkpt>
      <trkpt lat="47.30608" lon="-2.34466">
        <ele>199.60000610352</ele>
        <time>2022-03-31T09:55:55.000Z</time>
      </trkpt>
      <trkpt lat="47.30605" lon="-2.34472">
        <ele>199.60000610352</ele>
        <time>2022-03-31T09:55:56.000Z</time>
      </trkpt>
      <trkpt lat="47.30594" lon="-2.34492">
        <ele>199.60000610352</ele>
        <time>2022-03-31T09:55:59.000Z</time>
      </trkpt>
      <trkpt lat="47.30572" lon="-2.34538">
        <ele>199.60000610352</ele>
        <time>2022-03-31T09:56:05.000Z</time>
      </trkpt>
      <trkpt lat="47.30542" lon="-2.34581">
        <ele>199.60000610352</ele>
        <time>2022-03-31T09:56:11.000Z</time>
      </trkpt>
      <trkpt lat="47.30522" lon="-2.3461">
        <ele>199.60000610352</ele>
        <time>2022-03-31T09:56:15.000Z</time>
      </trkpt>
      <trkpt lat="47.30518" lon="-2.34618">
        <ele>199.60000610352</ele>
        <time>2022-03-31T09:56:16.000Z</time>
      </trkpt>
      <trkpt lat="47.30496" lon="-2.34652">
        <ele>199.60000610352</ele>
        <time>2022-03-31T09:56:21.000Z</time>
      </trkpt>
      <trkpt lat="47.3049" lon="-2.34657">
        <ele>199.60000610352</ele>
        <time>2022-03-31T09:56:22.000Z</time>
      </trkpt>
      <trkpt lat="47.30463" lon="-2.34684">
        <ele>199.60000610352</ele>
        <time>2022-03-31T09:56:27.000Z</time>
      </trkpt>
      <trkpt lat="47.30438" lon="-2.34707">
        <ele>199.60000610352</ele>
        <time>2022-03-31T09:56:32.000Z</time>
      </trkpt>
      <trkpt lat="47.30428" lon="-2.34717">
        <ele>199.60000610352</ele>
        <time>2022-03-31T09:56:34.000Z</time>
      </trkpt>
      <trkpt lat="47.30413" lon="-2.34728">
        <ele>199.60000610352</ele>
        <time>2022-03-31T09:56:37.000Z</time>
      </trkpt>
      <trkpt lat="47.3038" lon="-2.34749">
        <ele>199.60000610352</ele>
        <time>2022-03-31T09:56:43.000Z</time>
      </trkpt>
      <trkpt lat="47.3037" lon="-2.34756">
        <ele>199.60000610352</ele>
        <time>2022-03-31T09:56:45.000Z</time>
      </trkpt>
      <trkpt lat="47.30355" lon="-2.34766">
        <ele>199.60000610352</ele>
        <time>2022-03-31T09:56:48.000Z</time>
      </trkpt>
      <trkpt lat="47.30344" lon="-2.34776">
        <ele>199.60000610352</ele>
        <time>2022-03-31T09:56:50.000Z</time>
      </trkpt>
      <trkpt lat="47.30336" lon="-2.34789">
        <ele>199.60000610352</ele>
        <time>2022-03-31T09:56:52.000Z</time>
      </trkpt>
      <trkpt lat="47.30324" lon="-2.34811">
        <ele>199.60000610352</ele>
        <time>2022-03-31T09:56:55.000Z</time>
      </trkpt>
      <trkpt lat="47.30314" lon="-2.34824">
        <ele>199.60000610352</ele>
        <time>2022-03-31T09:56:57.000Z</time>
      </trkpt>
      <trkpt lat="47.30295" lon="-2.34847">
        <ele>199.60000610352</ele>
        <time>2022-03-31T09:57:01.000Z</time>
      </trkpt>
      <trkpt lat="47.30284" lon="-2.34853">
        <ele>199.60000610352</ele>
        <time>2022-03-31T09:57:03.000Z</time>
      </trkpt>
      <trkpt lat="47.30243" lon="-2.34876">
        <ele>199.60000610352</ele>
        <time>2022-03-31T09:57:10.000Z</time>
      </trkpt>
      <trkpt lat="47.30238" lon="-2.34879">
        <ele>199.60000610352</ele>
        <time>2022-03-31T09:57:11.000Z</time>
      </trkpt>
      <trkpt lat="47.30223" lon="-2.34894">
        <ele>199.60000610352</ele>
        <time>2022-03-31T09:57:14.000Z</time>
      </trkpt>
      <trkpt lat="47.30213" lon="-2.34914">
        <ele>199.60000610352</ele>
        <time>2022-03-31T09:57:17.000Z</time>
      </trkpt>
      <trkpt lat="47.30211" lon="-2.34922">
        <ele>199.60000610352</ele>
        <time>2022-03-31T09:57:18.000Z</time>
      </trkpt>
      <trkpt lat="47.30211" lon="-2.34931">
        <ele>199.60000610352</ele>
        <time>2022-03-31T09:57:19.000Z</time>
      </trkpt>
      <trkpt lat="47.30212" lon="-2.3495">
        <ele>199.60000610352</ele>
        <time>2022-03-31T09:57:21.000Z</time>
      </trkpt>
      <trkpt lat="47.30213" lon="-2.35008">
        <ele>199</ele>
        <time>2022-03-31T09:57:27.000Z</time>
      </trkpt>
      <trkpt lat="47.30214" lon="-2.35018">
        <ele>198.60000610352</ele>
        <time>2022-03-31T09:57:28.000Z</time>
      </trkpt>
      <trkpt lat="47.30214" lon="-2.35029">
        <ele>198.19999694824</ele>
        <time>2022-03-31T09:57:29.000Z</time>
      </trkpt>
      <trkpt lat="47.30214" lon="-2.35039">
        <ele>197.80000305176</ele>
        <time>2022-03-31T09:57:30.000Z</time>
      </trkpt>
      <trkpt lat="47.30214" lon="-2.3505">
        <ele>197.19999694824</ele>
        <time>2022-03-31T09:57:31.000Z</time>
      </trkpt>
      <trkpt lat="47.30214" lon="-2.3506">
        <ele>197.19999694824</ele>
        <time>2022-03-31T09:57:32.000Z</time>
      </trkpt>
      <trkpt lat="47.30213" lon="-2.3511">
        <ele>197.19999694824</ele>
        <time>2022-03-31T09:57:37.000Z</time>
      </trkpt>
      <trkpt lat="47.30212" lon="-2.3513">
        <ele>196.80000305176</ele>
        <time>2022-03-31T09:57:39.000Z</time>
      </trkpt>
      <trkpt lat="47.30212" lon="-2.35139">
        <ele>196.39999389648</ele>
        <time>2022-03-31T09:57:40.000Z</time>
      </trkpt>
      <trkpt lat="47.30212" lon="-2.35147">
        <ele>196</ele>
        <time>2022-03-31T09:57:41.000Z</time>
      </trkpt>
      <trkpt lat="47.30211" lon="-2.35155">
        <ele>195.60000610352</ele>
        <time>2022-03-31T09:57:42.000Z</time>
      </trkpt>
      <trkpt lat="47.30208" lon="-2.35161">
        <ele>195.19999694824</ele>
        <time>2022-03-31T09:57:43.000Z</time>
      </trkpt>
      <trkpt lat="47.30203" lon="-2.35164">
        <ele>195.19999694824</ele>
        <time>2022-03-31T09:57:44.000Z</time>
      </trkpt>
      <trkpt lat="47.30191" lon="-2.3517">
        <ele>195.19999694824</ele>
        <time>2022-03-31T09:57:47.000Z</time>
      </trkpt>
      <trkpt lat="47.30187" lon="-2.35172">
        <ele>194.80000305176</ele>
        <time>2022-03-31T09:57:48.000Z</time>
      </trkpt>
      <trkpt lat="47.30183" lon="-2.35173">
        <ele>194.39999389648</ele>
        <time>2022-03-31T09:57:49.000Z</time>
      </trkpt>
      <trkpt lat="47.30179" lon="-2.35174">
        <ele>194</ele>
        <time>2022-03-31T09:57:50.000Z</time>
      </trkpt>
      <trkpt lat="47.30175" lon="-2.35176">
        <ele>193.60000610352</ele>
        <time>2022-03-31T09:57:51.000Z</time>
      </trkpt>
      <trkpt lat="47.30172" lon="-2.35178">
        <ele>193.19999694824</ele>
        <time>2022-03-31T09:57:52.000Z</time>
      </trkpt>
      <trkpt lat="47.30164" lon="-2.35184">
        <ele>193.19999694824</ele>
        <time>2022-03-31T09:57:56.000Z</time>
      </trkpt>
      <trkpt lat="47.30159" lon="-2.35191">
        <ele>193.19999694824</ele>
        <time>2022-03-31T09:58:00.000Z</time>
      </trkpt>
      <trkpt lat="47.30152" lon="-2.35192">
        <ele>193.19999694824</ele>
        <time>2022-03-31T09:58:04.000Z</time>
      </trkpt>
      <trkpt lat="47.3015" lon="-2.35193">
        <ele>193.19999694824</ele>
        <time>2022-03-31T09:58:05.000Z</time>
      </trkpt>
      <trkpt lat="47.30141" lon="-2.35193">
        <ele>193.19999694824</ele>
        <time>2022-03-31T09:58:10.000Z</time>
      </trkpt>
      <trkpt lat="47.30139" lon="-2.35192">
        <ele>193.19999694824</ele>
        <time>2022-03-31T09:58:12.000Z</time>
      </trkpt>
      <trkpt lat="47.30139" lon="-2.35192">
        <ele>193.19999694824</ele>
        <time>2022-03-31T09:58:40.000Z</time>
      </trkpt>
      <trkpt lat="47.30137" lon="-2.35193">
        <ele>193.19999694824</ele>
        <time>2022-03-31T09:58:41.000Z</time>
      </trkpt>
      <trkpt lat="47.30122" lon="-2.35199">
        <ele>193.19999694824</ele>
        <time>2022-03-31T09:58:46.000Z</time>
      </trkpt>
      <trkpt lat="47.30105" lon="-2.35207">
        <ele>193.19999694824</ele>
        <time>2022-03-31T09:58:51.000Z</time>
      </trkpt>
      <trkpt lat="47.30082" lon="-2.35217">
        <ele>193.19999694824</ele>
        <time>2022-03-31T09:58:57.000Z</time>
      </trkpt>
      <trkpt lat="47.30066" lon="-2.35227">
        <ele>193.19999694824</ele>
        <time>2022-03-31T09:59:02.000Z</time>
      </trkpt>
      <trkpt lat="47.30044" lon="-2.35238">
        <ele>193.19999694824</ele>
        <time>2022-03-31T09:59:08.000Z</time>
      </trkpt>
      <trkpt lat="47.30037" lon="-2.35242">
        <ele>193.19999694824</ele>
        <time>2022-03-31T09:59:12.000Z</time>
      </trkpt>
      <trkpt lat="47.30034" lon="-2.35243">
        <ele>193.19999694824</ele>
        <time>2022-03-31T09:59:15.000Z</time>
      </trkpt>
      <trkpt lat="47.30029" lon="-2.35243">
        <ele>193.19999694824</ele>
        <time>2022-03-31T09:59:18.000Z</time>
      </trkpt>
      <trkpt lat="47.30024" lon="-2.35247">
        <ele>193.19999694824</ele>
        <time>2022-03-31T09:59:20.000Z</time>
      </trkpt>
      <trkpt lat="47.30016" lon="-2.35253">
        <ele>193.19999694824</ele>
        <time>2022-03-31T09:59:24.000Z</time>
      </trkpt>
      <trkpt lat="47.30005" lon="-2.35256">
        <ele>193.19999694824</ele>
        <time>2022-03-31T09:59:31.000Z</time>
      </trkpt>
      <trkpt lat="47.30003" lon="-2.35257">
        <ele>193.19999694824</ele>
        <time>2022-03-31T09:59:33.000Z</time>
      </trkpt>
      <trkpt lat="47.3" lon="-2.35259">
        <ele>193.19999694824</ele>
        <time>2022-03-31T10:00:26.000Z</time>
      </trkpt>
      <trkpt lat="47.29996" lon="-2.35262">
        <ele>193.19999694824</ele>
        <time>2022-03-31T10:00:28.000Z</time>
      </trkpt>
      <trkpt lat="47.29994" lon="-2.35265">
        <ele>193.19999694824</ele>
        <time>2022-03-31T10:00:29.000Z</time>
      </trkpt>
      <trkpt lat="47.29986" lon="-2.35273">
        <ele>193.19999694824</ele>
        <time>2022-03-31T10:00:32.000Z</time>
      </trkpt>
      <trkpt lat="47.29979" lon="-2.3528">
        <ele>193.19999694824</ele>
        <time>2022-03-31T10:00:34.000Z</time>
      </trkpt>
      <trkpt lat="47.29967" lon="-2.35294">
        <ele>193.19999694824</ele>
        <time>2022-03-31T10:00:38.000Z</time>
      </trkpt>
      <trkpt lat="47.29944" lon="-2.35324">
        <ele>193.19999694824</ele>
        <time>2022-03-31T10:00:46.000Z</time>
      </trkpt>
      <trkpt lat="47.29928" lon="-2.35346">
        <ele>193.19999694824</ele>
        <time>2022-03-31T10:00:53.000Z</time>
      </trkpt>
      <trkpt lat="47.29914" lon="-2.35362">
        <ele>193.19999694824</ele>
        <time>2022-03-31T10:00:57.000Z</time>
      </trkpt>
      <trkpt lat="47.29888" lon="-2.35392">
        <ele>193.19999694824</ele>
        <time>2022-03-31T10:01:04.000Z</time>
      </trkpt>
      <trkpt lat="47.29859" lon="-2.35423">
        <ele>193.19999694824</ele>
        <time>2022-03-31T10:01:12.000Z</time>
      </trkpt>
      <trkpt lat="47.29833" lon="-2.35454">
        <ele>193.19999694824</ele>
        <time>2022-03-31T10:01:19.000Z</time>
      </trkpt>
      <trkpt lat="47.29831" lon="-2.35459">
        <ele>193.19999694824</ele>
        <time>2022-03-31T10:01:20.000Z</time>
      </trkpt>
      <trkpt lat="47.29832" lon="-2.35477">
        <ele>193.19999694824</ele>
        <time>2022-03-31T10:01:23.000Z</time>
      </trkpt>
      <trkpt lat="47.29834" lon="-2.35482">
        <ele>193.19999694824</ele>
        <time>2022-03-31T10:01:24.000Z</time>
      </trkpt>
      <trkpt lat="47.29843" lon="-2.35519">
        <ele>193.19999694824</ele>
        <time>2022-03-31T10:01:30.000Z</time>
      </trkpt>
      <trkpt lat="47.29844" lon="-2.35525">
        <ele>193.60000610352</ele>
        <time>2022-03-31T10:01:31.000Z</time>
      </trkpt>
      <trkpt lat="47.29846" lon="-2.35531">
        <ele>194</ele>
        <time>2022-03-31T10:01:32.000Z</time>
      </trkpt>
      <trkpt lat="47.29847" lon="-2.35537">
        <ele>194.39999389648</ele>
        <time>2022-03-31T10:01:33.000Z</time>
      </trkpt>
      <trkpt lat="47.29849" lon="-2.35543">
        <ele>194.80000305176</ele>
        <time>2022-03-31T10:01:34.000Z</time>
      </trkpt>
      <trkpt lat="47.2985" lon="-2.35548">
        <ele>195.19999694824</ele>
        <time>2022-03-31T10:01:35.000Z</time>
      </trkpt>
      <trkpt lat="47.29853" lon="-2.35559">
        <ele>195.19999694824</ele>
        <time>2022-03-31T10:01:37.000Z</time>
      </trkpt>
      <trkpt lat="47.29863" lon="-2.35592">
        <ele>195.19999694824</ele>
        <time>2022-03-31T10:01:43.000Z</time>
      </trkpt>
      <trkpt lat="47.29869" lon="-2.35618">
        <ele>195.19999694824</ele>
        <time>2022-03-31T10:01:48.000Z</time>
      </trkpt>
      <trkpt lat="47.29873" lon="-2.35635">
        <ele>195.19999694824</ele>
        <time>2022-03-31T10:01:51.000Z</time>
      </trkpt>
      <trkpt lat="47.29874" lon="-2.35641">
        <ele>195.60000610352</ele>
        <time>2022-03-31T10:01:52.000Z</time>
      </trkpt>
      <trkpt lat="47.29875" lon="-2.35647">
        <ele>196</ele>
        <time>2022-03-31T10:01:53.000Z</time>
      </trkpt>
      <trkpt lat="47.29876" lon="-2.35653">
        <ele>196.39999389648</ele>
        <time>2022-03-31T10:01:54.000Z</time>
      </trkpt>
      <trkpt lat="47.29876" lon="-2.35659">
        <ele>196.80000305176</ele>
        <time>2022-03-31T10:01:55.000Z</time>
      </trkpt>
      <trkpt lat="47.29877" lon="-2.35665">
        <ele>197.19999694824</ele>
        <time>2022-03-31T10:01:56.000Z</time>
      </trkpt>
      <trkpt lat="47.29883" lon="-2.35702">
        <ele>197.19999694824</ele>
        <time>2022-03-31T10:02:02.000Z</time>
      </trkpt>
      <trkpt lat="47.29894" lon="-2.35742">
        <ele>197.19999694824</ele>
        <time>2022-03-31T10:02:10.000Z</time>
      </trkpt>
      <trkpt lat="47.29895" lon="-2.35753">
        <ele>197.19999694824</ele>
        <time>2022-03-31T10:02:14.000Z</time>
      </trkpt>
      <trkpt lat="47.29884" lon="-2.35765">
        <ele>197.19999694824</ele>
        <time>2022-03-31T10:02:18.000Z</time>
      </trkpt>
      <trkpt lat="47.29858" lon="-2.35777">
        <ele>197.19999694824</ele>
        <time>2022-03-31T10:02:24.000Z</time>
      </trkpt>
      <trkpt lat="47.29826" lon="-2.35789">
        <ele>197.19999694824</ele>
        <time>2022-03-31T10:02:31.000Z</time>
      </trkpt>
      <trkpt lat="47.29814" lon="-2.35793">
        <ele>197.60000610352</ele>
        <time>2022-03-31T10:02:34.000Z</time>
      </trkpt>
      <trkpt lat="47.2981" lon="-2.35793">
        <ele>198</ele>
        <time>2022-03-31T10:02:35.000Z</time>
      </trkpt>
      <trkpt lat="47.29806" lon="-2.35794">
        <ele>198.39999389648</ele>
        <time>2022-03-31T10:02:36.000Z</time>
      </trkpt>
      <trkpt lat="47.29801" lon="-2.35796">
        <ele>198.80000305176</ele>
        <time>2022-03-31T10:02:37.000Z</time>
      </trkpt>
      <trkpt lat="47.29797" lon="-2.35797">
        <ele>199.39999389648</ele>
        <time>2022-03-31T10:02:38.000Z</time>
      </trkpt>
      <trkpt lat="47.29761" lon="-2.35809">
        <ele>199.39999389648</ele>
        <time>2022-03-31T10:02:46.000Z</time>
      </trkpt>
      <trkpt lat="47.29723" lon="-2.35827">
        <ele>199.39999389648</ele>
        <time>2022-03-31T10:02:53.000Z</time>
      </trkpt>
      <trkpt lat="47.29717" lon="-2.35832">
        <ele>199.39999389648</ele>
        <time>2022-03-31T10:02:54.000Z</time>
      </trkpt>
      <trkpt lat="47.29699" lon="-2.35845">
        <ele>199.39999389648</ele>
        <time>2022-03-31T10:02:57.000Z</time>
      </trkpt>
      <trkpt lat="47.29693" lon="-2.35848">
        <ele>199</ele>
        <time>2022-03-31T10:02:58.000Z</time>
      </trkpt>
      <trkpt lat="47.29687" lon="-2.35851">
        <ele>198.60000610352</ele>
        <time>2022-03-31T10:02:59.000Z</time>
      </trkpt>
      <trkpt lat="47.29682" lon="-2.35854">
        <ele>198</ele>
        <time>2022-03-31T10:03:00.000Z</time>
      </trkpt>
      <trkpt lat="47.29679" lon="-2.35856">
        <ele>197.60000610352</ele>
        <time>2022-03-31T10:03:01.000Z</time>
      </trkpt>
      <trkpt lat="47.29677" lon="-2.35858">
        <ele>197.19999694824</ele>
        <time>2022-03-31T10:03:02.000Z</time>
      </trkpt>
      <trkpt lat="47.29672" lon="-2.3586">
        <ele>197.19999694824</ele>
        <time>2022-03-31T10:03:05.000Z</time>
      </trkpt>
      <trkpt lat="47.29672" lon="-2.3586">
        <ele>197.19999694824</ele>
        <time>2022-03-31T10:03:07.000Z</time>
      </trkpt>
      <trkpt lat="47.29668" lon="-2.35861">
        <ele>197.19999694824</ele>
        <time>2022-03-31T10:03:17.000Z</time>
      </trkpt>
      <trkpt lat="47.29667" lon="-2.35861">
        <ele>197.19999694824</ele>
        <time>2022-03-31T10:03:18.000Z</time>
      </trkpt>
      <trkpt lat="47.29661" lon="-2.35864">
        <ele>197.19999694824</ele>
        <time>2022-03-31T10:03:21.000Z</time>
      </trkpt>
      <trkpt lat="47.29654" lon="-2.35868">
        <ele>197.19999694824</ele>
        <time>2022-03-31T10:03:23.000Z</time>
      </trkpt>
      <trkpt lat="47.29632" lon="-2.35878">
        <ele>197.19999694824</ele>
        <time>2022-03-31T10:03:29.000Z</time>
      </trkpt>
      <trkpt lat="47.29597" lon="-2.35898">
        <ele>197.19999694824</ele>
        <time>2022-03-31T10:03:38.000Z</time>
      </trkpt>
      <trkpt lat="47.29561" lon="-2.35919">
        <ele>197.19999694824</ele>
        <time>2022-03-31T10:03:46.000Z</time>
      </trkpt>
      <trkpt lat="47.29529" lon="-2.35932">
        <ele>197.19999694824</ele>
        <time>2022-03-31T10:03:53.000Z</time>
      </trkpt>
      <trkpt lat="47.29524" lon="-2.35933">
        <ele>197.19999694824</ele>
        <time>2022-03-31T10:03:54.000Z</time>
      </trkpt>
      <trkpt lat="47.29512" lon="-2.35939">
        <ele>197.19999694824</ele>
        <time>2022-03-31T10:03:57.000Z</time>
      </trkpt>
      <trkpt lat="47.29504" lon="-2.35928">
        <ele>197.19999694824</ele>
        <time>2022-03-31T10:04:00.000Z</time>
      </trkpt>
      <trkpt lat="47.29502" lon="-2.35917">
        <ele>197.19999694824</ele>
        <time>2022-03-31T10:04:02.000Z</time>
      </trkpt>
      <trkpt lat="47.29498" lon="-2.35903">
        <ele>197.19999694824</ele>
        <time>2022-03-31T10:04:05.000Z</time>
      </trkpt>
      <trkpt lat="47.29496" lon="-2.359">
        <ele>197.19999694824</ele>
        <time>2022-03-31T10:04:06.000Z</time>
      </trkpt>
      <trkpt lat="47.29486" lon="-2.35901">
        <ele>197.19999694824</ele>
        <time>2022-03-31T10:04:08.000Z</time>
      </trkpt>
      <trkpt lat="47.29457" lon="-2.35907">
        <ele>197.19999694824</ele>
        <time>2022-03-31T10:04:15.000Z</time>
      </trkpt>
      <trkpt lat="47.29453" lon="-2.3591">
        <ele>196.80000305176</ele>
        <time>2022-03-31T10:04:17.000Z</time>
      </trkpt>
      <trkpt lat="47.29452" lon="-2.3591">
        <ele>196.39999389648</ele>
        <time>2022-03-31T10:04:18.000Z</time>
      </trkpt>
      <trkpt lat="47.29451" lon="-2.35911">
        <ele>196</ele>
        <time>2022-03-31T10:04:19.000Z</time>
      </trkpt>
      <trkpt lat="47.29451" lon="-2.35911">
        <ele>195.60000610352</ele>
        <time>2022-03-31T10:04:20.000Z</time>
      </trkpt>
      <trkpt lat="47.29451" lon="-2.35911">
        <ele>195.19999694824</ele>
        <time>2022-03-31T10:04:21.000Z</time>
      </trkpt>
      <trkpt lat="47.29444" lon="-2.35916">
        <ele>195.19999694824</ele>
        <time>2022-03-31T10:04:25.000Z</time>
      </trkpt>
      <trkpt lat="47.29439" lon="-2.35915">
        <ele>195.19999694824</ele>
        <time>2022-03-31T10:04:27.000Z</time>
      </trkpt>
      <trkpt lat="47.29436" lon="-2.3591">
        <ele>195.19999694824</ele>
        <time>2022-03-31T10:04:28.000Z</time>
      </trkpt>
      <trkpt lat="47.29426" lon="-2.3589">
        <ele>195.19999694824</ele>
        <time>2022-03-31T10:04:32.000Z</time>
      </trkpt>
      <trkpt lat="47.29423" lon="-2.35886">
        <ele>195.19999694824</ele>
        <time>2022-03-31T10:04:33.000Z</time>
      </trkpt>
      <trkpt lat="47.29405" lon="-2.35862">
        <ele>195.19999694824</ele>
        <time>2022-03-31T10:04:38.000Z</time>
      </trkpt>
      <trkpt lat="47.29371" lon="-2.35829">
        <ele>195.19999694824</ele>
        <time>2022-03-31T10:04:46.000Z</time>
      </trkpt>
      <trkpt lat="47.29342" lon="-2.35804">
        <ele>195.19999694824</ele>
        <time>2022-03-31T10:04:52.000Z</time>
      </trkpt>
      <trkpt lat="47.29304" lon="-2.35771">
        <ele>195.19999694824</ele>
        <time>2022-03-31T10:05:00.000Z</time>
      </trkpt>
      <trkpt lat="47.29272" lon="-2.3574">
        <ele>195.19999694824</ele>
        <time>2022-03-31T10:05:07.000Z</time>
      </trkpt>
      <trkpt lat="47.29263" lon="-2.35732">
        <ele>195.19999694824</ele>
        <time>2022-03-31T10:05:09.000Z</time>
      </trkpt>
      <trkpt lat="47.29255" lon="-2.35734">
        <ele>195.19999694824</ele>
        <time>2022-03-31T10:05:11.000Z</time>
      </trkpt>
      <trkpt lat="47.29245" lon="-2.3575">
        <ele>195.19999694824</ele>
        <time>2022-03-31T10:05:14.000Z</time>
      </trkpt>
      <trkpt lat="47.2922" lon="-2.35779">
        <ele>195.19999694824</ele>
        <time>2022-03-31T10:05:20.000Z</time>
      </trkpt>
      <trkpt lat="47.29188" lon="-2.35806">
        <ele>195.19999694824</ele>
        <time>2022-03-31T10:05:27.000Z</time>
      </trkpt>
      <trkpt lat="47.29154" lon="-2.35831">
        <ele>195.19999694824</ele>
        <time>2022-03-31T10:05:34.000Z</time>
      </trkpt>
      <trkpt lat="47.29149" lon="-2.35835">
        <ele>195.19999694824</ele>
        <time>2022-03-31T10:05:35.000Z</time>
      </trkpt>
      <trkpt lat="47.29118" lon="-2.35871">
        <ele>195.19999694824</ele>
        <time>2022-03-31T10:05:42.000Z</time>
      </trkpt>
      <trkpt lat="47.29079" lon="-2.35916">
        <ele>195.19999694824</ele>
        <time>2022-03-31T10:05:51.000Z</time>
      </trkpt>
      <trkpt lat="47.29048" lon="-2.3595">
        <ele>195.19999694824</ele>
        <time>2022-03-31T10:05:58.000Z</time>
      </trkpt>
      <trkpt lat="47.29018" lon="-2.35983">
        <ele>195.19999694824</ele>
        <time>2022-03-31T10:06:05.000Z</time>
      </trkpt>
      <trkpt lat="47.28986" lon="-2.36015">
        <ele>195.19999694824</ele>
        <time>2022-03-31T10:06:12.000Z</time>
      </trkpt>
      <trkpt lat="47.28947" lon="-2.36049">
        <ele>195.19999694824</ele>
        <time>2022-03-31T10:06:20.000Z</time>
      </trkpt>
      <trkpt lat="47.28906" lon="-2.36077">
        <ele>195.19999694824</ele>
        <time>2022-03-31T10:06:28.000Z</time>
      </trkpt>
      <trkpt lat="47.28874" lon="-2.3611">
        <ele>195.19999694824</ele>
        <time>2022-03-31T10:06:35.000Z</time>
      </trkpt>
      <trkpt lat="47.28843" lon="-2.36142">
        <ele>195.19999694824</ele>
        <time>2022-03-31T10:06:42.000Z</time>
      </trkpt>
      <trkpt lat="47.28819" lon="-2.36175">
        <ele>195.19999694824</ele>
        <time>2022-03-31T10:06:48.000Z</time>
      </trkpt>
      <trkpt lat="47.2881" lon="-2.36183">
        <ele>195.19999694824</ele>
        <time>2022-03-31T10:06:50.000Z</time>
      </trkpt>
      <trkpt lat="47.28774" lon="-2.36208">
        <ele>195.19999694824</ele>
        <time>2022-03-31T10:06:58.000Z</time>
      </trkpt>
      <trkpt lat="47.28753" lon="-2.3622">
        <ele>195.19999694824</ele>
        <time>2022-03-31T10:07:04.000Z</time>
      </trkpt>
      <trkpt lat="47.28752" lon="-2.36219">
        <ele>195.19999694824</ele>
        <time>2022-03-31T10:07:06.000Z</time>
      </trkpt>
      <trkpt lat="47.28749" lon="-2.36223">
        <ele>195.19999694824</ele>
        <time>2022-03-31T10:07:19.000Z</time>
      </trkpt>
      <trkpt lat="47.28734" lon="-2.36234">
        <ele>195.19999694824</ele>
        <time>2022-03-31T10:07:24.000Z</time>
      </trkpt>
      <trkpt lat="47.28724" lon="-2.36248">
        <ele>195.60000610352</ele>
        <time>2022-03-31T10:07:29.000Z</time>
      </trkpt>
      <trkpt lat="47.28722" lon="-2.36251">
        <ele>196</ele>
        <time>2022-03-31T10:07:30.000Z</time>
      </trkpt>
      <trkpt lat="47.2872" lon="-2.36254">
        <ele>196.39999389648</ele>
        <time>2022-03-31T10:07:31.000Z</time>
      </trkpt>
      <trkpt lat="47.28717" lon="-2.36257">
        <ele>196.80000305176</ele>
        <time>2022-03-31T10:07:32.000Z</time>
      </trkpt>
      <trkpt lat="47.28715" lon="-2.3626">
        <ele>197.19999694824</ele>
        <time>2022-03-31T10:07:33.000Z</time>
      </trkpt>
      <trkpt lat="47.28707" lon="-2.36268">
        <ele>197.19999694824</ele>
        <time>2022-03-31T10:07:36.000Z</time>
      </trkpt>
      <trkpt lat="47.28699" lon="-2.36273">
        <ele>197.60000610352</ele>
        <time>2022-03-31T10:07:39.000Z</time>
      </trkpt>
      <trkpt lat="47.28697" lon="-2.36274">
        <ele>198</ele>
        <time>2022-03-31T10:07:40.000Z</time>
      </trkpt>
      <trkpt lat="47.28694" lon="-2.36274">
        <ele>198.39999389648</ele>
        <time>2022-03-31T10:07:41.000Z</time>
      </trkpt>
      <trkpt lat="47.28691" lon="-2.36274">
        <ele>198.80000305176</ele>
        <time>2022-03-31T10:07:42.000Z</time>
      </trkpt>
      <trkpt lat="47.28687" lon="-2.36275">
        <ele>199.39999389648</ele>
        <time>2022-03-31T10:07:43.000Z</time>
      </trkpt>
      <trkpt lat="47.28675" lon="-2.36274">
        <ele>199.39999389648</ele>
        <time>2022-03-31T10:07:46.000Z</time>
      </trkpt>
      <trkpt lat="47.28673" lon="-2.36271">
        <ele>199.39999389648</ele>
        <time>2022-03-31T10:07:47.000Z</time>
      </trkpt>
      <trkpt lat="47.28668" lon="-2.36259">
        <ele>199.80000305176</ele>
        <time>2022-03-31T10:07:51.000Z</time>
      </trkpt>
      <trkpt lat="47.28668" lon="-2.36254">
        <ele>200.19999694824</ele>
        <time>2022-03-31T10:07:52.000Z</time>
      </trkpt>
      <trkpt lat="47.28668" lon="-2.3625">
        <ele>201</ele>
        <time>2022-03-31T10:07:53.000Z</time>
      </trkpt>
      <trkpt lat="47.28668" lon="-2.36245">
        <ele>201.39999389648</ele>
        <time>2022-03-31T10:07:54.000Z</time>
      </trkpt>
      <trkpt lat="47.28669" lon="-2.36241">
        <ele>201.39999389648</ele>
        <time>2022-03-31T10:07:55.000Z</time>
      </trkpt>
      <trkpt lat="47.2867" lon="-2.36216">
        <ele>201.39999389648</ele>
        <time>2022-03-31T10:08:01.000Z</time>
      </trkpt>
      <trkpt lat="47.28669" lon="-2.3621">
        <ele>201.80000305176</ele>
        <time>2022-03-31T10:08:03.000Z</time>
      </trkpt>
      <trkpt lat="47.28668" lon="-2.36206">
        <ele>202.19999694824</ele>
        <time>2022-03-31T10:08:04.000Z</time>
      </trkpt>
      <trkpt lat="47.28667" lon="-2.36202">
        <ele>202.60000610352</ele>
        <time>2022-03-31T10:08:05.000Z</time>
      </trkpt>
      <trkpt lat="47.28666" lon="-2.36198">
        <ele>203</ele>
        <time>2022-03-31T10:08:06.000Z</time>
      </trkpt>
      <trkpt lat="47.28665" lon="-2.36194">
        <ele>203.39999389648</ele>
        <time>2022-03-31T10:08:07.000Z</time>
      </trkpt>
      <trkpt lat="47.28652" lon="-2.36181">
        <ele>203.39999389648</ele>
        <time>2022-03-31T10:08:12.000Z</time>
      </trkpt>
      <trkpt lat="47.28641" lon="-2.36164">
        <ele>204</ele>
        <time>2022-03-31T10:08:17.000Z</time>
      </trkpt>
      <trkpt lat="47.28638" lon="-2.3616">
        <ele>204.39999389648</ele>
        <time>2022-03-31T10:08:18.000Z</time>
      </trkpt>
      <trkpt lat="47.28637" lon="-2.36156">
        <ele>204.80000305176</ele>
        <time>2022-03-31T10:08:19.000Z</time>
      </trkpt>
      <trkpt lat="47.28635" lon="-2.36153">
        <ele>205.19999694824</ele>
        <time>2022-03-31T10:08:20.000Z</time>
      </trkpt>
      <trkpt lat="47.28633" lon="-2.36151">
        <ele>205.80000305176</ele>
        <time>2022-03-31T10:08:21.000Z</time>
      </trkpt>
      <trkpt lat="47.28625" lon="-2.36151">
        <ele>205.80000305176</ele>
        <time>2022-03-31T10:08:23.000Z</time>
      </trkpt>
      <trkpt lat="47.28616" lon="-2.36151">
        <ele>205.80000305176</ele>
        <time>2022-03-31T10:08:27.000Z</time>
      </trkpt>
      <trkpt lat="47.28606" lon="-2.36156">
        <ele>205.80000305176</ele>
        <time>2022-03-31T10:08:32.000Z</time>
      </trkpt>
      <trkpt lat="47.28604" lon="-2.36156">
        <ele>205.80000305176</ele>
        <time>2022-03-31T10:08:33.000Z</time>
      </trkpt>
      <trkpt lat="47.28588" lon="-2.3615">
        <ele>205.80000305176</ele>
        <time>2022-03-31T10:08:40.000Z</time>
      </trkpt>
      <trkpt lat="47.2857" lon="-2.36145">
        <ele>205.80000305176</ele>
        <time>2022-03-31T10:08:46.000Z</time>
      </trkpt>
      <trkpt lat="47.2856" lon="-2.36148">
        <ele>205.19999694824</ele>
        <time>2022-03-31T10:08:49.000Z</time>
      </trkpt>
      <trkpt lat="47.28556" lon="-2.36146">
        <ele>204.80000305176</ele>
        <time>2022-03-31T10:08:50.000Z</time>
      </trkpt>
      <trkpt lat="47.28554" lon="-2.36144">
        <ele>204.39999389648</ele>
        <time>2022-03-31T10:08:51.000Z</time>
      </trkpt>
      <trkpt lat="47.28551" lon="-2.3614">
        <ele>203.80000305176</ele>
        <time>2022-03-31T10:08:52.000Z</time>
      </trkpt>
      <trkpt lat="47.28549" lon="-2.36135">
        <ele>203.39999389648</ele>
        <time>2022-03-31T10:08:53.000Z</time>
      </trkpt>
      <trkpt lat="47.28545" lon="-2.36127">
        <ele>203.39999389648</ele>
        <time>2022-03-31T10:08:54.000Z</time>
      </trkpt>
      <trkpt lat="47.28535" lon="-2.3609">
        <ele>203.39999389648</ele>
        <time>2022-03-31T10:09:00.000Z</time>
      </trkpt>
      <trkpt lat="47.28531" lon="-2.36079">
        <ele>203.39999389648</ele>
        <time>2022-03-31T10:09:03.000Z</time>
      </trkpt>
      <trkpt lat="47.28528" lon="-2.36076">
        <ele>203.39999389648</ele>
        <time>2022-03-31T10:09:04.000Z</time>
      </trkpt>
      <trkpt lat="47.28512" lon="-2.36056">
        <ele>203.39999389648</ele>
        <time>2022-03-31T10:09:10.000Z</time>
      </trkpt>
      <trkpt lat="47.28493" lon="-2.36041">
        <ele>203.39999389648</ele>
        <time>2022-03-31T10:09:15.000Z</time>
      </trkpt>
      <trkpt lat="47.28471" lon="-2.36026">
        <ele>203.39999389648</ele>
        <time>2022-03-31T10:09:20.000Z</time>
      </trkpt>
      <trkpt lat="47.28458" lon="-2.36004">
        <ele>203.39999389648</ele>
        <time>2022-03-31T10:09:24.000Z</time>
      </trkpt>
      <trkpt lat="47.28455" lon="-2.35982">
        <ele>203.39999389648</ele>
        <time>2022-03-31T10:09:27.000Z</time>
      </trkpt>
      <trkpt lat="47.28456" lon="-2.35972">
        <ele>203.39999389648</ele>
        <time>2022-03-31T10:09:28.000Z</time>
      </trkpt>
      <trkpt lat="47.2846" lon="-2.35954">
        <ele>203</ele>
        <time>2022-03-31T10:09:30.000Z</time>
      </trkpt>
      <trkpt lat="47.28464" lon="-2.35945">
        <ele>202.60000610352</ele>
        <time>2022-03-31T10:09:31.000Z</time>
      </trkpt>
      <trkpt lat="47.28467" lon="-2.35936">
        <ele>201.60000610352</ele>
        <time>2022-03-31T10:09:32.000Z</time>
      </trkpt>
      <trkpt lat="47.2847" lon="-2.35927">
        <ele>200.80000305176</ele>
        <time>2022-03-31T10:09:33.000Z</time>
      </trkpt>
      <trkpt lat="47.28471" lon="-2.3592">
        <ele>200.19999694824</ele>
        <time>2022-03-31T10:09:34.000Z</time>
      </trkpt>
      <trkpt lat="47.28471" lon="-2.35912">
        <ele>199.39999389648</ele>
        <time>2022-03-31T10:09:35.000Z</time>
      </trkpt>
      <trkpt lat="47.28468" lon="-2.35904">
        <ele>198.80000305176</ele>
        <time>2022-03-31T10:09:36.000Z</time>
      </trkpt>
      <trkpt lat="47.28465" lon="-2.35898">
        <ele>198</ele>
        <time>2022-03-31T10:09:37.000Z</time>
      </trkpt>
      <trkpt lat="47.2846" lon="-2.35894">
        <ele>197.19999694824</ele>
        <time>2022-03-31T10:09:38.000Z</time>
      </trkpt>
      <trkpt lat="47.28455" lon="-2.35891">
        <ele>196.39999389648</ele>
        <time>2022-03-31T10:09:39.000Z</time>
      </trkpt>
      <trkpt lat="47.28449" lon="-2.35889">
        <ele>195.60000610352</ele>
        <time>2022-03-31T10:09:40.000Z</time>
      </trkpt>
      <trkpt lat="47.28444" lon="-2.35886">
        <ele>194.80000305176</ele>
        <time>2022-03-31T10:09:41.000Z</time>
      </trkpt>
      <trkpt lat="47.2844" lon="-2.35882">
        <ele>194</ele>
        <time>2022-03-31T10:09:42.000Z</time>
      </trkpt>
      <trkpt lat="47.28436" lon="-2.35875">
        <ele>194</ele>
        <time>2022-03-31T10:09:43.000Z</time>
      </trkpt>
      <trkpt lat="47.28436" lon="-2.35858">
        <ele>193.60000610352</ele>
        <time>2022-03-31T10:09:46.000Z</time>
      </trkpt>
      <trkpt lat="47.28437" lon="-2.35856">
        <ele>193.19999694824</ele>
        <time>2022-03-31T10:09:47.000Z</time>
      </trkpt>
      <trkpt lat="47.28439" lon="-2.35854">
        <ele>192.80000305176</ele>
        <time>2022-03-31T10:09:48.000Z</time>
      </trkpt>
      <trkpt lat="47.28441" lon="-2.35851">
        <ele>192.39999389648</ele>
        <time>2022-03-31T10:09:49.000Z</time>
      </trkpt>
      <trkpt lat="47.28443" lon="-2.35848">
        <ele>192</ele>
        <time>2022-03-31T10:09:50.000Z</time>
      </trkpt>
      <trkpt lat="47.28445" lon="-2.35846">
        <ele>192</ele>
        <time>2022-03-31T10:09:51.000Z</time>
      </trkpt>
      <trkpt lat="47.28458" lon="-2.35841">
        <ele>192</ele>
        <time>2022-03-31T10:09:55.000Z</time>
      </trkpt>
      <trkpt lat="47.28467" lon="-2.35825">
        <ele>192</ele>
        <time>2022-03-31T10:09:59.000Z</time>
      </trkpt>
      <trkpt lat="47.28466" lon="-2.35823">
        <ele>192</ele>
        <time>2022-03-31T10:10:00.000Z</time>
      </trkpt>
      <trkpt lat="47.28463" lon="-2.35821">
        <ele>192</ele>
        <time>2022-03-31T10:10:02.000Z</time>
      </trkpt>
      <trkpt lat="47.28459" lon="-2.35827">
        <ele>192</ele>
        <time>2022-03-31T10:10:06.000Z</time>
      </trkpt>
      <trkpt lat="47.28459" lon="-2.35829">
        <ele>192</ele>
        <time>2022-03-31T10:10:07.000Z</time>
      </trkpt>
      <trkpt lat="47.28457" lon="-2.35833">
        <ele>192</ele>
        <time>2022-03-31T10:10:09.000Z</time>
      </trkpt>
      <trkpt lat="47.2845" lon="-2.35836">
        <ele>192</ele>
        <time>2022-03-31T10:10:11.000Z</time>
      </trkpt>
      <trkpt lat="47.28435" lon="-2.35841">
        <ele>192</ele>
        <time>2022-03-31T10:10:15.000Z</time>
      </trkpt>
      <trkpt lat="47.28423" lon="-2.35843">
        <ele>192</ele>
        <time>2022-03-31T10:10:19.000Z</time>
      </trkpt>
      <trkpt lat="47.28418" lon="-2.35845">
        <ele>192</ele>
        <time>2022-03-31T10:10:21.000Z</time>
      </trkpt>
      <trkpt lat="47.28413" lon="-2.35849">
        <ele>192</ele>
        <time>2022-03-31T10:10:23.000Z</time>
      </trkpt>
      <trkpt lat="47.28392" lon="-2.35855">
        <ele>192</ele>
        <time>2022-03-31T10:10:28.000Z</time>
      </trkpt>
      <trkpt lat="47.28363" lon="-2.35855">
        <ele>192</ele>
        <time>2022-03-31T10:10:34.000Z</time>
      </trkpt>
      <trkpt lat="47.28352" lon="-2.35862">
        <ele>192</ele>
        <time>2022-03-31T10:10:37.000Z</time>
      </trkpt>
      <trkpt lat="47.28346" lon="-2.35872">
        <ele>191.60000610352</ele>
        <time>2022-03-31T10:10:40.000Z</time>
      </trkpt>
      <trkpt lat="47.28344" lon="-2.35875">
        <ele>191.19999694824</ele>
        <time>2022-03-31T10:10:41.000Z</time>
      </trkpt>
      <trkpt lat="47.28342" lon="-2.35877">
        <ele>190.80000305176</ele>
        <time>2022-03-31T10:10:42.000Z</time>
      </trkpt>
      <trkpt lat="47.2834" lon="-2.35877">
        <ele>190.39999389648</ele>
        <time>2022-03-31T10:10:43.000Z</time>
      </trkpt>
      <trkpt lat="47.28337" lon="-2.35877">
        <ele>190</ele>
        <time>2022-03-31T10:10:44.000Z</time>
      </trkpt>
      <trkpt lat="47.28334" lon="-2.35875">
        <ele>190</ele>
        <time>2022-03-31T10:10:45.000Z</time>
      </trkpt>
      <trkpt lat="47.28327" lon="-2.3587">
        <ele>190</ele>
        <time>2022-03-31T10:10:47.000Z</time>
      </trkpt>
      <trkpt lat="47.28312" lon="-2.35865">
        <ele>190</ele>
        <time>2022-03-31T10:10:50.000Z</time>
      </trkpt>
      <trkpt lat="47.28298" lon="-2.35863">
        <ele>190</ele>
        <time>2022-03-31T10:10:55.000Z</time>
      </trkpt>
      <trkpt lat="47.28294" lon="-2.35865">
        <ele>190</ele>
        <time>2022-03-31T10:10:56.000Z</time>
      </trkpt>
      <trkpt lat="47.28285" lon="-2.35872">
        <ele>190</ele>
        <time>2022-03-31T10:10:58.000Z</time>
      </trkpt>
      <trkpt lat="47.28262" lon="-2.35895">
        <ele>190</ele>
        <time>2022-03-31T10:11:04.000Z</time>
      </trkpt>
      <trkpt lat="47.28244" lon="-2.359">
        <ele>189.60000610352</ele>
        <time>2022-03-31T10:11:08.000Z</time>
      </trkpt>
      <trkpt lat="47.2824" lon="-2.35902">
        <ele>189.19999694824</ele>
        <time>2022-03-31T10:11:09.000Z</time>
      </trkpt>
      <trkpt lat="47.28236" lon="-2.35903">
        <ele>188.60000610352</ele>
        <time>2022-03-31T10:11:10.000Z</time>
      </trkpt>
      <trkpt lat="47.28232" lon="-2.35903">
        <ele>187.80000305176</ele>
        <time>2022-03-31T10:11:11.000Z</time>
      </trkpt>
      <trkpt lat="47.28223" lon="-2.35901">
        <ele>187.80000305176</ele>
        <time>2022-03-31T10:11:13.000Z</time>
      </trkpt>
      <trkpt lat="47.28208" lon="-2.35895">
        <ele>187.80000305176</ele>
        <time>2022-03-31T10:11:16.000Z</time>
      </trkpt>
      <trkpt lat="47.282" lon="-2.35886">
        <ele>187.80000305176</ele>
        <time>2022-03-31T10:11:18.000Z</time>
      </trkpt>
      <trkpt lat="47.28189" lon="-2.35861">
        <ele>187.80000305176</ele>
        <time>2022-03-31T10:11:23.000Z</time>
      </trkpt>
      <trkpt lat="47.28186" lon="-2.35836">
        <ele>187.80000305176</ele>
        <time>2022-03-31T10:11:28.000Z</time>
      </trkpt>
      <trkpt lat="47.28182" lon="-2.35828">
        <ele>187.80000305176</ele>
        <time>2022-03-31T10:11:31.000Z</time>
      </trkpt>
      <trkpt lat="47.2818" lon="-2.35827">
        <ele>187.80000305176</ele>
        <time>2022-03-31T10:11:32.000Z</time>
      </trkpt>
      <trkpt lat="47.28164" lon="-2.35827">
        <ele>187.80000305176</ele>
        <time>2022-03-31T10:11:36.000Z</time>
      </trkpt>
      <trkpt lat="47.28161" lon="-2.35824">
        <ele>187.39999389648</ele>
        <time>2022-03-31T10:11:37.000Z</time>
      </trkpt>
      <trkpt lat="47.28158" lon="-2.35823">
        <ele>187</ele>
        <time>2022-03-31T10:11:38.000Z</time>
      </trkpt>
      <trkpt lat="47.28153" lon="-2.3582">
        <ele>186.60000610352</ele>
        <time>2022-03-31T10:11:39.000Z</time>
      </trkpt>
      <trkpt lat="47.2815" lon="-2.35816">
        <ele>186.19999694824</ele>
        <time>2022-03-31T10:11:40.000Z</time>
      </trkpt>
      <trkpt lat="47.28147" lon="-2.35812">
        <ele>185.80000305176</ele>
        <time>2022-03-31T10:11:41.000Z</time>
      </trkpt>
      <trkpt lat="47.28143" lon="-2.35809">
        <ele>185.80000305176</ele>
        <time>2022-03-31T10:11:42.000Z</time>
      </trkpt>
      <trkpt lat="47.28141" lon="-2.35802">
        <ele>185.80000305176</ele>
        <time>2022-03-31T10:11:43.000Z</time>
      </trkpt>
      <trkpt lat="47.2814" lon="-2.35787">
        <ele>185.80000305176</ele>
        <time>2022-03-31T10:11:45.000Z</time>
      </trkpt>
      <trkpt lat="47.28133" lon="-2.35764">
        <ele>185.80000305176</ele>
        <time>2022-03-31T10:11:49.000Z</time>
      </trkpt>
      <trkpt lat="47.28116" lon="-2.3576">
        <ele>185.80000305176</ele>
        <time>2022-03-31T10:11:52.000Z</time>
      </trkpt>
      <trkpt lat="47.28112" lon="-2.35763">
        <ele>185.39999389648</ele>
        <time>2022-03-31T10:11:53.000Z</time>
      </trkpt>
      <trkpt lat="47.28109" lon="-2.35767">
        <ele>185</ele>
        <time>2022-03-31T10:11:54.000Z</time>
      </trkpt>
      <trkpt lat="47.28106" lon="-2.35771">
        <ele>184.60000610352</ele>
        <time>2022-03-31T10:11:55.000Z</time>
      </trkpt>
      <trkpt lat="47.28104" lon="-2.35777">
        <ele>184.19999694824</ele>
        <time>2022-03-31T10:11:56.000Z</time>
      </trkpt>
      <trkpt lat="47.28101" lon="-2.35782">
        <ele>183.80000305176</ele>
        <time>2022-03-31T10:11:57.000Z</time>
      </trkpt>
      <trkpt lat="47.28097" lon="-2.35791">
        <ele>183.80000305176</ele>
        <time>2022-03-31T10:11:59.000Z</time>
      </trkpt>
      <trkpt lat="47.28095" lon="-2.35795">
        <ele>183.80000305176</ele>
        <time>2022-03-31T10:12:00.000Z</time>
      </trkpt>
      <trkpt lat="47.28081" lon="-2.3581">
        <ele>183.80000305176</ele>
        <time>2022-03-31T10:12:05.000Z</time>
      </trkpt>
      <trkpt lat="47.28079" lon="-2.35808">
        <ele>183.80000305176</ele>
        <time>2022-03-31T10:12:06.000Z</time>
      </trkpt>
      <trkpt lat="47.28078" lon="-2.358">
        <ele>183.80000305176</ele>
        <time>2022-03-31T10:12:08.000Z</time>
      </trkpt>
      <trkpt lat="47.2808" lon="-2.35792">
        <ele>184.19999694824</ele>
        <time>2022-03-31T10:12:10.000Z</time>
      </trkpt>
      <trkpt lat="47.28081" lon="-2.35787">
        <ele>184.60000610352</ele>
        <time>2022-03-31T10:12:11.000Z</time>
      </trkpt>
      <trkpt lat="47.28083" lon="-2.35782">
        <ele>185</ele>
        <time>2022-03-31T10:12:12.000Z</time>
      </trkpt>
      <trkpt lat="47.28084" lon="-2.35777">
        <ele>185.39999389648</ele>
        <time>2022-03-31T10:12:13.000Z</time>
      </trkpt>
      <trkpt lat="47.28084" lon="-2.35772">
        <ele>186</ele>
        <time>2022-03-31T10:12:14.000Z</time>
      </trkpt>
      <trkpt lat="47.28087" lon="-2.35756">
        <ele>186</ele>
        <time>2022-03-31T10:12:17.000Z</time>
      </trkpt>
      <trkpt lat="47.28088" lon="-2.35742">
        <ele>186.39999389648</ele>
        <time>2022-03-31T10:12:20.000Z</time>
      </trkpt>
      <trkpt lat="47.28088" lon="-2.35737">
        <ele>186.80000305176</ele>
        <time>2022-03-31T10:12:21.000Z</time>
      </trkpt>
      <trkpt lat="47.28089" lon="-2.35732">
        <ele>187.19999694824</ele>
        <time>2022-03-31T10:12:22.000Z</time>
      </trkpt>
      <trkpt lat="47.28091" lon="-2.35727">
        <ele>187.60000610352</ele>
        <time>2022-03-31T10:12:23.000Z</time>
      </trkpt>
      <trkpt lat="47.28091" lon="-2.35722">
        <ele>188</ele>
        <time>2022-03-31T10:12:24.000Z</time>
      </trkpt>
      <trkpt lat="47.28092" lon="-2.35699">
        <ele>188</ele>
        <time>2022-03-31T10:12:29.000Z</time>
      </trkpt>
      <trkpt lat="47.28084" lon="-2.35667">
        <ele>188</ele>
        <time>2022-03-31T10:12:34.000Z</time>
      </trkpt>
      <trkpt lat="47.28078" lon="-2.35637">
        <ele>188</ele>
        <time>2022-03-31T10:12:38.000Z</time>
      </trkpt>
      <trkpt lat="47.28076" lon="-2.35631">
        <ele>187.39999389648</ele>
        <time>2022-03-31T10:12:39.000Z</time>
      </trkpt>
      <trkpt lat="47.28075" lon="-2.35624">
        <ele>187</ele>
        <time>2022-03-31T10:12:40.000Z</time>
      </trkpt>
      <trkpt lat="47.28075" lon="-2.35619">
        <ele>186.39999389648</ele>
        <time>2022-03-31T10:12:41.000Z</time>
      </trkpt>
      <trkpt lat="47.28076" lon="-2.35615">
        <ele>185.80000305176</ele>
        <time>2022-03-31T10:12:42.000Z</time>
      </trkpt>
      <trkpt lat="47.28078" lon="-2.35613">
        <ele>185.19999694824</ele>
        <time>2022-03-31T10:12:43.000Z</time>
      </trkpt>
      <trkpt lat="47.2808" lon="-2.35614">
        <ele>184.60000610352</ele>
        <time>2022-03-31T10:12:44.000Z</time>
      </trkpt>
      <trkpt lat="47.28082" lon="-2.35616">
        <ele>184</ele>
        <time>2022-03-31T10:12:45.000Z</time>
      </trkpt>
      <trkpt lat="47.28084" lon="-2.35617">
        <ele>183.39999389648</ele>
        <time>2022-03-31T10:12:46.000Z</time>
      </trkpt>
      <trkpt lat="47.2809" lon="-2.35626">
        <ele>183.39999389648</ele>
        <time>2022-03-31T10:12:50.000Z</time>
      </trkpt>
      <trkpt lat="47.28095" lon="-2.3564">
        <ele>183.39999389648</ele>
        <time>2022-03-31T10:12:55.000Z</time>
      </trkpt>
      <trkpt lat="47.28096" lon="-2.35643">
        <ele>183.39999389648</ele>
        <time>2022-03-31T10:12:58.000Z</time>
      </trkpt>
      <trkpt lat="47.28094" lon="-2.3563">
        <ele>183.39999389648</ele>
        <time>2022-03-31T10:33:00.000Z</time>
      </trkpt>
      <trkpt lat="47.28092" lon="-2.35628">
        <ele>183.39999389648</ele>
        <time>2022-03-31T10:33:01.000Z</time>
      </trkpt>
      <trkpt lat="47.28082" lon="-2.35615">
        <ele>183.39999389648</ele>
        <time>2022-03-31T10:33:07.000Z</time>
      </trkpt>
      <trkpt lat="47.28072" lon="-2.35608">
        <ele>183.39999389648</ele>
        <time>2022-03-31T10:33:11.000Z</time>
      </trkpt>
      <trkpt lat="47.28069" lon="-2.35609">
        <ele>183.39999389648</ele>
        <time>2022-03-31T10:33:12.000Z</time>
      </trkpt>
      <trkpt lat="47.28057" lon="-2.35606">
        <ele>183.39999389648</ele>
        <time>2022-03-31T10:33:16.000Z</time>
      </trkpt>
      <trkpt lat="47.28054" lon="-2.35605">
        <ele>183.39999389648</ele>
        <time>2022-03-31T10:33:17.000Z</time>
      </trkpt>
      <trkpt lat="47.28044" lon="-2.35604">
        <ele>183.39999389648</ele>
        <time>2022-03-31T10:33:21.000Z</time>
      </trkpt>
      <trkpt lat="47.28042" lon="-2.35602">
        <ele>183.39999389648</ele>
        <time>2022-03-31T10:33:22.000Z</time>
      </trkpt>
      <trkpt lat="47.28039" lon="-2.35591">
        <ele>183.39999389648</ele>
        <time>2022-03-31T10:33:25.000Z</time>
      </trkpt>
      <trkpt lat="47.28033" lon="-2.35567">
        <ele>183.39999389648</ele>
        <time>2022-03-31T10:33:29.000Z</time>
      </trkpt>
      <trkpt lat="47.28018" lon="-2.35554">
        <ele>183.39999389648</ele>
        <time>2022-03-31T10:33:32.000Z</time>
      </trkpt>
      <trkpt lat="47.28013" lon="-2.35553">
        <ele>183.39999389648</ele>
        <time>2022-03-31T10:33:33.000Z</time>
      </trkpt>
      <trkpt lat="47.28008" lon="-2.35549">
        <ele>183.39999389648</ele>
        <time>2022-03-31T10:33:34.000Z</time>
      </trkpt>
      <trkpt lat="47.28001" lon="-2.35538">
        <ele>183</ele>
        <time>2022-03-31T10:33:36.000Z</time>
      </trkpt>
      <trkpt lat="47.27999" lon="-2.3553">
        <ele>182.60000610352</ele>
        <time>2022-03-31T10:33:37.000Z</time>
      </trkpt>
      <trkpt lat="47.27996" lon="-2.35522">
        <ele>182.19999694824</ele>
        <time>2022-03-31T10:33:38.000Z</time>
      </trkpt>
      <trkpt lat="47.27992" lon="-2.35514">
        <ele>181.80000305176</ele>
        <time>2022-03-31T10:33:39.000Z</time>
      </trkpt>
      <trkpt lat="47.27988" lon="-2.35506">
        <ele>181.39999389648</ele>
        <time>2022-03-31T10:33:40.000Z</time>
      </trkpt>
      <trkpt lat="47.27984" lon="-2.35497">
        <ele>181.39999389648</ele>
        <time>2022-03-31T10:33:41.000Z</time>
      </trkpt>
      <trkpt lat="47.27976" lon="-2.3548">
        <ele>181.39999389648</ele>
        <time>2022-03-31T10:33:43.000Z</time>
      </trkpt>
      <trkpt lat="47.27972" lon="-2.35473">
        <ele>181</ele>
        <time>2022-03-31T10:33:44.000Z</time>
      </trkpt>
      <trkpt lat="47.27967" lon="-2.35468">
        <ele>180.60000610352</ele>
        <time>2022-03-31T10:33:45.000Z</time>
      </trkpt>
      <trkpt lat="47.27962" lon="-2.35463">
        <ele>180</ele>
        <time>2022-03-31T10:33:46.000Z</time>
      </trkpt>
      <trkpt lat="47.27956" lon="-2.3546">
        <ele>179.60000610352</ele>
        <time>2022-03-31T10:33:47.000Z</time>
      </trkpt>
      <trkpt lat="47.2795" lon="-2.35457">
        <ele>179.19999694824</ele>
        <time>2022-03-31T10:33:48.000Z</time>
      </trkpt>
      <trkpt lat="47.27945" lon="-2.35454">
        <ele>179.19999694824</ele>
        <time>2022-03-31T10:33:49.000Z</time>
      </trkpt>
      <trkpt lat="47.27921" lon="-2.35426">
        <ele>179.19999694824</ele>
        <time>2022-03-31T10:33:54.000Z</time>
      </trkpt>
      <trkpt lat="47.27917" lon="-2.3542">
        <ele>179.19999694824</ele>
        <time>2022-03-31T10:33:55.000Z</time>
      </trkpt>
      <trkpt lat="47.27892" lon="-2.35387">
        <ele>179.19999694824</ele>
        <time>2022-03-31T10:34:01.000Z</time>
      </trkpt>
      <trkpt lat="47.27871" lon="-2.35364">
        <ele>179.19999694824</ele>
        <time>2022-03-31T10:34:06.000Z</time>
      </trkpt>
      <trkpt lat="47.27866" lon="-2.35361">
        <ele>179.19999694824</ele>
        <time>2022-03-31T10:34:07.000Z</time>
      </trkpt>
      <trkpt lat="47.27844" lon="-2.35359">
        <ele>179.19999694824</ele>
        <time>2022-03-31T10:34:11.000Z</time>
      </trkpt>
      <trkpt lat="47.27826" lon="-2.35361">
        <ele>179.19999694824</ele>
        <time>2022-03-31T10:34:14.000Z</time>
      </trkpt>
      <trkpt lat="47.27808" lon="-2.35358">
        <ele>179.19999694824</ele>
        <time>2022-03-31T10:34:17.000Z</time>
      </trkpt>
      <trkpt lat="47.27797" lon="-2.35338">
        <ele>179.19999694824</ele>
        <time>2022-03-31T10:34:20.000Z</time>
      </trkpt>
      <trkpt lat="47.27792" lon="-2.35322">
        <ele>179.19999694824</ele>
        <time>2022-03-31T10:34:22.000Z</time>
      </trkpt>
      <trkpt lat="47.27785" lon="-2.35288">
        <ele>179.19999694824</ele>
        <time>2022-03-31T10:34:26.000Z</time>
      </trkpt>
      <trkpt lat="47.27773" lon="-2.35223">
        <ele>179.19999694824</ele>
        <time>2022-03-31T10:34:34.000Z</time>
      </trkpt>
      <trkpt lat="47.27771" lon="-2.3521">
        <ele>179.19999694824</ele>
        <time>2022-03-31T10:34:36.000Z</time>
      </trkpt>
      <trkpt lat="47.27763" lon="-2.35203">
        <ele>179.19999694824</ele>
        <time>2022-03-31T10:34:38.000Z</time>
      </trkpt>
      <trkpt lat="47.27748" lon="-2.35203">
        <ele>179.19999694824</ele>
        <time>2022-03-31T10:34:41.000Z</time>
      </trkpt>
      <trkpt lat="47.27744" lon="-2.35204">
        <ele>179.19999694824</ele>
        <time>2022-03-31T10:34:42.000Z</time>
      </trkpt>
      <trkpt lat="47.27726" lon="-2.35208">
        <ele>179.19999694824</ele>
        <time>2022-03-31T10:34:46.000Z</time>
      </trkpt>
      <trkpt lat="47.27709" lon="-2.35212">
        <ele>179.19999694824</ele>
        <time>2022-03-31T10:34:50.000Z</time>
      </trkpt>
      <trkpt lat="47.27693" lon="-2.35218">
        <ele>179.19999694824</ele>
        <time>2022-03-31T10:34:54.000Z</time>
      </trkpt>
      <trkpt lat="47.2766" lon="-2.35228">
        <ele>179.19999694824</ele>
        <time>2022-03-31T10:35:02.000Z</time>
      </trkpt>
      <trkpt lat="47.27656" lon="-2.35229">
        <ele>179.19999694824</ele>
        <time>2022-03-31T10:35:03.000Z</time>
      </trkpt>
      <trkpt lat="47.2764" lon="-2.35235">
        <ele>179.19999694824</ele>
        <time>2022-03-31T10:35:07.000Z</time>
      </trkpt>
      <trkpt lat="47.27636" lon="-2.35237">
        <ele>179.60000610352</ele>
        <time>2022-03-31T10:35:08.000Z</time>
      </trkpt>
      <trkpt lat="47.27632" lon="-2.35239">
        <ele>180</ele>
        <time>2022-03-31T10:35:09.000Z</time>
      </trkpt>
      <trkpt lat="47.27628" lon="-2.35241">
        <ele>180.39999389648</ele>
        <time>2022-03-31T10:35:10.000Z</time>
      </trkpt>
      <trkpt lat="47.27623" lon="-2.35243">
        <ele>180.80000305176</ele>
        <time>2022-03-31T10:35:11.000Z</time>
      </trkpt>
      <trkpt lat="47.27619" lon="-2.35245">
        <ele>181.19999694824</ele>
        <time>2022-03-31T10:35:12.000Z</time>
      </trkpt>
      <trkpt lat="47.27592" lon="-2.35262">
        <ele>181.19999694824</ele>
        <time>2022-03-31T10:35:19.000Z</time>
      </trkpt>
      <trkpt lat="47.27581" lon="-2.35271">
        <ele>181.19999694824</ele>
        <time>2022-03-31T10:35:22.000Z</time>
      </trkpt>
      <trkpt lat="47.27574" lon="-2.35278">
        <ele>181.19999694824</ele>
        <time>2022-03-31T10:35:24.000Z</time>
      </trkpt>
      <trkpt lat="47.2757" lon="-2.3528">
        <ele>181.19999694824</ele>
        <time>2022-03-31T10:35:25.000Z</time>
      </trkpt>
      <trkpt lat="47.27556" lon="-2.35285">
        <ele>181.19999694824</ele>
        <time>2022-03-31T10:35:28.000Z</time>
      </trkpt>
      <trkpt lat="47.27541" lon="-2.35289">
        <ele>181.19999694824</ele>
        <time>2022-03-31T10:35:31.000Z</time>
      </trkpt>
      <trkpt lat="47.2751" lon="-2.35297">
        <ele>181.19999694824</ele>
        <time>2022-03-31T10:35:37.000Z</time>
      </trkpt>
      <trkpt lat="47.27505" lon="-2.35297">
        <ele>181.19999694824</ele>
        <time>2022-03-31T10:35:38.000Z</time>
      </trkpt>
      <trkpt lat="47.27494" lon="-2.35285">
        <ele>181.19999694824</ele>
        <time>2022-03-31T10:35:41.000Z</time>
      </trkpt>
      <trkpt lat="47.27494" lon="-2.35259">
        <ele>181.19999694824</ele>
        <time>2022-03-31T10:35:45.000Z</time>
      </trkpt>
      <trkpt lat="47.27495" lon="-2.3524">
        <ele>181.19999694824</ele>
        <time>2022-03-31T10:35:48.000Z</time>
      </trkpt>
      <trkpt lat="47.27498" lon="-2.35221">
        <ele>181.19999694824</ele>
        <time>2022-03-31T10:35:51.000Z</time>
      </trkpt>
      <trkpt lat="47.27499" lon="-2.35186">
        <ele>181.80000305176</ele>
        <time>2022-03-31T10:35:57.000Z</time>
      </trkpt>
      <trkpt lat="47.27499" lon="-2.35181">
        <ele>182.19999694824</ele>
        <time>2022-03-31T10:35:58.000Z</time>
      </trkpt>
      <trkpt lat="47.27498" lon="-2.35175">
        <ele>182.60000610352</ele>
        <time>2022-03-31T10:35:59.000Z</time>
      </trkpt>
      <trkpt lat="47.27498" lon="-2.35169">
        <ele>183</ele>
        <time>2022-03-31T10:36:00.000Z</time>
      </trkpt>
      <trkpt lat="47.27498" lon="-2.35164">
        <ele>183.39999389648</ele>
        <time>2022-03-31T10:36:01.000Z</time>
      </trkpt>
      <trkpt lat="47.27499" lon="-2.35152">
        <ele>183.39999389648</ele>
        <time>2022-03-31T10:36:03.000Z</time>
      </trkpt>
      <trkpt lat="47.27497" lon="-2.35144">
        <ele>183.39999389648</ele>
        <time>2022-03-31T10:36:05.000Z</time>
      </trkpt>
      <trkpt lat="47.27493" lon="-2.35144">
        <ele>183.39999389648</ele>
        <time>2022-03-31T10:36:06.000Z</time>
      </trkpt>
      <trkpt lat="47.27476" lon="-2.35151">
        <ele>183.39999389648</ele>
        <time>2022-03-31T10:36:10.000Z</time>
      </trkpt>
      <trkpt lat="47.27445" lon="-2.35168">
        <ele>183.39999389648</ele>
        <time>2022-03-31T10:36:16.000Z</time>
      </trkpt>
      <trkpt lat="47.27412" lon="-2.35185">
        <ele>183.39999389648</ele>
        <time>2022-03-31T10:36:22.000Z</time>
      </trkpt>
      <trkpt lat="47.27399" lon="-2.35191">
        <ele>183</ele>
        <time>2022-03-31T10:36:24.000Z</time>
      </trkpt>
      <trkpt lat="47.27392" lon="-2.35194">
        <ele>182.60000610352</ele>
        <time>2022-03-31T10:36:25.000Z</time>
      </trkpt>
      <trkpt lat="47.27386" lon="-2.35198">
        <ele>182.19999694824</ele>
        <time>2022-03-31T10:36:26.000Z</time>
      </trkpt>
      <trkpt lat="47.27379" lon="-2.35202">
        <ele>181.80000305176</ele>
        <time>2022-03-31T10:36:27.000Z</time>
      </trkpt>
      <trkpt lat="47.27373" lon="-2.35205">
        <ele>181.19999694824</ele>
        <time>2022-03-31T10:36:28.000Z</time>
      </trkpt>
      <trkpt lat="47.27354" lon="-2.35214">
        <ele>180.80000305176</ele>
        <time>2022-03-31T10:36:31.000Z</time>
      </trkpt>
      <trkpt lat="47.27348" lon="-2.35217">
        <ele>180.19999694824</ele>
        <time>2022-03-31T10:36:32.000Z</time>
      </trkpt>
      <trkpt lat="47.27343" lon="-2.35219">
        <ele>179.80000305176</ele>
        <time>2022-03-31T10:36:33.000Z</time>
      </trkpt>
      <trkpt lat="47.2734" lon="-2.35221">
        <ele>179.19999694824</ele>
        <time>2022-03-31T10:36:34.000Z</time>
      </trkpt>
      <trkpt lat="47.27337" lon="-2.35223">
        <ele>178.39999389648</ele>
        <time>2022-03-31T10:36:35.000Z</time>
      </trkpt>
      <trkpt lat="47.27334" lon="-2.35224">
        <ele>177.80000305176</ele>
        <time>2022-03-31T10:36:36.000Z</time>
      </trkpt>
      <trkpt lat="47.2733" lon="-2.35225">
        <ele>177.19999694824</ele>
        <time>2022-03-31T10:36:37.000Z</time>
      </trkpt>
      <trkpt lat="47.27327" lon="-2.35223">
        <ele>176.60000610352</ele>
        <time>2022-03-31T10:36:38.000Z</time>
      </trkpt>
      <trkpt lat="47.27325" lon="-2.35219">
        <ele>176.60000610352</ele>
        <time>2022-03-31T10:36:39.000Z</time>
      </trkpt>
      <trkpt lat="47.27319" lon="-2.35194">
        <ele>176.60000610352</ele>
        <time>2022-03-31T10:36:43.000Z</time>
      </trkpt>
      <trkpt lat="47.2731" lon="-2.35146">
        <ele>176.60000610352</ele>
        <time>2022-03-31T10:36:50.000Z</time>
      </trkpt>
      <trkpt lat="47.27302" lon="-2.35114">
        <ele>176.60000610352</ele>
        <time>2022-03-31T10:36:55.000Z</time>
      </trkpt>
      <trkpt lat="47.27301" lon="-2.35109">
        <ele>176.60000610352</ele>
        <time>2022-03-31T10:36:56.000Z</time>
      </trkpt>
      <trkpt lat="47.27296" lon="-2.35104">
        <ele>176.60000610352</ele>
        <time>2022-03-31T10:36:58.000Z</time>
      </trkpt>
      <trkpt lat="47.27282" lon="-2.35111">
        <ele>176.60000610352</ele>
        <time>2022-03-31T10:37:01.000Z</time>
      </trkpt>
      <trkpt lat="47.27277" lon="-2.35115">
        <ele>176.60000610352</ele>
        <time>2022-03-31T10:37:02.000Z</time>
      </trkpt>
      <trkpt lat="47.27266" lon="-2.35121">
        <ele>176.60000610352</ele>
        <time>2022-03-31T10:37:04.000Z</time>
      </trkpt>
      <trkpt lat="47.27254" lon="-2.35123">
        <ele>176.60000610352</ele>
        <time>2022-03-31T10:37:06.000Z</time>
      </trkpt>
      <trkpt lat="47.27242" lon="-2.3511">
        <ele>175.80000305176</ele>
        <time>2022-03-31T10:37:09.000Z</time>
      </trkpt>
      <trkpt lat="47.27239" lon="-2.35102">
        <ele>175.39999389648</ele>
        <time>2022-03-31T10:37:10.000Z</time>
      </trkpt>
      <trkpt lat="47.27236" lon="-2.35095">
        <ele>175</ele>
        <time>2022-03-31T10:37:11.000Z</time>
      </trkpt>
      <trkpt lat="47.27233" lon="-2.35087">
        <ele>174.60000610352</ele>
        <time>2022-03-31T10:37:12.000Z</time>
      </trkpt>
      <trkpt lat="47.27221" lon="-2.35059">
        <ele>174.60000610352</ele>
        <time>2022-03-31T10:37:16.000Z</time>
      </trkpt>
      <trkpt lat="47.27198" lon="-2.34995">
        <ele>174.60000610352</ele>
        <time>2022-03-31T10:37:25.000Z</time>
      </trkpt>
      <trkpt lat="47.27181" lon="-2.34944">
        <ele>174.60000610352</ele>
        <time>2022-03-31T10:37:32.000Z</time>
      </trkpt>
      <trkpt lat="47.27161" lon="-2.34882">
        <ele>174.60000610352</ele>
        <time>2022-03-31T10:37:40.000Z</time>
      </trkpt>
      <trkpt lat="47.27148" lon="-2.34824">
        <ele>174.60000610352</ele>
        <time>2022-03-31T10:37:47.000Z</time>
      </trkpt>
      <trkpt lat="47.27133" lon="-2.34743">
        <ele>174.60000610352</ele>
        <time>2022-03-31T10:37:57.000Z</time>
      </trkpt>
      <trkpt lat="47.2712" lon="-2.34684">
        <ele>174.60000610352</ele>
        <time>2022-03-31T10:38:04.000Z</time>
      </trkpt>
      <trkpt lat="47.27108" lon="-2.34629">
        <ele>174.60000610352</ele>
        <time>2022-03-31T10:38:11.000Z</time>
      </trkpt>
      <trkpt lat="47.27095" lon="-2.3458">
        <ele>174.60000610352</ele>
        <time>2022-03-31T10:38:18.000Z</time>
      </trkpt>
      <trkpt lat="47.27082" lon="-2.34518">
        <ele>174.60000610352</ele>
        <time>2022-03-31T10:38:26.000Z</time>
      </trkpt>
      <trkpt lat="47.2708" lon="-2.34509">
        <ele>174.19999694824</ele>
        <time>2022-03-31T10:38:27.000Z</time>
      </trkpt>
      <trkpt lat="47.27078" lon="-2.34502">
        <ele>173.80000305176</ele>
        <time>2022-03-31T10:38:28.000Z</time>
      </trkpt>
      <trkpt lat="47.27076" lon="-2.34494">
        <ele>173.39999389648</ele>
        <time>2022-03-31T10:38:29.000Z</time>
      </trkpt>
      <trkpt lat="47.27074" lon="-2.34486">
        <ele>173</ele>
        <time>2022-03-31T10:38:30.000Z</time>
      </trkpt>
      <trkpt lat="47.27073" lon="-2.34478">
        <ele>172.60000610352</ele>
        <time>2022-03-31T10:38:31.000Z</time>
      </trkpt>
      <trkpt lat="47.27069" lon="-2.34463">
        <ele>172.60000610352</ele>
        <time>2022-03-31T10:38:33.000Z</time>
      </trkpt>
      <trkpt lat="47.27054" lon="-2.34401">
        <ele>172.60000610352</ele>
        <time>2022-03-31T10:38:41.000Z</time>
      </trkpt>
      <trkpt lat="47.27042" lon="-2.34348">
        <ele>172.60000610352</ele>
        <time>2022-03-31T10:38:48.000Z</time>
      </trkpt>
      <trkpt lat="47.27035" lon="-2.34327">
        <ele>172.60000610352</ele>
        <time>2022-03-31T10:38:52.000Z</time>
      </trkpt>
      <trkpt lat="47.27033" lon="-2.34324">
        <ele>172.60000610352</ele>
        <time>2022-03-31T10:38:53.000Z</time>
      </trkpt>
      <trkpt lat="47.27023" lon="-2.34322">
        <ele>172.60000610352</ele>
        <time>2022-03-31T10:38:56.000Z</time>
      </trkpt>
      <trkpt lat="47.27019" lon="-2.34321">
        <ele>172.60000610352</ele>
        <time>2022-03-31T10:38:57.000Z</time>
      </trkpt>
      <trkpt lat="47.27011" lon="-2.34316">
        <ele>172.60000610352</ele>
        <time>2022-03-31T10:38:59.000Z</time>
      </trkpt>
      <trkpt lat="47.27007" lon="-2.34305">
        <ele>172.60000610352</ele>
        <time>2022-03-31T10:39:01.000Z</time>
      </trkpt>
      <trkpt lat="47.27006" lon="-2.34282">
        <ele>172.60000610352</ele>
        <time>2022-03-31T10:39:04.000Z</time>
      </trkpt>
      <trkpt lat="47.27006" lon="-2.34274">
        <ele>172.60000610352</ele>
        <time>2022-03-31T10:39:05.000Z</time>
      </trkpt>
      <trkpt lat="47.26999" lon="-2.34242">
        <ele>172.60000610352</ele>
        <time>2022-03-31T10:39:09.000Z</time>
      </trkpt>
      <trkpt lat="47.26986" lon="-2.34192">
        <ele>172.60000610352</ele>
        <time>2022-03-31T10:39:15.000Z</time>
      </trkpt>
      <trkpt lat="47.2697" lon="-2.34124">
        <ele>172.60000610352</ele>
        <time>2022-03-31T10:39:23.000Z</time>
      </trkpt>
      <trkpt lat="47.26954" lon="-2.34052">
        <ele>172.60000610352</ele>
        <time>2022-03-31T10:39:31.000Z</time>
      </trkpt>
      <trkpt lat="47.26939" lon="-2.33987">
        <ele>172.60000610352</ele>
        <time>2022-03-31T10:39:38.000Z</time>
      </trkpt>
      <trkpt lat="47.26933" lon="-2.33961">
        <ele>172</ele>
        <time>2022-03-31T10:39:41.000Z</time>
      </trkpt>
      <trkpt lat="47.26931" lon="-2.33953">
        <ele>171.60000610352</ele>
        <time>2022-03-31T10:39:42.000Z</time>
      </trkpt>
      <trkpt lat="47.26929" lon="-2.33945">
        <ele>171.19999694824</ele>
        <time>2022-03-31T10:39:43.000Z</time>
      </trkpt>
      <trkpt lat="47.26927" lon="-2.33937">
        <ele>170.80000305176</ele>
        <time>2022-03-31T10:39:44.000Z</time>
      </trkpt>
      <trkpt lat="47.26925" lon="-2.33929">
        <ele>170.39999389648</ele>
        <time>2022-03-31T10:39:45.000Z</time>
      </trkpt>
      <trkpt lat="47.26909" lon="-2.33863">
        <ele>170.39999389648</ele>
        <time>2022-03-31T10:39:53.000Z</time>
      </trkpt>
      <trkpt lat="47.26895" lon="-2.33807">
        <ele>170.39999389648</ele>
        <time>2022-03-31T10:40:00.000Z</time>
      </trkpt>
      <trkpt lat="47.26892" lon="-2.338">
        <ele>170.39999389648</ele>
        <time>2022-03-31T10:40:01.000Z</time>
      </trkpt>
      <trkpt lat="47.26884" lon="-2.33792">
        <ele>170.39999389648</ele>
        <time>2022-03-31T10:40:03.000Z</time>
      </trkpt>
      <trkpt lat="47.26873" lon="-2.33787">
        <ele>170.39999389648</ele>
        <time>2022-03-31T10:40:05.000Z</time>
      </trkpt>
      <trkpt lat="47.26862" lon="-2.33782">
        <ele>170</ele>
        <time>2022-03-31T10:40:07.000Z</time>
      </trkpt>
      <trkpt lat="47.26857" lon="-2.3378">
        <ele>169.60000610352</ele>
        <time>2022-03-31T10:40:08.000Z</time>
      </trkpt>
      <trkpt lat="47.26851" lon="-2.33779">
        <ele>169.19999694824</ele>
        <time>2022-03-31T10:40:09.000Z</time>
      </trkpt>
      <trkpt lat="47.26847" lon="-2.33777">
        <ele>168.80000305176</ele>
        <time>2022-03-31T10:40:10.000Z</time>
      </trkpt>
      <trkpt lat="47.26843" lon="-2.33775">
        <ele>168.39999389648</ele>
        <time>2022-03-31T10:40:11.000Z</time>
      </trkpt>
      <trkpt lat="47.26836" lon="-2.33768">
        <ele>168.39999389648</ele>
        <time>2022-03-31T10:40:13.000Z</time>
      </trkpt>
      <trkpt lat="47.26824" lon="-2.33755">
        <ele>168.39999389648</ele>
        <time>2022-03-31T10:40:16.000Z</time>
      </trkpt>
      <trkpt lat="47.26816" lon="-2.33745">
        <ele>168.39999389648</ele>
        <time>2022-03-31T10:40:18.000Z</time>
      </trkpt>
      <trkpt lat="47.26784" lon="-2.33714">
        <ele>168.39999389648</ele>
        <time>2022-03-31T10:40:25.000Z</time>
      </trkpt>
      <trkpt lat="47.26778" lon="-2.33711">
        <ele>168.39999389648</ele>
        <time>2022-03-31T10:40:26.000Z</time>
      </trkpt>
      <trkpt lat="47.26757" lon="-2.33702">
        <ele>168.39999389648</ele>
        <time>2022-03-31T10:40:30.000Z</time>
      </trkpt>
      <trkpt lat="47.26751" lon="-2.337">
        <ele>168.39999389648</ele>
        <time>2022-03-31T10:40:31.000Z</time>
      </trkpt>
      <trkpt lat="47.26727" lon="-2.337">
        <ele>168.39999389648</ele>
        <time>2022-03-31T10:40:35.000Z</time>
      </trkpt>
      <trkpt lat="47.26686" lon="-2.33699">
        <ele>168.39999389648</ele>
        <time>2022-03-31T10:40:42.000Z</time>
      </trkpt>
      <trkpt lat="47.26639" lon="-2.33701">
        <ele>168.39999389648</ele>
        <time>2022-03-31T10:40:50.000Z</time>
      </trkpt>
      <trkpt lat="47.26634" lon="-2.33702">
        <ele>168.39999389648</ele>
        <time>2022-03-31T10:40:51.000Z</time>
      </trkpt>
      <trkpt lat="47.26612" lon="-2.33703">
        <ele>168.39999389648</ele>
        <time>2022-03-31T10:40:55.000Z</time>
      </trkpt>
      <trkpt lat="47.26608" lon="-2.33705">
        <ele>168.39999389648</ele>
        <time>2022-03-31T10:40:56.000Z</time>
      </trkpt>
      <trkpt lat="47.26594" lon="-2.33699">
        <ele>168.39999389648</ele>
        <time>2022-03-31T10:41:00.000Z</time>
      </trkpt>
      <trkpt lat="47.2658" lon="-2.33691">
        <ele>168.39999389648</ele>
        <time>2022-03-31T10:41:03.000Z</time>
      </trkpt>
      <trkpt lat="47.26573" lon="-2.33681">
        <ele>168.39999389648</ele>
        <time>2022-03-31T10:41:05.000Z</time>
      </trkpt>
      <trkpt lat="47.26573" lon="-2.33656">
        <ele>168.39999389648</ele>
        <time>2022-03-31T10:41:08.000Z</time>
      </trkpt>
      <trkpt lat="47.2657" lon="-2.33628">
        <ele>168.39999389648</ele>
        <time>2022-03-31T10:41:11.000Z</time>
      </trkpt>
      <trkpt lat="47.26568" lon="-2.33617">
        <ele>168.39999389648</ele>
        <time>2022-03-31T10:41:12.000Z</time>
      </trkpt>
      <trkpt lat="47.26562" lon="-2.33575">
        <ele>167.80000305176</ele>
        <time>2022-03-31T10:41:16.000Z</time>
      </trkpt>
      <trkpt lat="47.26561" lon="-2.33564">
        <ele>167.39999389648</ele>
        <time>2022-03-31T10:41:17.000Z</time>
      </trkpt>
      <trkpt lat="47.26559" lon="-2.33554">
        <ele>167</ele>
        <time>2022-03-31T10:41:18.000Z</time>
      </trkpt>
      <trkpt lat="47.26557" lon="-2.33544">
        <ele>166.60000610352</ele>
        <time>2022-03-31T10:41:19.000Z</time>
      </trkpt>
      <trkpt lat="47.26555" lon="-2.33534">
        <ele>166.19999694824</ele>
        <time>2022-03-31T10:41:20.000Z</time>
      </trkpt>
      <trkpt lat="47.26549" lon="-2.33506">
        <ele>166.19999694824</ele>
        <time>2022-03-31T10:41:23.000Z</time>
      </trkpt>
      <trkpt lat="47.26542" lon="-2.33488">
        <ele>166.19999694824</ele>
        <time>2022-03-31T10:41:25.000Z</time>
      </trkpt>
      <trkpt lat="47.26537" lon="-2.33469">
        <ele>166.19999694824</ele>
        <time>2022-03-31T10:41:27.000Z</time>
      </trkpt>
      <trkpt lat="47.26532" lon="-2.33441">
        <ele>166.19999694824</ele>
        <time>2022-03-31T10:41:30.000Z</time>
      </trkpt>
      <trkpt lat="47.26525" lon="-2.33389">
        <ele>166.19999694824</ele>
        <time>2022-03-31T10:41:36.000Z</time>
      </trkpt>
      <trkpt lat="47.26518" lon="-2.33358">
        <ele>166.19999694824</ele>
        <time>2022-03-31T10:41:40.000Z</time>
      </trkpt>
      <trkpt lat="47.26515" lon="-2.33354">
        <ele>166.19999694824</ele>
        <time>2022-03-31T10:41:41.000Z</time>
      </trkpt>
      <trkpt lat="47.26498" lon="-2.33346">
        <ele>166.19999694824</ele>
        <time>2022-03-31T10:41:45.000Z</time>
      </trkpt>
      <trkpt lat="47.26492" lon="-2.33346">
        <ele>166.19999694824</ele>
        <time>2022-03-31T10:41:49.000Z</time>
      </trkpt>
      <trkpt lat="47.26491" lon="-2.33345">
        <ele>166.19999694824</ele>
        <time>2022-03-31T10:41:51.000Z</time>
      </trkpt>
      <trkpt lat="47.2649" lon="-2.33342">
        <ele>166.19999694824</ele>
        <time>2022-03-31T10:41:53.000Z</time>
      </trkpt>
      <trkpt lat="47.26488" lon="-2.33339">
        <ele>166.19999694824</ele>
        <time>2022-03-31T10:41:54.000Z</time>
      </trkpt>
      <trkpt lat="47.26478" lon="-2.33318">
        <ele>166.19999694824</ele>
        <time>2022-03-31T10:41:59.000Z</time>
      </trkpt>
      <trkpt lat="47.26477" lon="-2.33312">
        <ele>166.19999694824</ele>
        <time>2022-03-31T10:42:00.000Z</time>
      </trkpt>
      <trkpt lat="47.26477" lon="-2.33291">
        <ele>166.19999694824</ele>
        <time>2022-03-31T10:42:03.000Z</time>
      </trkpt>
      <trkpt lat="47.26473" lon="-2.33276">
        <ele>166.19999694824</ele>
        <time>2022-03-31T10:42:06.000Z</time>
      </trkpt>
      <trkpt lat="47.26469" lon="-2.33273">
        <ele>165.60000610352</ele>
        <time>2022-03-31T10:42:07.000Z</time>
      </trkpt>
      <trkpt lat="47.26464" lon="-2.33273">
        <ele>165.19999694824</ele>
        <time>2022-03-31T10:42:08.000Z</time>
      </trkpt>
      <trkpt lat="47.26459" lon="-2.33274">
        <ele>164.80000305176</ele>
        <time>2022-03-31T10:42:09.000Z</time>
      </trkpt>
      <trkpt lat="47.26454" lon="-2.33276">
        <ele>164.39999389648</ele>
        <time>2022-03-31T10:42:10.000Z</time>
      </trkpt>
      <trkpt lat="47.26449" lon="-2.33277">
        <ele>164</ele>
        <time>2022-03-31T10:42:11.000Z</time>
      </trkpt>
      <trkpt lat="47.26438" lon="-2.33276">
        <ele>164</ele>
        <time>2022-03-31T10:42:13.000Z</time>
      </trkpt>
      <trkpt lat="47.26433" lon="-2.33275">
        <ele>164</ele>
        <time>2022-03-31T10:42:14.000Z</time>
      </trkpt>
      <trkpt lat="47.26392" lon="-2.33268">
        <ele>164</ele>
        <time>2022-03-31T10:42:21.000Z</time>
      </trkpt>
      <trkpt lat="47.26386" lon="-2.33265">
        <ele>164</ele>
        <time>2022-03-31T10:42:22.000Z</time>
      </trkpt>
      <trkpt lat="47.26376" lon="-2.33246">
        <ele>164</ele>
        <time>2022-03-31T10:42:25.000Z</time>
      </trkpt>
      <trkpt lat="47.26373" lon="-2.33211">
        <ele>164</ele>
        <time>2022-03-31T10:42:29.000Z</time>
      </trkpt>
      <trkpt lat="47.26372" lon="-2.33203">
        <ele>164</ele>
        <time>2022-03-31T10:42:30.000Z</time>
      </trkpt>
      <trkpt lat="47.2637" lon="-2.33135">
        <ele>164</ele>
        <time>2022-03-31T10:42:38.000Z</time>
      </trkpt>
      <trkpt lat="47.26369" lon="-2.33071">
        <ele>164</ele>
        <time>2022-03-31T10:42:46.000Z</time>
      </trkpt>
      <trkpt lat="47.26367" lon="-2.33004">
        <ele>164</ele>
        <time>2022-03-31T10:42:54.000Z</time>
      </trkpt>
      <trkpt lat="47.26366" lon="-2.32987">
        <ele>164</ele>
        <time>2022-03-31T10:42:56.000Z</time>
      </trkpt>
      <trkpt lat="47.26358" lon="-2.32974">
        <ele>164</ele>
        <time>2022-03-31T10:42:58.000Z</time>
      </trkpt>
      <trkpt lat="47.26346" lon="-2.32956">
        <ele>164</ele>
        <time>2022-03-31T10:43:01.000Z</time>
      </trkpt>
      <trkpt lat="47.2634" lon="-2.32939">
        <ele>164</ele>
        <time>2022-03-31T10:43:03.000Z</time>
      </trkpt>
      <trkpt lat="47.26331" lon="-2.32908">
        <ele>164</ele>
        <time>2022-03-31T10:43:07.000Z</time>
      </trkpt>
      <trkpt lat="47.26317" lon="-2.3287">
        <ele>164</ele>
        <time>2022-03-31T10:43:12.000Z</time>
      </trkpt>
      <trkpt lat="47.26313" lon="-2.32864">
        <ele>164</ele>
        <time>2022-03-31T10:43:13.000Z</time>
      </trkpt>
      <trkpt lat="47.26297" lon="-2.32856">
        <ele>164</ele>
        <time>2022-03-31T10:43:16.000Z</time>
      </trkpt>
      <trkpt lat="47.26286" lon="-2.32839">
        <ele>164</ele>
        <time>2022-03-31T10:43:19.000Z</time>
      </trkpt>
      <trkpt lat="47.26282" lon="-2.32808">
        <ele>164</ele>
        <time>2022-03-31T10:43:23.000Z</time>
      </trkpt>
      <trkpt lat="47.26275" lon="-2.32785">
        <ele>164</ele>
        <time>2022-03-31T10:43:26.000Z</time>
      </trkpt>
      <trkpt lat="47.26268" lon="-2.32772">
        <ele>164</ele>
        <time>2022-03-31T10:43:28.000Z</time>
      </trkpt>
      <trkpt lat="47.26248" lon="-2.32742">
        <ele>164</ele>
        <time>2022-03-31T10:43:33.000Z</time>
      </trkpt>
      <trkpt lat="47.26224" lon="-2.32707">
        <ele>164.39999389648</ele>
        <time>2022-03-31T10:43:39.000Z</time>
      </trkpt>
      <trkpt lat="47.26219" lon="-2.32702">
        <ele>164.80000305176</ele>
        <time>2022-03-31T10:43:40.000Z</time>
      </trkpt>
      <trkpt lat="47.26215" lon="-2.32697">
        <ele>165.19999694824</ele>
        <time>2022-03-31T10:43:41.000Z</time>
      </trkpt>
      <trkpt lat="47.26211" lon="-2.32692">
        <ele>165.60000610352</ele>
        <time>2022-03-31T10:43:42.000Z</time>
      </trkpt>
      <trkpt lat="47.26207" lon="-2.32686">
        <ele>166</ele>
        <time>2022-03-31T10:43:43.000Z</time>
      </trkpt>
      <trkpt lat="47.26185" lon="-2.32662">
        <ele>166</ele>
        <time>2022-03-31T10:43:48.000Z</time>
      </trkpt>
      <trkpt lat="47.26153" lon="-2.32643">
        <ele>166</ele>
        <time>2022-03-31T10:43:54.000Z</time>
      </trkpt>
      <trkpt lat="47.26119" lon="-2.32635">
        <ele>166</ele>
        <time>2022-03-31T10:44:00.000Z</time>
      </trkpt>
      <trkpt lat="47.26113" lon="-2.32635">
        <ele>166</ele>
        <time>2022-03-31T10:44:01.000Z</time>
      </trkpt>
      <trkpt lat="47.2607" lon="-2.32641">
        <ele>166</ele>
        <time>2022-03-31T10:44:08.000Z</time>
      </trkpt>
      <trkpt lat="47.26014" lon="-2.32651">
        <ele>166</ele>
        <time>2022-03-31T10:44:17.000Z</time>
      </trkpt>
      <trkpt lat="47.26008" lon="-2.32652">
        <ele>166</ele>
        <time>2022-03-31T10:44:18.000Z</time>
      </trkpt>
      <trkpt lat="47.25978" lon="-2.32655">
        <ele>166</ele>
        <time>2022-03-31T10:44:23.000Z</time>
      </trkpt>
      <trkpt lat="47.25972" lon="-2.32654">
        <ele>166</ele>
        <time>2022-03-31T10:44:24.000Z</time>
      </trkpt>
      <trkpt lat="47.25966" lon="-2.32655">
        <ele>166</ele>
        <time>2022-03-31T10:44:25.000Z</time>
      </trkpt>
      <trkpt lat="47.25949" lon="-2.32652">
        <ele>166</ele>
        <time>2022-03-31T10:44:28.000Z</time>
      </trkpt>
      <trkpt lat="47.25935" lon="-2.32634">
        <ele>166</ele>
        <time>2022-03-31T10:44:32.000Z</time>
      </trkpt>
      <trkpt lat="47.25923" lon="-2.32617">
        <ele>166</ele>
        <time>2022-03-31T10:44:35.000Z</time>
      </trkpt>
      <trkpt lat="47.25915" lon="-2.32606">
        <ele>166</ele>
        <time>2022-03-31T10:44:37.000Z</time>
      </trkpt>
      <trkpt lat="47.25896" lon="-2.32582">
        <ele>166</ele>
        <time>2022-03-31T10:44:41.000Z</time>
      </trkpt>
      <trkpt lat="47.25884" lon="-2.32575">
        <ele>166</ele>
        <time>2022-03-31T10:44:43.000Z</time>
      </trkpt>
      <trkpt lat="47.25871" lon="-2.32558">
        <ele>166</ele>
        <time>2022-03-31T10:44:46.000Z</time>
      </trkpt>
      <trkpt lat="47.25867" lon="-2.32551">
        <ele>166</ele>
        <time>2022-03-31T10:44:47.000Z</time>
      </trkpt>
      <trkpt lat="47.25831" lon="-2.325">
        <ele>166</ele>
        <time>2022-03-31T10:44:56.000Z</time>
      </trkpt>
      <trkpt lat="47.25826" lon="-2.32486">
        <ele>166</ele>
        <time>2022-03-31T10:44:59.000Z</time>
      </trkpt>
      <trkpt lat="47.25827" lon="-2.32483">
        <ele>166</ele>
        <time>2022-03-31T10:45:00.000Z</time>
      </trkpt>
      <trkpt lat="47.25837" lon="-2.32482">
        <ele>166</ele>
        <time>2022-03-31T10:45:03.000Z</time>
      </trkpt>
      <trkpt lat="47.25842" lon="-2.32484">
        <ele>166</ele>
        <time>2022-03-31T10:45:04.000Z</time>
      </trkpt>
      <trkpt lat="47.25856" lon="-2.32485">
        <ele>166</ele>
        <time>2022-03-31T10:45:07.000Z</time>
      </trkpt>
      <trkpt lat="47.25865" lon="-2.32486">
        <ele>166</ele>
        <time>2022-03-31T10:45:09.000Z</time>
      </trkpt>
      <trkpt lat="47.2588" lon="-2.32487">
        <ele>166</ele>
        <time>2022-03-31T10:45:12.000Z</time>
      </trkpt>
      <trkpt lat="47.25889" lon="-2.32478">
        <ele>166</ele>
        <time>2022-03-31T10:45:14.000Z</time>
      </trkpt>
      <trkpt lat="47.25898" lon="-2.32458">
        <ele>166</ele>
        <time>2022-03-31T10:45:18.000Z</time>
      </trkpt>
      <trkpt lat="47.25914" lon="-2.32438">
        <ele>166</ele>
        <time>2022-03-31T10:45:22.000Z</time>
      </trkpt>
      <trkpt lat="47.25918" lon="-2.32432">
        <ele>166</ele>
        <time>2022-03-31T10:45:23.000Z</time>
      </trkpt>
      <trkpt lat="47.25946" lon="-2.32396">
        <ele>166</ele>
        <time>2022-03-31T10:45:30.000Z</time>
      </trkpt>
      <trkpt lat="47.2598" lon="-2.32354">
        <ele>166</ele>
        <time>2022-03-31T10:45:38.000Z</time>
      </trkpt>
      <trkpt lat="47.26016" lon="-2.32309">
        <ele>166</ele>
        <time>2022-03-31T10:45:47.000Z</time>
      </trkpt>
      <trkpt lat="47.26044" lon="-2.32278">
        <ele>166</ele>
        <time>2022-03-31T10:45:54.000Z</time>
      </trkpt>
      <trkpt lat="47.26073" lon="-2.32244">
        <ele>166</ele>
        <time>2022-03-31T10:46:01.000Z</time>
      </trkpt>
      <trkpt lat="47.26103" lon="-2.32198">
        <ele>166</ele>
        <time>2022-03-31T10:46:09.000Z</time>
      </trkpt>
      <trkpt lat="47.26117" lon="-2.32163">
        <ele>166</ele>
        <time>2022-03-31T10:46:14.000Z</time>
      </trkpt>
      <trkpt lat="47.26122" lon="-2.32149">
        <ele>166</ele>
        <time>2022-03-31T10:46:16.000Z</time>
      </trkpt>
      <trkpt lat="47.26129" lon="-2.32128">
        <ele>165.60000610352</ele>
        <time>2022-03-31T10:46:19.000Z</time>
      </trkpt>
      <trkpt lat="47.26131" lon="-2.3212">
        <ele>165.19999694824</ele>
        <time>2022-03-31T10:46:20.000Z</time>
      </trkpt>
      <trkpt lat="47.26132" lon="-2.32114">
        <ele>164.80000305176</ele>
        <time>2022-03-31T10:46:21.000Z</time>
      </trkpt>
      <trkpt lat="47.26135" lon="-2.32106">
        <ele>164.39999389648</ele>
        <time>2022-03-31T10:46:22.000Z</time>
      </trkpt>
      <trkpt lat="47.26137" lon="-2.32099">
        <ele>163.80000305176</ele>
        <time>2022-03-31T10:46:23.000Z</time>
      </trkpt>
      <trkpt lat="47.26143" lon="-2.32079">
        <ele>163.80000305176</ele>
        <time>2022-03-31T10:46:26.000Z</time>
      </trkpt>
      <trkpt lat="47.2616" lon="-2.32029">
        <ele>163.80000305176</ele>
        <time>2022-03-31T10:46:34.000Z</time>
      </trkpt>
      <trkpt lat="47.2617" lon="-2.3202">
        <ele>163.80000305176</ele>
        <time>2022-03-31T10:46:37.000Z</time>
      </trkpt>
      <trkpt lat="47.26173" lon="-2.32021">
        <ele>163.80000305176</ele>
        <time>2022-03-31T10:46:38.000Z</time>
      </trkpt>
      <trkpt lat="47.2619" lon="-2.32025">
        <ele>163.80000305176</ele>
        <time>2022-03-31T10:46:44.000Z</time>
      </trkpt>
      <trkpt lat="47.26194" lon="-2.32024">
        <ele>163.80000305176</ele>
        <time>2022-03-31T10:46:46.000Z</time>
      </trkpt>
      <trkpt lat="47.26198" lon="-2.32016">
        <ele>163.80000305176</ele>
        <time>2022-03-31T10:46:48.000Z</time>
      </trkpt>
      <trkpt lat="47.26199" lon="-2.32008">
        <ele>163.80000305176</ele>
        <time>2022-03-31T10:46:50.000Z</time>
      </trkpt>
      <trkpt lat="47.26201" lon="-2.32005">
        <ele>163.80000305176</ele>
        <time>2022-03-31T10:46:51.000Z</time>
      </trkpt>
      <trkpt lat="47.26202" lon="-2.32003">
        <ele>163.80000305176</ele>
        <time>2022-03-31T10:46:52.000Z</time>
      </trkpt>
      <trkpt lat="47.26209" lon="-2.31999">
        <ele>163.80000305176</ele>
        <time>2022-03-31T10:46:55.000Z</time>
      </trkpt>
      <trkpt lat="47.26215" lon="-2.31993">
        <ele>163.80000305176</ele>
        <time>2022-03-31T10:46:57.000Z</time>
      </trkpt>
      <trkpt lat="47.26227" lon="-2.31981">
        <ele>163.80000305176</ele>
        <time>2022-03-31T10:47:01.000Z</time>
      </trkpt>
      <trkpt lat="47.2623" lon="-2.31981">
        <ele>163.80000305176</ele>
        <time>2022-03-31T10:47:02.000Z</time>
      </trkpt>
      <trkpt lat="47.26239" lon="-2.31972">
        <ele>163.80000305176</ele>
        <time>2022-03-31T10:47:05.000Z</time>
      </trkpt>
      <trkpt lat="47.26247" lon="-2.31952">
        <ele>163.80000305176</ele>
        <time>2022-03-31T10:47:09.000Z</time>
      </trkpt>
      <trkpt lat="47.2625" lon="-2.31948">
        <ele>163.80000305176</ele>
        <time>2022-03-31T10:47:10.000Z</time>
      </trkpt>
      <trkpt lat="47.26259" lon="-2.31935">
        <ele>163.80000305176</ele>
        <time>2022-03-31T10:47:13.000Z</time>
      </trkpt>
      <trkpt lat="47.26261" lon="-2.31932">
        <ele>163.80000305176</ele>
        <time>2022-03-31T10:47:14.000Z</time>
      </trkpt>
      <trkpt lat="47.26276" lon="-2.31907">
        <ele>163.80000305176</ele>
        <time>2022-03-31T10:47:20.000Z</time>
      </trkpt>
      <trkpt lat="47.26293" lon="-2.31893">
        <ele>163.80000305176</ele>
        <time>2022-03-31T10:47:24.000Z</time>
      </trkpt>
      <trkpt lat="47.26295" lon="-2.31888">
        <ele>163.80000305176</ele>
        <time>2022-03-31T10:47:25.000Z</time>
      </trkpt>
      <trkpt lat="47.26297" lon="-2.31876">
        <ele>163.80000305176</ele>
        <time>2022-03-31T10:47:27.000Z</time>
      </trkpt>
      <trkpt lat="47.263" lon="-2.31861">
        <ele>163.80000305176</ele>
        <time>2022-03-31T10:47:29.000Z</time>
      </trkpt>
      <trkpt lat="47.26301" lon="-2.31842">
        <ele>163.80000305176</ele>
        <time>2022-03-31T10:47:32.000Z</time>
      </trkpt>
      <trkpt lat="47.26304" lon="-2.31797">
        <ele>163.80000305176</ele>
        <time>2022-03-31T10:47:39.000Z</time>
      </trkpt>
      <trkpt lat="47.26303" lon="-2.31766">
        <ele>163.80000305176</ele>
        <time>2022-03-31T10:47:44.000Z</time>
      </trkpt>
      <trkpt lat="47.26302" lon="-2.31759">
        <ele>163.80000305176</ele>
        <time>2022-03-31T10:47:45.000Z</time>
      </trkpt>
      <trkpt lat="47.263" lon="-2.31722">
        <ele>163.80000305176</ele>
        <time>2022-03-31T10:47:51.000Z</time>
      </trkpt>
      <trkpt lat="47.26306" lon="-2.31711">
        <ele>163.80000305176</ele>
        <time>2022-03-31T10:47:54.000Z</time>
      </trkpt>
      <trkpt lat="47.2631" lon="-2.3171">
        <ele>163.80000305176</ele>
        <time>2022-03-31T10:47:55.000Z</time>
      </trkpt>
      <trkpt lat="47.26326" lon="-2.31704">
        <ele>163.80000305176</ele>
        <time>2022-03-31T10:47:59.000Z</time>
      </trkpt>
      <trkpt lat="47.26329" lon="-2.317">
        <ele>163.80000305176</ele>
        <time>2022-03-31T10:48:00.000Z</time>
      </trkpt>
      <trkpt lat="47.26333" lon="-2.31692">
        <ele>164.19999694824</ele>
        <time>2022-03-31T10:48:02.000Z</time>
      </trkpt>
      <trkpt lat="47.26336" lon="-2.31688">
        <ele>164.60000610352</ele>
        <time>2022-03-31T10:48:03.000Z</time>
      </trkpt>
      <trkpt lat="47.26338" lon="-2.31688">
        <ele>165.19999694824</ele>
        <time>2022-03-31T10:48:04.000Z</time>
      </trkpt>
      <trkpt lat="47.26341" lon="-2.31686">
        <ele>165.60000610352</ele>
        <time>2022-03-31T10:48:05.000Z</time>
      </trkpt>
      <trkpt lat="47.26344" lon="-2.31684">
        <ele>166</ele>
        <time>2022-03-31T10:48:06.000Z</time>
      </trkpt>
      <trkpt lat="47.26359" lon="-2.31675">
        <ele>166</ele>
        <time>2022-03-31T10:48:11.000Z</time>
      </trkpt>
      <trkpt lat="47.26367" lon="-2.31673">
        <ele>166.39999389648</ele>
        <time>2022-03-31T10:48:13.000Z</time>
      </trkpt>
      <trkpt lat="47.2637" lon="-2.31672">
        <ele>166.80000305176</ele>
        <time>2022-03-31T10:48:14.000Z</time>
      </trkpt>
      <trkpt lat="47.26374" lon="-2.31671">
        <ele>167.19999694824</ele>
        <time>2022-03-31T10:48:15.000Z</time>
      </trkpt>
      <trkpt lat="47.26377" lon="-2.31669">
        <ele>168</ele>
        <time>2022-03-31T10:48:16.000Z</time>
      </trkpt>
      <trkpt lat="47.26383" lon="-2.31666">
        <ele>168</ele>
        <time>2022-03-31T10:48:18.000Z</time>
      </trkpt>
      <trkpt lat="47.26402" lon="-2.31656">
        <ele>168</ele>
        <time>2022-03-31T10:48:25.000Z</time>
      </trkpt>
      <trkpt lat="47.2641" lon="-2.31645">
        <ele>168</ele>
        <time>2022-03-31T10:48:29.000Z</time>
      </trkpt>
      <trkpt lat="47.2641" lon="-2.31623">
        <ele>168</ele>
        <time>2022-03-31T10:48:34.000Z</time>
      </trkpt>
      <trkpt lat="47.26411" lon="-2.31593">
        <ele>168</ele>
        <time>2022-03-31T10:48:40.000Z</time>
      </trkpt>
      <trkpt lat="47.26412" lon="-2.31569">
        <ele>168</ele>
        <time>2022-03-31T10:48:45.000Z</time>
      </trkpt>
      <trkpt lat="47.26412" lon="-2.31564">
        <ele>168.39999389648</ele>
        <time>2022-03-31T10:48:46.000Z</time>
      </trkpt>
      <trkpt lat="47.26412" lon="-2.31561">
        <ele>168.80000305176</ele>
        <time>2022-03-31T10:48:47.000Z</time>
      </trkpt>
      <trkpt lat="47.26412" lon="-2.31557">
        <ele>169.19999694824</ele>
        <time>2022-03-31T10:48:48.000Z</time>
      </trkpt>
      <trkpt lat="47.26412" lon="-2.31554">
        <ele>169.60000610352</ele>
        <time>2022-03-31T10:48:49.000Z</time>
      </trkpt>
      <trkpt lat="47.26413" lon="-2.31551">
        <ele>170</ele>
        <time>2022-03-31T10:48:50.000Z</time>
      </trkpt>
      <trkpt lat="47.26415" lon="-2.3155">
        <ele>170</ele>
        <time>2022-03-31T10:48:51.000Z</time>
      </trkpt>
      <trkpt lat="47.26417" lon="-2.31552">
        <ele>170</ele>
        <time>2022-03-31T10:48:53.000Z</time>
      </trkpt>
      <trkpt lat="47.26419" lon="-2.31553">
        <ele>170</ele>
        <time>2022-03-31T10:48:57.000Z</time>
      </trkpt>
    </trkseg>
  </trk>
</gpx>